<?xml version="1.0" encoding="UTF-8" standalone="no" ?>
<gpx xmlns="http://www.topografix.com/GPX/1/1" xmlns:xsi="http://www.w3.org/2001/XMLSchema-instance" xsi:schemaLocation="http://www.topografix.com/GPX/1/1 http://www.topografix.com/GPX/1/1/gpx.xsd" version="1.1" creator="VisuGPX - https://www.visugpx.com">
  <metadata>
    <name>Camino primitivo &quot;SAN JUAN - BODENAYA&quot;</name>
    <desc><![CDATA[Etape 2 Albergue des pélerins de San juan peu après Grado jusqu'a la magnifique Albergue de Bodenaya. Accueil chaleureux après une étape magnifique malgré la brume matinale mais paysages superbes. Balisage parfait.]]></desc>
  </metadata>
  <trk>
    <name><![CDATA[2016-07-07-01]]></name>
    <trkseg>
      <trkpt lat="43.39181" lon="-6.09771">
        <ele>251.7</ele>
        <time>2016-07-07T05:05:18Z</time>
      </trkpt>
      <trkpt lat="43.39181" lon="-6.09772">
        <ele>252.1</ele>
        <time>2016-07-07T05:05:19Z</time>
      </trkpt>
      <trkpt lat="43.39185" lon="-6.09783">
        <ele>253.5</ele>
        <time>2016-07-07T05:05:30Z</time>
      </trkpt>
      <trkpt lat="43.39189" lon="-6.09795">
        <ele>252.9</ele>
        <time>2016-07-07T05:05:40Z</time>
      </trkpt>
      <trkpt lat="43.39189" lon="-6.09807">
        <ele>252.6</ele>
        <time>2016-07-07T05:05:53Z</time>
      </trkpt>
      <trkpt lat="43.39192" lon="-6.0982">
        <ele>253.9</ele>
        <time>2016-07-07T05:06:05Z</time>
      </trkpt>
      <trkpt lat="43.39191" lon="-6.09832">
        <ele>254.4</ele>
        <time>2016-07-07T05:06:14Z</time>
      </trkpt>
      <trkpt lat="43.39191" lon="-6.09845">
        <ele>254.7</ele>
        <time>2016-07-07T05:06:22Z</time>
      </trkpt>
      <trkpt lat="43.39192" lon="-6.09859">
        <ele>254.9</ele>
        <time>2016-07-07T05:06:32Z</time>
      </trkpt>
      <trkpt lat="43.39193" lon="-6.09871">
        <ele>254.9</ele>
        <time>2016-07-07T05:06:40Z</time>
      </trkpt>
      <trkpt lat="43.39195" lon="-6.09884">
        <ele>254.8</ele>
        <time>2016-07-07T05:06:49Z</time>
      </trkpt>
      <trkpt lat="43.39196" lon="-6.09896">
        <ele>254.8</ele>
        <time>2016-07-07T05:06:57Z</time>
      </trkpt>
      <trkpt lat="43.39199" lon="-6.09909">
        <ele>254.9</ele>
        <time>2016-07-07T05:07:05Z</time>
      </trkpt>
      <trkpt lat="43.39202" lon="-6.09922">
        <ele>255</ele>
        <time>2016-07-07T05:07:13Z</time>
      </trkpt>
      <trkpt lat="43.39205" lon="-6.09933">
        <ele>256.1</ele>
        <time>2016-07-07T05:07:46Z</time>
      </trkpt>
      <trkpt lat="43.39196" lon="-6.0994">
        <ele>256</ele>
        <time>2016-07-07T05:08:34Z</time>
      </trkpt>
      <trkpt lat="43.39191" lon="-6.0995">
        <ele>256.1</ele>
        <time>2016-07-07T05:08:42Z</time>
      </trkpt>
      <trkpt lat="43.39186" lon="-6.09961">
        <ele>255.5</ele>
        <time>2016-07-07T05:08:53Z</time>
      </trkpt>
      <trkpt lat="43.3918" lon="-6.09972">
        <ele>254.8</ele>
        <time>2016-07-07T05:09:02Z</time>
      </trkpt>
      <trkpt lat="43.39173" lon="-6.09981">
        <ele>254.2</ele>
        <time>2016-07-07T05:09:09Z</time>
      </trkpt>
      <trkpt lat="43.39168" lon="-6.09992">
        <ele>253.7</ele>
        <time>2016-07-07T05:09:16Z</time>
      </trkpt>
      <trkpt lat="43.39163" lon="-6.10003">
        <ele>253.3</ele>
        <time>2016-07-07T05:09:23Z</time>
      </trkpt>
      <trkpt lat="43.39156" lon="-6.10012">
        <ele>253.1</ele>
        <time>2016-07-07T05:09:30Z</time>
      </trkpt>
      <trkpt lat="43.39148" lon="-6.10018">
        <ele>252.8</ele>
        <time>2016-07-07T05:09:38Z</time>
      </trkpt>
      <trkpt lat="43.39139" lon="-6.10023">
        <ele>252</ele>
        <time>2016-07-07T05:09:46Z</time>
      </trkpt>
      <trkpt lat="43.39132" lon="-6.10031">
        <ele>251.3</ele>
        <time>2016-07-07T05:09:55Z</time>
      </trkpt>
      <trkpt lat="43.39125" lon="-6.10039">
        <ele>251</ele>
        <time>2016-07-07T05:10:03Z</time>
      </trkpt>
      <trkpt lat="43.39117" lon="-6.10048">
        <ele>250.7</ele>
        <time>2016-07-07T05:10:11Z</time>
      </trkpt>
      <trkpt lat="43.3911" lon="-6.10056">
        <ele>250.8</ele>
        <time>2016-07-07T05:10:19Z</time>
      </trkpt>
      <trkpt lat="43.39103" lon="-6.10067">
        <ele>250.7</ele>
        <time>2016-07-07T05:10:27Z</time>
      </trkpt>
      <trkpt lat="43.39097" lon="-6.10078">
        <ele>250.6</ele>
        <time>2016-07-07T05:10:34Z</time>
      </trkpt>
      <trkpt lat="43.39091" lon="-6.10088">
        <ele>250.3</ele>
        <time>2016-07-07T05:10:41Z</time>
      </trkpt>
      <trkpt lat="43.39084" lon="-6.10096">
        <ele>249.8</ele>
        <time>2016-07-07T05:10:48Z</time>
      </trkpt>
      <trkpt lat="43.39075" lon="-6.10103">
        <ele>249.5</ele>
        <time>2016-07-07T05:10:54Z</time>
      </trkpt>
      <trkpt lat="43.39073" lon="-6.10115">
        <ele>249.3</ele>
        <time>2016-07-07T05:11:02Z</time>
      </trkpt>
      <trkpt lat="43.39069" lon="-6.10127">
        <ele>249</ele>
        <time>2016-07-07T05:11:09Z</time>
      </trkpt>
      <trkpt lat="43.39064" lon="-6.10138">
        <ele>248.6</ele>
        <time>2016-07-07T05:11:16Z</time>
      </trkpt>
      <trkpt lat="43.3906" lon="-6.10151">
        <ele>248.1</ele>
        <time>2016-07-07T05:11:24Z</time>
      </trkpt>
      <trkpt lat="43.39056" lon="-6.10162">
        <ele>247.3</ele>
        <time>2016-07-07T05:11:31Z</time>
      </trkpt>
      <trkpt lat="43.39053" lon="-6.10175">
        <ele>247.3</ele>
        <time>2016-07-07T05:11:39Z</time>
      </trkpt>
      <trkpt lat="43.3905" lon="-6.10187">
        <ele>247.2</ele>
        <time>2016-07-07T05:11:47Z</time>
      </trkpt>
      <trkpt lat="43.39046" lon="-6.10199">
        <ele>247.1</ele>
        <time>2016-07-07T05:11:57Z</time>
      </trkpt>
      <trkpt lat="43.39043" lon="-6.10211">
        <ele>247</ele>
        <time>2016-07-07T05:12:04Z</time>
      </trkpt>
      <trkpt lat="43.39038" lon="-6.10222">
        <ele>247.2</ele>
        <time>2016-07-07T05:12:12Z</time>
      </trkpt>
      <trkpt lat="43.39031" lon="-6.10231">
        <ele>247.2</ele>
        <time>2016-07-07T05:12:19Z</time>
      </trkpt>
      <trkpt lat="43.39025" lon="-6.10242">
        <ele>246.9</ele>
        <time>2016-07-07T05:12:28Z</time>
      </trkpt>
      <trkpt lat="43.39021" lon="-6.10254">
        <ele>246.7</ele>
        <time>2016-07-07T05:12:36Z</time>
      </trkpt>
      <trkpt lat="43.39018" lon="-6.10266">
        <ele>246.6</ele>
        <time>2016-07-07T05:12:42Z</time>
      </trkpt>
      <trkpt lat="43.39014" lon="-6.10278">
        <ele>246.3</ele>
        <time>2016-07-07T05:12:49Z</time>
      </trkpt>
      <trkpt lat="43.3901" lon="-6.10289">
        <ele>246</ele>
        <time>2016-07-07T05:12:57Z</time>
      </trkpt>
      <trkpt lat="43.39006" lon="-6.10301">
        <ele>244.9</ele>
        <time>2016-07-07T05:13:06Z</time>
      </trkpt>
      <trkpt lat="43.39003" lon="-6.10314">
        <ele>243.3</ele>
        <time>2016-07-07T05:13:16Z</time>
      </trkpt>
      <trkpt lat="43.39" lon="-6.10327">
        <ele>242.2</ele>
        <time>2016-07-07T05:13:24Z</time>
      </trkpt>
      <trkpt lat="43.38999" lon="-6.1034">
        <ele>241</ele>
        <time>2016-07-07T05:13:32Z</time>
      </trkpt>
      <trkpt lat="43.38997" lon="-6.10354">
        <ele>239.6</ele>
        <time>2016-07-07T05:13:41Z</time>
      </trkpt>
      <trkpt lat="43.38994" lon="-6.10367">
        <ele>238.8</ele>
        <time>2016-07-07T05:13:49Z</time>
      </trkpt>
      <trkpt lat="43.38991" lon="-6.10379">
        <ele>237.9</ele>
        <time>2016-07-07T05:13:57Z</time>
      </trkpt>
      <trkpt lat="43.38988" lon="-6.10391">
        <ele>236.8</ele>
        <time>2016-07-07T05:14:05Z</time>
      </trkpt>
      <trkpt lat="43.38985" lon="-6.10403">
        <ele>235.7</ele>
        <time>2016-07-07T05:14:14Z</time>
      </trkpt>
      <trkpt lat="43.38984" lon="-6.10416">
        <ele>235.1</ele>
        <time>2016-07-07T05:14:22Z</time>
      </trkpt>
      <trkpt lat="43.38978" lon="-6.10426">
        <ele>234.4</ele>
        <time>2016-07-07T05:14:31Z</time>
      </trkpt>
      <trkpt lat="43.38969" lon="-6.10429">
        <ele>234.2</ele>
        <time>2016-07-07T05:14:40Z</time>
      </trkpt>
      <trkpt lat="43.38959" lon="-6.10428">
        <ele>234.8</ele>
        <time>2016-07-07T05:14:47Z</time>
      </trkpt>
      <trkpt lat="43.3895" lon="-6.10425">
        <ele>235.6</ele>
        <time>2016-07-07T05:14:55Z</time>
      </trkpt>
      <trkpt lat="43.38941" lon="-6.10425">
        <ele>236.6</ele>
        <time>2016-07-07T05:15:03Z</time>
      </trkpt>
      <trkpt lat="43.38932" lon="-6.10427">
        <ele>237.7</ele>
        <time>2016-07-07T05:15:10Z</time>
      </trkpt>
      <trkpt lat="43.38922" lon="-6.10432">
        <ele>238.9</ele>
        <time>2016-07-07T05:15:18Z</time>
      </trkpt>
      <trkpt lat="43.38914" lon="-6.10439">
        <ele>239.7</ele>
        <time>2016-07-07T05:15:26Z</time>
      </trkpt>
      <trkpt lat="43.38907" lon="-6.10448">
        <ele>240.2</ele>
        <time>2016-07-07T05:15:33Z</time>
      </trkpt>
      <trkpt lat="43.389" lon="-6.10455">
        <ele>240.5</ele>
        <time>2016-07-07T05:15:41Z</time>
      </trkpt>
      <trkpt lat="43.38892" lon="-6.10463">
        <ele>240.8</ele>
        <time>2016-07-07T05:15:49Z</time>
      </trkpt>
      <trkpt lat="43.38884" lon="-6.1047">
        <ele>240.7</ele>
        <time>2016-07-07T05:15:56Z</time>
      </trkpt>
      <trkpt lat="43.38876" lon="-6.10477">
        <ele>240.5</ele>
        <time>2016-07-07T05:16:05Z</time>
      </trkpt>
      <trkpt lat="43.38869" lon="-6.10485">
        <ele>240.3</ele>
        <time>2016-07-07T05:16:13Z</time>
      </trkpt>
      <trkpt lat="43.38862" lon="-6.10492">
        <ele>240.1</ele>
        <time>2016-07-07T05:16:21Z</time>
      </trkpt>
      <trkpt lat="43.38855" lon="-6.10501">
        <ele>240</ele>
        <time>2016-07-07T05:16:30Z</time>
      </trkpt>
      <trkpt lat="43.38847" lon="-6.10507">
        <ele>239.5</ele>
        <time>2016-07-07T05:16:37Z</time>
      </trkpt>
      <trkpt lat="43.38839" lon="-6.10513">
        <ele>239</ele>
        <time>2016-07-07T05:16:44Z</time>
      </trkpt>
      <trkpt lat="43.38831" lon="-6.10519">
        <ele>238.6</ele>
        <time>2016-07-07T05:16:51Z</time>
      </trkpt>
      <trkpt lat="43.38822" lon="-6.10522">
        <ele>238.4</ele>
        <time>2016-07-07T05:16:57Z</time>
      </trkpt>
      <trkpt lat="43.38813" lon="-6.10524">
        <ele>238.7</ele>
        <time>2016-07-07T05:17:03Z</time>
      </trkpt>
      <trkpt lat="43.38803" lon="-6.10524">
        <ele>239</ele>
        <time>2016-07-07T05:17:10Z</time>
      </trkpt>
      <trkpt lat="43.38793" lon="-6.10527">
        <ele>239.5</ele>
        <time>2016-07-07T05:17:19Z</time>
      </trkpt>
      <trkpt lat="43.3879" lon="-6.1054">
        <ele>240.8</ele>
        <time>2016-07-07T05:17:29Z</time>
      </trkpt>
      <trkpt lat="43.38788" lon="-6.10553">
        <ele>242.3</ele>
        <time>2016-07-07T05:17:38Z</time>
      </trkpt>
      <trkpt lat="43.38787" lon="-6.10566">
        <ele>243.3</ele>
        <time>2016-07-07T05:17:47Z</time>
      </trkpt>
      <trkpt lat="43.38786" lon="-6.10579">
        <ele>244</ele>
        <time>2016-07-07T05:17:56Z</time>
      </trkpt>
      <trkpt lat="43.38785" lon="-6.10592">
        <ele>245.2</ele>
        <time>2016-07-07T05:18:07Z</time>
      </trkpt>
      <trkpt lat="43.38784" lon="-6.10605">
        <ele>246.6</ele>
        <time>2016-07-07T05:18:18Z</time>
      </trkpt>
      <trkpt lat="43.38785" lon="-6.10618">
        <ele>248.1</ele>
        <time>2016-07-07T05:18:29Z</time>
      </trkpt>
      <trkpt lat="43.38788" lon="-6.10631">
        <ele>249.9</ele>
        <time>2016-07-07T05:18:40Z</time>
      </trkpt>
      <trkpt lat="43.38788" lon="-6.10645">
        <ele>251.3</ele>
        <time>2016-07-07T05:18:50Z</time>
      </trkpt>
      <trkpt lat="43.38785" lon="-6.10657">
        <ele>253.3</ele>
        <time>2016-07-07T05:19:02Z</time>
      </trkpt>
      <trkpt lat="43.38784" lon="-6.10669">
        <ele>254.5</ele>
        <time>2016-07-07T05:19:11Z</time>
      </trkpt>
      <trkpt lat="43.38782" lon="-6.10682">
        <ele>255.6</ele>
        <time>2016-07-07T05:19:19Z</time>
      </trkpt>
      <trkpt lat="43.38781" lon="-6.10696">
        <ele>256.8</ele>
        <time>2016-07-07T05:19:29Z</time>
      </trkpt>
      <trkpt lat="43.38775" lon="-6.10706">
        <ele>258.7</ele>
        <time>2016-07-07T05:19:41Z</time>
      </trkpt>
      <trkpt lat="43.38771" lon="-6.10718">
        <ele>260.2</ele>
        <time>2016-07-07T05:19:50Z</time>
      </trkpt>
      <trkpt lat="43.38766" lon="-6.10729">
        <ele>261.9</ele>
        <time>2016-07-07T05:20:00Z</time>
      </trkpt>
      <trkpt lat="43.3876" lon="-6.1074">
        <ele>263.2</ele>
        <time>2016-07-07T05:20:09Z</time>
      </trkpt>
      <trkpt lat="43.38753" lon="-6.10748">
        <ele>264.5</ele>
        <time>2016-07-07T05:20:17Z</time>
      </trkpt>
      <trkpt lat="43.38746" lon="-6.10757">
        <ele>266.1</ele>
        <time>2016-07-07T05:20:26Z</time>
      </trkpt>
      <trkpt lat="43.38738" lon="-6.10764">
        <ele>267.6</ele>
        <time>2016-07-07T05:20:34Z</time>
      </trkpt>
      <trkpt lat="43.38729" lon="-6.1077">
        <ele>268.7</ele>
        <time>2016-07-07T05:20:42Z</time>
      </trkpt>
      <trkpt lat="43.38723" lon="-6.1078">
        <ele>270</ele>
        <time>2016-07-07T05:20:50Z</time>
      </trkpt>
      <trkpt lat="43.38718" lon="-6.10791">
        <ele>272</ele>
        <time>2016-07-07T05:21:03Z</time>
      </trkpt>
      <trkpt lat="43.3871" lon="-6.10798">
        <ele>273.7</ele>
        <time>2016-07-07T05:21:25Z</time>
      </trkpt>
      <trkpt lat="43.38705" lon="-6.10809">
        <ele>274.4</ele>
        <time>2016-07-07T05:21:41Z</time>
      </trkpt>
      <trkpt lat="43.38704" lon="-6.10822">
        <ele>274.5</ele>
        <time>2016-07-07T05:21:51Z</time>
      </trkpt>
      <trkpt lat="43.38705" lon="-6.10835">
        <ele>275.3</ele>
        <time>2016-07-07T05:22:00Z</time>
      </trkpt>
      <trkpt lat="43.38701" lon="-6.10847">
        <ele>275.9</ele>
        <time>2016-07-07T05:22:09Z</time>
      </trkpt>
      <trkpt lat="43.38695" lon="-6.10859">
        <ele>276.4</ele>
        <time>2016-07-07T05:22:17Z</time>
      </trkpt>
      <trkpt lat="43.38689" lon="-6.1087">
        <ele>276.8</ele>
        <time>2016-07-07T05:22:26Z</time>
      </trkpt>
      <trkpt lat="43.38684" lon="-6.1088">
        <ele>277.4</ele>
        <time>2016-07-07T05:22:34Z</time>
      </trkpt>
      <trkpt lat="43.38677" lon="-6.1089">
        <ele>278.3</ele>
        <time>2016-07-07T05:22:44Z</time>
      </trkpt>
      <trkpt lat="43.38669" lon="-6.10897">
        <ele>279.6</ele>
        <time>2016-07-07T05:22:57Z</time>
      </trkpt>
      <trkpt lat="43.38661" lon="-6.10902">
        <ele>280.3</ele>
        <time>2016-07-07T05:23:06Z</time>
      </trkpt>
      <trkpt lat="43.38654" lon="-6.10912">
        <ele>281.2</ele>
        <time>2016-07-07T05:23:16Z</time>
      </trkpt>
      <trkpt lat="43.38648" lon="-6.10921">
        <ele>283.7</ele>
        <time>2016-07-07T05:23:32Z</time>
      </trkpt>
      <trkpt lat="43.38643" lon="-6.10932">
        <ele>285.4</ele>
        <time>2016-07-07T05:23:43Z</time>
      </trkpt>
      <trkpt lat="43.38638" lon="-6.10942">
        <ele>287.3</ele>
        <time>2016-07-07T05:23:54Z</time>
      </trkpt>
      <trkpt lat="43.38632" lon="-6.10952">
        <ele>289.4</ele>
        <time>2016-07-07T05:24:03Z</time>
      </trkpt>
      <trkpt lat="43.38626" lon="-6.10963">
        <ele>291.4</ele>
        <time>2016-07-07T05:24:14Z</time>
      </trkpt>
      <trkpt lat="43.38624" lon="-6.10976">
        <ele>293.2</ele>
        <time>2016-07-07T05:24:25Z</time>
      </trkpt>
      <trkpt lat="43.38622" lon="-6.10989">
        <ele>295.8</ele>
        <time>2016-07-07T05:24:40Z</time>
      </trkpt>
      <trkpt lat="43.38623" lon="-6.11002">
        <ele>297.4</ele>
        <time>2016-07-07T05:24:50Z</time>
      </trkpt>
      <trkpt lat="43.38624" lon="-6.11015">
        <ele>299</ele>
        <time>2016-07-07T05:24:58Z</time>
      </trkpt>
      <trkpt lat="43.38627" lon="-6.11027">
        <ele>300.9</ele>
        <time>2016-07-07T05:25:08Z</time>
      </trkpt>
      <trkpt lat="43.38629" lon="-6.11041">
        <ele>302.9</ele>
        <time>2016-07-07T05:25:18Z</time>
      </trkpt>
      <trkpt lat="43.38628" lon="-6.11054">
        <ele>304.1</ele>
        <time>2016-07-07T05:25:28Z</time>
      </trkpt>
      <trkpt lat="43.38627" lon="-6.11066">
        <ele>305.4</ele>
        <time>2016-07-07T05:25:37Z</time>
      </trkpt>
      <trkpt lat="43.38627" lon="-6.11079">
        <ele>307.2</ele>
        <time>2016-07-07T05:25:48Z</time>
      </trkpt>
      <trkpt lat="43.38625" lon="-6.11091">
        <ele>308.6</ele>
        <time>2016-07-07T05:25:57Z</time>
      </trkpt>
      <trkpt lat="43.38623" lon="-6.11104">
        <ele>310.3</ele>
        <time>2016-07-07T05:26:06Z</time>
      </trkpt>
      <trkpt lat="43.38623" lon="-6.11118">
        <ele>310.8</ele>
        <time>2016-07-07T05:26:15Z</time>
      </trkpt>
      <trkpt lat="43.38622" lon="-6.1113">
        <ele>311.8</ele>
        <time>2016-07-07T05:26:23Z</time>
      </trkpt>
      <trkpt lat="43.38621" lon="-6.11143">
        <ele>312.7</ele>
        <time>2016-07-07T05:26:31Z</time>
      </trkpt>
      <trkpt lat="43.38619" lon="-6.11157">
        <ele>313.5</ele>
        <time>2016-07-07T05:26:40Z</time>
      </trkpt>
      <trkpt lat="43.38618" lon="-6.11169">
        <ele>314.8</ele>
        <time>2016-07-07T05:26:48Z</time>
      </trkpt>
      <trkpt lat="43.38612" lon="-6.1118">
        <ele>316.3</ele>
        <time>2016-07-07T05:27:37Z</time>
      </trkpt>
      <trkpt lat="43.38612" lon="-6.11193">
        <ele>316.6</ele>
        <time>2016-07-07T05:27:47Z</time>
      </trkpt>
      <trkpt lat="43.38613" lon="-6.11205">
        <ele>316.7</ele>
        <time>2016-07-07T05:27:57Z</time>
      </trkpt>
      <trkpt lat="43.38615" lon="-6.11218">
        <ele>317.1</ele>
        <time>2016-07-07T05:28:07Z</time>
      </trkpt>
      <trkpt lat="43.38615" lon="-6.11231">
        <ele>318</ele>
        <time>2016-07-07T05:28:18Z</time>
      </trkpt>
      <trkpt lat="43.38614" lon="-6.11243">
        <ele>318.4</ele>
        <time>2016-07-07T05:28:30Z</time>
      </trkpt>
      <trkpt lat="43.38616" lon="-6.11256">
        <ele>319.2</ele>
        <time>2016-07-07T05:28:40Z</time>
      </trkpt>
      <trkpt lat="43.38619" lon="-6.11267">
        <ele>319.7</ele>
        <time>2016-07-07T05:28:47Z</time>
      </trkpt>
      <trkpt lat="43.38619" lon="-6.1128">
        <ele>320.3</ele>
        <time>2016-07-07T05:28:56Z</time>
      </trkpt>
      <trkpt lat="43.3862" lon="-6.11294">
        <ele>320.6</ele>
        <time>2016-07-07T05:29:05Z</time>
      </trkpt>
      <trkpt lat="43.38623" lon="-6.11307">
        <ele>321.3</ele>
        <time>2016-07-07T05:29:13Z</time>
      </trkpt>
      <trkpt lat="43.38619" lon="-6.1132">
        <ele>322.3</ele>
        <time>2016-07-07T05:29:22Z</time>
      </trkpt>
      <trkpt lat="43.38614" lon="-6.11331">
        <ele>322.6</ele>
        <time>2016-07-07T05:29:29Z</time>
      </trkpt>
      <trkpt lat="43.38615" lon="-6.11344">
        <ele>322.9</ele>
        <time>2016-07-07T05:29:37Z</time>
      </trkpt>
      <trkpt lat="43.38617" lon="-6.11357">
        <ele>323</ele>
        <time>2016-07-07T05:29:44Z</time>
      </trkpt>
      <trkpt lat="43.3862" lon="-6.1137">
        <ele>323</ele>
        <time>2016-07-07T05:29:53Z</time>
      </trkpt>
      <trkpt lat="43.38621" lon="-6.11384">
        <ele>323.1</ele>
        <time>2016-07-07T05:30:02Z</time>
      </trkpt>
      <trkpt lat="43.3862" lon="-6.11396">
        <ele>323.4</ele>
        <time>2016-07-07T05:30:10Z</time>
      </trkpt>
      <trkpt lat="43.38617" lon="-6.11409">
        <ele>324.4</ele>
        <time>2016-07-07T05:30:18Z</time>
      </trkpt>
      <trkpt lat="43.38615" lon="-6.1142">
        <ele>325.4</ele>
        <time>2016-07-07T05:30:25Z</time>
      </trkpt>
      <trkpt lat="43.38611" lon="-6.11432">
        <ele>326.3</ele>
        <time>2016-07-07T05:30:34Z</time>
      </trkpt>
      <trkpt lat="43.38606" lon="-6.11444">
        <ele>327.3</ele>
        <time>2016-07-07T05:30:44Z</time>
      </trkpt>
      <trkpt lat="43.38601" lon="-6.11457">
        <ele>328.2</ele>
        <time>2016-07-07T05:30:53Z</time>
      </trkpt>
      <trkpt lat="43.38596" lon="-6.11468">
        <ele>328.9</ele>
        <time>2016-07-07T05:31:01Z</time>
      </trkpt>
      <trkpt lat="43.38591" lon="-6.1148">
        <ele>329.6</ele>
        <time>2016-07-07T05:31:09Z</time>
      </trkpt>
      <trkpt lat="43.38585" lon="-6.11492">
        <ele>330.6</ele>
        <time>2016-07-07T05:31:18Z</time>
      </trkpt>
      <trkpt lat="43.3858" lon="-6.11502">
        <ele>331.7</ele>
        <time>2016-07-07T05:31:28Z</time>
      </trkpt>
      <trkpt lat="43.38572" lon="-6.1151">
        <ele>332.7</ele>
        <time>2016-07-07T05:31:37Z</time>
      </trkpt>
      <trkpt lat="43.38565" lon="-6.11519">
        <ele>333.5</ele>
        <time>2016-07-07T05:31:45Z</time>
      </trkpt>
      <trkpt lat="43.38559" lon="-6.1153">
        <ele>334.2</ele>
        <time>2016-07-07T05:31:53Z</time>
      </trkpt>
      <trkpt lat="43.38553" lon="-6.1154">
        <ele>334.5</ele>
        <time>2016-07-07T05:32:01Z</time>
      </trkpt>
      <trkpt lat="43.38547" lon="-6.11551">
        <ele>334.7</ele>
        <time>2016-07-07T05:32:09Z</time>
      </trkpt>
      <trkpt lat="43.38542" lon="-6.11562">
        <ele>334.5</ele>
        <time>2016-07-07T05:32:16Z</time>
      </trkpt>
      <trkpt lat="43.38537" lon="-6.11573">
        <ele>334.1</ele>
        <time>2016-07-07T05:32:23Z</time>
      </trkpt>
      <trkpt lat="43.38534" lon="-6.11585">
        <ele>333.2</ele>
        <time>2016-07-07T05:32:31Z</time>
      </trkpt>
      <trkpt lat="43.3853" lon="-6.11597">
        <ele>332.7</ele>
        <time>2016-07-07T05:32:39Z</time>
      </trkpt>
      <trkpt lat="43.38528" lon="-6.1161">
        <ele>332.5</ele>
        <time>2016-07-07T05:32:48Z</time>
      </trkpt>
      <trkpt lat="43.38526" lon="-6.11624">
        <ele>332.4</ele>
        <time>2016-07-07T05:32:57Z</time>
      </trkpt>
      <trkpt lat="43.38527" lon="-6.11638">
        <ele>332.3</ele>
        <time>2016-07-07T05:33:07Z</time>
      </trkpt>
      <trkpt lat="43.38531" lon="-6.1165">
        <ele>332.1</ele>
        <time>2016-07-07T05:33:14Z</time>
      </trkpt>
      <trkpt lat="43.38533" lon="-6.11663">
        <ele>332</ele>
        <time>2016-07-07T05:33:22Z</time>
      </trkpt>
      <trkpt lat="43.38533" lon="-6.11676">
        <ele>331.9</ele>
        <time>2016-07-07T05:33:30Z</time>
      </trkpt>
      <trkpt lat="43.38532" lon="-6.11689">
        <ele>331.9</ele>
        <time>2016-07-07T05:33:37Z</time>
      </trkpt>
      <trkpt lat="43.3853" lon="-6.11703">
        <ele>331.9</ele>
        <time>2016-07-07T05:33:45Z</time>
      </trkpt>
      <trkpt lat="43.38529" lon="-6.11716">
        <ele>332.2</ele>
        <time>2016-07-07T05:33:53Z</time>
      </trkpt>
      <trkpt lat="43.38529" lon="-6.11729">
        <ele>332.4</ele>
        <time>2016-07-07T05:34:02Z</time>
      </trkpt>
      <trkpt lat="43.3853" lon="-6.11742">
        <ele>332.6</ele>
        <time>2016-07-07T05:34:09Z</time>
      </trkpt>
      <trkpt lat="43.38528" lon="-6.11756">
        <ele>332.8</ele>
        <time>2016-07-07T05:34:17Z</time>
      </trkpt>
      <trkpt lat="43.38528" lon="-6.11769">
        <ele>333</ele>
        <time>2016-07-07T05:34:24Z</time>
      </trkpt>
      <trkpt lat="43.38527" lon="-6.11782">
        <ele>333.5</ele>
        <time>2016-07-07T05:34:31Z</time>
      </trkpt>
      <trkpt lat="43.38526" lon="-6.11795">
        <ele>334</ele>
        <time>2016-07-07T05:34:39Z</time>
      </trkpt>
      <trkpt lat="43.38524" lon="-6.11808">
        <ele>334.4</ele>
        <time>2016-07-07T05:34:47Z</time>
      </trkpt>
      <trkpt lat="43.38521" lon="-6.11821">
        <ele>335</ele>
        <time>2016-07-07T05:34:56Z</time>
      </trkpt>
      <trkpt lat="43.38518" lon="-6.11833">
        <ele>336</ele>
        <time>2016-07-07T05:35:06Z</time>
      </trkpt>
      <trkpt lat="43.38515" lon="-6.11846">
        <ele>336.7</ele>
        <time>2016-07-07T05:35:15Z</time>
      </trkpt>
      <trkpt lat="43.38511" lon="-6.11859">
        <ele>337.4</ele>
        <time>2016-07-07T05:35:24Z</time>
      </trkpt>
      <trkpt lat="43.38508" lon="-6.11871">
        <ele>338.6</ele>
        <time>2016-07-07T05:35:32Z</time>
      </trkpt>
      <trkpt lat="43.38503" lon="-6.11882">
        <ele>339.5</ele>
        <time>2016-07-07T05:35:42Z</time>
      </trkpt>
      <trkpt lat="43.38495" lon="-6.11888">
        <ele>340.6</ele>
        <time>2016-07-07T05:35:52Z</time>
      </trkpt>
      <trkpt lat="43.38486" lon="-6.11893">
        <ele>341.8</ele>
        <time>2016-07-07T05:36:03Z</time>
      </trkpt>
      <trkpt lat="43.3848" lon="-6.11903">
        <ele>343.6</ele>
        <time>2016-07-07T05:36:14Z</time>
      </trkpt>
      <trkpt lat="43.3848" lon="-6.11916">
        <ele>345.6</ele>
        <time>2016-07-07T05:36:25Z</time>
      </trkpt>
      <trkpt lat="43.38477" lon="-6.11928">
        <ele>347.6</ele>
        <time>2016-07-07T05:36:35Z</time>
      </trkpt>
      <trkpt lat="43.38471" lon="-6.11937">
        <ele>349.5</ele>
        <time>2016-07-07T05:36:44Z</time>
      </trkpt>
      <trkpt lat="43.38464" lon="-6.11946">
        <ele>351.5</ele>
        <time>2016-07-07T05:36:54Z</time>
      </trkpt>
      <trkpt lat="43.38461" lon="-6.11959">
        <ele>353.9</ele>
        <time>2016-07-07T05:37:05Z</time>
      </trkpt>
      <trkpt lat="43.38457" lon="-6.1197">
        <ele>358.2</ele>
        <time>2016-07-07T05:37:28Z</time>
      </trkpt>
      <trkpt lat="43.38455" lon="-6.11982">
        <ele>359.7</ele>
        <time>2016-07-07T05:37:53Z</time>
      </trkpt>
      <trkpt lat="43.38454" lon="-6.11995">
        <ele>361.8</ele>
        <time>2016-07-07T05:38:12Z</time>
      </trkpt>
      <trkpt lat="43.38452" lon="-6.12007">
        <ele>363.3</ele>
        <time>2016-07-07T05:38:28Z</time>
      </trkpt>
      <trkpt lat="43.38451" lon="-6.12021">
        <ele>365.3</ele>
        <time>2016-07-07T05:38:48Z</time>
      </trkpt>
      <trkpt lat="43.38451" lon="-6.12033">
        <ele>366</ele>
        <time>2016-07-07T05:38:59Z</time>
      </trkpt>
      <trkpt lat="43.38451" lon="-6.12046">
        <ele>366.6</ele>
        <time>2016-07-07T05:39:09Z</time>
      </trkpt>
      <trkpt lat="43.3845" lon="-6.12059">
        <ele>367.4</ele>
        <time>2016-07-07T05:39:20Z</time>
      </trkpt>
      <trkpt lat="43.38447" lon="-6.12072">
        <ele>368.2</ele>
        <time>2016-07-07T05:39:30Z</time>
      </trkpt>
      <trkpt lat="43.38444" lon="-6.12084">
        <ele>369.2</ele>
        <time>2016-07-07T05:39:39Z</time>
      </trkpt>
      <trkpt lat="43.38443" lon="-6.12097">
        <ele>370.3</ele>
        <time>2016-07-07T05:39:48Z</time>
      </trkpt>
      <trkpt lat="43.38445" lon="-6.1211">
        <ele>371.6</ele>
        <time>2016-07-07T05:40:05Z</time>
      </trkpt>
      <trkpt lat="43.38448" lon="-6.12121">
        <ele>372.4</ele>
        <time>2016-07-07T05:40:36Z</time>
      </trkpt>
      <trkpt lat="43.38439" lon="-6.12124">
        <ele>371.8</ele>
        <time>2016-07-07T05:43:17Z</time>
      </trkpt>
      <trkpt lat="43.38448" lon="-6.1212">
        <ele>372.3</ele>
        <time>2016-07-07T05:44:01Z</time>
      </trkpt>
      <trkpt lat="43.38449" lon="-6.12133">
        <ele>371</ele>
        <time>2016-07-07T05:47:03Z</time>
      </trkpt>
      <trkpt lat="43.38444" lon="-6.12143">
        <ele>370.8</ele>
        <time>2016-07-07T05:47:13Z</time>
      </trkpt>
      <trkpt lat="43.3844" lon="-6.12154">
        <ele>370.1</ele>
        <time>2016-07-07T05:47:22Z</time>
      </trkpt>
      <trkpt lat="43.38436" lon="-6.12167">
        <ele>368.6</ele>
        <time>2016-07-07T05:47:32Z</time>
      </trkpt>
      <trkpt lat="43.38434" lon="-6.12181">
        <ele>366.8</ele>
        <time>2016-07-07T05:47:42Z</time>
      </trkpt>
      <trkpt lat="43.38435" lon="-6.12194">
        <ele>364.4</ele>
        <time>2016-07-07T05:47:51Z</time>
      </trkpt>
      <trkpt lat="43.38436" lon="-6.12207">
        <ele>361.7</ele>
        <time>2016-07-07T05:48:01Z</time>
      </trkpt>
      <trkpt lat="43.38438" lon="-6.1222">
        <ele>359.1</ele>
        <time>2016-07-07T05:48:13Z</time>
      </trkpt>
      <trkpt lat="43.38441" lon="-6.12232">
        <ele>357.7</ele>
        <time>2016-07-07T05:48:20Z</time>
      </trkpt>
      <trkpt lat="43.38444" lon="-6.12244">
        <ele>355.8</ele>
        <time>2016-07-07T05:48:31Z</time>
      </trkpt>
      <trkpt lat="43.38451" lon="-6.12253">
        <ele>354.5</ele>
        <time>2016-07-07T05:48:42Z</time>
      </trkpt>
      <trkpt lat="43.38456" lon="-6.12264">
        <ele>353.5</ele>
        <time>2016-07-07T05:48:49Z</time>
      </trkpt>
      <trkpt lat="43.38461" lon="-6.12275">
        <ele>352.1</ele>
        <time>2016-07-07T05:48:57Z</time>
      </trkpt>
      <trkpt lat="43.38466" lon="-6.12287">
        <ele>350.4</ele>
        <time>2016-07-07T05:49:06Z</time>
      </trkpt>
      <trkpt lat="43.3847" lon="-6.123">
        <ele>348.7</ele>
        <time>2016-07-07T05:49:14Z</time>
      </trkpt>
      <trkpt lat="43.38471" lon="-6.12312">
        <ele>346</ele>
        <time>2016-07-07T05:49:32Z</time>
      </trkpt>
      <trkpt lat="43.38474" lon="-6.12324">
        <ele>344.2</ele>
        <time>2016-07-07T05:50:07Z</time>
      </trkpt>
      <trkpt lat="43.38479" lon="-6.12336">
        <ele>342.9</ele>
        <time>2016-07-07T05:50:16Z</time>
      </trkpt>
      <trkpt lat="43.38484" lon="-6.12346">
        <ele>341.8</ele>
        <time>2016-07-07T05:50:23Z</time>
      </trkpt>
      <trkpt lat="43.38487" lon="-6.12359">
        <ele>340.5</ele>
        <time>2016-07-07T05:50:31Z</time>
      </trkpt>
      <trkpt lat="43.38492" lon="-6.1237">
        <ele>338.9</ele>
        <time>2016-07-07T05:50:39Z</time>
      </trkpt>
      <trkpt lat="43.38497" lon="-6.12381">
        <ele>335.4</ele>
        <time>2016-07-07T05:51:09Z</time>
      </trkpt>
      <trkpt lat="43.38504" lon="-6.12391">
        <ele>334.9</ele>
        <time>2016-07-07T05:51:19Z</time>
      </trkpt>
      <trkpt lat="43.38508" lon="-6.12401">
        <ele>333.6</ele>
        <time>2016-07-07T05:51:28Z</time>
      </trkpt>
      <trkpt lat="43.38512" lon="-6.12413">
        <ele>332.3</ele>
        <time>2016-07-07T05:51:37Z</time>
      </trkpt>
      <trkpt lat="43.38517" lon="-6.12424">
        <ele>331</ele>
        <time>2016-07-07T05:51:45Z</time>
      </trkpt>
      <trkpt lat="43.38522" lon="-6.12434">
        <ele>329.6</ele>
        <time>2016-07-07T05:51:53Z</time>
      </trkpt>
      <trkpt lat="43.38527" lon="-6.12446">
        <ele>328</ele>
        <time>2016-07-07T05:52:01Z</time>
      </trkpt>
      <trkpt lat="43.38531" lon="-6.12457">
        <ele>326.3</ele>
        <time>2016-07-07T05:52:09Z</time>
      </trkpt>
      <trkpt lat="43.38533" lon="-6.1247">
        <ele>325</ele>
        <time>2016-07-07T05:52:17Z</time>
      </trkpt>
      <trkpt lat="43.38537" lon="-6.12482">
        <ele>323.1</ele>
        <time>2016-07-07T05:52:26Z</time>
      </trkpt>
      <trkpt lat="43.38542" lon="-6.12493">
        <ele>321.5</ele>
        <time>2016-07-07T05:52:35Z</time>
      </trkpt>
      <trkpt lat="43.38548" lon="-6.12504">
        <ele>319.4</ele>
        <time>2016-07-07T05:52:44Z</time>
      </trkpt>
      <trkpt lat="43.38553" lon="-6.12514">
        <ele>317.9</ele>
        <time>2016-07-07T05:52:50Z</time>
      </trkpt>
      <trkpt lat="43.38559" lon="-6.12526">
        <ele>316.6</ele>
        <time>2016-07-07T05:52:57Z</time>
      </trkpt>
      <trkpt lat="43.38563" lon="-6.12537">
        <ele>315.4</ele>
        <time>2016-07-07T05:53:05Z</time>
      </trkpt>
      <trkpt lat="43.38567" lon="-6.1255">
        <ele>313.2</ele>
        <time>2016-07-07T05:53:13Z</time>
      </trkpt>
      <trkpt lat="43.38571" lon="-6.12562">
        <ele>311.5</ele>
        <time>2016-07-07T05:53:22Z</time>
      </trkpt>
      <trkpt lat="43.38578" lon="-6.12573">
        <ele>310.3</ele>
        <time>2016-07-07T05:53:29Z</time>
      </trkpt>
      <trkpt lat="43.38585" lon="-6.12582">
        <ele>308.7</ele>
        <time>2016-07-07T05:53:36Z</time>
      </trkpt>
      <trkpt lat="43.38588" lon="-6.12594">
        <ele>307.1</ele>
        <time>2016-07-07T05:53:44Z</time>
      </trkpt>
      <trkpt lat="43.38594" lon="-6.12605">
        <ele>305.4</ele>
        <time>2016-07-07T05:53:52Z</time>
      </trkpt>
      <trkpt lat="43.38601" lon="-6.12615">
        <ele>303.9</ele>
        <time>2016-07-07T05:53:59Z</time>
      </trkpt>
      <trkpt lat="43.38607" lon="-6.12626">
        <ele>302.8</ele>
        <time>2016-07-07T05:54:05Z</time>
      </trkpt>
      <trkpt lat="43.38613" lon="-6.12636">
        <ele>301.3</ele>
        <time>2016-07-07T05:54:12Z</time>
      </trkpt>
      <trkpt lat="43.38621" lon="-6.12645">
        <ele>299.2</ele>
        <time>2016-07-07T05:54:20Z</time>
      </trkpt>
      <trkpt lat="43.38628" lon="-6.12654">
        <ele>297.6</ele>
        <time>2016-07-07T05:54:28Z</time>
      </trkpt>
      <trkpt lat="43.38636" lon="-6.12661">
        <ele>296.7</ele>
        <time>2016-07-07T05:54:35Z</time>
      </trkpt>
      <trkpt lat="43.38645" lon="-6.12666">
        <ele>295.7</ele>
        <time>2016-07-07T05:54:41Z</time>
      </trkpt>
      <trkpt lat="43.38653" lon="-6.12673">
        <ele>294.4</ele>
        <time>2016-07-07T05:54:48Z</time>
      </trkpt>
      <trkpt lat="43.3866" lon="-6.12681">
        <ele>292.8</ele>
        <time>2016-07-07T05:54:55Z</time>
      </trkpt>
      <trkpt lat="43.38667" lon="-6.1269">
        <ele>291.6</ele>
        <time>2016-07-07T05:55:02Z</time>
      </trkpt>
      <trkpt lat="43.3867" lon="-6.12702">
        <ele>289.8</ele>
        <time>2016-07-07T05:55:17Z</time>
      </trkpt>
      <trkpt lat="43.38676" lon="-6.12712">
        <ele>288.8</ele>
        <time>2016-07-07T05:55:35Z</time>
      </trkpt>
      <trkpt lat="43.38685" lon="-6.12715">
        <ele>288.1</ele>
        <time>2016-07-07T05:55:44Z</time>
      </trkpt>
      <trkpt lat="43.38694" lon="-6.12712">
        <ele>286.9</ele>
        <time>2016-07-07T05:55:53Z</time>
      </trkpt>
      <trkpt lat="43.38702" lon="-6.12707">
        <ele>285.8</ele>
        <time>2016-07-07T05:56:03Z</time>
      </trkpt>
      <trkpt lat="43.3871" lon="-6.127">
        <ele>284.1</ele>
        <time>2016-07-07T05:56:14Z</time>
      </trkpt>
      <trkpt lat="43.38719" lon="-6.12695">
        <ele>282.8</ele>
        <time>2016-07-07T05:56:26Z</time>
      </trkpt>
      <trkpt lat="43.38727" lon="-6.12688">
        <ele>281.8</ele>
        <time>2016-07-07T05:56:34Z</time>
      </trkpt>
      <trkpt lat="43.38737" lon="-6.12689">
        <ele>280.4</ele>
        <time>2016-07-07T05:56:44Z</time>
      </trkpt>
      <trkpt lat="43.38745" lon="-6.12698">
        <ele>279</ele>
        <time>2016-07-07T05:56:52Z</time>
      </trkpt>
      <trkpt lat="43.38751" lon="-6.12706">
        <ele>278</ele>
        <time>2016-07-07T05:56:59Z</time>
      </trkpt>
      <trkpt lat="43.38756" lon="-6.12717">
        <ele>276.5</ele>
        <time>2016-07-07T05:57:07Z</time>
      </trkpt>
      <trkpt lat="43.38761" lon="-6.12728">
        <ele>275.3</ele>
        <time>2016-07-07T05:57:14Z</time>
      </trkpt>
      <trkpt lat="43.38764" lon="-6.12742">
        <ele>274</ele>
        <time>2016-07-07T05:57:21Z</time>
      </trkpt>
      <trkpt lat="43.38769" lon="-6.12753">
        <ele>272.9</ele>
        <time>2016-07-07T05:57:28Z</time>
      </trkpt>
      <trkpt lat="43.38772" lon="-6.12765">
        <ele>272.2</ele>
        <time>2016-07-07T05:57:35Z</time>
      </trkpt>
      <trkpt lat="43.38777" lon="-6.12778">
        <ele>271.7</ele>
        <time>2016-07-07T05:57:43Z</time>
      </trkpt>
      <trkpt lat="43.38779" lon="-6.12791">
        <ele>271.5</ele>
        <time>2016-07-07T05:57:50Z</time>
      </trkpt>
      <trkpt lat="43.38781" lon="-6.12804">
        <ele>271.3</ele>
        <time>2016-07-07T05:57:57Z</time>
      </trkpt>
      <trkpt lat="43.38781" lon="-6.12816">
        <ele>270.8</ele>
        <time>2016-07-07T05:58:07Z</time>
      </trkpt>
      <trkpt lat="43.38782" lon="-6.1283">
        <ele>270.2</ele>
        <time>2016-07-07T05:58:16Z</time>
      </trkpt>
      <trkpt lat="43.38782" lon="-6.12843">
        <ele>269.8</ele>
        <time>2016-07-07T05:58:24Z</time>
      </trkpt>
      <trkpt lat="43.38783" lon="-6.12856">
        <ele>269.3</ele>
        <time>2016-07-07T05:58:33Z</time>
      </trkpt>
      <trkpt lat="43.38783" lon="-6.12869">
        <ele>268.9</ele>
        <time>2016-07-07T05:58:40Z</time>
      </trkpt>
      <trkpt lat="43.38785" lon="-6.12881">
        <ele>268.3</ele>
        <time>2016-07-07T05:58:48Z</time>
      </trkpt>
      <trkpt lat="43.3879" lon="-6.12893">
        <ele>267.7</ele>
        <time>2016-07-07T05:58:57Z</time>
      </trkpt>
      <trkpt lat="43.38797" lon="-6.12902">
        <ele>266.7</ele>
        <time>2016-07-07T05:59:06Z</time>
      </trkpt>
      <trkpt lat="43.38804" lon="-6.12911">
        <ele>265.5</ele>
        <time>2016-07-07T05:59:14Z</time>
      </trkpt>
      <trkpt lat="43.38811" lon="-6.1292">
        <ele>264.3</ele>
        <time>2016-07-07T05:59:22Z</time>
      </trkpt>
      <trkpt lat="43.38817" lon="-6.1293">
        <ele>262.5</ele>
        <time>2016-07-07T05:59:30Z</time>
      </trkpt>
      <trkpt lat="43.38822" lon="-6.12942">
        <ele>260.8</ele>
        <time>2016-07-07T05:59:38Z</time>
      </trkpt>
      <trkpt lat="43.38826" lon="-6.12953">
        <ele>258.9</ele>
        <time>2016-07-07T05:59:45Z</time>
      </trkpt>
      <trkpt lat="43.38829" lon="-6.12965">
        <ele>258.1</ele>
        <time>2016-07-07T05:59:48Z</time>
      </trkpt>
      <trkpt lat="43.38831" lon="-6.12979">
        <ele>257.3</ele>
        <time>2016-07-07T05:59:51Z</time>
      </trkpt>
      <trkpt lat="43.38834" lon="-6.12993">
        <ele>256.1</ele>
        <time>2016-07-07T05:59:54Z</time>
      </trkpt>
      <trkpt lat="43.38837" lon="-6.13007">
        <ele>254.9</ele>
        <time>2016-07-07T05:59:57Z</time>
      </trkpt>
      <trkpt lat="43.38841" lon="-6.1302">
        <ele>253.8</ele>
        <time>2016-07-07T06:00:00Z</time>
      </trkpt>
      <trkpt lat="43.38845" lon="-6.13032">
        <ele>252.3</ele>
        <time>2016-07-07T06:00:03Z</time>
      </trkpt>
      <trkpt lat="43.38852" lon="-6.13042">
        <ele>250.9</ele>
        <time>2016-07-07T06:00:06Z</time>
      </trkpt>
      <trkpt lat="43.38857" lon="-6.13052">
        <ele>246</ele>
        <time>2016-07-07T06:00:16Z</time>
      </trkpt>
      <trkpt lat="43.38863" lon="-6.13062">
        <ele>239.9</ele>
        <time>2016-07-07T06:00:44Z</time>
      </trkpt>
      <trkpt lat="43.38872" lon="-6.13062">
        <ele>238.4</ele>
        <time>2016-07-07T06:00:56Z</time>
      </trkpt>
      <trkpt lat="43.38881" lon="-6.13058">
        <ele>236.9</ele>
        <time>2016-07-07T06:01:06Z</time>
      </trkpt>
      <trkpt lat="43.38889" lon="-6.13053">
        <ele>235.4</ele>
        <time>2016-07-07T06:01:14Z</time>
      </trkpt>
      <trkpt lat="43.38898" lon="-6.13048">
        <ele>233.8</ele>
        <time>2016-07-07T06:01:21Z</time>
      </trkpt>
      <trkpt lat="43.38908" lon="-6.13048">
        <ele>232</ele>
        <time>2016-07-07T06:01:28Z</time>
      </trkpt>
      <trkpt lat="43.38916" lon="-6.13054">
        <ele>230.8</ele>
        <time>2016-07-07T06:01:35Z</time>
      </trkpt>
      <trkpt lat="43.3892" lon="-6.13066">
        <ele>229.3</ele>
        <time>2016-07-07T06:01:43Z</time>
      </trkpt>
      <trkpt lat="43.38919" lon="-6.13078">
        <ele>226.9</ele>
        <time>2016-07-07T06:01:53Z</time>
      </trkpt>
      <trkpt lat="43.38916" lon="-6.13091">
        <ele>225.9</ele>
        <time>2016-07-07T06:02:01Z</time>
      </trkpt>
      <trkpt lat="43.38914" lon="-6.13104">
        <ele>224.5</ele>
        <time>2016-07-07T06:02:11Z</time>
      </trkpt>
      <trkpt lat="43.38913" lon="-6.13117">
        <ele>222</ele>
        <time>2016-07-07T06:02:32Z</time>
      </trkpt>
      <trkpt lat="43.38913" lon="-6.1313">
        <ele>220.3</ele>
        <time>2016-07-07T06:02:55Z</time>
      </trkpt>
      <trkpt lat="43.38917" lon="-6.13142">
        <ele>219.8</ele>
        <time>2016-07-07T06:03:06Z</time>
      </trkpt>
      <trkpt lat="43.38922" lon="-6.13152">
        <ele>219.2</ele>
        <time>2016-07-07T06:03:17Z</time>
      </trkpt>
      <trkpt lat="43.38929" lon="-6.1316">
        <ele>218.5</ele>
        <time>2016-07-07T06:03:43Z</time>
      </trkpt>
      <trkpt lat="43.38937" lon="-6.13166">
        <ele>218.4</ele>
        <time>2016-07-07T06:03:53Z</time>
      </trkpt>
      <trkpt lat="43.38944" lon="-6.13174">
        <ele>217.8</ele>
        <time>2016-07-07T06:04:03Z</time>
      </trkpt>
      <trkpt lat="43.38952" lon="-6.13181">
        <ele>217</ele>
        <time>2016-07-07T06:04:11Z</time>
      </trkpt>
      <trkpt lat="43.38959" lon="-6.13188">
        <ele>215.6</ele>
        <time>2016-07-07T06:04:20Z</time>
      </trkpt>
      <trkpt lat="43.38967" lon="-6.13196">
        <ele>214.6</ele>
        <time>2016-07-07T06:04:28Z</time>
      </trkpt>
      <trkpt lat="43.38973" lon="-6.13206">
        <ele>213.3</ele>
        <time>2016-07-07T06:04:36Z</time>
      </trkpt>
      <trkpt lat="43.38981" lon="-6.13215">
        <ele>212</ele>
        <time>2016-07-07T06:04:44Z</time>
      </trkpt>
      <trkpt lat="43.38985" lon="-6.13227">
        <ele>211</ele>
        <time>2016-07-07T06:04:51Z</time>
      </trkpt>
      <trkpt lat="43.38987" lon="-6.13241">
        <ele>209.7</ele>
        <time>2016-07-07T06:04:58Z</time>
      </trkpt>
      <trkpt lat="43.38987" lon="-6.13254">
        <ele>208.4</ele>
        <time>2016-07-07T06:05:05Z</time>
      </trkpt>
      <trkpt lat="43.38987" lon="-6.13266">
        <ele>207.6</ele>
        <time>2016-07-07T06:05:12Z</time>
      </trkpt>
      <trkpt lat="43.38987" lon="-6.1328">
        <ele>206.1</ele>
        <time>2016-07-07T06:05:20Z</time>
      </trkpt>
      <trkpt lat="43.38989" lon="-6.13293">
        <ele>204.7</ele>
        <time>2016-07-07T06:05:31Z</time>
      </trkpt>
      <trkpt lat="43.38991" lon="-6.13306">
        <ele>203.3</ele>
        <time>2016-07-07T06:05:39Z</time>
      </trkpt>
      <trkpt lat="43.38994" lon="-6.13319">
        <ele>201.5</ele>
        <time>2016-07-07T06:05:49Z</time>
      </trkpt>
      <trkpt lat="43.38998" lon="-6.13331">
        <ele>200.1</ele>
        <time>2016-07-07T06:05:56Z</time>
      </trkpt>
      <trkpt lat="43.38999" lon="-6.13343">
        <ele>198.5</ele>
        <time>2016-07-07T06:06:04Z</time>
      </trkpt>
      <trkpt lat="43.39" lon="-6.13357">
        <ele>197.4</ele>
        <time>2016-07-07T06:06:13Z</time>
      </trkpt>
      <trkpt lat="43.38992" lon="-6.13363">
        <ele>194.8</ele>
        <time>2016-07-07T06:07:08Z</time>
      </trkpt>
      <trkpt lat="43.38999" lon="-6.13373">
        <ele>195</ele>
        <time>2016-07-07T06:07:48Z</time>
      </trkpt>
      <trkpt lat="43.39001" lon="-6.13385">
        <ele>194.7</ele>
        <time>2016-07-07T06:07:57Z</time>
      </trkpt>
      <trkpt lat="43.39002" lon="-6.13398">
        <ele>194.2</ele>
        <time>2016-07-07T06:08:06Z</time>
      </trkpt>
      <trkpt lat="43.39004" lon="-6.13411">
        <ele>193.8</ele>
        <time>2016-07-07T06:08:14Z</time>
      </trkpt>
      <trkpt lat="43.39009" lon="-6.13424">
        <ele>193.2</ele>
        <time>2016-07-07T06:08:23Z</time>
      </trkpt>
      <trkpt lat="43.39013" lon="-6.13436">
        <ele>192.5</ele>
        <time>2016-07-07T06:08:30Z</time>
      </trkpt>
      <trkpt lat="43.39016" lon="-6.13447">
        <ele>192.1</ele>
        <time>2016-07-07T06:08:37Z</time>
      </trkpt>
      <trkpt lat="43.39018" lon="-6.1346">
        <ele>191.9</ele>
        <time>2016-07-07T06:08:45Z</time>
      </trkpt>
      <trkpt lat="43.3902" lon="-6.13472">
        <ele>191.3</ele>
        <time>2016-07-07T06:08:52Z</time>
      </trkpt>
      <trkpt lat="43.39023" lon="-6.13485">
        <ele>190.6</ele>
        <time>2016-07-07T06:09:00Z</time>
      </trkpt>
      <trkpt lat="43.39027" lon="-6.13497">
        <ele>190.2</ele>
        <time>2016-07-07T06:09:08Z</time>
      </trkpt>
      <trkpt lat="43.39033" lon="-6.13507">
        <ele>189.8</ele>
        <time>2016-07-07T06:09:16Z</time>
      </trkpt>
      <trkpt lat="43.3904" lon="-6.13518">
        <ele>189.4</ele>
        <time>2016-07-07T06:09:24Z</time>
      </trkpt>
      <trkpt lat="43.39048" lon="-6.13526">
        <ele>189.2</ele>
        <time>2016-07-07T06:09:34Z</time>
      </trkpt>
      <trkpt lat="43.39056" lon="-6.13531">
        <ele>189</ele>
        <time>2016-07-07T06:09:42Z</time>
      </trkpt>
      <trkpt lat="43.39065" lon="-6.13536">
        <ele>188.5</ele>
        <time>2016-07-07T06:09:50Z</time>
      </trkpt>
      <trkpt lat="43.39073" lon="-6.13543">
        <ele>188.1</ele>
        <time>2016-07-07T06:09:59Z</time>
      </trkpt>
      <trkpt lat="43.3908" lon="-6.13552">
        <ele>187.7</ele>
        <time>2016-07-07T06:10:08Z</time>
      </trkpt>
      <trkpt lat="43.39085" lon="-6.13563">
        <ele>187.3</ele>
        <time>2016-07-07T06:10:15Z</time>
      </trkpt>
      <trkpt lat="43.39085" lon="-6.13576">
        <ele>187</ele>
        <time>2016-07-07T06:10:22Z</time>
      </trkpt>
      <trkpt lat="43.39087" lon="-6.13589">
        <ele>186.6</ele>
        <time>2016-07-07T06:10:29Z</time>
      </trkpt>
      <trkpt lat="43.39092" lon="-6.136">
        <ele>185.5</ele>
        <time>2016-07-07T06:10:36Z</time>
      </trkpt>
      <trkpt lat="43.39099" lon="-6.13609">
        <ele>184.6</ele>
        <time>2016-07-07T06:10:43Z</time>
      </trkpt>
      <trkpt lat="43.39106" lon="-6.13617">
        <ele>183.5</ele>
        <time>2016-07-07T06:10:50Z</time>
      </trkpt>
      <trkpt lat="43.39114" lon="-6.13625">
        <ele>182.8</ele>
        <time>2016-07-07T06:10:57Z</time>
      </trkpt>
      <trkpt lat="43.39121" lon="-6.13634">
        <ele>181.9</ele>
        <time>2016-07-07T06:11:06Z</time>
      </trkpt>
      <trkpt lat="43.39128" lon="-6.13644">
        <ele>181.3</ele>
        <time>2016-07-07T06:11:14Z</time>
      </trkpt>
      <trkpt lat="43.39135" lon="-6.13653">
        <ele>180.8</ele>
        <time>2016-07-07T06:11:21Z</time>
      </trkpt>
      <trkpt lat="43.39141" lon="-6.13662">
        <ele>180.6</ele>
        <time>2016-07-07T06:11:28Z</time>
      </trkpt>
      <trkpt lat="43.39148" lon="-6.13671">
        <ele>180.1</ele>
        <time>2016-07-07T06:11:35Z</time>
      </trkpt>
      <trkpt lat="43.39155" lon="-6.13679">
        <ele>179.3</ele>
        <time>2016-07-07T06:11:42Z</time>
      </trkpt>
      <trkpt lat="43.39162" lon="-6.13687">
        <ele>178.9</ele>
        <time>2016-07-07T06:11:49Z</time>
      </trkpt>
      <trkpt lat="43.3917" lon="-6.13697">
        <ele>177.9</ele>
        <time>2016-07-07T06:11:56Z</time>
      </trkpt>
      <trkpt lat="43.39176" lon="-6.13706">
        <ele>176.9</ele>
        <time>2016-07-07T06:12:04Z</time>
      </trkpt>
      <trkpt lat="43.39184" lon="-6.13714">
        <ele>176</ele>
        <time>2016-07-07T06:12:12Z</time>
      </trkpt>
      <trkpt lat="43.39191" lon="-6.13723">
        <ele>176</ele>
        <time>2016-07-07T06:12:20Z</time>
      </trkpt>
      <trkpt lat="43.39199" lon="-6.13732">
        <ele>175.2</ele>
        <time>2016-07-07T06:12:28Z</time>
      </trkpt>
      <trkpt lat="43.39206" lon="-6.1374">
        <ele>174.6</ele>
        <time>2016-07-07T06:12:35Z</time>
      </trkpt>
      <trkpt lat="43.39212" lon="-6.1375">
        <ele>174.2</ele>
        <time>2016-07-07T06:12:42Z</time>
      </trkpt>
      <trkpt lat="43.39219" lon="-6.13759">
        <ele>173.8</ele>
        <time>2016-07-07T06:12:49Z</time>
      </trkpt>
      <trkpt lat="43.39222" lon="-6.13771">
        <ele>173.4</ele>
        <time>2016-07-07T06:12:56Z</time>
      </trkpt>
      <trkpt lat="43.39216" lon="-6.13781">
        <ele>171.7</ele>
        <time>2016-07-07T06:13:05Z</time>
      </trkpt>
      <trkpt lat="43.39208" lon="-6.13787">
        <ele>170.5</ele>
        <time>2016-07-07T06:13:13Z</time>
      </trkpt>
      <trkpt lat="43.39199" lon="-6.13795">
        <ele>169.5</ele>
        <time>2016-07-07T06:13:23Z</time>
      </trkpt>
      <trkpt lat="43.39191" lon="-6.13801">
        <ele>168.8</ele>
        <time>2016-07-07T06:13:31Z</time>
      </trkpt>
      <trkpt lat="43.39183" lon="-6.13805">
        <ele>168</ele>
        <time>2016-07-07T06:13:38Z</time>
      </trkpt>
      <trkpt lat="43.39173" lon="-6.1381">
        <ele>167.6</ele>
        <time>2016-07-07T06:13:46Z</time>
      </trkpt>
      <trkpt lat="43.39165" lon="-6.13815">
        <ele>166.9</ele>
        <time>2016-07-07T06:13:54Z</time>
      </trkpt>
      <trkpt lat="43.39155" lon="-6.13816">
        <ele>166.5</ele>
        <time>2016-07-07T06:14:02Z</time>
      </trkpt>
      <trkpt lat="43.39146" lon="-6.13815">
        <ele>166.1</ele>
        <time>2016-07-07T06:14:10Z</time>
      </trkpt>
      <trkpt lat="43.39136" lon="-6.13815">
        <ele>165.3</ele>
        <time>2016-07-07T06:14:23Z</time>
      </trkpt>
      <trkpt lat="43.39127" lon="-6.13814">
        <ele>165</ele>
        <time>2016-07-07T06:14:31Z</time>
      </trkpt>
      <trkpt lat="43.39117" lon="-6.13813">
        <ele>164.7</ele>
        <time>2016-07-07T06:14:40Z</time>
      </trkpt>
      <trkpt lat="43.39108" lon="-6.13815">
        <ele>164.2</ele>
        <time>2016-07-07T06:14:49Z</time>
      </trkpt>
      <trkpt lat="43.39099" lon="-6.13821">
        <ele>163.6</ele>
        <time>2016-07-07T06:14:58Z</time>
      </trkpt>
      <trkpt lat="43.39097" lon="-6.13833">
        <ele>162.5</ele>
        <time>2016-07-07T06:15:10Z</time>
      </trkpt>
      <trkpt lat="43.3909" lon="-6.13842">
        <ele>161.8</ele>
        <time>2016-07-07T06:15:19Z</time>
      </trkpt>
      <trkpt lat="43.39088" lon="-6.13855">
        <ele>161.2</ele>
        <time>2016-07-07T06:15:30Z</time>
      </trkpt>
      <trkpt lat="43.39093" lon="-6.13866">
        <ele>160.3</ele>
        <time>2016-07-07T06:15:43Z</time>
      </trkpt>
      <trkpt lat="43.39101" lon="-6.13874">
        <ele>158</ele>
        <time>2016-07-07T06:16:32Z</time>
      </trkpt>
      <trkpt lat="43.39109" lon="-6.13882">
        <ele>157.7</ele>
        <time>2016-07-07T06:16:46Z</time>
      </trkpt>
      <trkpt lat="43.39117" lon="-6.13891">
        <ele>157.5</ele>
        <time>2016-07-07T06:16:57Z</time>
      </trkpt>
      <trkpt lat="43.39122" lon="-6.13901">
        <ele>156.8</ele>
        <time>2016-07-07T06:17:06Z</time>
      </trkpt>
      <trkpt lat="43.39129" lon="-6.1391">
        <ele>156.5</ele>
        <time>2016-07-07T06:17:14Z</time>
      </trkpt>
      <trkpt lat="43.39138" lon="-6.13919">
        <ele>156.2</ele>
        <time>2016-07-07T06:17:21Z</time>
      </trkpt>
      <trkpt lat="43.39142" lon="-6.13931">
        <ele>155.7</ele>
        <time>2016-07-07T06:17:29Z</time>
      </trkpt>
      <trkpt lat="43.39143" lon="-6.13943">
        <ele>155.1</ele>
        <time>2016-07-07T06:17:37Z</time>
      </trkpt>
      <trkpt lat="43.39145" lon="-6.13956">
        <ele>154</ele>
        <time>2016-07-07T06:17:46Z</time>
      </trkpt>
      <trkpt lat="43.39148" lon="-6.13969">
        <ele>152.9</ele>
        <time>2016-07-07T06:17:59Z</time>
      </trkpt>
      <trkpt lat="43.39151" lon="-6.13981">
        <ele>151.6</ele>
        <time>2016-07-07T06:18:11Z</time>
      </trkpt>
      <trkpt lat="43.39148" lon="-6.13993">
        <ele>150.6</ele>
        <time>2016-07-07T06:18:22Z</time>
      </trkpt>
      <trkpt lat="43.39148" lon="-6.14006">
        <ele>150.2</ele>
        <time>2016-07-07T06:18:31Z</time>
      </trkpt>
      <trkpt lat="43.39153" lon="-6.14017">
        <ele>149.4</ele>
        <time>2016-07-07T06:18:43Z</time>
      </trkpt>
      <trkpt lat="43.39156" lon="-6.14029">
        <ele>148.7</ele>
        <time>2016-07-07T06:18:57Z</time>
      </trkpt>
      <trkpt lat="43.39156" lon="-6.14042">
        <ele>148.1</ele>
        <time>2016-07-07T06:19:12Z</time>
      </trkpt>
      <trkpt lat="43.3916" lon="-6.14054">
        <ele>148.8</ele>
        <time>2016-07-07T06:19:34Z</time>
      </trkpt>
      <trkpt lat="43.39163" lon="-6.14066">
        <ele>147.5</ele>
        <time>2016-07-07T06:20:01Z</time>
      </trkpt>
      <trkpt lat="43.3917" lon="-6.14074">
        <ele>147.7</ele>
        <time>2016-07-07T06:20:16Z</time>
      </trkpt>
      <trkpt lat="43.39175" lon="-6.14086">
        <ele>148.4</ele>
        <time>2016-07-07T06:20:31Z</time>
      </trkpt>
      <trkpt lat="43.39182" lon="-6.14096">
        <ele>148.5</ele>
        <time>2016-07-07T06:20:42Z</time>
      </trkpt>
      <trkpt lat="43.39188" lon="-6.14106">
        <ele>148.7</ele>
        <time>2016-07-07T06:20:55Z</time>
      </trkpt>
      <trkpt lat="43.39195" lon="-6.14115">
        <ele>148.9</ele>
        <time>2016-07-07T06:21:06Z</time>
      </trkpt>
      <trkpt lat="43.39196" lon="-6.14129">
        <ele>149.4</ele>
        <time>2016-07-07T06:21:17Z</time>
      </trkpt>
      <trkpt lat="43.39195" lon="-6.14142">
        <ele>149.8</ele>
        <time>2016-07-07T06:21:26Z</time>
      </trkpt>
      <trkpt lat="43.39196" lon="-6.14155">
        <ele>149.6</ele>
        <time>2016-07-07T06:21:35Z</time>
      </trkpt>
      <trkpt lat="43.39196" lon="-6.14169">
        <ele>149.5</ele>
        <time>2016-07-07T06:21:44Z</time>
      </trkpt>
      <trkpt lat="43.39204" lon="-6.14177">
        <ele>150.1</ele>
        <time>2016-07-07T06:21:59Z</time>
      </trkpt>
      <trkpt lat="43.39212" lon="-6.14185">
        <ele>149.9</ele>
        <time>2016-07-07T06:22:11Z</time>
      </trkpt>
      <trkpt lat="43.39221" lon="-6.14189">
        <ele>149.9</ele>
        <time>2016-07-07T06:22:19Z</time>
      </trkpt>
      <trkpt lat="43.39229" lon="-6.14197">
        <ele>149.8</ele>
        <time>2016-07-07T06:22:28Z</time>
      </trkpt>
      <trkpt lat="43.39236" lon="-6.14206">
        <ele>150.2</ele>
        <time>2016-07-07T06:22:36Z</time>
      </trkpt>
      <trkpt lat="43.39243" lon="-6.14215">
        <ele>151</ele>
        <time>2016-07-07T06:22:44Z</time>
      </trkpt>
      <trkpt lat="43.39251" lon="-6.14221">
        <ele>150.6</ele>
        <time>2016-07-07T06:23:29Z</time>
      </trkpt>
      <trkpt lat="43.39261" lon="-6.14222">
        <ele>150.6</ele>
        <time>2016-07-07T06:23:38Z</time>
      </trkpt>
      <trkpt lat="43.39269" lon="-6.14227">
        <ele>150</ele>
        <time>2016-07-07T06:23:46Z</time>
      </trkpt>
      <trkpt lat="43.39278" lon="-6.14233">
        <ele>149.1</ele>
        <time>2016-07-07T06:23:54Z</time>
      </trkpt>
      <trkpt lat="43.39287" lon="-6.14238">
        <ele>147.5</ele>
        <time>2016-07-07T06:24:02Z</time>
      </trkpt>
      <trkpt lat="43.39297" lon="-6.14236">
        <ele>145</ele>
        <time>2016-07-07T06:24:12Z</time>
      </trkpt>
      <trkpt lat="43.39351" lon="-6.14274">
        <ele>142</ele>
        <time>2016-07-07T06:24:36Z</time>
      </trkpt>
      <trkpt lat="43.3937" lon="-6.14293">
        <ele>140.1</ele>
        <time>2016-07-07T06:24:47Z</time>
      </trkpt>
      <trkpt lat="43.39374" lon="-6.14306">
        <ele>134.7</ele>
        <time>2016-07-07T06:25:04Z</time>
      </trkpt>
      <trkpt lat="43.39379" lon="-6.14316">
        <ele>131.7</ele>
        <time>2016-07-07T06:25:17Z</time>
      </trkpt>
      <trkpt lat="43.39387" lon="-6.14323">
        <ele>129.5</ele>
        <time>2016-07-07T06:25:28Z</time>
      </trkpt>
      <trkpt lat="43.39394" lon="-6.14331">
        <ele>128.5</ele>
        <time>2016-07-07T06:25:37Z</time>
      </trkpt>
      <trkpt lat="43.39401" lon="-6.14341">
        <ele>127.5</ele>
        <time>2016-07-07T06:25:46Z</time>
      </trkpt>
      <trkpt lat="43.39408" lon="-6.14349">
        <ele>126.8</ele>
        <time>2016-07-07T06:25:54Z</time>
      </trkpt>
      <trkpt lat="43.39417" lon="-6.14355">
        <ele>125.6</ele>
        <time>2016-07-07T06:26:03Z</time>
      </trkpt>
      <trkpt lat="43.39426" lon="-6.14358">
        <ele>124.7</ele>
        <time>2016-07-07T06:26:11Z</time>
      </trkpt>
      <trkpt lat="43.39435" lon="-6.14362">
        <ele>124.2</ele>
        <time>2016-07-07T06:26:18Z</time>
      </trkpt>
      <trkpt lat="43.3944" lon="-6.14373">
        <ele>123.9</ele>
        <time>2016-07-07T06:26:26Z</time>
      </trkpt>
      <trkpt lat="43.39443" lon="-6.14386">
        <ele>123.9</ele>
        <time>2016-07-07T06:26:34Z</time>
      </trkpt>
      <trkpt lat="43.39445" lon="-6.14398">
        <ele>124</ele>
        <time>2016-07-07T06:26:40Z</time>
      </trkpt>
      <trkpt lat="43.39446" lon="-6.14411">
        <ele>124.2</ele>
        <time>2016-07-07T06:26:48Z</time>
      </trkpt>
      <trkpt lat="43.39448" lon="-6.14423">
        <ele>124.5</ele>
        <time>2016-07-07T06:26:57Z</time>
      </trkpt>
      <trkpt lat="43.3945" lon="-6.14435">
        <ele>123.5</ele>
        <time>2016-07-07T06:27:04Z</time>
      </trkpt>
      <trkpt lat="43.3946" lon="-6.14436">
        <ele>122.9</ele>
        <time>2016-07-07T06:27:15Z</time>
      </trkpt>
      <trkpt lat="43.39469" lon="-6.14433">
        <ele>121.8</ele>
        <time>2016-07-07T06:27:28Z</time>
      </trkpt>
      <trkpt lat="43.39478" lon="-6.14429">
        <ele>121.1</ele>
        <time>2016-07-07T06:27:36Z</time>
      </trkpt>
      <trkpt lat="43.39486" lon="-6.14422">
        <ele>120.7</ele>
        <time>2016-07-07T06:27:44Z</time>
      </trkpt>
      <trkpt lat="43.39494" lon="-6.14414">
        <ele>120.3</ele>
        <time>2016-07-07T06:27:53Z</time>
      </trkpt>
      <trkpt lat="43.39503" lon="-6.14411">
        <ele>120.2</ele>
        <time>2016-07-07T06:28:01Z</time>
      </trkpt>
      <trkpt lat="43.39511" lon="-6.14419">
        <ele>120.2</ele>
        <time>2016-07-07T06:28:11Z</time>
      </trkpt>
      <trkpt lat="43.39517" lon="-6.14429">
        <ele>120.8</ele>
        <time>2016-07-07T06:28:19Z</time>
      </trkpt>
      <trkpt lat="43.39523" lon="-6.14439">
        <ele>121.1</ele>
        <time>2016-07-07T06:28:29Z</time>
      </trkpt>
      <trkpt lat="43.39532" lon="-6.14443">
        <ele>122</ele>
        <time>2016-07-07T06:28:44Z</time>
      </trkpt>
      <trkpt lat="43.39525" lon="-6.14435">
        <ele>122.2</ele>
        <time>2016-07-07T06:31:01Z</time>
      </trkpt>
      <trkpt lat="43.39526" lon="-6.14422">
        <ele>122.9</ele>
        <time>2016-07-07T06:31:10Z</time>
      </trkpt>
      <trkpt lat="43.39534" lon="-6.14418">
        <ele>123.2</ele>
        <time>2016-07-07T06:31:18Z</time>
      </trkpt>
      <trkpt lat="43.39544" lon="-6.1442">
        <ele>123.4</ele>
        <time>2016-07-07T06:31:29Z</time>
      </trkpt>
      <trkpt lat="43.39546" lon="-6.14433">
        <ele>123.6</ele>
        <time>2016-07-07T06:31:37Z</time>
      </trkpt>
      <trkpt lat="43.3955" lon="-6.14445">
        <ele>123.5</ele>
        <time>2016-07-07T06:31:45Z</time>
      </trkpt>
      <trkpt lat="43.39559" lon="-6.14443">
        <ele>121.5</ele>
        <time>2016-07-07T06:32:50Z</time>
      </trkpt>
      <trkpt lat="43.39568" lon="-6.14441">
        <ele>121.3</ele>
        <time>2016-07-07T06:32:59Z</time>
      </trkpt>
      <trkpt lat="43.39578" lon="-6.14438">
        <ele>121.4</ele>
        <time>2016-07-07T06:33:07Z</time>
      </trkpt>
      <trkpt lat="43.39588" lon="-6.14437">
        <ele>121.3</ele>
        <time>2016-07-07T06:33:14Z</time>
      </trkpt>
      <trkpt lat="43.39597" lon="-6.14437">
        <ele>121.3</ele>
        <time>2016-07-07T06:33:21Z</time>
      </trkpt>
      <trkpt lat="43.39606" lon="-6.14437">
        <ele>121.6</ele>
        <time>2016-07-07T06:33:28Z</time>
      </trkpt>
      <trkpt lat="43.39615" lon="-6.14437">
        <ele>121.7</ele>
        <time>2016-07-07T06:33:35Z</time>
      </trkpt>
      <trkpt lat="43.39625" lon="-6.14438">
        <ele>121.8</ele>
        <time>2016-07-07T06:33:43Z</time>
      </trkpt>
      <trkpt lat="43.39635" lon="-6.14439">
        <ele>122.2</ele>
        <time>2016-07-07T06:33:51Z</time>
      </trkpt>
      <trkpt lat="43.39643" lon="-6.14444">
        <ele>122.7</ele>
        <time>2016-07-07T06:33:59Z</time>
      </trkpt>
      <trkpt lat="43.3965" lon="-6.14455">
        <ele>123.4</ele>
        <time>2016-07-07T06:34:07Z</time>
      </trkpt>
      <trkpt lat="43.39656" lon="-6.14466">
        <ele>124.4</ele>
        <time>2016-07-07T06:34:15Z</time>
      </trkpt>
      <trkpt lat="43.3966" lon="-6.14477">
        <ele>125.3</ele>
        <time>2016-07-07T06:34:23Z</time>
      </trkpt>
      <trkpt lat="43.39666" lon="-6.14488">
        <ele>126</ele>
        <time>2016-07-07T06:34:32Z</time>
      </trkpt>
      <trkpt lat="43.39671" lon="-6.145">
        <ele>127.6</ele>
        <time>2016-07-07T06:34:59Z</time>
      </trkpt>
      <trkpt lat="43.39673" lon="-6.14512">
        <ele>127.6</ele>
        <time>2016-07-07T06:35:09Z</time>
      </trkpt>
      <trkpt lat="43.39674" lon="-6.14526">
        <ele>128.1</ele>
        <time>2016-07-07T06:35:19Z</time>
      </trkpt>
      <trkpt lat="43.39674" lon="-6.1454">
        <ele>128.7</ele>
        <time>2016-07-07T06:35:28Z</time>
      </trkpt>
      <trkpt lat="43.39673" lon="-6.14553">
        <ele>129.3</ele>
        <time>2016-07-07T06:35:37Z</time>
      </trkpt>
      <trkpt lat="43.39672" lon="-6.14567">
        <ele>129.6</ele>
        <time>2016-07-07T06:35:46Z</time>
      </trkpt>
      <trkpt lat="43.39672" lon="-6.14579">
        <ele>129.5</ele>
        <time>2016-07-07T06:35:54Z</time>
      </trkpt>
      <trkpt lat="43.39673" lon="-6.14593">
        <ele>129.6</ele>
        <time>2016-07-07T06:36:02Z</time>
      </trkpt>
      <trkpt lat="43.39674" lon="-6.14606">
        <ele>129.8</ele>
        <time>2016-07-07T06:36:10Z</time>
      </trkpt>
      <trkpt lat="43.39674" lon="-6.14619">
        <ele>130.1</ele>
        <time>2016-07-07T06:36:18Z</time>
      </trkpt>
      <trkpt lat="43.39674" lon="-6.14632">
        <ele>130.3</ele>
        <time>2016-07-07T06:36:26Z</time>
      </trkpt>
      <trkpt lat="43.39675" lon="-6.14645">
        <ele>130.9</ele>
        <time>2016-07-07T06:36:34Z</time>
      </trkpt>
      <trkpt lat="43.39674" lon="-6.14659">
        <ele>131.6</ele>
        <time>2016-07-07T06:36:42Z</time>
      </trkpt>
      <trkpt lat="43.39675" lon="-6.14671">
        <ele>132.2</ele>
        <time>2016-07-07T06:36:50Z</time>
      </trkpt>
      <trkpt lat="43.39676" lon="-6.14684">
        <ele>132.6</ele>
        <time>2016-07-07T06:37:01Z</time>
      </trkpt>
      <trkpt lat="43.39677" lon="-6.14697">
        <ele>133.4</ele>
        <time>2016-07-07T06:37:10Z</time>
      </trkpt>
      <trkpt lat="43.39679" lon="-6.1471">
        <ele>134.7</ele>
        <time>2016-07-07T06:37:18Z</time>
      </trkpt>
      <trkpt lat="43.39682" lon="-6.14723">
        <ele>135.3</ele>
        <time>2016-07-07T06:37:26Z</time>
      </trkpt>
      <trkpt lat="43.39685" lon="-6.14736">
        <ele>135.6</ele>
        <time>2016-07-07T06:37:34Z</time>
      </trkpt>
      <trkpt lat="43.39689" lon="-6.14747">
        <ele>135.8</ele>
        <time>2016-07-07T06:37:43Z</time>
      </trkpt>
      <trkpt lat="43.39693" lon="-6.1476">
        <ele>136.1</ele>
        <time>2016-07-07T06:37:52Z</time>
      </trkpt>
      <trkpt lat="43.39697" lon="-6.14772">
        <ele>136.9</ele>
        <time>2016-07-07T06:38:01Z</time>
      </trkpt>
      <trkpt lat="43.39703" lon="-6.14781">
        <ele>137.6</ele>
        <time>2016-07-07T06:38:10Z</time>
      </trkpt>
      <trkpt lat="43.3971" lon="-6.14789">
        <ele>138.5</ele>
        <time>2016-07-07T06:38:19Z</time>
      </trkpt>
      <trkpt lat="43.39718" lon="-6.14796">
        <ele>139.3</ele>
        <time>2016-07-07T06:38:29Z</time>
      </trkpt>
      <trkpt lat="43.39727" lon="-6.148">
        <ele>140.9</ele>
        <time>2016-07-07T06:38:40Z</time>
      </trkpt>
      <trkpt lat="43.39736" lon="-6.14803">
        <ele>142.4</ele>
        <time>2016-07-07T06:38:49Z</time>
      </trkpt>
      <trkpt lat="43.39746" lon="-6.14803">
        <ele>143.7</ele>
        <time>2016-07-07T06:38:59Z</time>
      </trkpt>
      <trkpt lat="43.39755" lon="-6.14803">
        <ele>144.5</ele>
        <time>2016-07-07T06:39:07Z</time>
      </trkpt>
      <trkpt lat="43.39764" lon="-6.14804">
        <ele>145.4</ele>
        <time>2016-07-07T06:39:16Z</time>
      </trkpt>
      <trkpt lat="43.39774" lon="-6.14805">
        <ele>146.1</ele>
        <time>2016-07-07T06:39:25Z</time>
      </trkpt>
      <trkpt lat="43.39782" lon="-6.14809">
        <ele>147.3</ele>
        <time>2016-07-07T06:39:33Z</time>
      </trkpt>
      <trkpt lat="43.39792" lon="-6.14812">
        <ele>148.5</ele>
        <time>2016-07-07T06:39:43Z</time>
      </trkpt>
      <trkpt lat="43.39801" lon="-6.14813">
        <ele>149</ele>
        <time>2016-07-07T06:39:52Z</time>
      </trkpt>
      <trkpt lat="43.39811" lon="-6.14814">
        <ele>149.2</ele>
        <time>2016-07-07T06:40:00Z</time>
      </trkpt>
      <trkpt lat="43.3982" lon="-6.14814">
        <ele>149.4</ele>
        <time>2016-07-07T06:40:08Z</time>
      </trkpt>
      <trkpt lat="43.3983" lon="-6.14811">
        <ele>149.4</ele>
        <time>2016-07-07T06:40:15Z</time>
      </trkpt>
      <trkpt lat="43.39839" lon="-6.14806">
        <ele>149</ele>
        <time>2016-07-07T06:40:24Z</time>
      </trkpt>
      <trkpt lat="43.39847" lon="-6.14802">
        <ele>148.8</ele>
        <time>2016-07-07T06:40:32Z</time>
      </trkpt>
      <trkpt lat="43.39856" lon="-6.14797">
        <ele>148.6</ele>
        <time>2016-07-07T06:40:39Z</time>
      </trkpt>
      <trkpt lat="43.39864" lon="-6.14792">
        <ele>148.4</ele>
        <time>2016-07-07T06:40:46Z</time>
      </trkpt>
      <trkpt lat="43.39872" lon="-6.14786">
        <ele>148.2</ele>
        <time>2016-07-07T06:40:53Z</time>
      </trkpt>
      <trkpt lat="43.39881" lon="-6.14779">
        <ele>148.1</ele>
        <time>2016-07-07T06:41:02Z</time>
      </trkpt>
      <trkpt lat="43.39889" lon="-6.14775">
        <ele>148.9</ele>
        <time>2016-07-07T06:41:29Z</time>
      </trkpt>
      <trkpt lat="43.39895" lon="-6.14765">
        <ele>149.3</ele>
        <time>2016-07-07T06:41:42Z</time>
      </trkpt>
      <trkpt lat="43.39896" lon="-6.14751">
        <ele>149.9</ele>
        <time>2016-07-07T06:41:51Z</time>
      </trkpt>
      <trkpt lat="43.39902" lon="-6.14741">
        <ele>151</ele>
        <time>2016-07-07T06:41:59Z</time>
      </trkpt>
      <trkpt lat="43.39909" lon="-6.14732">
        <ele>151.4</ele>
        <time>2016-07-07T06:42:07Z</time>
      </trkpt>
      <trkpt lat="43.39916" lon="-6.14724">
        <ele>151.9</ele>
        <time>2016-07-07T06:42:15Z</time>
      </trkpt>
      <trkpt lat="43.39924" lon="-6.14716">
        <ele>151.8</ele>
        <time>2016-07-07T06:42:23Z</time>
      </trkpt>
      <trkpt lat="43.3993" lon="-6.14726">
        <ele>152</ele>
        <time>2016-07-07T06:42:33Z</time>
      </trkpt>
      <trkpt lat="43.39934" lon="-6.14739">
        <ele>151.6</ele>
        <time>2016-07-07T06:42:41Z</time>
      </trkpt>
      <trkpt lat="43.39938" lon="-6.14751">
        <ele>150.4</ele>
        <time>2016-07-07T06:42:48Z</time>
      </trkpt>
      <trkpt lat="43.39943" lon="-6.14762">
        <ele>149.6</ele>
        <time>2016-07-07T06:42:55Z</time>
      </trkpt>
      <trkpt lat="43.39948" lon="-6.14773">
        <ele>149</ele>
        <time>2016-07-07T06:43:02Z</time>
      </trkpt>
      <trkpt lat="43.39953" lon="-6.14785">
        <ele>148.3</ele>
        <time>2016-07-07T06:43:10Z</time>
      </trkpt>
      <trkpt lat="43.39957" lon="-6.14796">
        <ele>147.6</ele>
        <time>2016-07-07T06:43:18Z</time>
      </trkpt>
      <trkpt lat="43.3996" lon="-6.14809">
        <ele>147.1</ele>
        <time>2016-07-07T06:43:27Z</time>
      </trkpt>
      <trkpt lat="43.39967" lon="-6.14818">
        <ele>146.7</ele>
        <time>2016-07-07T06:43:35Z</time>
      </trkpt>
      <trkpt lat="43.39974" lon="-6.14828">
        <ele>146.6</ele>
        <time>2016-07-07T06:43:44Z</time>
      </trkpt>
      <trkpt lat="43.39981" lon="-6.14835">
        <ele>146.4</ele>
        <time>2016-07-07T06:43:52Z</time>
      </trkpt>
      <trkpt lat="43.3999" lon="-6.14839">
        <ele>146.1</ele>
        <time>2016-07-07T06:44:00Z</time>
      </trkpt>
      <trkpt lat="43.39999" lon="-6.1484">
        <ele>145.7</ele>
        <time>2016-07-07T06:44:08Z</time>
      </trkpt>
      <trkpt lat="43.40007" lon="-6.14848">
        <ele>145.3</ele>
        <time>2016-07-07T06:44:16Z</time>
      </trkpt>
      <trkpt lat="43.40016" lon="-6.14854">
        <ele>144.6</ele>
        <time>2016-07-07T06:44:25Z</time>
      </trkpt>
      <trkpt lat="43.40024" lon="-6.14859">
        <ele>143.2</ele>
        <time>2016-07-07T06:44:37Z</time>
      </trkpt>
      <trkpt lat="43.40033" lon="-6.1486">
        <ele>141.6</ele>
        <time>2016-07-07T06:44:48Z</time>
      </trkpt>
      <trkpt lat="43.40043" lon="-6.14862">
        <ele>140.8</ele>
        <time>2016-07-07T06:44:58Z</time>
      </trkpt>
      <trkpt lat="43.40052" lon="-6.14863">
        <ele>140</ele>
        <time>2016-07-07T06:45:06Z</time>
      </trkpt>
      <trkpt lat="43.40062" lon="-6.14862">
        <ele>139.2</ele>
        <time>2016-07-07T06:45:15Z</time>
      </trkpt>
      <trkpt lat="43.40071" lon="-6.14861">
        <ele>138.4</ele>
        <time>2016-07-07T06:45:23Z</time>
      </trkpt>
      <trkpt lat="43.40081" lon="-6.14861">
        <ele>137</ele>
        <time>2016-07-07T06:45:32Z</time>
      </trkpt>
      <trkpt lat="43.40091" lon="-6.1486">
        <ele>135.8</ele>
        <time>2016-07-07T06:45:39Z</time>
      </trkpt>
      <trkpt lat="43.401" lon="-6.14862">
        <ele>134.3</ele>
        <time>2016-07-07T06:45:48Z</time>
      </trkpt>
      <trkpt lat="43.4011" lon="-6.14862">
        <ele>132.1</ele>
        <time>2016-07-07T06:46:02Z</time>
      </trkpt>
      <trkpt lat="43.4012" lon="-6.14862">
        <ele>131</ele>
        <time>2016-07-07T06:46:11Z</time>
      </trkpt>
      <trkpt lat="43.4013" lon="-6.14862">
        <ele>130</ele>
        <time>2016-07-07T06:46:20Z</time>
      </trkpt>
      <trkpt lat="43.4014" lon="-6.14865">
        <ele>128.8</ele>
        <time>2016-07-07T06:46:28Z</time>
      </trkpt>
      <trkpt lat="43.40149" lon="-6.14867">
        <ele>128</ele>
        <time>2016-07-07T06:46:35Z</time>
      </trkpt>
      <trkpt lat="43.40157" lon="-6.14874">
        <ele>126.8</ele>
        <time>2016-07-07T06:46:48Z</time>
      </trkpt>
      <trkpt lat="43.40164" lon="-6.14883">
        <ele>125.4</ele>
        <time>2016-07-07T06:46:59Z</time>
      </trkpt>
      <trkpt lat="43.40173" lon="-6.14885">
        <ele>124.2</ele>
        <time>2016-07-07T06:47:06Z</time>
      </trkpt>
      <trkpt lat="43.40182" lon="-6.14887">
        <ele>122.8</ele>
        <time>2016-07-07T06:47:13Z</time>
      </trkpt>
      <trkpt lat="43.40192" lon="-6.14887">
        <ele>120.9</ele>
        <time>2016-07-07T06:47:28Z</time>
      </trkpt>
      <trkpt lat="43.40201" lon="-6.1489">
        <ele>117.4</ele>
        <time>2016-07-07T06:48:05Z</time>
      </trkpt>
      <trkpt lat="43.4021" lon="-6.14886">
        <ele>116.8</ele>
        <time>2016-07-07T06:48:21Z</time>
      </trkpt>
      <trkpt lat="43.40219" lon="-6.14882">
        <ele>116.6</ele>
        <time>2016-07-07T06:48:31Z</time>
      </trkpt>
      <trkpt lat="43.40228" lon="-6.14878">
        <ele>115.2</ele>
        <time>2016-07-07T06:48:40Z</time>
      </trkpt>
      <trkpt lat="43.40238" lon="-6.14876">
        <ele>113.8</ele>
        <time>2016-07-07T06:48:50Z</time>
      </trkpt>
      <trkpt lat="43.40247" lon="-6.14877">
        <ele>112.4</ele>
        <time>2016-07-07T06:49:02Z</time>
      </trkpt>
      <trkpt lat="43.40257" lon="-6.14879">
        <ele>111.8</ele>
        <time>2016-07-07T06:49:14Z</time>
      </trkpt>
      <trkpt lat="43.40265" lon="-6.14885">
        <ele>109.1</ele>
        <time>2016-07-07T06:49:36Z</time>
      </trkpt>
      <trkpt lat="43.40274" lon="-6.14888">
        <ele>104.4</ele>
        <time>2016-07-07T06:50:33Z</time>
      </trkpt>
      <trkpt lat="43.40284" lon="-6.14887">
        <ele>102.9</ele>
        <time>2016-07-07T06:50:45Z</time>
      </trkpt>
      <trkpt lat="43.40293" lon="-6.1489">
        <ele>101.4</ele>
        <time>2016-07-07T06:50:57Z</time>
      </trkpt>
      <trkpt lat="43.40301" lon="-6.14895">
        <ele>98.1</ele>
        <time>2016-07-07T06:51:21Z</time>
      </trkpt>
      <trkpt lat="43.40293" lon="-6.14901">
        <ele>93</ele>
        <time>2016-07-07T06:51:56Z</time>
      </trkpt>
      <trkpt lat="43.40294" lon="-6.14914">
        <ele>89.7</ele>
        <time>2016-07-07T06:52:21Z</time>
      </trkpt>
      <trkpt lat="43.403" lon="-6.14923">
        <ele>87.7</ele>
        <time>2016-07-07T06:52:39Z</time>
      </trkpt>
      <trkpt lat="43.40309" lon="-6.14927">
        <ele>86.5</ele>
        <time>2016-07-07T06:52:48Z</time>
      </trkpt>
      <trkpt lat="43.40315" lon="-6.14938">
        <ele>85.2</ele>
        <time>2016-07-07T06:52:58Z</time>
      </trkpt>
      <trkpt lat="43.40316" lon="-6.14951">
        <ele>83.3</ele>
        <time>2016-07-07T06:53:11Z</time>
      </trkpt>
      <trkpt lat="43.40323" lon="-6.1496">
        <ele>82.1</ele>
        <time>2016-07-07T06:53:23Z</time>
      </trkpt>
      <trkpt lat="43.40332" lon="-6.1496">
        <ele>80.6</ele>
        <time>2016-07-07T06:53:39Z</time>
      </trkpt>
      <trkpt lat="43.40341" lon="-6.14963">
        <ele>78.9</ele>
        <time>2016-07-07T06:53:52Z</time>
      </trkpt>
      <trkpt lat="43.40351" lon="-6.14964">
        <ele>77.6</ele>
        <time>2016-07-07T06:54:02Z</time>
      </trkpt>
      <trkpt lat="43.4036" lon="-6.14968">
        <ele>75.3</ele>
        <time>2016-07-07T06:54:13Z</time>
      </trkpt>
      <trkpt lat="43.40369" lon="-6.14972">
        <ele>73.5</ele>
        <time>2016-07-07T06:54:25Z</time>
      </trkpt>
      <trkpt lat="43.40377" lon="-6.14979">
        <ele>71.9</ele>
        <time>2016-07-07T06:54:34Z</time>
      </trkpt>
      <trkpt lat="43.40386" lon="-6.14985">
        <ele>70.6</ele>
        <time>2016-07-07T06:54:43Z</time>
      </trkpt>
      <trkpt lat="43.40393" lon="-6.14994">
        <ele>69.8</ele>
        <time>2016-07-07T06:54:51Z</time>
      </trkpt>
      <trkpt lat="43.40399" lon="-6.15005">
        <ele>69.2</ele>
        <time>2016-07-07T06:54:58Z</time>
      </trkpt>
      <trkpt lat="43.40405" lon="-6.15015">
        <ele>68.5</ele>
        <time>2016-07-07T06:55:05Z</time>
      </trkpt>
      <trkpt lat="43.40411" lon="-6.15024">
        <ele>67.4</ele>
        <time>2016-07-07T06:55:13Z</time>
      </trkpt>
      <trkpt lat="43.40417" lon="-6.15035">
        <ele>66.3</ele>
        <time>2016-07-07T06:55:21Z</time>
      </trkpt>
      <trkpt lat="43.40424" lon="-6.15044">
        <ele>65.4</ele>
        <time>2016-07-07T06:55:29Z</time>
      </trkpt>
      <trkpt lat="43.40429" lon="-6.15054">
        <ele>64.8</ele>
        <time>2016-07-07T06:55:39Z</time>
      </trkpt>
      <trkpt lat="43.40439" lon="-6.1506">
        <ele>64</ele>
        <time>2016-07-07T06:55:48Z</time>
      </trkpt>
      <trkpt lat="43.40447" lon="-6.15065">
        <ele>63</ele>
        <time>2016-07-07T06:55:56Z</time>
      </trkpt>
      <trkpt lat="43.40456" lon="-6.15069">
        <ele>62.1</ele>
        <time>2016-07-07T06:56:04Z</time>
      </trkpt>
      <trkpt lat="43.40461" lon="-6.15081">
        <ele>59.9</ele>
        <time>2016-07-07T06:56:20Z</time>
      </trkpt>
      <trkpt lat="43.40469" lon="-6.15088">
        <ele>59.1</ele>
        <time>2016-07-07T06:56:29Z</time>
      </trkpt>
      <trkpt lat="43.40478" lon="-6.15091">
        <ele>58.5</ele>
        <time>2016-07-07T06:56:37Z</time>
      </trkpt>
      <trkpt lat="43.40488" lon="-6.15088">
        <ele>58</ele>
        <time>2016-07-07T06:56:44Z</time>
      </trkpt>
      <trkpt lat="43.40498" lon="-6.15089">
        <ele>57.5</ele>
        <time>2016-07-07T06:56:52Z</time>
      </trkpt>
      <trkpt lat="43.40507" lon="-6.15089">
        <ele>57.1</ele>
        <time>2016-07-07T06:56:59Z</time>
      </trkpt>
      <trkpt lat="43.40517" lon="-6.15087">
        <ele>56.6</ele>
        <time>2016-07-07T06:57:08Z</time>
      </trkpt>
      <trkpt lat="43.40528" lon="-6.15086">
        <ele>56.4</ele>
        <time>2016-07-07T06:57:15Z</time>
      </trkpt>
      <trkpt lat="43.40537" lon="-6.15089">
        <ele>56.1</ele>
        <time>2016-07-07T06:57:22Z</time>
      </trkpt>
      <trkpt lat="43.40546" lon="-6.1509">
        <ele>56.2</ele>
        <time>2016-07-07T06:57:29Z</time>
      </trkpt>
      <trkpt lat="43.40556" lon="-6.1509">
        <ele>55.3</ele>
        <time>2016-07-07T06:57:37Z</time>
      </trkpt>
      <trkpt lat="43.40566" lon="-6.15087">
        <ele>54.6</ele>
        <time>2016-07-07T06:57:45Z</time>
      </trkpt>
      <trkpt lat="43.40575" lon="-6.1508">
        <ele>54.2</ele>
        <time>2016-07-07T06:57:52Z</time>
      </trkpt>
      <trkpt lat="43.40584" lon="-6.15074">
        <ele>53.9</ele>
        <time>2016-07-07T06:57:59Z</time>
      </trkpt>
      <trkpt lat="43.40592" lon="-6.15067">
        <ele>53.9</ele>
        <time>2016-07-07T06:58:06Z</time>
      </trkpt>
      <trkpt lat="43.406" lon="-6.1506">
        <ele>53.9</ele>
        <time>2016-07-07T06:58:12Z</time>
      </trkpt>
      <trkpt lat="43.40608" lon="-6.15055">
        <ele>53.8</ele>
        <time>2016-07-07T06:58:19Z</time>
      </trkpt>
      <trkpt lat="43.40618" lon="-6.15051">
        <ele>53.6</ele>
        <time>2016-07-07T06:58:27Z</time>
      </trkpt>
      <trkpt lat="43.40627" lon="-6.15049">
        <ele>53.3</ele>
        <time>2016-07-07T06:58:35Z</time>
      </trkpt>
      <trkpt lat="43.40637" lon="-6.15045">
        <ele>53.4</ele>
        <time>2016-07-07T06:58:44Z</time>
      </trkpt>
      <trkpt lat="43.40645" lon="-6.15038">
        <ele>53.2</ele>
        <time>2016-07-07T06:58:52Z</time>
      </trkpt>
      <trkpt lat="43.40654" lon="-6.15031">
        <ele>53.3</ele>
        <time>2016-07-07T06:59:00Z</time>
      </trkpt>
      <trkpt lat="43.40662" lon="-6.15025">
        <ele>53.3</ele>
        <time>2016-07-07T06:59:07Z</time>
      </trkpt>
      <trkpt lat="43.40671" lon="-6.15018">
        <ele>53.8</ele>
        <time>2016-07-07T06:59:15Z</time>
      </trkpt>
      <trkpt lat="43.40679" lon="-6.15014">
        <ele>54.2</ele>
        <time>2016-07-07T06:59:23Z</time>
      </trkpt>
      <trkpt lat="43.40688" lon="-6.15012">
        <ele>54.4</ele>
        <time>2016-07-07T06:59:31Z</time>
      </trkpt>
      <trkpt lat="43.40697" lon="-6.15009">
        <ele>54.5</ele>
        <time>2016-07-07T06:59:41Z</time>
      </trkpt>
      <trkpt lat="43.40704" lon="-6.15017">
        <ele>54.4</ele>
        <time>2016-07-07T06:59:59Z</time>
      </trkpt>
      <trkpt lat="43.40714" lon="-6.15017">
        <ele>54.2</ele>
        <time>2016-07-07T07:00:08Z</time>
      </trkpt>
      <trkpt lat="43.40723" lon="-6.15011">
        <ele>53.7</ele>
        <time>2016-07-07T07:00:15Z</time>
      </trkpt>
      <trkpt lat="43.40733" lon="-6.15006">
        <ele>53.3</ele>
        <time>2016-07-07T07:00:22Z</time>
      </trkpt>
      <trkpt lat="43.40742" lon="-6.15004">
        <ele>53</ele>
        <time>2016-07-07T07:00:29Z</time>
      </trkpt>
      <trkpt lat="43.40752" lon="-6.15001">
        <ele>52.9</ele>
        <time>2016-07-07T07:00:37Z</time>
      </trkpt>
      <trkpt lat="43.40762" lon="-6.14999">
        <ele>52.7</ele>
        <time>2016-07-07T07:00:45Z</time>
      </trkpt>
      <trkpt lat="43.40772" lon="-6.14997">
        <ele>52.8</ele>
        <time>2016-07-07T07:00:53Z</time>
      </trkpt>
      <trkpt lat="43.40782" lon="-6.14994">
        <ele>53.2</ele>
        <time>2016-07-07T07:01:01Z</time>
      </trkpt>
      <trkpt lat="43.40791" lon="-6.1499">
        <ele>53.3</ele>
        <time>2016-07-07T07:01:08Z</time>
      </trkpt>
      <trkpt lat="43.408" lon="-6.14988">
        <ele>53.3</ele>
        <time>2016-07-07T07:01:17Z</time>
      </trkpt>
      <trkpt lat="43.4081" lon="-6.14985">
        <ele>53.3</ele>
        <time>2016-07-07T07:01:25Z</time>
      </trkpt>
      <trkpt lat="43.40819" lon="-6.14985">
        <ele>53.2</ele>
        <time>2016-07-07T07:01:33Z</time>
      </trkpt>
      <trkpt lat="43.40828" lon="-6.14984">
        <ele>52.9</ele>
        <time>2016-07-07T07:01:41Z</time>
      </trkpt>
      <trkpt lat="43.40837" lon="-6.14983">
        <ele>52.6</ele>
        <time>2016-07-07T07:01:48Z</time>
      </trkpt>
      <trkpt lat="43.40847" lon="-6.14983">
        <ele>52.7</ele>
        <time>2016-07-07T07:01:56Z</time>
      </trkpt>
      <trkpt lat="43.40856" lon="-6.14986">
        <ele>52.6</ele>
        <time>2016-07-07T07:02:04Z</time>
      </trkpt>
      <trkpt lat="43.40865" lon="-6.14987">
        <ele>52.6</ele>
        <time>2016-07-07T07:02:12Z</time>
      </trkpt>
      <trkpt lat="43.40875" lon="-6.14989">
        <ele>52.2</ele>
        <time>2016-07-07T07:02:20Z</time>
      </trkpt>
      <trkpt lat="43.40885" lon="-6.14988">
        <ele>52.3</ele>
        <time>2016-07-07T07:02:28Z</time>
      </trkpt>
      <trkpt lat="43.40894" lon="-6.14986">
        <ele>52.6</ele>
        <time>2016-07-07T07:02:35Z</time>
      </trkpt>
      <trkpt lat="43.40903" lon="-6.14984">
        <ele>52.8</ele>
        <time>2016-07-07T07:02:42Z</time>
      </trkpt>
      <trkpt lat="43.40913" lon="-6.14981">
        <ele>53.3</ele>
        <time>2016-07-07T07:02:50Z</time>
      </trkpt>
      <trkpt lat="43.40923" lon="-6.14979">
        <ele>53</ele>
        <time>2016-07-07T07:02:59Z</time>
      </trkpt>
      <trkpt lat="43.40932" lon="-6.14978">
        <ele>52.8</ele>
        <time>2016-07-07T07:03:07Z</time>
      </trkpt>
      <trkpt lat="43.40941" lon="-6.14982">
        <ele>53.3</ele>
        <time>2016-07-07T07:03:16Z</time>
      </trkpt>
      <trkpt lat="43.4095" lon="-6.14985">
        <ele>52.8</ele>
        <time>2016-07-07T07:03:25Z</time>
      </trkpt>
      <trkpt lat="43.40959" lon="-6.14989">
        <ele>52.6</ele>
        <time>2016-07-07T07:03:34Z</time>
      </trkpt>
      <trkpt lat="43.40968" lon="-6.14994">
        <ele>52.4</ele>
        <time>2016-07-07T07:03:45Z</time>
      </trkpt>
      <trkpt lat="43.40977" lon="-6.14996">
        <ele>52.3</ele>
        <time>2016-07-07T07:03:54Z</time>
      </trkpt>
      <trkpt lat="43.40987" lon="-6.14994">
        <ele>52</ele>
        <time>2016-07-07T07:04:02Z</time>
      </trkpt>
      <trkpt lat="43.40995" lon="-6.14988">
        <ele>51.9</ele>
        <time>2016-07-07T07:04:08Z</time>
      </trkpt>
      <trkpt lat="43.41004" lon="-6.14982">
        <ele>51.8</ele>
        <time>2016-07-07T07:04:14Z</time>
      </trkpt>
      <trkpt lat="43.41013" lon="-6.14976">
        <ele>51.8</ele>
        <time>2016-07-07T07:04:20Z</time>
      </trkpt>
      <trkpt lat="43.41022" lon="-6.14971">
        <ele>51.8</ele>
        <time>2016-07-07T07:04:26Z</time>
      </trkpt>
      <trkpt lat="43.41031" lon="-6.14966">
        <ele>51.8</ele>
        <time>2016-07-07T07:04:32Z</time>
      </trkpt>
      <trkpt lat="43.4104" lon="-6.14962">
        <ele>51.8</ele>
        <time>2016-07-07T07:04:39Z</time>
      </trkpt>
      <trkpt lat="43.4105" lon="-6.14958">
        <ele>51.8</ele>
        <time>2016-07-07T07:04:46Z</time>
      </trkpt>
      <trkpt lat="43.41058" lon="-6.14953">
        <ele>51.8</ele>
        <time>2016-07-07T07:04:53Z</time>
      </trkpt>
      <trkpt lat="43.41067" lon="-6.14949">
        <ele>51.6</ele>
        <time>2016-07-07T07:05:01Z</time>
      </trkpt>
      <trkpt lat="43.41077" lon="-6.14946">
        <ele>51.2</ele>
        <time>2016-07-07T07:05:09Z</time>
      </trkpt>
      <trkpt lat="43.41087" lon="-6.14945">
        <ele>50.7</ele>
        <time>2016-07-07T07:05:17Z</time>
      </trkpt>
      <trkpt lat="43.41096" lon="-6.14944">
        <ele>50.6</ele>
        <time>2016-07-07T07:05:25Z</time>
      </trkpt>
      <trkpt lat="43.41106" lon="-6.14945">
        <ele>50.7</ele>
        <time>2016-07-07T07:05:33Z</time>
      </trkpt>
      <trkpt lat="43.41115" lon="-6.14945">
        <ele>50.6</ele>
        <time>2016-07-07T07:05:42Z</time>
      </trkpt>
      <trkpt lat="43.41125" lon="-6.14945">
        <ele>50.3</ele>
        <time>2016-07-07T07:05:55Z</time>
      </trkpt>
      <trkpt lat="43.41134" lon="-6.14944">
        <ele>50.4</ele>
        <time>2016-07-07T07:06:17Z</time>
      </trkpt>
      <trkpt lat="43.41142" lon="-6.14949">
        <ele>50.4</ele>
        <time>2016-07-07T07:06:26Z</time>
      </trkpt>
      <trkpt lat="43.41151" lon="-6.14955">
        <ele>50.3</ele>
        <time>2016-07-07T07:06:34Z</time>
      </trkpt>
      <trkpt lat="43.4116" lon="-6.14961">
        <ele>50.4</ele>
        <time>2016-07-07T07:06:46Z</time>
      </trkpt>
      <trkpt lat="43.41168" lon="-6.14967">
        <ele>50.6</ele>
        <time>2016-07-07T07:06:54Z</time>
      </trkpt>
      <trkpt lat="43.41177" lon="-6.14973">
        <ele>50.5</ele>
        <time>2016-07-07T07:07:02Z</time>
      </trkpt>
      <trkpt lat="43.41186" lon="-6.14979">
        <ele>50.1</ele>
        <time>2016-07-07T07:07:10Z</time>
      </trkpt>
      <trkpt lat="43.41195" lon="-6.14985">
        <ele>50.5</ele>
        <time>2016-07-07T07:07:18Z</time>
      </trkpt>
      <trkpt lat="43.41204" lon="-6.14991">
        <ele>50.6</ele>
        <time>2016-07-07T07:07:26Z</time>
      </trkpt>
      <trkpt lat="43.41212" lon="-6.14996">
        <ele>50.6</ele>
        <time>2016-07-07T07:07:34Z</time>
      </trkpt>
      <trkpt lat="43.41221" lon="-6.15002">
        <ele>50.6</ele>
        <time>2016-07-07T07:07:43Z</time>
      </trkpt>
      <trkpt lat="43.4123" lon="-6.15007">
        <ele>50.7</ele>
        <time>2016-07-07T07:07:52Z</time>
      </trkpt>
      <trkpt lat="43.41238" lon="-6.15013">
        <ele>50.7</ele>
        <time>2016-07-07T07:08:00Z</time>
      </trkpt>
      <trkpt lat="43.41246" lon="-6.15018">
        <ele>50.4</ele>
        <time>2016-07-07T07:08:09Z</time>
      </trkpt>
      <trkpt lat="43.41255" lon="-6.15024">
        <ele>50.2</ele>
        <time>2016-07-07T07:08:18Z</time>
      </trkpt>
      <trkpt lat="43.41264" lon="-6.1503">
        <ele>50.4</ele>
        <time>2016-07-07T07:08:26Z</time>
      </trkpt>
      <trkpt lat="43.41272" lon="-6.15035">
        <ele>50.3</ele>
        <time>2016-07-07T07:08:35Z</time>
      </trkpt>
      <trkpt lat="43.41281" lon="-6.15041">
        <ele>50.4</ele>
        <time>2016-07-07T07:08:42Z</time>
      </trkpt>
      <trkpt lat="43.41289" lon="-6.15047">
        <ele>50.6</ele>
        <time>2016-07-07T07:08:49Z</time>
      </trkpt>
      <trkpt lat="43.41298" lon="-6.15052">
        <ele>50.3</ele>
        <time>2016-07-07T07:08:57Z</time>
      </trkpt>
      <trkpt lat="43.41307" lon="-6.15056">
        <ele>50.4</ele>
        <time>2016-07-07T07:09:05Z</time>
      </trkpt>
      <trkpt lat="43.41316" lon="-6.15059">
        <ele>50.6</ele>
        <time>2016-07-07T07:09:12Z</time>
      </trkpt>
      <trkpt lat="43.41325" lon="-6.15066">
        <ele>50.7</ele>
        <time>2016-07-07T07:09:20Z</time>
      </trkpt>
      <trkpt lat="43.41334" lon="-6.1507">
        <ele>50.7</ele>
        <time>2016-07-07T07:09:27Z</time>
      </trkpt>
      <trkpt lat="43.41343" lon="-6.15076">
        <ele>50.8</ele>
        <time>2016-07-07T07:09:35Z</time>
      </trkpt>
      <trkpt lat="43.41351" lon="-6.15082">
        <ele>51.3</ele>
        <time>2016-07-07T07:09:43Z</time>
      </trkpt>
      <trkpt lat="43.4136" lon="-6.15088">
        <ele>51.7</ele>
        <time>2016-07-07T07:09:52Z</time>
      </trkpt>
      <trkpt lat="43.41367" lon="-6.15096">
        <ele>52</ele>
        <time>2016-07-07T07:10:00Z</time>
      </trkpt>
      <trkpt lat="43.41374" lon="-6.15104">
        <ele>52.3</ele>
        <time>2016-07-07T07:10:08Z</time>
      </trkpt>
      <trkpt lat="43.4138" lon="-6.15114">
        <ele>52.7</ele>
        <time>2016-07-07T07:10:16Z</time>
      </trkpt>
      <trkpt lat="43.41382" lon="-6.15126">
        <ele>53</ele>
        <time>2016-07-07T07:10:24Z</time>
      </trkpt>
      <trkpt lat="43.41381" lon="-6.15139">
        <ele>53.3</ele>
        <time>2016-07-07T07:10:32Z</time>
      </trkpt>
      <trkpt lat="43.41381" lon="-6.15152">
        <ele>53.4</ele>
        <time>2016-07-07T07:10:41Z</time>
      </trkpt>
      <trkpt lat="43.41381" lon="-6.15166">
        <ele>53.2</ele>
        <time>2016-07-07T07:10:49Z</time>
      </trkpt>
      <trkpt lat="43.4138" lon="-6.15179">
        <ele>53.1</ele>
        <time>2016-07-07T07:10:58Z</time>
      </trkpt>
      <trkpt lat="43.4138" lon="-6.15192">
        <ele>53.1</ele>
        <time>2016-07-07T07:11:07Z</time>
      </trkpt>
      <trkpt lat="43.41379" lon="-6.15206">
        <ele>53.2</ele>
        <time>2016-07-07T07:11:15Z</time>
      </trkpt>
      <trkpt lat="43.41378" lon="-6.15219">
        <ele>53.4</ele>
        <time>2016-07-07T07:11:23Z</time>
      </trkpt>
      <trkpt lat="43.41376" lon="-6.15232">
        <ele>53.4</ele>
        <time>2016-07-07T07:11:31Z</time>
      </trkpt>
      <trkpt lat="43.41374" lon="-6.15245">
        <ele>53.6</ele>
        <time>2016-07-07T07:11:39Z</time>
      </trkpt>
      <trkpt lat="43.41372" lon="-6.15257">
        <ele>53.5</ele>
        <time>2016-07-07T07:11:50Z</time>
      </trkpt>
      <trkpt lat="43.41372" lon="-6.15271">
        <ele>53.9</ele>
        <time>2016-07-07T07:11:58Z</time>
      </trkpt>
      <trkpt lat="43.41371" lon="-6.15284">
        <ele>54.4</ele>
        <time>2016-07-07T07:12:09Z</time>
      </trkpt>
      <trkpt lat="43.41364" lon="-6.15293">
        <ele>55.4</ele>
        <time>2016-07-07T07:12:28Z</time>
      </trkpt>
      <trkpt lat="43.41354" lon="-6.15292">
        <ele>54.1</ele>
        <time>2016-07-07T07:12:41Z</time>
      </trkpt>
      <trkpt lat="43.41345" lon="-6.15287">
        <ele>53</ele>
        <time>2016-07-07T07:12:50Z</time>
      </trkpt>
      <trkpt lat="43.41337" lon="-6.15284">
        <ele>52.5</ele>
        <time>2016-07-07T07:12:58Z</time>
      </trkpt>
      <trkpt lat="43.41327" lon="-6.15281">
        <ele>51.7</ele>
        <time>2016-07-07T07:13:07Z</time>
      </trkpt>
      <trkpt lat="43.41318" lon="-6.15279">
        <ele>51.4</ele>
        <time>2016-07-07T07:13:15Z</time>
      </trkpt>
      <trkpt lat="43.41309" lon="-6.15275">
        <ele>51.3</ele>
        <time>2016-07-07T07:13:23Z</time>
      </trkpt>
      <trkpt lat="43.41299" lon="-6.15272">
        <ele>51.2</ele>
        <time>2016-07-07T07:13:31Z</time>
      </trkpt>
      <trkpt lat="43.41289" lon="-6.15269">
        <ele>51.3</ele>
        <time>2016-07-07T07:13:39Z</time>
      </trkpt>
      <trkpt lat="43.4128" lon="-6.15268">
        <ele>51.2</ele>
        <time>2016-07-07T07:13:46Z</time>
      </trkpt>
      <trkpt lat="43.41271" lon="-6.15266">
        <ele>51.5</ele>
        <time>2016-07-07T07:13:54Z</time>
      </trkpt>
      <trkpt lat="43.41261" lon="-6.15265">
        <ele>51.8</ele>
        <time>2016-07-07T07:14:01Z</time>
      </trkpt>
      <trkpt lat="43.41252" lon="-6.15265">
        <ele>52</ele>
        <time>2016-07-07T07:14:09Z</time>
      </trkpt>
      <trkpt lat="43.41242" lon="-6.15264">
        <ele>52</ele>
        <time>2016-07-07T07:14:17Z</time>
      </trkpt>
      <trkpt lat="43.41232" lon="-6.15264">
        <ele>51.4</ele>
        <time>2016-07-07T07:14:24Z</time>
      </trkpt>
      <trkpt lat="43.41223" lon="-6.15265">
        <ele>51.4</ele>
        <time>2016-07-07T07:14:31Z</time>
      </trkpt>
      <trkpt lat="43.41213" lon="-6.15265">
        <ele>51.5</ele>
        <time>2016-07-07T07:14:38Z</time>
      </trkpt>
      <trkpt lat="43.41204" lon="-6.15266">
        <ele>51.6</ele>
        <time>2016-07-07T07:14:45Z</time>
      </trkpt>
      <trkpt lat="43.41193" lon="-6.15267">
        <ele>51.6</ele>
        <time>2016-07-07T07:14:52Z</time>
      </trkpt>
      <trkpt lat="43.41184" lon="-6.15268">
        <ele>51.9</ele>
        <time>2016-07-07T07:15:00Z</time>
      </trkpt>
      <trkpt lat="43.41174" lon="-6.1527">
        <ele>52.1</ele>
        <time>2016-07-07T07:15:08Z</time>
      </trkpt>
      <trkpt lat="43.41165" lon="-6.1527">
        <ele>52.2</ele>
        <time>2016-07-07T07:15:15Z</time>
      </trkpt>
      <trkpt lat="43.41156" lon="-6.15272">
        <ele>52.2</ele>
        <time>2016-07-07T07:15:22Z</time>
      </trkpt>
      <trkpt lat="43.41146" lon="-6.15274">
        <ele>52.1</ele>
        <time>2016-07-07T07:15:31Z</time>
      </trkpt>
      <trkpt lat="43.41136" lon="-6.15276">
        <ele>52.1</ele>
        <time>2016-07-07T07:15:38Z</time>
      </trkpt>
      <trkpt lat="43.41127" lon="-6.15278">
        <ele>52.1</ele>
        <time>2016-07-07T07:15:46Z</time>
      </trkpt>
      <trkpt lat="43.41118" lon="-6.1528">
        <ele>52.1</ele>
        <time>2016-07-07T07:15:54Z</time>
      </trkpt>
      <trkpt lat="43.41109" lon="-6.1528">
        <ele>52.1</ele>
        <time>2016-07-07T07:16:02Z</time>
      </trkpt>
      <trkpt lat="43.41099" lon="-6.15283">
        <ele>52.2</ele>
        <time>2016-07-07T07:16:10Z</time>
      </trkpt>
      <trkpt lat="43.4109" lon="-6.15285">
        <ele>52.4</ele>
        <time>2016-07-07T07:16:18Z</time>
      </trkpt>
      <trkpt lat="43.41081" lon="-6.15287">
        <ele>52.5</ele>
        <time>2016-07-07T07:16:24Z</time>
      </trkpt>
      <trkpt lat="43.41072" lon="-6.15289">
        <ele>52.5</ele>
        <time>2016-07-07T07:16:30Z</time>
      </trkpt>
      <trkpt lat="43.41063" lon="-6.15291">
        <ele>52.5</ele>
        <time>2016-07-07T07:16:37Z</time>
      </trkpt>
      <trkpt lat="43.41053" lon="-6.15293">
        <ele>52.5</ele>
        <time>2016-07-07T07:16:44Z</time>
      </trkpt>
      <trkpt lat="43.41044" lon="-6.15295">
        <ele>52.5</ele>
        <time>2016-07-07T07:16:51Z</time>
      </trkpt>
      <trkpt lat="43.41035" lon="-6.15298">
        <ele>52.6</ele>
        <time>2016-07-07T07:16:59Z</time>
      </trkpt>
      <trkpt lat="43.41025" lon="-6.15302">
        <ele>52.6</ele>
        <time>2016-07-07T07:17:07Z</time>
      </trkpt>
      <trkpt lat="43.41017" lon="-6.15309">
        <ele>52.7</ele>
        <time>2016-07-07T07:17:14Z</time>
      </trkpt>
      <trkpt lat="43.4101" lon="-6.15318">
        <ele>52.7</ele>
        <time>2016-07-07T07:17:22Z</time>
      </trkpt>
      <trkpt lat="43.41001" lon="-6.15321">
        <ele>52.5</ele>
        <time>2016-07-07T07:17:31Z</time>
      </trkpt>
      <trkpt lat="43.40991" lon="-6.15319">
        <ele>52.4</ele>
        <time>2016-07-07T07:17:41Z</time>
      </trkpt>
      <trkpt lat="43.40982" lon="-6.15323">
        <ele>52.5</ele>
        <time>2016-07-07T07:17:49Z</time>
      </trkpt>
      <trkpt lat="43.40975" lon="-6.15331">
        <ele>52.3</ele>
        <time>2016-07-07T07:17:56Z</time>
      </trkpt>
      <trkpt lat="43.40968" lon="-6.15342">
        <ele>52.2</ele>
        <time>2016-07-07T07:18:03Z</time>
      </trkpt>
      <trkpt lat="43.40963" lon="-6.15352">
        <ele>52</ele>
        <time>2016-07-07T07:18:10Z</time>
      </trkpt>
      <trkpt lat="43.4096" lon="-6.15364">
        <ele>51.8</ele>
        <time>2016-07-07T07:18:17Z</time>
      </trkpt>
      <trkpt lat="43.40959" lon="-6.15377">
        <ele>51.7</ele>
        <time>2016-07-07T07:18:25Z</time>
      </trkpt>
      <trkpt lat="43.4096" lon="-6.1539">
        <ele>51.6</ele>
        <time>2016-07-07T07:18:32Z</time>
      </trkpt>
      <trkpt lat="43.40961" lon="-6.15403">
        <ele>51.6</ele>
        <time>2016-07-07T07:18:39Z</time>
      </trkpt>
      <trkpt lat="43.40964" lon="-6.15415">
        <ele>51.8</ele>
        <time>2016-07-07T07:18:46Z</time>
      </trkpt>
      <trkpt lat="43.40968" lon="-6.15427">
        <ele>51.7</ele>
        <time>2016-07-07T07:18:53Z</time>
      </trkpt>
      <trkpt lat="43.40971" lon="-6.15439">
        <ele>51.6</ele>
        <time>2016-07-07T07:19:00Z</time>
      </trkpt>
      <trkpt lat="43.4097" lon="-6.15452">
        <ele>51.6</ele>
        <time>2016-07-07T07:19:20Z</time>
      </trkpt>
      <trkpt lat="43.40968" lon="-6.15464">
        <ele>51.5</ele>
        <time>2016-07-07T07:19:29Z</time>
      </trkpt>
      <trkpt lat="43.40965" lon="-6.15477">
        <ele>51.6</ele>
        <time>2016-07-07T07:19:37Z</time>
      </trkpt>
      <trkpt lat="43.40962" lon="-6.1549">
        <ele>51.7</ele>
        <time>2016-07-07T07:19:45Z</time>
      </trkpt>
      <trkpt lat="43.40959" lon="-6.15502">
        <ele>51.8</ele>
        <time>2016-07-07T07:19:53Z</time>
      </trkpt>
      <trkpt lat="43.40957" lon="-6.15514">
        <ele>51.4</ele>
        <time>2016-07-07T07:20:01Z</time>
      </trkpt>
      <trkpt lat="43.40954" lon="-6.15526">
        <ele>51.5</ele>
        <time>2016-07-07T07:20:10Z</time>
      </trkpt>
      <trkpt lat="43.40951" lon="-6.15539">
        <ele>52.1</ele>
        <time>2016-07-07T07:20:19Z</time>
      </trkpt>
      <trkpt lat="43.40948" lon="-6.15553">
        <ele>52.4</ele>
        <time>2016-07-07T07:20:29Z</time>
      </trkpt>
      <trkpt lat="43.40946" lon="-6.15565">
        <ele>52.9</ele>
        <time>2016-07-07T07:20:42Z</time>
      </trkpt>
      <trkpt lat="43.40944" lon="-6.15577">
        <ele>53.2</ele>
        <time>2016-07-07T07:20:54Z</time>
      </trkpt>
      <trkpt lat="43.40942" lon="-6.15589">
        <ele>53</ele>
        <time>2016-07-07T07:21:05Z</time>
      </trkpt>
      <trkpt lat="43.40939" lon="-6.15602">
        <ele>53</ele>
        <time>2016-07-07T07:21:13Z</time>
      </trkpt>
      <trkpt lat="43.40937" lon="-6.15613">
        <ele>53.1</ele>
        <time>2016-07-07T07:21:21Z</time>
      </trkpt>
      <trkpt lat="43.40935" lon="-6.15626">
        <ele>53</ele>
        <time>2016-07-07T07:21:33Z</time>
      </trkpt>
      <trkpt lat="43.40941" lon="-6.15637">
        <ele>53.5</ele>
        <time>2016-07-07T07:21:42Z</time>
      </trkpt>
      <trkpt lat="43.40943" lon="-6.15651">
        <ele>53.9</ele>
        <time>2016-07-07T07:21:52Z</time>
      </trkpt>
      <trkpt lat="43.40942" lon="-6.15665">
        <ele>54</ele>
        <time>2016-07-07T07:22:01Z</time>
      </trkpt>
      <trkpt lat="43.40942" lon="-6.15678">
        <ele>54.2</ele>
        <time>2016-07-07T07:22:09Z</time>
      </trkpt>
      <trkpt lat="43.40944" lon="-6.1569">
        <ele>54.4</ele>
        <time>2016-07-07T07:22:18Z</time>
      </trkpt>
      <trkpt lat="43.4095" lon="-6.15699">
        <ele>54.1</ele>
        <time>2016-07-07T07:22:27Z</time>
      </trkpt>
      <trkpt lat="43.40942" lon="-6.15705">
        <ele>54.1</ele>
        <time>2016-07-07T07:23:05Z</time>
      </trkpt>
      <trkpt lat="43.40933" lon="-6.15702">
        <ele>54.2</ele>
        <time>2016-07-07T07:23:22Z</time>
      </trkpt>
      <trkpt lat="43.4093" lon="-6.15714">
        <ele>54.2</ele>
        <time>2016-07-07T07:23:33Z</time>
      </trkpt>
      <trkpt lat="43.4093" lon="-6.15727">
        <ele>54.4</ele>
        <time>2016-07-07T07:23:44Z</time>
      </trkpt>
      <trkpt lat="43.40929" lon="-6.15739">
        <ele>54.1</ele>
        <time>2016-07-07T07:23:54Z</time>
      </trkpt>
      <trkpt lat="43.4092" lon="-6.15746">
        <ele>54.3</ele>
        <time>2016-07-07T07:24:11Z</time>
      </trkpt>
      <trkpt lat="43.40911" lon="-6.15749">
        <ele>54.5</ele>
        <time>2016-07-07T07:24:19Z</time>
      </trkpt>
      <trkpt lat="43.40901" lon="-6.1575">
        <ele>54.3</ele>
        <time>2016-07-07T07:24:29Z</time>
      </trkpt>
      <trkpt lat="43.40911" lon="-6.15752">
        <ele>54.3</ele>
        <time>2016-07-07T07:25:49Z</time>
      </trkpt>
      <trkpt lat="43.40919" lon="-6.15745">
        <ele>54.4</ele>
        <time>2016-07-07T07:25:58Z</time>
      </trkpt>
      <trkpt lat="43.40924" lon="-6.15734">
        <ele>54.4</ele>
        <time>2016-07-07T07:26:05Z</time>
      </trkpt>
      <trkpt lat="43.4093" lon="-6.15723">
        <ele>54.4</ele>
        <time>2016-07-07T07:26:13Z</time>
      </trkpt>
      <trkpt lat="43.40936" lon="-6.15711">
        <ele>54.3</ele>
        <time>2016-07-07T07:26:21Z</time>
      </trkpt>
      <trkpt lat="43.40937" lon="-6.15699">
        <ele>54.3</ele>
        <time>2016-07-07T07:26:29Z</time>
      </trkpt>
      <trkpt lat="43.40939" lon="-6.15686">
        <ele>54.2</ele>
        <time>2016-07-07T07:26:38Z</time>
      </trkpt>
      <trkpt lat="43.40943" lon="-6.15674">
        <ele>53.6</ele>
        <time>2016-07-07T07:26:46Z</time>
      </trkpt>
      <trkpt lat="43.40946" lon="-6.15661">
        <ele>53.6</ele>
        <time>2016-07-07T07:26:54Z</time>
      </trkpt>
      <trkpt lat="43.40945" lon="-6.15648">
        <ele>53.5</ele>
        <time>2016-07-07T07:27:02Z</time>
      </trkpt>
      <trkpt lat="43.40939" lon="-6.15638">
        <ele>53.5</ele>
        <time>2016-07-07T07:27:09Z</time>
      </trkpt>
      <trkpt lat="43.40933" lon="-6.15628">
        <ele>53.4</ele>
        <time>2016-07-07T07:27:15Z</time>
      </trkpt>
      <trkpt lat="43.40926" lon="-6.15618">
        <ele>53.3</ele>
        <time>2016-07-07T07:27:22Z</time>
      </trkpt>
      <trkpt lat="43.40919" lon="-6.15609">
        <ele>53.5</ele>
        <time>2016-07-07T07:27:29Z</time>
      </trkpt>
      <trkpt lat="43.40913" lon="-6.15599">
        <ele>53.6</ele>
        <time>2016-07-07T07:27:36Z</time>
      </trkpt>
      <trkpt lat="43.40905" lon="-6.15591">
        <ele>53.6</ele>
        <time>2016-07-07T07:27:43Z</time>
      </trkpt>
      <trkpt lat="43.40896" lon="-6.15587">
        <ele>53.6</ele>
        <time>2016-07-07T07:27:50Z</time>
      </trkpt>
      <trkpt lat="43.40886" lon="-6.15585">
        <ele>53.7</ele>
        <time>2016-07-07T07:27:57Z</time>
      </trkpt>
      <trkpt lat="43.40878" lon="-6.15579">
        <ele>53.6</ele>
        <time>2016-07-07T07:28:03Z</time>
      </trkpt>
      <trkpt lat="43.40869" lon="-6.15573">
        <ele>53.4</ele>
        <time>2016-07-07T07:28:11Z</time>
      </trkpt>
      <trkpt lat="43.40861" lon="-6.15567">
        <ele>53.3</ele>
        <time>2016-07-07T07:28:19Z</time>
      </trkpt>
      <trkpt lat="43.40852" lon="-6.1556">
        <ele>53.1</ele>
        <time>2016-07-07T07:28:27Z</time>
      </trkpt>
      <trkpt lat="43.40845" lon="-6.15552">
        <ele>53</ele>
        <time>2016-07-07T07:28:34Z</time>
      </trkpt>
      <trkpt lat="43.40837" lon="-6.15544">
        <ele>52.9</ele>
        <time>2016-07-07T07:28:42Z</time>
      </trkpt>
      <trkpt lat="43.40828" lon="-6.15542">
        <ele>52.8</ele>
        <time>2016-07-07T07:28:50Z</time>
      </trkpt>
      <trkpt lat="43.40819" lon="-6.15548">
        <ele>53.1</ele>
        <time>2016-07-07T07:29:00Z</time>
      </trkpt>
      <trkpt lat="43.40819" lon="-6.15561">
        <ele>54.9</ele>
        <time>2016-07-07T07:29:16Z</time>
      </trkpt>
      <trkpt lat="43.40818" lon="-6.15573">
        <ele>56.3</ele>
        <time>2016-07-07T07:29:51Z</time>
      </trkpt>
      <trkpt lat="43.40814" lon="-6.15586">
        <ele>57.1</ele>
        <time>2016-07-07T07:30:01Z</time>
      </trkpt>
      <trkpt lat="43.4081" lon="-6.15598">
        <ele>58.5</ele>
        <time>2016-07-07T07:30:11Z</time>
      </trkpt>
      <trkpt lat="43.40804" lon="-6.15608">
        <ele>60.1</ele>
        <time>2016-07-07T07:30:21Z</time>
      </trkpt>
      <trkpt lat="43.408" lon="-6.1562">
        <ele>61.6</ele>
        <time>2016-07-07T07:30:32Z</time>
      </trkpt>
      <trkpt lat="43.40795" lon="-6.15631">
        <ele>63.2</ele>
        <time>2016-07-07T07:30:41Z</time>
      </trkpt>
      <trkpt lat="43.4079" lon="-6.15641">
        <ele>64.2</ele>
        <time>2016-07-07T07:30:49Z</time>
      </trkpt>
      <trkpt lat="43.40784" lon="-6.15651">
        <ele>65.3</ele>
        <time>2016-07-07T07:30:57Z</time>
      </trkpt>
      <trkpt lat="43.40778" lon="-6.15662">
        <ele>66.8</ele>
        <time>2016-07-07T07:31:06Z</time>
      </trkpt>
      <trkpt lat="43.40773" lon="-6.15673">
        <ele>68.6</ele>
        <time>2016-07-07T07:31:15Z</time>
      </trkpt>
      <trkpt lat="43.40769" lon="-6.15685">
        <ele>70.2</ele>
        <time>2016-07-07T07:31:24Z</time>
      </trkpt>
      <trkpt lat="43.40767" lon="-6.15698">
        <ele>71.6</ele>
        <time>2016-07-07T07:31:32Z</time>
      </trkpt>
      <trkpt lat="43.40763" lon="-6.1571">
        <ele>72.6</ele>
        <time>2016-07-07T07:31:39Z</time>
      </trkpt>
      <trkpt lat="43.40758" lon="-6.15722">
        <ele>73.9</ele>
        <time>2016-07-07T07:31:47Z</time>
      </trkpt>
      <trkpt lat="43.40751" lon="-6.15733">
        <ele>74.8</ele>
        <time>2016-07-07T07:31:55Z</time>
      </trkpt>
      <trkpt lat="43.40744" lon="-6.15743">
        <ele>76.3</ele>
        <time>2016-07-07T07:32:03Z</time>
      </trkpt>
      <trkpt lat="43.40737" lon="-6.15734">
        <ele>77.6</ele>
        <time>2016-07-07T07:32:19Z</time>
      </trkpt>
      <trkpt lat="43.40738" lon="-6.15721">
        <ele>78.3</ele>
        <time>2016-07-07T07:32:27Z</time>
      </trkpt>
      <trkpt lat="43.40738" lon="-6.15707">
        <ele>79.4</ele>
        <time>2016-07-07T07:32:35Z</time>
      </trkpt>
      <trkpt lat="43.40733" lon="-6.15696">
        <ele>80.2</ele>
        <time>2016-07-07T07:32:43Z</time>
      </trkpt>
      <trkpt lat="43.40727" lon="-6.15686">
        <ele>81</ele>
        <time>2016-07-07T07:32:51Z</time>
      </trkpt>
      <trkpt lat="43.40719" lon="-6.15677">
        <ele>82</ele>
        <time>2016-07-07T07:32:59Z</time>
      </trkpt>
      <trkpt lat="43.40712" lon="-6.15669">
        <ele>83.7</ele>
        <time>2016-07-07T07:33:08Z</time>
      </trkpt>
      <trkpt lat="43.40702" lon="-6.15664">
        <ele>85</ele>
        <time>2016-07-07T07:33:18Z</time>
      </trkpt>
      <trkpt lat="43.40692" lon="-6.15663">
        <ele>86.4</ele>
        <time>2016-07-07T07:33:28Z</time>
      </trkpt>
      <trkpt lat="43.40683" lon="-6.15664">
        <ele>87.5</ele>
        <time>2016-07-07T07:33:36Z</time>
      </trkpt>
      <trkpt lat="43.40673" lon="-6.15665">
        <ele>88.6</ele>
        <time>2016-07-07T07:33:44Z</time>
      </trkpt>
      <trkpt lat="43.40663" lon="-6.15666">
        <ele>89.7</ele>
        <time>2016-07-07T07:33:51Z</time>
      </trkpt>
      <trkpt lat="43.40654" lon="-6.15668">
        <ele>90.6</ele>
        <time>2016-07-07T07:33:58Z</time>
      </trkpt>
      <trkpt lat="43.40646" lon="-6.15672">
        <ele>91.2</ele>
        <time>2016-07-07T07:34:05Z</time>
      </trkpt>
      <trkpt lat="43.40638" lon="-6.15679">
        <ele>93.3</ele>
        <time>2016-07-07T07:34:28Z</time>
      </trkpt>
      <trkpt lat="43.40629" lon="-6.1568">
        <ele>94.4</ele>
        <time>2016-07-07T07:35:21Z</time>
      </trkpt>
      <trkpt lat="43.40619" lon="-6.15682">
        <ele>94.7</ele>
        <time>2016-07-07T07:35:34Z</time>
      </trkpt>
      <trkpt lat="43.4061" lon="-6.15686">
        <ele>95.1</ele>
        <time>2016-07-07T07:35:44Z</time>
      </trkpt>
      <trkpt lat="43.406" lon="-6.15688">
        <ele>95.6</ele>
        <time>2016-07-07T07:35:53Z</time>
      </trkpt>
      <trkpt lat="43.40591" lon="-6.1569">
        <ele>96</ele>
        <time>2016-07-07T07:36:01Z</time>
      </trkpt>
      <trkpt lat="43.40582" lon="-6.15691">
        <ele>96.4</ele>
        <time>2016-07-07T07:36:09Z</time>
      </trkpt>
      <trkpt lat="43.40573" lon="-6.15689">
        <ele>96.6</ele>
        <time>2016-07-07T07:36:17Z</time>
      </trkpt>
      <trkpt lat="43.40563" lon="-6.15688">
        <ele>96.7</ele>
        <time>2016-07-07T07:36:26Z</time>
      </trkpt>
      <trkpt lat="43.40553" lon="-6.15686">
        <ele>97</ele>
        <time>2016-07-07T07:36:35Z</time>
      </trkpt>
      <trkpt lat="43.40543" lon="-6.15687">
        <ele>97.3</ele>
        <time>2016-07-07T07:36:44Z</time>
      </trkpt>
      <trkpt lat="43.40534" lon="-6.15686">
        <ele>97.5</ele>
        <time>2016-07-07T07:36:52Z</time>
      </trkpt>
      <trkpt lat="43.40525" lon="-6.15685">
        <ele>97.6</ele>
        <time>2016-07-07T07:37:01Z</time>
      </trkpt>
      <trkpt lat="43.40515" lon="-6.15684">
        <ele>97.9</ele>
        <time>2016-07-07T07:37:10Z</time>
      </trkpt>
      <trkpt lat="43.40506" lon="-6.15684">
        <ele>98.1</ele>
        <time>2016-07-07T07:37:18Z</time>
      </trkpt>
      <trkpt lat="43.40496" lon="-6.15683">
        <ele>98.1</ele>
        <time>2016-07-07T07:37:27Z</time>
      </trkpt>
      <trkpt lat="43.40486" lon="-6.15688">
        <ele>98.1</ele>
        <time>2016-07-07T07:37:35Z</time>
      </trkpt>
      <trkpt lat="43.40478" lon="-6.15695">
        <ele>98</ele>
        <time>2016-07-07T07:37:43Z</time>
      </trkpt>
      <trkpt lat="43.40471" lon="-6.15703">
        <ele>97.9</ele>
        <time>2016-07-07T07:37:50Z</time>
      </trkpt>
      <trkpt lat="43.40463" lon="-6.15713">
        <ele>97.9</ele>
        <time>2016-07-07T07:37:58Z</time>
      </trkpt>
      <trkpt lat="43.40457" lon="-6.15723">
        <ele>97.9</ele>
        <time>2016-07-07T07:38:05Z</time>
      </trkpt>
      <trkpt lat="43.40453" lon="-6.15735">
        <ele>97.7</ele>
        <time>2016-07-07T07:38:13Z</time>
      </trkpt>
      <trkpt lat="43.40451" lon="-6.15748">
        <ele>97.7</ele>
        <time>2016-07-07T07:38:22Z</time>
      </trkpt>
      <trkpt lat="43.40449" lon="-6.15761">
        <ele>97.9</ele>
        <time>2016-07-07T07:38:31Z</time>
      </trkpt>
      <trkpt lat="43.40446" lon="-6.15775">
        <ele>98.1</ele>
        <time>2016-07-07T07:38:40Z</time>
      </trkpt>
      <trkpt lat="43.40443" lon="-6.15787">
        <ele>98.1</ele>
        <time>2016-07-07T07:38:49Z</time>
      </trkpt>
      <trkpt lat="43.40443" lon="-6.15801">
        <ele>97.7</ele>
        <time>2016-07-07T07:38:58Z</time>
      </trkpt>
      <trkpt lat="43.40444" lon="-6.15813">
        <ele>97.6</ele>
        <time>2016-07-07T07:39:06Z</time>
      </trkpt>
      <trkpt lat="43.40442" lon="-6.15825">
        <ele>97.7</ele>
        <time>2016-07-07T07:39:14Z</time>
      </trkpt>
      <trkpt lat="43.4044" lon="-6.15837">
        <ele>97.8</ele>
        <time>2016-07-07T07:39:21Z</time>
      </trkpt>
      <trkpt lat="43.40436" lon="-6.1585">
        <ele>98.1</ele>
        <time>2016-07-07T07:39:29Z</time>
      </trkpt>
      <trkpt lat="43.40433" lon="-6.15862">
        <ele>98.3</ele>
        <time>2016-07-07T07:39:36Z</time>
      </trkpt>
      <trkpt lat="43.4043" lon="-6.15875">
        <ele>98.5</ele>
        <time>2016-07-07T07:39:44Z</time>
      </trkpt>
      <trkpt lat="43.40428" lon="-6.15887">
        <ele>99.1</ele>
        <time>2016-07-07T07:39:52Z</time>
      </trkpt>
      <trkpt lat="43.40424" lon="-6.15898">
        <ele>99.1</ele>
        <time>2016-07-07T07:40:00Z</time>
      </trkpt>
      <trkpt lat="43.40421" lon="-6.15912">
        <ele>99.4</ele>
        <time>2016-07-07T07:40:09Z</time>
      </trkpt>
      <trkpt lat="43.40421" lon="-6.15924">
        <ele>99.7</ele>
        <time>2016-07-07T07:40:18Z</time>
      </trkpt>
      <trkpt lat="43.40422" lon="-6.15938">
        <ele>100.3</ele>
        <time>2016-07-07T07:40:26Z</time>
      </trkpt>
      <trkpt lat="43.40423" lon="-6.15951">
        <ele>100.9</ele>
        <time>2016-07-07T07:40:34Z</time>
      </trkpt>
      <trkpt lat="43.40423" lon="-6.15964">
        <ele>101.7</ele>
        <time>2016-07-07T07:40:42Z</time>
      </trkpt>
      <trkpt lat="43.40424" lon="-6.15976">
        <ele>102.3</ele>
        <time>2016-07-07T07:40:50Z</time>
      </trkpt>
      <trkpt lat="43.40428" lon="-6.15989">
        <ele>102.7</ele>
        <time>2016-07-07T07:40:59Z</time>
      </trkpt>
      <trkpt lat="43.40429" lon="-6.16002">
        <ele>103.3</ele>
        <time>2016-07-07T07:41:07Z</time>
      </trkpt>
      <trkpt lat="43.40431" lon="-6.16015">
        <ele>103.6</ele>
        <time>2016-07-07T07:41:15Z</time>
      </trkpt>
      <trkpt lat="43.40434" lon="-6.16027">
        <ele>103.9</ele>
        <time>2016-07-07T07:41:23Z</time>
      </trkpt>
      <trkpt lat="43.40436" lon="-6.1604">
        <ele>104.7</ele>
        <time>2016-07-07T07:41:31Z</time>
      </trkpt>
      <trkpt lat="43.40436" lon="-6.16053">
        <ele>105.4</ele>
        <time>2016-07-07T07:41:39Z</time>
      </trkpt>
      <trkpt lat="43.40439" lon="-6.16066">
        <ele>106</ele>
        <time>2016-07-07T07:41:48Z</time>
      </trkpt>
      <trkpt lat="43.40441" lon="-6.16079">
        <ele>107</ele>
        <time>2016-07-07T07:41:56Z</time>
      </trkpt>
      <trkpt lat="43.40443" lon="-6.16092">
        <ele>107.9</ele>
        <time>2016-07-07T07:42:06Z</time>
      </trkpt>
      <trkpt lat="43.40445" lon="-6.16105">
        <ele>108.4</ele>
        <time>2016-07-07T07:42:14Z</time>
      </trkpt>
      <trkpt lat="43.40448" lon="-6.16117">
        <ele>109</ele>
        <time>2016-07-07T07:42:22Z</time>
      </trkpt>
      <trkpt lat="43.40451" lon="-6.1613">
        <ele>110</ele>
        <time>2016-07-07T07:42:31Z</time>
      </trkpt>
      <trkpt lat="43.40454" lon="-6.16142">
        <ele>111</ele>
        <time>2016-07-07T07:42:41Z</time>
      </trkpt>
      <trkpt lat="43.40459" lon="-6.16154">
        <ele>111.5</ele>
        <time>2016-07-07T07:42:51Z</time>
      </trkpt>
      <trkpt lat="43.40465" lon="-6.16164">
        <ele>112.2</ele>
        <time>2016-07-07T07:43:08Z</time>
      </trkpt>
      <trkpt lat="43.40468" lon="-6.16176">
        <ele>112.9</ele>
        <time>2016-07-07T07:43:17Z</time>
      </trkpt>
      <trkpt lat="43.40471" lon="-6.16188">
        <ele>113.3</ele>
        <time>2016-07-07T07:43:25Z</time>
      </trkpt>
      <trkpt lat="43.40475" lon="-6.162">
        <ele>113.6</ele>
        <time>2016-07-07T07:43:33Z</time>
      </trkpt>
      <trkpt lat="43.40475" lon="-6.16213">
        <ele>114</ele>
        <time>2016-07-07T07:43:45Z</time>
      </trkpt>
      <trkpt lat="43.40474" lon="-6.16227">
        <ele>114.5</ele>
        <time>2016-07-07T07:43:54Z</time>
      </trkpt>
      <trkpt lat="43.40473" lon="-6.1624">
        <ele>114.8</ele>
        <time>2016-07-07T07:44:03Z</time>
      </trkpt>
      <trkpt lat="43.40472" lon="-6.16253">
        <ele>115.4</ele>
        <time>2016-07-07T07:44:11Z</time>
      </trkpt>
      <trkpt lat="43.40471" lon="-6.16266">
        <ele>115.9</ele>
        <time>2016-07-07T07:44:18Z</time>
      </trkpt>
      <trkpt lat="43.40471" lon="-6.1628">
        <ele>116.1</ele>
        <time>2016-07-07T07:44:26Z</time>
      </trkpt>
      <trkpt lat="43.40474" lon="-6.16293">
        <ele>116.1</ele>
        <time>2016-07-07T07:44:34Z</time>
      </trkpt>
      <trkpt lat="43.40478" lon="-6.16305">
        <ele>116.1</ele>
        <time>2016-07-07T07:44:42Z</time>
      </trkpt>
      <trkpt lat="43.40481" lon="-6.16317">
        <ele>116.1</ele>
        <time>2016-07-07T07:44:50Z</time>
      </trkpt>
      <trkpt lat="43.40485" lon="-6.16329">
        <ele>116.2</ele>
        <time>2016-07-07T07:44:58Z</time>
      </trkpt>
      <trkpt lat="43.40489" lon="-6.16342">
        <ele>116.4</ele>
        <time>2016-07-07T07:45:06Z</time>
      </trkpt>
      <trkpt lat="43.40492" lon="-6.16355">
        <ele>117.3</ele>
        <time>2016-07-07T07:45:14Z</time>
      </trkpt>
      <trkpt lat="43.40493" lon="-6.16368">
        <ele>117.5</ele>
        <time>2016-07-07T07:45:22Z</time>
      </trkpt>
      <trkpt lat="43.40495" lon="-6.16381">
        <ele>117.7</ele>
        <time>2016-07-07T07:45:30Z</time>
      </trkpt>
      <trkpt lat="43.40496" lon="-6.16394">
        <ele>118.3</ele>
        <time>2016-07-07T07:45:38Z</time>
      </trkpt>
      <trkpt lat="43.40498" lon="-6.16407">
        <ele>119</ele>
        <time>2016-07-07T07:45:47Z</time>
      </trkpt>
      <trkpt lat="43.40499" lon="-6.16421">
        <ele>119.4</ele>
        <time>2016-07-07T07:45:56Z</time>
      </trkpt>
      <trkpt lat="43.40501" lon="-6.16434">
        <ele>119.9</ele>
        <time>2016-07-07T07:46:05Z</time>
      </trkpt>
      <trkpt lat="43.40506" lon="-6.16446">
        <ele>120.6</ele>
        <time>2016-07-07T07:46:14Z</time>
      </trkpt>
      <trkpt lat="43.4051" lon="-6.16457">
        <ele>121.4</ele>
        <time>2016-07-07T07:46:23Z</time>
      </trkpt>
      <trkpt lat="43.40513" lon="-6.1647">
        <ele>122.5</ele>
        <time>2016-07-07T07:46:33Z</time>
      </trkpt>
      <trkpt lat="43.40511" lon="-6.16483">
        <ele>123.8</ele>
        <time>2016-07-07T07:46:44Z</time>
      </trkpt>
      <trkpt lat="43.40508" lon="-6.16495">
        <ele>124.7</ele>
        <time>2016-07-07T07:46:54Z</time>
      </trkpt>
      <trkpt lat="43.40505" lon="-6.16508">
        <ele>125.8</ele>
        <time>2016-07-07T07:47:05Z</time>
      </trkpt>
      <trkpt lat="43.40507" lon="-6.16521">
        <ele>127.5</ele>
        <time>2016-07-07T07:47:16Z</time>
      </trkpt>
      <trkpt lat="43.4051" lon="-6.16533">
        <ele>128.9</ele>
        <time>2016-07-07T07:47:27Z</time>
      </trkpt>
      <trkpt lat="43.40509" lon="-6.16546">
        <ele>130.2</ele>
        <time>2016-07-07T07:47:37Z</time>
      </trkpt>
      <trkpt lat="43.40508" lon="-6.16559">
        <ele>131.3</ele>
        <time>2016-07-07T07:47:48Z</time>
      </trkpt>
      <trkpt lat="43.40508" lon="-6.16572">
        <ele>132.7</ele>
        <time>2016-07-07T07:47:59Z</time>
      </trkpt>
      <trkpt lat="43.4051" lon="-6.16585">
        <ele>135.5</ele>
        <time>2016-07-07T07:48:32Z</time>
      </trkpt>
      <trkpt lat="43.40511" lon="-6.16598">
        <ele>136.4</ele>
        <time>2016-07-07T07:48:45Z</time>
      </trkpt>
      <trkpt lat="43.4051" lon="-6.1661">
        <ele>137.3</ele>
        <time>2016-07-07T07:48:56Z</time>
      </trkpt>
      <trkpt lat="43.40513" lon="-6.16623">
        <ele>138.5</ele>
        <time>2016-07-07T07:49:07Z</time>
      </trkpt>
      <trkpt lat="43.40518" lon="-6.16633">
        <ele>139.8</ele>
        <time>2016-07-07T07:49:15Z</time>
      </trkpt>
      <trkpt lat="43.40524" lon="-6.16643">
        <ele>141.8</ele>
        <time>2016-07-07T07:49:30Z</time>
      </trkpt>
      <trkpt lat="43.40532" lon="-6.16649">
        <ele>142.7</ele>
        <time>2016-07-07T07:49:39Z</time>
      </trkpt>
      <trkpt lat="43.40542" lon="-6.16655">
        <ele>143.2</ele>
        <time>2016-07-07T07:49:49Z</time>
      </trkpt>
      <trkpt lat="43.4055" lon="-6.1666">
        <ele>143.5</ele>
        <time>2016-07-07T07:49:57Z</time>
      </trkpt>
      <trkpt lat="43.40559" lon="-6.16664">
        <ele>144</ele>
        <time>2016-07-07T07:50:08Z</time>
      </trkpt>
      <trkpt lat="43.40569" lon="-6.16663">
        <ele>144.6</ele>
        <time>2016-07-07T07:50:22Z</time>
      </trkpt>
      <trkpt lat="43.40578" lon="-6.16666">
        <ele>144.8</ele>
        <time>2016-07-07T07:50:32Z</time>
      </trkpt>
      <trkpt lat="43.40587" lon="-6.16671">
        <ele>145.4</ele>
        <time>2016-07-07T07:50:42Z</time>
      </trkpt>
      <trkpt lat="43.40594" lon="-6.16679">
        <ele>146.7</ele>
        <time>2016-07-07T07:51:01Z</time>
      </trkpt>
      <trkpt lat="43.40602" lon="-6.16689">
        <ele>147.2</ele>
        <time>2016-07-07T07:51:12Z</time>
      </trkpt>
      <trkpt lat="43.40609" lon="-6.16697">
        <ele>148.3</ele>
        <time>2016-07-07T07:51:23Z</time>
      </trkpt>
      <trkpt lat="43.40616" lon="-6.16704">
        <ele>149.2</ele>
        <time>2016-07-07T07:51:30Z</time>
      </trkpt>
      <trkpt lat="43.40624" lon="-6.1671">
        <ele>150.6</ele>
        <time>2016-07-07T07:51:41Z</time>
      </trkpt>
      <trkpt lat="43.40631" lon="-6.16718">
        <ele>150.7</ele>
        <time>2016-07-07T07:51:48Z</time>
      </trkpt>
      <trkpt lat="43.40638" lon="-6.16726">
        <ele>151.6</ele>
        <time>2016-07-07T07:51:57Z</time>
      </trkpt>
      <trkpt lat="43.40645" lon="-6.16735">
        <ele>152.4</ele>
        <time>2016-07-07T07:52:11Z</time>
      </trkpt>
      <trkpt lat="43.40654" lon="-6.16739">
        <ele>153.7</ele>
        <time>2016-07-07T07:52:29Z</time>
      </trkpt>
      <trkpt lat="43.40662" lon="-6.16747">
        <ele>154</ele>
        <time>2016-07-07T07:52:45Z</time>
      </trkpt>
      <trkpt lat="43.40668" lon="-6.16758">
        <ele>154.3</ele>
        <time>2016-07-07T07:52:52Z</time>
      </trkpt>
      <trkpt lat="43.40675" lon="-6.16767">
        <ele>155.4</ele>
        <time>2016-07-07T07:53:05Z</time>
      </trkpt>
      <trkpt lat="43.40683" lon="-6.16774">
        <ele>156.9</ele>
        <time>2016-07-07T07:53:17Z</time>
      </trkpt>
      <trkpt lat="43.40692" lon="-6.16781">
        <ele>158.4</ele>
        <time>2016-07-07T07:53:29Z</time>
      </trkpt>
      <trkpt lat="43.407" lon="-6.16788">
        <ele>159.5</ele>
        <time>2016-07-07T07:53:37Z</time>
      </trkpt>
      <trkpt lat="43.40708" lon="-6.16795">
        <ele>160.4</ele>
        <time>2016-07-07T07:53:45Z</time>
      </trkpt>
      <trkpt lat="43.40716" lon="-6.16802">
        <ele>161.7</ele>
        <time>2016-07-07T07:53:54Z</time>
      </trkpt>
      <trkpt lat="43.40724" lon="-6.16809">
        <ele>163</ele>
        <time>2016-07-07T07:54:04Z</time>
      </trkpt>
      <trkpt lat="43.40733" lon="-6.16812">
        <ele>164.2</ele>
        <time>2016-07-07T07:54:14Z</time>
      </trkpt>
      <trkpt lat="43.40743" lon="-6.16815">
        <ele>166.6</ele>
        <time>2016-07-07T07:54:26Z</time>
      </trkpt>
      <trkpt lat="43.40752" lon="-6.16821">
        <ele>168.5</ele>
        <time>2016-07-07T07:54:42Z</time>
      </trkpt>
      <trkpt lat="43.40761" lon="-6.16826">
        <ele>169</ele>
        <time>2016-07-07T07:54:51Z</time>
      </trkpt>
      <trkpt lat="43.4077" lon="-6.16831">
        <ele>169.7</ele>
        <time>2016-07-07T07:55:00Z</time>
      </trkpt>
      <trkpt lat="43.40778" lon="-6.16835">
        <ele>170.8</ele>
        <time>2016-07-07T07:55:10Z</time>
      </trkpt>
      <trkpt lat="43.40787" lon="-6.16842">
        <ele>171.8</ele>
        <time>2016-07-07T07:55:21Z</time>
      </trkpt>
      <trkpt lat="43.40796" lon="-6.16846">
        <ele>172.4</ele>
        <time>2016-07-07T07:55:31Z</time>
      </trkpt>
      <trkpt lat="43.40804" lon="-6.16854">
        <ele>173.2</ele>
        <time>2016-07-07T07:55:41Z</time>
      </trkpt>
      <trkpt lat="43.40811" lon="-6.16863">
        <ele>174.1</ele>
        <time>2016-07-07T07:55:51Z</time>
      </trkpt>
      <trkpt lat="43.40819" lon="-6.16868">
        <ele>175.2</ele>
        <time>2016-07-07T07:56:01Z</time>
      </trkpt>
      <trkpt lat="43.40825" lon="-6.16879">
        <ele>176.1</ele>
        <time>2016-07-07T07:56:11Z</time>
      </trkpt>
      <trkpt lat="43.4083" lon="-6.1689">
        <ele>176.3</ele>
        <time>2016-07-07T07:56:30Z</time>
      </trkpt>
      <trkpt lat="43.40834" lon="-6.16902">
        <ele>173.5</ele>
        <time>2016-07-07T07:58:12Z</time>
      </trkpt>
      <trkpt lat="43.40836" lon="-6.16915">
        <ele>173.1</ele>
        <time>2016-07-07T07:58:22Z</time>
      </trkpt>
      <trkpt lat="43.40837" lon="-6.16928">
        <ele>172.6</ele>
        <time>2016-07-07T07:58:31Z</time>
      </trkpt>
      <trkpt lat="43.40838" lon="-6.16941">
        <ele>172.1</ele>
        <time>2016-07-07T07:58:42Z</time>
      </trkpt>
      <trkpt lat="43.40839" lon="-6.16954">
        <ele>170.4</ele>
        <time>2016-07-07T07:58:55Z</time>
      </trkpt>
      <trkpt lat="43.4084" lon="-6.16967">
        <ele>168.8</ele>
        <time>2016-07-07T07:59:06Z</time>
      </trkpt>
      <trkpt lat="43.40843" lon="-6.1698">
        <ele>166.4</ele>
        <time>2016-07-07T07:59:19Z</time>
      </trkpt>
      <trkpt lat="43.40844" lon="-6.16993">
        <ele>163.8</ele>
        <time>2016-07-07T07:59:34Z</time>
      </trkpt>
      <trkpt lat="43.40846" lon="-6.17006">
        <ele>162.1</ele>
        <time>2016-07-07T07:59:44Z</time>
      </trkpt>
      <trkpt lat="43.40847" lon="-6.1702">
        <ele>164.1</ele>
        <time>2016-07-07T07:59:52Z</time>
      </trkpt>
      <trkpt lat="43.40848" lon="-6.17034">
        <ele>161.9</ele>
        <time>2016-07-07T08:00:01Z</time>
      </trkpt>
      <trkpt lat="43.40847" lon="-6.17047">
        <ele>159.8</ele>
        <time>2016-07-07T08:00:11Z</time>
      </trkpt>
      <trkpt lat="43.40841" lon="-6.17057">
        <ele>156.9</ele>
        <time>2016-07-07T08:00:22Z</time>
      </trkpt>
      <trkpt lat="43.40836" lon="-6.17068">
        <ele>155.2</ele>
        <time>2016-07-07T08:00:32Z</time>
      </trkpt>
      <trkpt lat="43.40828" lon="-6.17076">
        <ele>153.8</ele>
        <time>2016-07-07T08:00:42Z</time>
      </trkpt>
      <trkpt lat="43.40823" lon="-6.17087">
        <ele>152.7</ele>
        <time>2016-07-07T08:00:51Z</time>
      </trkpt>
      <trkpt lat="43.40817" lon="-6.17098">
        <ele>151.7</ele>
        <time>2016-07-07T08:01:00Z</time>
      </trkpt>
      <trkpt lat="43.40813" lon="-6.17109">
        <ele>150.6</ele>
        <time>2016-07-07T08:01:12Z</time>
      </trkpt>
      <trkpt lat="43.40807" lon="-6.1712">
        <ele>149.9</ele>
        <time>2016-07-07T08:01:22Z</time>
      </trkpt>
      <trkpt lat="43.40801" lon="-6.17129">
        <ele>149.4</ele>
        <time>2016-07-07T08:01:31Z</time>
      </trkpt>
      <trkpt lat="43.40798" lon="-6.17141">
        <ele>148.7</ele>
        <time>2016-07-07T08:01:39Z</time>
      </trkpt>
      <trkpt lat="43.40793" lon="-6.17153">
        <ele>147.8</ele>
        <time>2016-07-07T08:01:48Z</time>
      </trkpt>
      <trkpt lat="43.40787" lon="-6.17163">
        <ele>147</ele>
        <time>2016-07-07T08:01:57Z</time>
      </trkpt>
      <trkpt lat="43.40782" lon="-6.17174">
        <ele>146.2</ele>
        <time>2016-07-07T08:02:06Z</time>
      </trkpt>
      <trkpt lat="43.40778" lon="-6.17186">
        <ele>145.3</ele>
        <time>2016-07-07T08:02:15Z</time>
      </trkpt>
      <trkpt lat="43.40772" lon="-6.17196">
        <ele>144.2</ele>
        <time>2016-07-07T08:02:25Z</time>
      </trkpt>
      <trkpt lat="43.40767" lon="-6.17207">
        <ele>143</ele>
        <time>2016-07-07T08:02:34Z</time>
      </trkpt>
      <trkpt lat="43.40762" lon="-6.17218">
        <ele>141.4</ele>
        <time>2016-07-07T08:02:44Z</time>
      </trkpt>
      <trkpt lat="43.40755" lon="-6.17228">
        <ele>140.3</ele>
        <time>2016-07-07T08:02:54Z</time>
      </trkpt>
      <trkpt lat="43.40748" lon="-6.17236">
        <ele>138.6</ele>
        <time>2016-07-07T08:03:06Z</time>
      </trkpt>
      <trkpt lat="43.40741" lon="-6.17244">
        <ele>137</ele>
        <time>2016-07-07T08:03:18Z</time>
      </trkpt>
      <trkpt lat="43.40735" lon="-6.17254">
        <ele>135.3</ele>
        <time>2016-07-07T08:03:30Z</time>
      </trkpt>
      <trkpt lat="43.40726" lon="-6.1726">
        <ele>134</ele>
        <time>2016-07-07T08:03:39Z</time>
      </trkpt>
      <trkpt lat="43.40717" lon="-6.17261">
        <ele>132</ele>
        <time>2016-07-07T08:03:59Z</time>
      </trkpt>
      <trkpt lat="43.4071" lon="-6.17268">
        <ele>131.2</ele>
        <time>2016-07-07T08:04:36Z</time>
      </trkpt>
      <trkpt lat="43.40704" lon="-6.17277">
        <ele>130.9</ele>
        <time>2016-07-07T08:04:50Z</time>
      </trkpt>
      <trkpt lat="43.40697" lon="-6.17285">
        <ele>130.1</ele>
        <time>2016-07-07T08:05:03Z</time>
      </trkpt>
      <trkpt lat="43.40689" lon="-6.17292">
        <ele>129.4</ele>
        <time>2016-07-07T08:05:13Z</time>
      </trkpt>
      <trkpt lat="43.40682" lon="-6.17301">
        <ele>128.7</ele>
        <time>2016-07-07T08:05:23Z</time>
      </trkpt>
      <trkpt lat="43.40673" lon="-6.17308">
        <ele>128</ele>
        <time>2016-07-07T08:05:32Z</time>
      </trkpt>
      <trkpt lat="43.40669" lon="-6.17319">
        <ele>127</ele>
        <time>2016-07-07T08:05:42Z</time>
      </trkpt>
      <trkpt lat="43.40663" lon="-6.1733">
        <ele>126.3</ele>
        <time>2016-07-07T08:05:52Z</time>
      </trkpt>
      <trkpt lat="43.40657" lon="-6.1734">
        <ele>125.9</ele>
        <time>2016-07-07T08:06:01Z</time>
      </trkpt>
      <trkpt lat="43.4065" lon="-6.17348">
        <ele>125</ele>
        <time>2016-07-07T08:06:11Z</time>
      </trkpt>
      <trkpt lat="43.40643" lon="-6.17358">
        <ele>124.2</ele>
        <time>2016-07-07T08:06:25Z</time>
      </trkpt>
      <trkpt lat="43.40637" lon="-6.17368">
        <ele>123.2</ele>
        <time>2016-07-07T08:06:35Z</time>
      </trkpt>
      <trkpt lat="43.40632" lon="-6.17379">
        <ele>121.5</ele>
        <time>2016-07-07T08:06:45Z</time>
      </trkpt>
      <trkpt lat="43.40627" lon="-6.1739">
        <ele>120.5</ele>
        <time>2016-07-07T08:06:55Z</time>
      </trkpt>
      <trkpt lat="43.40622" lon="-6.17401">
        <ele>119.4</ele>
        <time>2016-07-07T08:07:03Z</time>
      </trkpt>
      <trkpt lat="43.40621" lon="-6.17415">
        <ele>117.6</ele>
        <time>2016-07-07T08:07:12Z</time>
      </trkpt>
      <trkpt lat="43.40616" lon="-6.17427">
        <ele>116.6</ele>
        <time>2016-07-07T08:07:19Z</time>
      </trkpt>
      <trkpt lat="43.40612" lon="-6.17439">
        <ele>115</ele>
        <time>2016-07-07T08:07:30Z</time>
      </trkpt>
      <trkpt lat="43.40609" lon="-6.17451">
        <ele>114</ele>
        <time>2016-07-07T08:07:38Z</time>
      </trkpt>
      <trkpt lat="43.40608" lon="-6.17463">
        <ele>112.3</ele>
        <time>2016-07-07T08:07:49Z</time>
      </trkpt>
      <trkpt lat="43.40604" lon="-6.17476">
        <ele>111.2</ele>
        <time>2016-07-07T08:07:59Z</time>
      </trkpt>
      <trkpt lat="43.40604" lon="-6.17489">
        <ele>110.2</ele>
        <time>2016-07-07T08:08:08Z</time>
      </trkpt>
      <trkpt lat="43.40608" lon="-6.17501">
        <ele>109</ele>
        <time>2016-07-07T08:08:15Z</time>
      </trkpt>
      <trkpt lat="43.40611" lon="-6.17515">
        <ele>107.9</ele>
        <time>2016-07-07T08:08:22Z</time>
      </trkpt>
      <trkpt lat="43.4061" lon="-6.17529">
        <ele>107.1</ele>
        <time>2016-07-07T08:08:31Z</time>
      </trkpt>
      <trkpt lat="43.40612" lon="-6.17541">
        <ele>106.4</ele>
        <time>2016-07-07T08:08:39Z</time>
      </trkpt>
      <trkpt lat="43.40615" lon="-6.17553">
        <ele>105.6</ele>
        <time>2016-07-07T08:08:45Z</time>
      </trkpt>
      <trkpt lat="43.40618" lon="-6.17565">
        <ele>104.8</ele>
        <time>2016-07-07T08:08:53Z</time>
      </trkpt>
      <trkpt lat="43.4062" lon="-6.17577">
        <ele>104.2</ele>
        <time>2016-07-07T08:09:02Z</time>
      </trkpt>
      <trkpt lat="43.40618" lon="-6.1759">
        <ele>103.6</ele>
        <time>2016-07-07T08:09:11Z</time>
      </trkpt>
      <trkpt lat="43.40617" lon="-6.17604">
        <ele>102.9</ele>
        <time>2016-07-07T08:09:19Z</time>
      </trkpt>
      <trkpt lat="43.40616" lon="-6.17617">
        <ele>101.9</ele>
        <time>2016-07-07T08:09:27Z</time>
      </trkpt>
      <trkpt lat="43.40616" lon="-6.17631">
        <ele>100.8</ele>
        <time>2016-07-07T08:09:36Z</time>
      </trkpt>
      <trkpt lat="43.40616" lon="-6.17644">
        <ele>99.2</ele>
        <time>2016-07-07T08:09:50Z</time>
      </trkpt>
      <trkpt lat="43.40617" lon="-6.17657">
        <ele>97.6</ele>
        <time>2016-07-07T08:10:01Z</time>
      </trkpt>
      <trkpt lat="43.40619" lon="-6.1767">
        <ele>96.6</ele>
        <time>2016-07-07T08:10:10Z</time>
      </trkpt>
      <trkpt lat="43.40626" lon="-6.17682">
        <ele>96.1</ele>
        <time>2016-07-07T08:10:16Z</time>
      </trkpt>
      <trkpt lat="43.4063" lon="-6.17693">
        <ele>95.1</ele>
        <time>2016-07-07T08:10:23Z</time>
      </trkpt>
      <trkpt lat="43.40635" lon="-6.17706">
        <ele>94.2</ele>
        <time>2016-07-07T08:10:31Z</time>
      </trkpt>
      <trkpt lat="43.40637" lon="-6.17718">
        <ele>93.3</ele>
        <time>2016-07-07T08:10:39Z</time>
      </trkpt>
      <trkpt lat="43.40632" lon="-6.1773">
        <ele>92</ele>
        <time>2016-07-07T08:10:48Z</time>
      </trkpt>
      <trkpt lat="43.40635" lon="-6.17742">
        <ele>90.9</ele>
        <time>2016-07-07T08:10:57Z</time>
      </trkpt>
      <trkpt lat="43.40641" lon="-6.17752">
        <ele>89.8</ele>
        <time>2016-07-07T08:11:09Z</time>
      </trkpt>
      <trkpt lat="43.40645" lon="-6.17764">
        <ele>89.9</ele>
        <time>2016-07-07T08:11:18Z</time>
      </trkpt>
      <trkpt lat="43.40646" lon="-6.17777">
        <ele>90.7</ele>
        <time>2016-07-07T08:11:30Z</time>
      </trkpt>
      <trkpt lat="43.40649" lon="-6.17791">
        <ele>90.8</ele>
        <time>2016-07-07T08:11:39Z</time>
      </trkpt>
      <trkpt lat="43.4065" lon="-6.17803">
        <ele>90.5</ele>
        <time>2016-07-07T08:11:47Z</time>
      </trkpt>
      <trkpt lat="43.40654" lon="-6.17815">
        <ele>90.3</ele>
        <time>2016-07-07T08:11:53Z</time>
      </trkpt>
      <trkpt lat="43.40658" lon="-6.17827">
        <ele>90.1</ele>
        <time>2016-07-07T08:12:00Z</time>
      </trkpt>
      <trkpt lat="43.4066" lon="-6.1784">
        <ele>89.5</ele>
        <time>2016-07-07T08:12:11Z</time>
      </trkpt>
      <trkpt lat="43.40662" lon="-6.17852">
        <ele>88.8</ele>
        <time>2016-07-07T08:12:25Z</time>
      </trkpt>
      <trkpt lat="43.40663" lon="-6.17865">
        <ele>88.4</ele>
        <time>2016-07-07T08:12:36Z</time>
      </trkpt>
      <trkpt lat="43.40661" lon="-6.17878">
        <ele>88.3</ele>
        <time>2016-07-07T08:12:47Z</time>
      </trkpt>
      <trkpt lat="43.40662" lon="-6.17892">
        <ele>87.7</ele>
        <time>2016-07-07T08:12:58Z</time>
      </trkpt>
      <trkpt lat="43.40663" lon="-6.17905">
        <ele>87.5</ele>
        <time>2016-07-07T08:13:07Z</time>
      </trkpt>
      <trkpt lat="43.40664" lon="-6.17918">
        <ele>86.6</ele>
        <time>2016-07-07T08:13:15Z</time>
      </trkpt>
      <trkpt lat="43.40666" lon="-6.1793">
        <ele>85.4</ele>
        <time>2016-07-07T08:13:24Z</time>
      </trkpt>
      <trkpt lat="43.40672" lon="-6.1794">
        <ele>84.9</ele>
        <time>2016-07-07T08:13:30Z</time>
      </trkpt>
      <trkpt lat="43.40679" lon="-6.1795">
        <ele>84.5</ele>
        <time>2016-07-07T08:13:38Z</time>
      </trkpt>
      <trkpt lat="43.40686" lon="-6.1796">
        <ele>84.6</ele>
        <time>2016-07-07T08:13:50Z</time>
      </trkpt>
      <trkpt lat="43.40694" lon="-6.17968">
        <ele>85.3</ele>
        <time>2016-07-07T08:13:57Z</time>
      </trkpt>
      <trkpt lat="43.40698" lon="-6.1798">
        <ele>85.7</ele>
        <time>2016-07-07T08:14:05Z</time>
      </trkpt>
      <trkpt lat="43.40698" lon="-6.17992">
        <ele>86.7</ele>
        <time>2016-07-07T08:14:13Z</time>
      </trkpt>
      <trkpt lat="43.407" lon="-6.18005">
        <ele>87.5</ele>
        <time>2016-07-07T08:14:21Z</time>
      </trkpt>
      <trkpt lat="43.407" lon="-6.18017">
        <ele>87.1</ele>
        <time>2016-07-07T08:14:29Z</time>
      </trkpt>
      <trkpt lat="43.40699" lon="-6.1803">
        <ele>86.2</ele>
        <time>2016-07-07T08:14:38Z</time>
      </trkpt>
      <trkpt lat="43.40701" lon="-6.18044">
        <ele>85.8</ele>
        <time>2016-07-07T08:14:47Z</time>
      </trkpt>
      <trkpt lat="43.407" lon="-6.18057">
        <ele>84.9</ele>
        <time>2016-07-07T08:14:56Z</time>
      </trkpt>
      <trkpt lat="43.40702" lon="-6.1807">
        <ele>84</ele>
        <time>2016-07-07T08:15:03Z</time>
      </trkpt>
      <trkpt lat="43.40703" lon="-6.18083">
        <ele>83.2</ele>
        <time>2016-07-07T08:15:11Z</time>
      </trkpt>
      <trkpt lat="43.40703" lon="-6.18095">
        <ele>82.3</ele>
        <time>2016-07-07T08:15:19Z</time>
      </trkpt>
      <trkpt lat="43.40705" lon="-6.18108">
        <ele>81.7</ele>
        <time>2016-07-07T08:15:29Z</time>
      </trkpt>
      <trkpt lat="43.40706" lon="-6.18121">
        <ele>81</ele>
        <time>2016-07-07T08:15:37Z</time>
      </trkpt>
      <trkpt lat="43.40707" lon="-6.18134">
        <ele>80.5</ele>
        <time>2016-07-07T08:15:44Z</time>
      </trkpt>
      <trkpt lat="43.40708" lon="-6.18147">
        <ele>80.2</ele>
        <time>2016-07-07T08:15:51Z</time>
      </trkpt>
      <trkpt lat="43.4071" lon="-6.1816">
        <ele>80</ele>
        <time>2016-07-07T08:16:00Z</time>
      </trkpt>
      <trkpt lat="43.40711" lon="-6.18173">
        <ele>79.9</ele>
        <time>2016-07-07T08:16:09Z</time>
      </trkpt>
      <trkpt lat="43.40715" lon="-6.18185">
        <ele>80</ele>
        <time>2016-07-07T08:16:16Z</time>
      </trkpt>
      <trkpt lat="43.40719" lon="-6.18197">
        <ele>79.8</ele>
        <time>2016-07-07T08:16:23Z</time>
      </trkpt>
      <trkpt lat="43.40714" lon="-6.18207">
        <ele>79.3</ele>
        <time>2016-07-07T08:16:33Z</time>
      </trkpt>
      <trkpt lat="43.4071" lon="-6.18219">
        <ele>79.5</ele>
        <time>2016-07-07T08:16:47Z</time>
      </trkpt>
      <trkpt lat="43.40705" lon="-6.1823">
        <ele>81.8</ele>
        <time>2016-07-07T08:17:06Z</time>
      </trkpt>
      <trkpt lat="43.40699" lon="-6.1824">
        <ele>83.1</ele>
        <time>2016-07-07T08:17:16Z</time>
      </trkpt>
      <trkpt lat="43.40696" lon="-6.18252">
        <ele>84.6</ele>
        <time>2016-07-07T08:17:27Z</time>
      </trkpt>
      <trkpt lat="43.40691" lon="-6.18264">
        <ele>85.7</ele>
        <time>2016-07-07T08:17:36Z</time>
      </trkpt>
      <trkpt lat="43.40686" lon="-6.18274">
        <ele>87.3</ele>
        <time>2016-07-07T08:17:44Z</time>
      </trkpt>
      <trkpt lat="43.40681" lon="-6.18286">
        <ele>88.5</ele>
        <time>2016-07-07T08:17:54Z</time>
      </trkpt>
      <trkpt lat="43.40678" lon="-6.18297">
        <ele>90.1</ele>
        <time>2016-07-07T08:18:04Z</time>
      </trkpt>
      <trkpt lat="43.40675" lon="-6.1831">
        <ele>91.5</ele>
        <time>2016-07-07T08:18:16Z</time>
      </trkpt>
      <trkpt lat="43.40674" lon="-6.18322">
        <ele>92.8</ele>
        <time>2016-07-07T08:18:35Z</time>
      </trkpt>
      <trkpt lat="43.40672" lon="-6.18335">
        <ele>93.1</ele>
        <time>2016-07-07T08:18:43Z</time>
      </trkpt>
      <trkpt lat="43.40672" lon="-6.18348">
        <ele>93.3</ele>
        <time>2016-07-07T08:18:53Z</time>
      </trkpt>
      <trkpt lat="43.40671" lon="-6.18361">
        <ele>93.4</ele>
        <time>2016-07-07T08:19:01Z</time>
      </trkpt>
      <trkpt lat="43.40666" lon="-6.18372">
        <ele>93.5</ele>
        <time>2016-07-07T08:19:10Z</time>
      </trkpt>
      <trkpt lat="43.4066" lon="-6.18384">
        <ele>93.6</ele>
        <time>2016-07-07T08:19:19Z</time>
      </trkpt>
      <trkpt lat="43.40655" lon="-6.18395">
        <ele>93.6</ele>
        <time>2016-07-07T08:19:27Z</time>
      </trkpt>
      <trkpt lat="43.40648" lon="-6.18404">
        <ele>93.6</ele>
        <time>2016-07-07T08:19:35Z</time>
      </trkpt>
      <trkpt lat="43.40643" lon="-6.18415">
        <ele>93.5</ele>
        <time>2016-07-07T08:19:43Z</time>
      </trkpt>
      <trkpt lat="43.40638" lon="-6.18425">
        <ele>93.1</ele>
        <time>2016-07-07T08:19:51Z</time>
      </trkpt>
      <trkpt lat="43.40633" lon="-6.18436">
        <ele>91.9</ele>
        <time>2016-07-07T08:19:59Z</time>
      </trkpt>
      <trkpt lat="43.40629" lon="-6.18447">
        <ele>90.7</ele>
        <time>2016-07-07T08:20:08Z</time>
      </trkpt>
      <trkpt lat="43.40624" lon="-6.18459">
        <ele>89.7</ele>
        <time>2016-07-07T08:20:17Z</time>
      </trkpt>
      <trkpt lat="43.40617" lon="-6.18468">
        <ele>89.2</ele>
        <time>2016-07-07T08:20:27Z</time>
      </trkpt>
      <trkpt lat="43.4061" lon="-6.18475">
        <ele>89.1</ele>
        <time>2016-07-07T08:20:38Z</time>
      </trkpt>
      <trkpt lat="43.40602" lon="-6.18482">
        <ele>89.6</ele>
        <time>2016-07-07T08:20:48Z</time>
      </trkpt>
      <trkpt lat="43.40594" lon="-6.18489">
        <ele>90.5</ele>
        <time>2016-07-07T08:20:59Z</time>
      </trkpt>
      <trkpt lat="43.40586" lon="-6.18494">
        <ele>91.3</ele>
        <time>2016-07-07T08:21:10Z</time>
      </trkpt>
      <trkpt lat="43.40578" lon="-6.18501">
        <ele>92.6</ele>
        <time>2016-07-07T08:21:20Z</time>
      </trkpt>
      <trkpt lat="43.4057" lon="-6.18508">
        <ele>93.5</ele>
        <time>2016-07-07T08:21:29Z</time>
      </trkpt>
      <trkpt lat="43.40562" lon="-6.18515">
        <ele>94.2</ele>
        <time>2016-07-07T08:21:37Z</time>
      </trkpt>
      <trkpt lat="43.40554" lon="-6.18521">
        <ele>95.5</ele>
        <time>2016-07-07T08:21:44Z</time>
      </trkpt>
      <trkpt lat="43.40549" lon="-6.18532">
        <ele>96.8</ele>
        <time>2016-07-07T08:22:06Z</time>
      </trkpt>
      <trkpt lat="43.40541" lon="-6.18539">
        <ele>97.4</ele>
        <time>2016-07-07T08:22:15Z</time>
      </trkpt>
      <trkpt lat="43.40532" lon="-6.18545">
        <ele>98.2</ele>
        <time>2016-07-07T08:22:26Z</time>
      </trkpt>
      <trkpt lat="43.40524" lon="-6.1855">
        <ele>99</ele>
        <time>2016-07-07T08:22:36Z</time>
      </trkpt>
      <trkpt lat="43.40516" lon="-6.18558">
        <ele>99.7</ele>
        <time>2016-07-07T08:22:46Z</time>
      </trkpt>
      <trkpt lat="43.40511" lon="-6.18571">
        <ele>100.3</ele>
        <time>2016-07-07T08:22:54Z</time>
      </trkpt>
      <trkpt lat="43.40506" lon="-6.18583">
        <ele>100.7</ele>
        <time>2016-07-07T08:23:02Z</time>
      </trkpt>
      <trkpt lat="43.405" lon="-6.18592">
        <ele>100.8</ele>
        <time>2016-07-07T08:23:09Z</time>
      </trkpt>
      <trkpt lat="43.40493" lon="-6.18601">
        <ele>100.6</ele>
        <time>2016-07-07T08:23:16Z</time>
      </trkpt>
      <trkpt lat="43.40485" lon="-6.1861">
        <ele>100.4</ele>
        <time>2016-07-07T08:23:23Z</time>
      </trkpt>
      <trkpt lat="43.40478" lon="-6.18618">
        <ele>99.7</ele>
        <time>2016-07-07T08:23:29Z</time>
      </trkpt>
      <trkpt lat="43.40473" lon="-6.1863">
        <ele>98.8</ele>
        <time>2016-07-07T08:23:37Z</time>
      </trkpt>
      <trkpt lat="43.40471" lon="-6.18644">
        <ele>98.1</ele>
        <time>2016-07-07T08:23:45Z</time>
      </trkpt>
      <trkpt lat="43.40468" lon="-6.18656">
        <ele>97.8</ele>
        <time>2016-07-07T08:23:52Z</time>
      </trkpt>
      <trkpt lat="43.40466" lon="-6.18669">
        <ele>97.5</ele>
        <time>2016-07-07T08:24:00Z</time>
      </trkpt>
      <trkpt lat="43.40464" lon="-6.18681">
        <ele>97.2</ele>
        <time>2016-07-07T08:24:08Z</time>
      </trkpt>
      <trkpt lat="43.4046" lon="-6.18694">
        <ele>97.5</ele>
        <time>2016-07-07T08:24:17Z</time>
      </trkpt>
      <trkpt lat="43.40456" lon="-6.18704">
        <ele>97.8</ele>
        <time>2016-07-07T08:24:25Z</time>
      </trkpt>
      <trkpt lat="43.40449" lon="-6.18714">
        <ele>98.3</ele>
        <time>2016-07-07T08:24:33Z</time>
      </trkpt>
      <trkpt lat="43.4044" lon="-6.1872">
        <ele>98.6</ele>
        <time>2016-07-07T08:24:42Z</time>
      </trkpt>
      <trkpt lat="43.40431" lon="-6.18725">
        <ele>99</ele>
        <time>2016-07-07T08:24:51Z</time>
      </trkpt>
      <trkpt lat="43.40424" lon="-6.18733">
        <ele>99.4</ele>
        <time>2016-07-07T08:25:00Z</time>
      </trkpt>
      <trkpt lat="43.40419" lon="-6.18745">
        <ele>99.9</ele>
        <time>2016-07-07T08:25:08Z</time>
      </trkpt>
      <trkpt lat="43.40415" lon="-6.18756">
        <ele>100.4</ele>
        <time>2016-07-07T08:25:16Z</time>
      </trkpt>
      <trkpt lat="43.40411" lon="-6.18767">
        <ele>100.9</ele>
        <time>2016-07-07T08:25:24Z</time>
      </trkpt>
      <trkpt lat="43.40409" lon="-6.1878">
        <ele>101.4</ele>
        <time>2016-07-07T08:25:33Z</time>
      </trkpt>
      <trkpt lat="43.40406" lon="-6.18793">
        <ele>101.8</ele>
        <time>2016-07-07T08:25:42Z</time>
      </trkpt>
      <trkpt lat="43.40404" lon="-6.18807">
        <ele>102.1</ele>
        <time>2016-07-07T08:25:51Z</time>
      </trkpt>
      <trkpt lat="43.404" lon="-6.18819">
        <ele>102.2</ele>
        <time>2016-07-07T08:25:59Z</time>
      </trkpt>
      <trkpt lat="43.40396" lon="-6.18831">
        <ele>102.4</ele>
        <time>2016-07-07T08:26:07Z</time>
      </trkpt>
      <trkpt lat="43.40391" lon="-6.18843">
        <ele>103</ele>
        <time>2016-07-07T08:26:16Z</time>
      </trkpt>
      <trkpt lat="43.40385" lon="-6.18852">
        <ele>103.3</ele>
        <time>2016-07-07T08:26:24Z</time>
      </trkpt>
      <trkpt lat="43.40378" lon="-6.18862">
        <ele>103.5</ele>
        <time>2016-07-07T08:26:32Z</time>
      </trkpt>
      <trkpt lat="43.40371" lon="-6.18871">
        <ele>103.6</ele>
        <time>2016-07-07T08:26:40Z</time>
      </trkpt>
      <trkpt lat="43.40365" lon="-6.18882">
        <ele>103.5</ele>
        <time>2016-07-07T08:26:49Z</time>
      </trkpt>
      <trkpt lat="43.40361" lon="-6.18893">
        <ele>103.4</ele>
        <time>2016-07-07T08:26:56Z</time>
      </trkpt>
      <trkpt lat="43.4036" lon="-6.18907">
        <ele>103.3</ele>
        <time>2016-07-07T08:27:04Z</time>
      </trkpt>
      <trkpt lat="43.40361" lon="-6.1892">
        <ele>103.2</ele>
        <time>2016-07-07T08:27:11Z</time>
      </trkpt>
      <trkpt lat="43.40361" lon="-6.18933">
        <ele>103.1</ele>
        <time>2016-07-07T08:27:18Z</time>
      </trkpt>
      <trkpt lat="43.40362" lon="-6.18946">
        <ele>103.5</ele>
        <time>2016-07-07T08:27:25Z</time>
      </trkpt>
      <trkpt lat="43.40363" lon="-6.18959">
        <ele>103.9</ele>
        <time>2016-07-07T08:27:32Z</time>
      </trkpt>
      <trkpt lat="43.40363" lon="-6.18973">
        <ele>104</ele>
        <time>2016-07-07T08:27:41Z</time>
      </trkpt>
      <trkpt lat="43.40364" lon="-6.18986">
        <ele>104.2</ele>
        <time>2016-07-07T08:27:49Z</time>
      </trkpt>
      <trkpt lat="43.40364" lon="-6.18998">
        <ele>104.4</ele>
        <time>2016-07-07T08:27:57Z</time>
      </trkpt>
      <trkpt lat="43.40365" lon="-6.19012">
        <ele>105.3</ele>
        <time>2016-07-07T08:28:06Z</time>
      </trkpt>
      <trkpt lat="43.40364" lon="-6.19025">
        <ele>106.6</ele>
        <time>2016-07-07T08:28:15Z</time>
      </trkpt>
      <trkpt lat="43.40363" lon="-6.19038">
        <ele>107</ele>
        <time>2016-07-07T08:28:24Z</time>
      </trkpt>
      <trkpt lat="43.40362" lon="-6.1905">
        <ele>107.5</ele>
        <time>2016-07-07T08:28:33Z</time>
      </trkpt>
      <trkpt lat="43.40361" lon="-6.19063">
        <ele>108.1</ele>
        <time>2016-07-07T08:28:42Z</time>
      </trkpt>
      <trkpt lat="43.40359" lon="-6.19075">
        <ele>109.1</ele>
        <time>2016-07-07T08:28:51Z</time>
      </trkpt>
      <trkpt lat="43.40359" lon="-6.19088">
        <ele>110.4</ele>
        <time>2016-07-07T08:29:03Z</time>
      </trkpt>
      <trkpt lat="43.40355" lon="-6.19099">
        <ele>111.2</ele>
        <time>2016-07-07T08:30:46Z</time>
      </trkpt>
      <trkpt lat="43.40364" lon="-6.19098">
        <ele>111.1</ele>
        <time>2016-07-07T08:32:53Z</time>
      </trkpt>
      <trkpt lat="43.40355" lon="-6.19103">
        <ele>110</ele>
        <time>2016-07-07T08:40:34Z</time>
      </trkpt>
      <trkpt lat="43.40364" lon="-6.19098">
        <ele>110.2</ele>
        <time>2016-07-07T08:42:13Z</time>
      </trkpt>
      <trkpt lat="43.40369" lon="-6.19108">
        <ele>111.1</ele>
        <time>2016-07-07T08:45:24Z</time>
      </trkpt>
      <trkpt lat="43.40375" lon="-6.1912">
        <ele>110.7</ele>
        <time>2016-07-07T08:45:32Z</time>
      </trkpt>
      <trkpt lat="43.40379" lon="-6.19132">
        <ele>110.2</ele>
        <time>2016-07-07T08:45:41Z</time>
      </trkpt>
      <trkpt lat="43.40381" lon="-6.19144">
        <ele>109.7</ele>
        <time>2016-07-07T08:45:52Z</time>
      </trkpt>
      <trkpt lat="43.40387" lon="-6.19155">
        <ele>108.9</ele>
        <time>2016-07-07T08:46:07Z</time>
      </trkpt>
      <trkpt lat="43.40392" lon="-6.19167">
        <ele>108.5</ele>
        <time>2016-07-07T08:46:15Z</time>
      </trkpt>
      <trkpt lat="43.40397" lon="-6.19177">
        <ele>108</ele>
        <time>2016-07-07T08:46:23Z</time>
      </trkpt>
      <trkpt lat="43.40402" lon="-6.19189">
        <ele>106.8</ele>
        <time>2016-07-07T08:46:31Z</time>
      </trkpt>
      <trkpt lat="43.40405" lon="-6.19201">
        <ele>105.9</ele>
        <time>2016-07-07T08:46:39Z</time>
      </trkpt>
      <trkpt lat="43.40409" lon="-6.19214">
        <ele>105.3</ele>
        <time>2016-07-07T08:46:46Z</time>
      </trkpt>
      <trkpt lat="43.40413" lon="-6.19225">
        <ele>104.7</ele>
        <time>2016-07-07T08:46:53Z</time>
      </trkpt>
      <trkpt lat="43.40417" lon="-6.19238">
        <ele>104.1</ele>
        <time>2016-07-07T08:47:00Z</time>
      </trkpt>
      <trkpt lat="43.40421" lon="-6.1925">
        <ele>103.9</ele>
        <time>2016-07-07T08:47:07Z</time>
      </trkpt>
      <trkpt lat="43.40424" lon="-6.19264">
        <ele>103.4</ele>
        <time>2016-07-07T08:47:15Z</time>
      </trkpt>
      <trkpt lat="43.40426" lon="-6.19276">
        <ele>103</ele>
        <time>2016-07-07T08:47:22Z</time>
      </trkpt>
      <trkpt lat="43.40425" lon="-6.19288">
        <ele>102.9</ele>
        <time>2016-07-07T08:47:30Z</time>
      </trkpt>
      <trkpt lat="43.40421" lon="-6.193">
        <ele>102.6</ele>
        <time>2016-07-07T08:47:38Z</time>
      </trkpt>
      <trkpt lat="43.40417" lon="-6.19313">
        <ele>102.6</ele>
        <time>2016-07-07T08:47:46Z</time>
      </trkpt>
      <trkpt lat="43.40414" lon="-6.19325">
        <ele>103.3</ele>
        <time>2016-07-07T08:47:54Z</time>
      </trkpt>
      <trkpt lat="43.40414" lon="-6.19338">
        <ele>104.3</ele>
        <time>2016-07-07T08:48:03Z</time>
      </trkpt>
      <trkpt lat="43.40412" lon="-6.19351">
        <ele>105.2</ele>
        <time>2016-07-07T08:48:14Z</time>
      </trkpt>
      <trkpt lat="43.40414" lon="-6.19364">
        <ele>106.3</ele>
        <time>2016-07-07T08:48:22Z</time>
      </trkpt>
      <trkpt lat="43.40419" lon="-6.19377">
        <ele>107.1</ele>
        <time>2016-07-07T08:48:30Z</time>
      </trkpt>
      <trkpt lat="43.40424" lon="-6.19388">
        <ele>107.7</ele>
        <time>2016-07-07T08:48:37Z</time>
      </trkpt>
      <trkpt lat="43.40429" lon="-6.194">
        <ele>108</ele>
        <time>2016-07-07T08:48:44Z</time>
      </trkpt>
      <trkpt lat="43.40435" lon="-6.19411">
        <ele>107.9</ele>
        <time>2016-07-07T08:48:50Z</time>
      </trkpt>
      <trkpt lat="43.40439" lon="-6.19423">
        <ele>107.7</ele>
        <time>2016-07-07T08:48:57Z</time>
      </trkpt>
      <trkpt lat="43.40444" lon="-6.19435">
        <ele>107.6</ele>
        <time>2016-07-07T08:49:05Z</time>
      </trkpt>
      <trkpt lat="43.40449" lon="-6.19446">
        <ele>107.6</ele>
        <time>2016-07-07T08:49:13Z</time>
      </trkpt>
      <trkpt lat="43.40455" lon="-6.19456">
        <ele>107.6</ele>
        <time>2016-07-07T08:49:22Z</time>
      </trkpt>
      <trkpt lat="43.4046" lon="-6.19467">
        <ele>107.4</ele>
        <time>2016-07-07T08:49:30Z</time>
      </trkpt>
      <trkpt lat="43.40464" lon="-6.19479">
        <ele>107.4</ele>
        <time>2016-07-07T08:49:39Z</time>
      </trkpt>
      <trkpt lat="43.40464" lon="-6.19492">
        <ele>107.1</ele>
        <time>2016-07-07T08:49:48Z</time>
      </trkpt>
      <trkpt lat="43.40462" lon="-6.19505">
        <ele>107</ele>
        <time>2016-07-07T08:49:57Z</time>
      </trkpt>
      <trkpt lat="43.40459" lon="-6.19517">
        <ele>106.7</ele>
        <time>2016-07-07T08:50:05Z</time>
      </trkpt>
      <trkpt lat="43.40457" lon="-6.1953">
        <ele>106.5</ele>
        <time>2016-07-07T08:50:12Z</time>
      </trkpt>
      <trkpt lat="43.40455" lon="-6.19543">
        <ele>106.4</ele>
        <time>2016-07-07T08:50:21Z</time>
      </trkpt>
      <trkpt lat="43.40453" lon="-6.19556">
        <ele>106.5</ele>
        <time>2016-07-07T08:50:30Z</time>
      </trkpt>
      <trkpt lat="43.40453" lon="-6.19569">
        <ele>106.4</ele>
        <time>2016-07-07T08:50:37Z</time>
      </trkpt>
      <trkpt lat="43.40454" lon="-6.19582">
        <ele>106.4</ele>
        <time>2016-07-07T08:50:45Z</time>
      </trkpt>
      <trkpt lat="43.40458" lon="-6.19594">
        <ele>106.2</ele>
        <time>2016-07-07T08:50:52Z</time>
      </trkpt>
      <trkpt lat="43.40462" lon="-6.19605">
        <ele>106.3</ele>
        <time>2016-07-07T08:50:59Z</time>
      </trkpt>
      <trkpt lat="43.40467" lon="-6.19618">
        <ele>106.2</ele>
        <time>2016-07-07T08:51:06Z</time>
      </trkpt>
      <trkpt lat="43.4047" lon="-6.1963">
        <ele>106</ele>
        <time>2016-07-07T08:51:13Z</time>
      </trkpt>
      <trkpt lat="43.40473" lon="-6.19643">
        <ele>105.7</ele>
        <time>2016-07-07T08:51:21Z</time>
      </trkpt>
      <trkpt lat="43.40473" lon="-6.19656">
        <ele>105.9</ele>
        <time>2016-07-07T08:51:30Z</time>
      </trkpt>
      <trkpt lat="43.40472" lon="-6.19669">
        <ele>106.6</ele>
        <time>2016-07-07T08:51:39Z</time>
      </trkpt>
      <trkpt lat="43.40471" lon="-6.19682">
        <ele>107.5</ele>
        <time>2016-07-07T08:51:48Z</time>
      </trkpt>
      <trkpt lat="43.40468" lon="-6.19695">
        <ele>108.3</ele>
        <time>2016-07-07T08:51:57Z</time>
      </trkpt>
      <trkpt lat="43.40466" lon="-6.19707">
        <ele>108.9</ele>
        <time>2016-07-07T08:52:06Z</time>
      </trkpt>
      <trkpt lat="43.40463" lon="-6.19719">
        <ele>109.3</ele>
        <time>2016-07-07T08:52:14Z</time>
      </trkpt>
      <trkpt lat="43.40461" lon="-6.19732">
        <ele>110</ele>
        <time>2016-07-07T08:52:23Z</time>
      </trkpt>
      <trkpt lat="43.4046" lon="-6.19745">
        <ele>110.2</ele>
        <time>2016-07-07T08:52:31Z</time>
      </trkpt>
      <trkpt lat="43.40458" lon="-6.19759">
        <ele>110.8</ele>
        <time>2016-07-07T08:52:39Z</time>
      </trkpt>
      <trkpt lat="43.40463" lon="-6.1977">
        <ele>111.3</ele>
        <time>2016-07-07T08:52:46Z</time>
      </trkpt>
      <trkpt lat="43.40469" lon="-6.19781">
        <ele>111.6</ele>
        <time>2016-07-07T08:52:53Z</time>
      </trkpt>
      <trkpt lat="43.40476" lon="-6.19791">
        <ele>111.7</ele>
        <time>2016-07-07T08:53:00Z</time>
      </trkpt>
      <trkpt lat="43.40482" lon="-6.19801">
        <ele>111.2</ele>
        <time>2016-07-07T08:53:08Z</time>
      </trkpt>
      <trkpt lat="43.40487" lon="-6.19812">
        <ele>110.7</ele>
        <time>2016-07-07T08:53:15Z</time>
      </trkpt>
      <trkpt lat="43.40495" lon="-6.1982">
        <ele>109.9</ele>
        <time>2016-07-07T08:53:24Z</time>
      </trkpt>
      <trkpt lat="43.40503" lon="-6.19828">
        <ele>108.8</ele>
        <time>2016-07-07T08:53:32Z</time>
      </trkpt>
      <trkpt lat="43.4051" lon="-6.19835">
        <ele>107.5</ele>
        <time>2016-07-07T08:53:40Z</time>
      </trkpt>
      <trkpt lat="43.4052" lon="-6.1984">
        <ele>106</ele>
        <time>2016-07-07T08:53:49Z</time>
      </trkpt>
      <trkpt lat="43.4053" lon="-6.19841">
        <ele>105</ele>
        <time>2016-07-07T08:53:58Z</time>
      </trkpt>
      <trkpt lat="43.4054" lon="-6.1984">
        <ele>104.2</ele>
        <time>2016-07-07T08:54:06Z</time>
      </trkpt>
      <trkpt lat="43.40549" lon="-6.19839">
        <ele>103.4</ele>
        <time>2016-07-07T08:54:14Z</time>
      </trkpt>
      <trkpt lat="43.40559" lon="-6.19839">
        <ele>102.4</ele>
        <time>2016-07-07T08:54:22Z</time>
      </trkpt>
      <trkpt lat="43.40569" lon="-6.19837">
        <ele>101.7</ele>
        <time>2016-07-07T08:54:30Z</time>
      </trkpt>
      <trkpt lat="43.40579" lon="-6.19837">
        <ele>101.4</ele>
        <time>2016-07-07T08:54:37Z</time>
      </trkpt>
      <trkpt lat="43.40588" lon="-6.19842">
        <ele>100.8</ele>
        <time>2016-07-07T08:54:45Z</time>
      </trkpt>
      <trkpt lat="43.40597" lon="-6.19846">
        <ele>100.3</ele>
        <time>2016-07-07T08:54:53Z</time>
      </trkpt>
      <trkpt lat="43.40605" lon="-6.19853">
        <ele>100.1</ele>
        <time>2016-07-07T08:55:00Z</time>
      </trkpt>
      <trkpt lat="43.40612" lon="-6.19861">
        <ele>99.7</ele>
        <time>2016-07-07T08:55:08Z</time>
      </trkpt>
      <trkpt lat="43.40619" lon="-6.19868">
        <ele>99.9</ele>
        <time>2016-07-07T08:55:15Z</time>
      </trkpt>
      <trkpt lat="43.40625" lon="-6.19878">
        <ele>100</ele>
        <time>2016-07-07T08:55:22Z</time>
      </trkpt>
      <trkpt lat="43.40633" lon="-6.19887">
        <ele>100</ele>
        <time>2016-07-07T08:55:30Z</time>
      </trkpt>
      <trkpt lat="43.4064" lon="-6.19896">
        <ele>100.1</ele>
        <time>2016-07-07T08:55:37Z</time>
      </trkpt>
      <trkpt lat="43.40646" lon="-6.19906">
        <ele>100</ele>
        <time>2016-07-07T08:55:45Z</time>
      </trkpt>
      <trkpt lat="43.40652" lon="-6.19917">
        <ele>99.9</ele>
        <time>2016-07-07T08:55:53Z</time>
      </trkpt>
      <trkpt lat="43.40658" lon="-6.19928">
        <ele>99.9</ele>
        <time>2016-07-07T08:56:01Z</time>
      </trkpt>
      <trkpt lat="43.40665" lon="-6.19937">
        <ele>100</ele>
        <time>2016-07-07T08:56:09Z</time>
      </trkpt>
      <trkpt lat="43.40673" lon="-6.19943">
        <ele>99.9</ele>
        <time>2016-07-07T08:56:17Z</time>
      </trkpt>
      <trkpt lat="43.40682" lon="-6.19941">
        <ele>99.6</ele>
        <time>2016-07-07T08:56:25Z</time>
      </trkpt>
      <trkpt lat="43.40691" lon="-6.19935">
        <ele>99.3</ele>
        <time>2016-07-07T08:56:33Z</time>
      </trkpt>
      <trkpt lat="43.407" lon="-6.19932">
        <ele>99.1</ele>
        <time>2016-07-07T08:56:41Z</time>
      </trkpt>
      <trkpt lat="43.4071" lon="-6.19927">
        <ele>98.4</ele>
        <time>2016-07-07T08:56:49Z</time>
      </trkpt>
      <trkpt lat="43.40718" lon="-6.19922">
        <ele>98</ele>
        <time>2016-07-07T08:56:56Z</time>
      </trkpt>
      <trkpt lat="43.40727" lon="-6.19918">
        <ele>97.3</ele>
        <time>2016-07-07T08:57:04Z</time>
      </trkpt>
      <trkpt lat="43.40736" lon="-6.19913">
        <ele>97</ele>
        <time>2016-07-07T08:57:12Z</time>
      </trkpt>
      <trkpt lat="43.40746" lon="-6.19909">
        <ele>96.7</ele>
        <time>2016-07-07T08:57:19Z</time>
      </trkpt>
      <trkpt lat="43.40754" lon="-6.19903">
        <ele>96.4</ele>
        <time>2016-07-07T08:57:26Z</time>
      </trkpt>
      <trkpt lat="43.40763" lon="-6.19898">
        <ele>96.4</ele>
        <time>2016-07-07T08:57:33Z</time>
      </trkpt>
      <trkpt lat="43.40772" lon="-6.19893">
        <ele>96.2</ele>
        <time>2016-07-07T08:57:41Z</time>
      </trkpt>
      <trkpt lat="43.40782" lon="-6.19891">
        <ele>96</ele>
        <time>2016-07-07T08:57:49Z</time>
      </trkpt>
      <trkpt lat="43.40787" lon="-6.19901">
        <ele>96</ele>
        <time>2016-07-07T08:57:57Z</time>
      </trkpt>
      <trkpt lat="43.40785" lon="-6.19913">
        <ele>96.4</ele>
        <time>2016-07-07T08:58:04Z</time>
      </trkpt>
      <trkpt lat="43.40782" lon="-6.19926">
        <ele>96.6</ele>
        <time>2016-07-07T08:58:12Z</time>
      </trkpt>
      <trkpt lat="43.4078" lon="-6.19938">
        <ele>96.5</ele>
        <time>2016-07-07T08:58:20Z</time>
      </trkpt>
      <trkpt lat="43.40778" lon="-6.19951">
        <ele>96.7</ele>
        <time>2016-07-07T08:58:28Z</time>
      </trkpt>
      <trkpt lat="43.40776" lon="-6.19964">
        <ele>96.7</ele>
        <time>2016-07-07T08:58:36Z</time>
      </trkpt>
      <trkpt lat="43.40774" lon="-6.19978">
        <ele>96.8</ele>
        <time>2016-07-07T08:58:44Z</time>
      </trkpt>
      <trkpt lat="43.40773" lon="-6.1999">
        <ele>96.8</ele>
        <time>2016-07-07T08:58:51Z</time>
      </trkpt>
      <trkpt lat="43.40772" lon="-6.20004">
        <ele>96.9</ele>
        <time>2016-07-07T08:58:59Z</time>
      </trkpt>
      <trkpt lat="43.40772" lon="-6.20017">
        <ele>97</ele>
        <time>2016-07-07T08:59:07Z</time>
      </trkpt>
      <trkpt lat="43.40771" lon="-6.2003">
        <ele>97.5</ele>
        <time>2016-07-07T08:59:15Z</time>
      </trkpt>
      <trkpt lat="43.40771" lon="-6.20044">
        <ele>97.9</ele>
        <time>2016-07-07T08:59:23Z</time>
      </trkpt>
      <trkpt lat="43.4077" lon="-6.20057">
        <ele>98.1</ele>
        <time>2016-07-07T08:59:31Z</time>
      </trkpt>
      <trkpt lat="43.40769" lon="-6.20071">
        <ele>98.6</ele>
        <time>2016-07-07T08:59:39Z</time>
      </trkpt>
      <trkpt lat="43.40768" lon="-6.20084">
        <ele>98.9</ele>
        <time>2016-07-07T08:59:47Z</time>
      </trkpt>
      <trkpt lat="43.40767" lon="-6.20097">
        <ele>99</ele>
        <time>2016-07-07T08:59:55Z</time>
      </trkpt>
      <trkpt lat="43.40766" lon="-6.2011">
        <ele>99.3</ele>
        <time>2016-07-07T09:00:03Z</time>
      </trkpt>
      <trkpt lat="43.40764" lon="-6.20122">
        <ele>99.9</ele>
        <time>2016-07-07T09:00:11Z</time>
      </trkpt>
      <trkpt lat="43.40763" lon="-6.20135">
        <ele>99.9</ele>
        <time>2016-07-07T09:00:19Z</time>
      </trkpt>
      <trkpt lat="43.40762" lon="-6.20147">
        <ele>99.6</ele>
        <time>2016-07-07T09:00:27Z</time>
      </trkpt>
      <trkpt lat="43.40761" lon="-6.2016">
        <ele>99.9</ele>
        <time>2016-07-07T09:00:35Z</time>
      </trkpt>
      <trkpt lat="43.4076" lon="-6.20172">
        <ele>100.3</ele>
        <time>2016-07-07T09:00:43Z</time>
      </trkpt>
      <trkpt lat="43.4076" lon="-6.20186">
        <ele>100.7</ele>
        <time>2016-07-07T09:00:51Z</time>
      </trkpt>
      <trkpt lat="43.40759" lon="-6.20198">
        <ele>100.9</ele>
        <time>2016-07-07T09:00:59Z</time>
      </trkpt>
      <trkpt lat="43.40758" lon="-6.20212">
        <ele>100.9</ele>
        <time>2016-07-07T09:01:08Z</time>
      </trkpt>
      <trkpt lat="43.40758" lon="-6.20225">
        <ele>101</ele>
        <time>2016-07-07T09:01:16Z</time>
      </trkpt>
      <trkpt lat="43.40757" lon="-6.20239">
        <ele>101.4</ele>
        <time>2016-07-07T09:01:25Z</time>
      </trkpt>
      <trkpt lat="43.40756" lon="-6.20252">
        <ele>101.8</ele>
        <time>2016-07-07T09:01:33Z</time>
      </trkpt>
      <trkpt lat="43.40755" lon="-6.20265">
        <ele>102.1</ele>
        <time>2016-07-07T09:01:41Z</time>
      </trkpt>
      <trkpt lat="43.40753" lon="-6.20278">
        <ele>102.5</ele>
        <time>2016-07-07T09:01:49Z</time>
      </trkpt>
      <trkpt lat="43.40753" lon="-6.20292">
        <ele>102.7</ele>
        <time>2016-07-07T09:01:58Z</time>
      </trkpt>
      <trkpt lat="43.40751" lon="-6.20304">
        <ele>102.9</ele>
        <time>2016-07-07T09:02:06Z</time>
      </trkpt>
      <trkpt lat="43.40751" lon="-6.20317">
        <ele>102.8</ele>
        <time>2016-07-07T09:02:14Z</time>
      </trkpt>
      <trkpt lat="43.4075" lon="-6.2033">
        <ele>102.8</ele>
        <time>2016-07-07T09:02:22Z</time>
      </trkpt>
      <trkpt lat="43.4075" lon="-6.20344">
        <ele>103</ele>
        <time>2016-07-07T09:02:30Z</time>
      </trkpt>
      <trkpt lat="43.40749" lon="-6.20357">
        <ele>103.1</ele>
        <time>2016-07-07T09:02:38Z</time>
      </trkpt>
      <trkpt lat="43.40748" lon="-6.2037">
        <ele>103.2</ele>
        <time>2016-07-07T09:02:46Z</time>
      </trkpt>
      <trkpt lat="43.40747" lon="-6.20384">
        <ele>103.1</ele>
        <time>2016-07-07T09:02:54Z</time>
      </trkpt>
      <trkpt lat="43.40746" lon="-6.20397">
        <ele>103.1</ele>
        <time>2016-07-07T09:03:02Z</time>
      </trkpt>
      <trkpt lat="43.40745" lon="-6.20409">
        <ele>103</ele>
        <time>2016-07-07T09:03:10Z</time>
      </trkpt>
      <trkpt lat="43.40743" lon="-6.20423">
        <ele>103.2</ele>
        <time>2016-07-07T09:03:18Z</time>
      </trkpt>
      <trkpt lat="43.40742" lon="-6.20436">
        <ele>103.7</ele>
        <time>2016-07-07T09:03:26Z</time>
      </trkpt>
      <trkpt lat="43.40741" lon="-6.2045">
        <ele>103.8</ele>
        <time>2016-07-07T09:03:35Z</time>
      </trkpt>
      <trkpt lat="43.4074" lon="-6.20463">
        <ele>104</ele>
        <time>2016-07-07T09:03:43Z</time>
      </trkpt>
      <trkpt lat="43.4074" lon="-6.20477">
        <ele>104.5</ele>
        <time>2016-07-07T09:03:51Z</time>
      </trkpt>
      <trkpt lat="43.40739" lon="-6.2049">
        <ele>105</ele>
        <time>2016-07-07T09:03:59Z</time>
      </trkpt>
      <trkpt lat="43.40738" lon="-6.20503">
        <ele>105.3</ele>
        <time>2016-07-07T09:04:07Z</time>
      </trkpt>
      <trkpt lat="43.40738" lon="-6.20516">
        <ele>105.5</ele>
        <time>2016-07-07T09:04:15Z</time>
      </trkpt>
      <trkpt lat="43.40736" lon="-6.20528">
        <ele>105.7</ele>
        <time>2016-07-07T09:04:23Z</time>
      </trkpt>
      <trkpt lat="43.40735" lon="-6.20541">
        <ele>105.8</ele>
        <time>2016-07-07T09:04:31Z</time>
      </trkpt>
      <trkpt lat="43.40734" lon="-6.20555">
        <ele>105.5</ele>
        <time>2016-07-07T09:04:40Z</time>
      </trkpt>
      <trkpt lat="43.40734" lon="-6.20569">
        <ele>105.6</ele>
        <time>2016-07-07T09:04:49Z</time>
      </trkpt>
      <trkpt lat="43.40732" lon="-6.20582">
        <ele>105.9</ele>
        <time>2016-07-07T09:04:58Z</time>
      </trkpt>
      <trkpt lat="43.40732" lon="-6.20595">
        <ele>106.1</ele>
        <time>2016-07-07T09:05:07Z</time>
      </trkpt>
      <trkpt lat="43.40732" lon="-6.20609">
        <ele>106.4</ele>
        <time>2016-07-07T09:05:15Z</time>
      </trkpt>
      <trkpt lat="43.40731" lon="-6.20622">
        <ele>106.4</ele>
        <time>2016-07-07T09:05:24Z</time>
      </trkpt>
      <trkpt lat="43.4073" lon="-6.20635">
        <ele>106.6</ele>
        <time>2016-07-07T09:05:32Z</time>
      </trkpt>
      <trkpt lat="43.4073" lon="-6.20647">
        <ele>107</ele>
        <time>2016-07-07T09:05:40Z</time>
      </trkpt>
      <trkpt lat="43.40729" lon="-6.2066">
        <ele>107.2</ele>
        <time>2016-07-07T09:05:48Z</time>
      </trkpt>
      <trkpt lat="43.40728" lon="-6.20674">
        <ele>107.6</ele>
        <time>2016-07-07T09:05:57Z</time>
      </trkpt>
      <trkpt lat="43.40727" lon="-6.20686">
        <ele>107.9</ele>
        <time>2016-07-07T09:06:05Z</time>
      </trkpt>
      <trkpt lat="43.40727" lon="-6.20699">
        <ele>107.8</ele>
        <time>2016-07-07T09:06:13Z</time>
      </trkpt>
      <trkpt lat="43.40726" lon="-6.20712">
        <ele>107.9</ele>
        <time>2016-07-07T09:06:21Z</time>
      </trkpt>
      <trkpt lat="43.40725" lon="-6.20725">
        <ele>108.4</ele>
        <time>2016-07-07T09:06:30Z</time>
      </trkpt>
      <trkpt lat="43.40724" lon="-6.20739">
        <ele>108.7</ele>
        <time>2016-07-07T09:06:38Z</time>
      </trkpt>
      <trkpt lat="43.40723" lon="-6.20753">
        <ele>109.1</ele>
        <time>2016-07-07T09:06:46Z</time>
      </trkpt>
      <trkpt lat="43.40722" lon="-6.20765">
        <ele>109.3</ele>
        <time>2016-07-07T09:06:53Z</time>
      </trkpt>
      <trkpt lat="43.4072" lon="-6.20777">
        <ele>109.6</ele>
        <time>2016-07-07T09:07:01Z</time>
      </trkpt>
      <trkpt lat="43.40719" lon="-6.20791">
        <ele>110.1</ele>
        <time>2016-07-07T09:07:10Z</time>
      </trkpt>
      <trkpt lat="43.40718" lon="-6.20804">
        <ele>110.5</ele>
        <time>2016-07-07T09:07:18Z</time>
      </trkpt>
      <trkpt lat="43.40716" lon="-6.20817">
        <ele>110.8</ele>
        <time>2016-07-07T09:07:26Z</time>
      </trkpt>
      <trkpt lat="43.40716" lon="-6.20829">
        <ele>110.8</ele>
        <time>2016-07-07T09:07:34Z</time>
      </trkpt>
      <trkpt lat="43.40715" lon="-6.20842">
        <ele>110.5</ele>
        <time>2016-07-07T09:07:42Z</time>
      </trkpt>
      <trkpt lat="43.40715" lon="-6.20856">
        <ele>110.8</ele>
        <time>2016-07-07T09:07:50Z</time>
      </trkpt>
      <trkpt lat="43.40713" lon="-6.20869">
        <ele>111.2</ele>
        <time>2016-07-07T09:07:58Z</time>
      </trkpt>
      <trkpt lat="43.40712" lon="-6.20882">
        <ele>111.7</ele>
        <time>2016-07-07T09:08:06Z</time>
      </trkpt>
      <trkpt lat="43.40711" lon="-6.20895">
        <ele>111.9</ele>
        <time>2016-07-07T09:08:14Z</time>
      </trkpt>
      <trkpt lat="43.40709" lon="-6.20909">
        <ele>112.1</ele>
        <time>2016-07-07T09:08:22Z</time>
      </trkpt>
      <trkpt lat="43.40709" lon="-6.20922">
        <ele>112.1</ele>
        <time>2016-07-07T09:08:30Z</time>
      </trkpt>
      <trkpt lat="43.40708" lon="-6.20934">
        <ele>112.7</ele>
        <time>2016-07-07T09:08:37Z</time>
      </trkpt>
      <trkpt lat="43.40707" lon="-6.20948">
        <ele>113.3</ele>
        <time>2016-07-07T09:08:47Z</time>
      </trkpt>
      <trkpt lat="43.40705" lon="-6.20961">
        <ele>113.6</ele>
        <time>2016-07-07T09:08:57Z</time>
      </trkpt>
      <trkpt lat="43.40704" lon="-6.20974">
        <ele>114.7</ele>
        <time>2016-07-07T09:09:05Z</time>
      </trkpt>
      <trkpt lat="43.40702" lon="-6.20986">
        <ele>115.2</ele>
        <time>2016-07-07T09:09:13Z</time>
      </trkpt>
      <trkpt lat="43.40701" lon="-6.21">
        <ele>113.9</ele>
        <time>2016-07-07T09:09:22Z</time>
      </trkpt>
      <trkpt lat="43.40698" lon="-6.21012">
        <ele>115</ele>
        <time>2016-07-07T09:09:31Z</time>
      </trkpt>
      <trkpt lat="43.40696" lon="-6.21025">
        <ele>115.3</ele>
        <time>2016-07-07T09:09:41Z</time>
      </trkpt>
      <trkpt lat="43.40694" lon="-6.21038">
        <ele>115.2</ele>
        <time>2016-07-07T09:09:49Z</time>
      </trkpt>
      <trkpt lat="43.40693" lon="-6.21051">
        <ele>115</ele>
        <time>2016-07-07T09:09:57Z</time>
      </trkpt>
      <trkpt lat="43.40691" lon="-6.21065">
        <ele>114.9</ele>
        <time>2016-07-07T09:10:06Z</time>
      </trkpt>
      <trkpt lat="43.4069" lon="-6.21078">
        <ele>114.8</ele>
        <time>2016-07-07T09:10:15Z</time>
      </trkpt>
      <trkpt lat="43.40687" lon="-6.2109">
        <ele>114.7</ele>
        <time>2016-07-07T09:10:23Z</time>
      </trkpt>
      <trkpt lat="43.40683" lon="-6.21102">
        <ele>114.6</ele>
        <time>2016-07-07T09:10:31Z</time>
      </trkpt>
      <trkpt lat="43.4068" lon="-6.21115">
        <ele>114.7</ele>
        <time>2016-07-07T09:10:40Z</time>
      </trkpt>
      <trkpt lat="43.40675" lon="-6.21126">
        <ele>114.9</ele>
        <time>2016-07-07T09:10:49Z</time>
      </trkpt>
      <trkpt lat="43.40667" lon="-6.21136">
        <ele>115.2</ele>
        <time>2016-07-07T09:10:58Z</time>
      </trkpt>
      <trkpt lat="43.4066" lon="-6.21143">
        <ele>115.2</ele>
        <time>2016-07-07T09:11:06Z</time>
      </trkpt>
      <trkpt lat="43.40655" lon="-6.21155">
        <ele>115.2</ele>
        <time>2016-07-07T09:11:16Z</time>
      </trkpt>
      <trkpt lat="43.40648" lon="-6.21165">
        <ele>115.4</ele>
        <time>2016-07-07T09:11:24Z</time>
      </trkpt>
      <trkpt lat="43.40644" lon="-6.21177">
        <ele>115.5</ele>
        <time>2016-07-07T09:11:32Z</time>
      </trkpt>
      <trkpt lat="43.4064" lon="-6.21188">
        <ele>115.5</ele>
        <time>2016-07-07T09:11:39Z</time>
      </trkpt>
      <trkpt lat="43.40633" lon="-6.21199">
        <ele>115.5</ele>
        <time>2016-07-07T09:11:48Z</time>
      </trkpt>
      <trkpt lat="43.40628" lon="-6.2121">
        <ele>115.8</ele>
        <time>2016-07-07T09:11:57Z</time>
      </trkpt>
      <trkpt lat="43.40622" lon="-6.2122">
        <ele>116.1</ele>
        <time>2016-07-07T09:12:05Z</time>
      </trkpt>
      <trkpt lat="43.40617" lon="-6.21232">
        <ele>116.3</ele>
        <time>2016-07-07T09:12:14Z</time>
      </trkpt>
      <trkpt lat="43.40612" lon="-6.21243">
        <ele>116.4</ele>
        <time>2016-07-07T09:12:22Z</time>
      </trkpt>
      <trkpt lat="43.40605" lon="-6.21253">
        <ele>116.5</ele>
        <time>2016-07-07T09:12:30Z</time>
      </trkpt>
      <trkpt lat="43.40598" lon="-6.21263">
        <ele>116.6</ele>
        <time>2016-07-07T09:12:37Z</time>
      </trkpt>
      <trkpt lat="43.40592" lon="-6.21273">
        <ele>116.6</ele>
        <time>2016-07-07T09:12:44Z</time>
      </trkpt>
      <trkpt lat="43.40586" lon="-6.21284">
        <ele>116.7</ele>
        <time>2016-07-07T09:12:51Z</time>
      </trkpt>
      <trkpt lat="43.40578" lon="-6.21292">
        <ele>116.7</ele>
        <time>2016-07-07T09:12:59Z</time>
      </trkpt>
      <trkpt lat="43.40571" lon="-6.21301">
        <ele>117.2</ele>
        <time>2016-07-07T09:13:07Z</time>
      </trkpt>
      <trkpt lat="43.40563" lon="-6.21309">
        <ele>117.4</ele>
        <time>2016-07-07T09:13:15Z</time>
      </trkpt>
      <trkpt lat="43.40555" lon="-6.21316">
        <ele>117.5</ele>
        <time>2016-07-07T09:13:22Z</time>
      </trkpt>
      <trkpt lat="43.40548" lon="-6.21324">
        <ele>117.5</ele>
        <time>2016-07-07T09:13:31Z</time>
      </trkpt>
      <trkpt lat="43.40541" lon="-6.21334">
        <ele>117.2</ele>
        <time>2016-07-07T09:13:39Z</time>
      </trkpt>
      <trkpt lat="43.40534" lon="-6.21343">
        <ele>117.5</ele>
        <time>2016-07-07T09:13:54Z</time>
      </trkpt>
      <trkpt lat="43.40527" lon="-6.21351">
        <ele>117.6</ele>
        <time>2016-07-07T09:14:03Z</time>
      </trkpt>
      <trkpt lat="43.40521" lon="-6.21361">
        <ele>117.9</ele>
        <time>2016-07-07T09:14:12Z</time>
      </trkpt>
      <trkpt lat="43.40515" lon="-6.21371">
        <ele>118.3</ele>
        <time>2016-07-07T09:14:23Z</time>
      </trkpt>
      <trkpt lat="43.4051" lon="-6.21382">
        <ele>118.7</ele>
        <time>2016-07-07T09:14:32Z</time>
      </trkpt>
      <trkpt lat="43.40507" lon="-6.21394">
        <ele>118.9</ele>
        <time>2016-07-07T09:14:41Z</time>
      </trkpt>
      <trkpt lat="43.40503" lon="-6.21406">
        <ele>119.2</ele>
        <time>2016-07-07T09:14:50Z</time>
      </trkpt>
      <trkpt lat="43.40501" lon="-6.2142">
        <ele>119.5</ele>
        <time>2016-07-07T09:15:00Z</time>
      </trkpt>
      <trkpt lat="43.40499" lon="-6.21434">
        <ele>119.6</ele>
        <time>2016-07-07T09:15:08Z</time>
      </trkpt>
      <trkpt lat="43.40497" lon="-6.21447">
        <ele>119.7</ele>
        <time>2016-07-07T09:15:15Z</time>
      </trkpt>
      <trkpt lat="43.40497" lon="-6.2146">
        <ele>120</ele>
        <time>2016-07-07T09:15:22Z</time>
      </trkpt>
      <trkpt lat="43.40497" lon="-6.21473">
        <ele>120.4</ele>
        <time>2016-07-07T09:15:30Z</time>
      </trkpt>
      <trkpt lat="43.40497" lon="-6.21486">
        <ele>120.4</ele>
        <time>2016-07-07T09:15:39Z</time>
      </trkpt>
      <trkpt lat="43.40496" lon="-6.21499">
        <ele>120.3</ele>
        <time>2016-07-07T09:15:47Z</time>
      </trkpt>
      <trkpt lat="43.40495" lon="-6.21513">
        <ele>120.2</ele>
        <time>2016-07-07T09:15:55Z</time>
      </trkpt>
      <trkpt lat="43.40494" lon="-6.21526">
        <ele>120.4</ele>
        <time>2016-07-07T09:16:02Z</time>
      </trkpt>
      <trkpt lat="43.40494" lon="-6.21539">
        <ele>120.7</ele>
        <time>2016-07-07T09:16:10Z</time>
      </trkpt>
      <trkpt lat="43.40493" lon="-6.21552">
        <ele>120.6</ele>
        <time>2016-07-07T09:16:18Z</time>
      </trkpt>
      <trkpt lat="43.40492" lon="-6.21565">
        <ele>120.5</ele>
        <time>2016-07-07T09:16:26Z</time>
      </trkpt>
      <trkpt lat="43.4049" lon="-6.21577">
        <ele>121</ele>
        <time>2016-07-07T09:16:34Z</time>
      </trkpt>
      <trkpt lat="43.40489" lon="-6.21591">
        <ele>121.5</ele>
        <time>2016-07-07T09:16:43Z</time>
      </trkpt>
      <trkpt lat="43.40485" lon="-6.21603">
        <ele>122</ele>
        <time>2016-07-07T09:16:51Z</time>
      </trkpt>
      <trkpt lat="43.40483" lon="-6.21615">
        <ele>122.4</ele>
        <time>2016-07-07T09:17:00Z</time>
      </trkpt>
      <trkpt lat="43.4048" lon="-6.21628">
        <ele>123</ele>
        <time>2016-07-07T09:17:08Z</time>
      </trkpt>
      <trkpt lat="43.40478" lon="-6.21641">
        <ele>123.3</ele>
        <time>2016-07-07T09:17:17Z</time>
      </trkpt>
      <trkpt lat="43.40473" lon="-6.21652">
        <ele>123.3</ele>
        <time>2016-07-07T09:17:25Z</time>
      </trkpt>
      <trkpt lat="43.4047" lon="-6.21664">
        <ele>123</ele>
        <time>2016-07-07T09:17:34Z</time>
      </trkpt>
      <trkpt lat="43.40468" lon="-6.21678">
        <ele>123.2</ele>
        <time>2016-07-07T09:17:43Z</time>
      </trkpt>
      <trkpt lat="43.40465" lon="-6.21691">
        <ele>123.5</ele>
        <time>2016-07-07T09:17:50Z</time>
      </trkpt>
      <trkpt lat="43.40462" lon="-6.21703">
        <ele>123.7</ele>
        <time>2016-07-07T09:17:58Z</time>
      </trkpt>
      <trkpt lat="43.40462" lon="-6.21716">
        <ele>123.8</ele>
        <time>2016-07-07T09:18:06Z</time>
      </trkpt>
      <trkpt lat="43.40463" lon="-6.21729">
        <ele>124</ele>
        <time>2016-07-07T09:18:15Z</time>
      </trkpt>
      <trkpt lat="43.40464" lon="-6.21742">
        <ele>124.6</ele>
        <time>2016-07-07T09:18:23Z</time>
      </trkpt>
      <trkpt lat="43.40465" lon="-6.21755">
        <ele>124.7</ele>
        <time>2016-07-07T09:18:30Z</time>
      </trkpt>
      <trkpt lat="43.40464" lon="-6.21768">
        <ele>124.9</ele>
        <time>2016-07-07T09:18:38Z</time>
      </trkpt>
      <trkpt lat="43.4046" lon="-6.2178">
        <ele>124.9</ele>
        <time>2016-07-07T09:18:47Z</time>
      </trkpt>
      <trkpt lat="43.40459" lon="-6.21792">
        <ele>125.8</ele>
        <time>2016-07-07T09:19:01Z</time>
      </trkpt>
      <trkpt lat="43.40458" lon="-6.21806">
        <ele>127.6</ele>
        <time>2016-07-07T09:19:14Z</time>
      </trkpt>
      <trkpt lat="43.40457" lon="-6.21818">
        <ele>128.9</ele>
        <time>2016-07-07T09:19:24Z</time>
      </trkpt>
      <trkpt lat="43.40452" lon="-6.2183">
        <ele>131.6</ele>
        <time>2016-07-07T09:19:36Z</time>
      </trkpt>
      <trkpt lat="43.40451" lon="-6.21843">
        <ele>133.2</ele>
        <time>2016-07-07T09:19:47Z</time>
      </trkpt>
      <trkpt lat="43.40447" lon="-6.21855">
        <ele>134.5</ele>
        <time>2016-07-07T09:19:57Z</time>
      </trkpt>
      <trkpt lat="43.40438" lon="-6.21861">
        <ele>135.9</ele>
        <time>2016-07-07T09:20:08Z</time>
      </trkpt>
      <trkpt lat="43.4043" lon="-6.21868">
        <ele>138.2</ele>
        <time>2016-07-07T09:20:19Z</time>
      </trkpt>
      <trkpt lat="43.40422" lon="-6.21874">
        <ele>140.7</ele>
        <time>2016-07-07T09:20:32Z</time>
      </trkpt>
      <trkpt lat="43.40414" lon="-6.2188">
        <ele>143.9</ele>
        <time>2016-07-07T09:20:59Z</time>
      </trkpt>
      <trkpt lat="43.40414" lon="-6.21895">
        <ele>143.1</ele>
        <time>2016-07-07T09:21:18Z</time>
      </trkpt>
      <trkpt lat="43.40419" lon="-6.21914">
        <ele>143</ele>
        <time>2016-07-07T09:21:24Z</time>
      </trkpt>
      <trkpt lat="43.40411" lon="-6.21908">
        <ele>145.5</ele>
        <time>2016-07-07T09:21:44Z</time>
      </trkpt>
      <trkpt lat="43.40403" lon="-6.21915">
        <ele>142.4</ele>
        <time>2016-07-07T09:22:04Z</time>
      </trkpt>
      <trkpt lat="43.40405" lon="-6.21928">
        <ele>139.9</ele>
        <time>2016-07-07T09:22:19Z</time>
      </trkpt>
      <trkpt lat="43.40408" lon="-6.21941">
        <ele>138.3</ele>
        <time>2016-07-07T09:22:31Z</time>
      </trkpt>
      <trkpt lat="43.40412" lon="-6.21953">
        <ele>136.8</ele>
        <time>2016-07-07T09:22:44Z</time>
      </trkpt>
      <trkpt lat="43.40408" lon="-6.21966">
        <ele>135.6</ele>
        <time>2016-07-07T09:22:54Z</time>
      </trkpt>
      <trkpt lat="43.40407" lon="-6.21978">
        <ele>135.4</ele>
        <time>2016-07-07T09:23:09Z</time>
      </trkpt>
      <trkpt lat="43.40413" lon="-6.21989">
        <ele>136.7</ele>
        <time>2016-07-07T09:23:20Z</time>
      </trkpt>
      <trkpt lat="43.40418" lon="-6.22">
        <ele>138.3</ele>
        <time>2016-07-07T09:23:28Z</time>
      </trkpt>
      <trkpt lat="43.4042" lon="-6.22012">
        <ele>139.7</ele>
        <time>2016-07-07T09:23:38Z</time>
      </trkpt>
      <trkpt lat="43.40423" lon="-6.22025">
        <ele>140.5</ele>
        <time>2016-07-07T09:23:47Z</time>
      </trkpt>
      <trkpt lat="43.40428" lon="-6.22037">
        <ele>141.5</ele>
        <time>2016-07-07T09:24:00Z</time>
      </trkpt>
      <trkpt lat="43.40431" lon="-6.2205">
        <ele>141.8</ele>
        <time>2016-07-07T09:24:08Z</time>
      </trkpt>
      <trkpt lat="43.40436" lon="-6.22062">
        <ele>142.2</ele>
        <time>2016-07-07T09:24:18Z</time>
      </trkpt>
      <trkpt lat="43.40435" lon="-6.22075">
        <ele>142.3</ele>
        <time>2016-07-07T09:24:27Z</time>
      </trkpt>
      <trkpt lat="43.40433" lon="-6.22087">
        <ele>142.7</ele>
        <time>2016-07-07T09:24:36Z</time>
      </trkpt>
      <trkpt lat="43.4043" lon="-6.221">
        <ele>143.3</ele>
        <time>2016-07-07T09:24:45Z</time>
      </trkpt>
      <trkpt lat="43.40428" lon="-6.22113">
        <ele>143.9</ele>
        <time>2016-07-07T09:24:55Z</time>
      </trkpt>
      <trkpt lat="43.40429" lon="-6.22126">
        <ele>144</ele>
        <time>2016-07-07T09:25:05Z</time>
      </trkpt>
      <trkpt lat="43.40428" lon="-6.22138">
        <ele>143.6</ele>
        <time>2016-07-07T09:25:13Z</time>
      </trkpt>
      <trkpt lat="43.4043" lon="-6.22152">
        <ele>143.2</ele>
        <time>2016-07-07T09:25:22Z</time>
      </trkpt>
      <trkpt lat="43.40431" lon="-6.22165">
        <ele>143.5</ele>
        <time>2016-07-07T09:25:33Z</time>
      </trkpt>
      <trkpt lat="43.40432" lon="-6.22179">
        <ele>143.6</ele>
        <time>2016-07-07T09:25:41Z</time>
      </trkpt>
      <trkpt lat="43.40433" lon="-6.22191">
        <ele>143.7</ele>
        <time>2016-07-07T09:25:49Z</time>
      </trkpt>
      <trkpt lat="43.40435" lon="-6.22204">
        <ele>144.3</ele>
        <time>2016-07-07T09:25:58Z</time>
      </trkpt>
      <trkpt lat="43.40437" lon="-6.22216">
        <ele>144.4</ele>
        <time>2016-07-07T09:26:07Z</time>
      </trkpt>
      <trkpt lat="43.40435" lon="-6.22229">
        <ele>144.4</ele>
        <time>2016-07-07T09:26:14Z</time>
      </trkpt>
      <trkpt lat="43.40435" lon="-6.22242">
        <ele>144.3</ele>
        <time>2016-07-07T09:26:22Z</time>
      </trkpt>
      <trkpt lat="43.40437" lon="-6.22254">
        <ele>144.2</ele>
        <time>2016-07-07T09:26:30Z</time>
      </trkpt>
      <trkpt lat="43.40441" lon="-6.22265">
        <ele>144</ele>
        <time>2016-07-07T09:26:37Z</time>
      </trkpt>
      <trkpt lat="43.40442" lon="-6.22278">
        <ele>143.9</ele>
        <time>2016-07-07T09:26:45Z</time>
      </trkpt>
      <trkpt lat="43.40445" lon="-6.22292">
        <ele>143.9</ele>
        <time>2016-07-07T09:26:53Z</time>
      </trkpt>
      <trkpt lat="43.40448" lon="-6.22304">
        <ele>144.2</ele>
        <time>2016-07-07T09:27:02Z</time>
      </trkpt>
      <trkpt lat="43.4045" lon="-6.22317">
        <ele>144.3</ele>
        <time>2016-07-07T09:27:11Z</time>
      </trkpt>
      <trkpt lat="43.40455" lon="-6.22328">
        <ele>144</ele>
        <time>2016-07-07T09:27:20Z</time>
      </trkpt>
      <trkpt lat="43.40456" lon="-6.2234">
        <ele>143.7</ele>
        <time>2016-07-07T09:27:30Z</time>
      </trkpt>
      <trkpt lat="43.40457" lon="-6.22353">
        <ele>143.5</ele>
        <time>2016-07-07T09:27:39Z</time>
      </trkpt>
      <trkpt lat="43.40458" lon="-6.22366">
        <ele>143.6</ele>
        <time>2016-07-07T09:27:50Z</time>
      </trkpt>
      <trkpt lat="43.40459" lon="-6.22379">
        <ele>143.7</ele>
        <time>2016-07-07T09:27:59Z</time>
      </trkpt>
      <trkpt lat="43.4046" lon="-6.22392">
        <ele>143.7</ele>
        <time>2016-07-07T09:28:08Z</time>
      </trkpt>
      <trkpt lat="43.40461" lon="-6.22405">
        <ele>144</ele>
        <time>2016-07-07T09:28:18Z</time>
      </trkpt>
      <trkpt lat="43.4046" lon="-6.22418">
        <ele>144.1</ele>
        <time>2016-07-07T09:28:27Z</time>
      </trkpt>
      <trkpt lat="43.40458" lon="-6.2243">
        <ele>143.4</ele>
        <time>2016-07-07T09:28:37Z</time>
      </trkpt>
      <trkpt lat="43.40457" lon="-6.22443">
        <ele>142.5</ele>
        <time>2016-07-07T09:28:49Z</time>
      </trkpt>
      <trkpt lat="43.40461" lon="-6.22455">
        <ele>141.5</ele>
        <time>2016-07-07T09:28:59Z</time>
      </trkpt>
      <trkpt lat="43.40466" lon="-6.22466">
        <ele>140.9</ele>
        <time>2016-07-07T09:29:11Z</time>
      </trkpt>
      <trkpt lat="43.40471" lon="-6.22478">
        <ele>141.1</ele>
        <time>2016-07-07T09:29:22Z</time>
      </trkpt>
      <trkpt lat="43.40476" lon="-6.2249">
        <ele>141.3</ele>
        <time>2016-07-07T09:29:32Z</time>
      </trkpt>
      <trkpt lat="43.40482" lon="-6.225">
        <ele>142.2</ele>
        <time>2016-07-07T09:29:42Z</time>
      </trkpt>
      <trkpt lat="43.40487" lon="-6.22511">
        <ele>142</ele>
        <time>2016-07-07T09:29:53Z</time>
      </trkpt>
      <trkpt lat="43.40491" lon="-6.22523">
        <ele>141.9</ele>
        <time>2016-07-07T09:30:02Z</time>
      </trkpt>
      <trkpt lat="43.40495" lon="-6.22535">
        <ele>142.1</ele>
        <time>2016-07-07T09:30:11Z</time>
      </trkpt>
      <trkpt lat="43.40497" lon="-6.22549">
        <ele>142</ele>
        <time>2016-07-07T09:30:19Z</time>
      </trkpt>
      <trkpt lat="43.405" lon="-6.22561">
        <ele>141.8</ele>
        <time>2016-07-07T09:30:28Z</time>
      </trkpt>
      <trkpt lat="43.40504" lon="-6.22573">
        <ele>141.7</ele>
        <time>2016-07-07T09:30:36Z</time>
      </trkpt>
      <trkpt lat="43.40507" lon="-6.22586">
        <ele>142.3</ele>
        <time>2016-07-07T09:30:45Z</time>
      </trkpt>
      <trkpt lat="43.40513" lon="-6.22597">
        <ele>142.6</ele>
        <time>2016-07-07T09:30:56Z</time>
      </trkpt>
      <trkpt lat="43.40521" lon="-6.22606">
        <ele>142.7</ele>
        <time>2016-07-07T09:31:04Z</time>
      </trkpt>
      <trkpt lat="43.40528" lon="-6.22614">
        <ele>143</ele>
        <time>2016-07-07T09:31:14Z</time>
      </trkpt>
      <trkpt lat="43.40534" lon="-6.22625">
        <ele>143.6</ele>
        <time>2016-07-07T09:31:26Z</time>
      </trkpt>
      <trkpt lat="43.40538" lon="-6.22637">
        <ele>144.7</ele>
        <time>2016-07-07T09:31:38Z</time>
      </trkpt>
      <trkpt lat="43.40541" lon="-6.22648">
        <ele>145.6</ele>
        <time>2016-07-07T09:31:47Z</time>
      </trkpt>
      <trkpt lat="43.40545" lon="-6.2266">
        <ele>146.6</ele>
        <time>2016-07-07T09:31:57Z</time>
      </trkpt>
      <trkpt lat="43.40551" lon="-6.2267">
        <ele>147.2</ele>
        <time>2016-07-07T09:32:06Z</time>
      </trkpt>
      <trkpt lat="43.40558" lon="-6.22679">
        <ele>147.6</ele>
        <time>2016-07-07T09:32:14Z</time>
      </trkpt>
      <trkpt lat="43.40563" lon="-6.2269">
        <ele>147.9</ele>
        <time>2016-07-07T09:32:22Z</time>
      </trkpt>
      <trkpt lat="43.40568" lon="-6.22701">
        <ele>148</ele>
        <time>2016-07-07T09:32:30Z</time>
      </trkpt>
      <trkpt lat="43.40572" lon="-6.22712">
        <ele>148</ele>
        <time>2016-07-07T09:32:37Z</time>
      </trkpt>
      <trkpt lat="43.40573" lon="-6.22725">
        <ele>147.9</ele>
        <time>2016-07-07T09:32:46Z</time>
      </trkpt>
      <trkpt lat="43.40576" lon="-6.22737">
        <ele>148</ele>
        <time>2016-07-07T09:32:55Z</time>
      </trkpt>
      <trkpt lat="43.40577" lon="-6.22751">
        <ele>147.1</ele>
        <time>2016-07-07T09:33:03Z</time>
      </trkpt>
      <trkpt lat="43.40574" lon="-6.22764">
        <ele>146.6</ele>
        <time>2016-07-07T09:33:11Z</time>
      </trkpt>
      <trkpt lat="43.40575" lon="-6.22777">
        <ele>145.7</ele>
        <time>2016-07-07T09:33:21Z</time>
      </trkpt>
      <trkpt lat="43.40575" lon="-6.22789">
        <ele>144</ele>
        <time>2016-07-07T09:33:32Z</time>
      </trkpt>
      <trkpt lat="43.40579" lon="-6.22801">
        <ele>143.3</ele>
        <time>2016-07-07T09:33:39Z</time>
      </trkpt>
      <trkpt lat="43.40582" lon="-6.22814">
        <ele>142.6</ele>
        <time>2016-07-07T09:33:47Z</time>
      </trkpt>
      <trkpt lat="43.40579" lon="-6.22825">
        <ele>142.2</ele>
        <time>2016-07-07T09:33:53Z</time>
      </trkpt>
      <trkpt lat="43.40579" lon="-6.22838">
        <ele>141.9</ele>
        <time>2016-07-07T09:34:01Z</time>
      </trkpt>
      <trkpt lat="43.40577" lon="-6.22851">
        <ele>142.1</ele>
        <time>2016-07-07T09:34:11Z</time>
      </trkpt>
      <trkpt lat="43.40578" lon="-6.22864">
        <ele>143.8</ele>
        <time>2016-07-07T09:35:28Z</time>
      </trkpt>
      <trkpt lat="43.40577" lon="-6.22877">
        <ele>143.8</ele>
        <time>2016-07-07T09:35:54Z</time>
      </trkpt>
      <trkpt lat="43.40573" lon="-6.22888">
        <ele>143.3</ele>
        <time>2016-07-07T09:36:03Z</time>
      </trkpt>
      <trkpt lat="43.40567" lon="-6.229">
        <ele>143</ele>
        <time>2016-07-07T09:36:13Z</time>
      </trkpt>
      <trkpt lat="43.40564" lon="-6.22912">
        <ele>142.8</ele>
        <time>2016-07-07T09:36:27Z</time>
      </trkpt>
      <trkpt lat="43.40562" lon="-6.22925">
        <ele>142.7</ele>
        <time>2016-07-07T09:36:37Z</time>
      </trkpt>
      <trkpt lat="43.40563" lon="-6.22938">
        <ele>142.7</ele>
        <time>2016-07-07T09:36:47Z</time>
      </trkpt>
      <trkpt lat="43.40562" lon="-6.2295">
        <ele>142.9</ele>
        <time>2016-07-07T09:37:07Z</time>
      </trkpt>
      <trkpt lat="43.40554" lon="-6.22958">
        <ele>143.1</ele>
        <time>2016-07-07T09:37:15Z</time>
      </trkpt>
      <trkpt lat="43.40545" lon="-6.22966">
        <ele>143.2</ele>
        <time>2016-07-07T09:37:23Z</time>
      </trkpt>
      <trkpt lat="43.40538" lon="-6.22972">
        <ele>143.5</ele>
        <time>2016-07-07T09:37:31Z</time>
      </trkpt>
      <trkpt lat="43.4053" lon="-6.22981">
        <ele>143.8</ele>
        <time>2016-07-07T09:37:40Z</time>
      </trkpt>
      <trkpt lat="43.40522" lon="-6.2299">
        <ele>144</ele>
        <time>2016-07-07T09:37:48Z</time>
      </trkpt>
      <trkpt lat="43.40515" lon="-6.22998">
        <ele>144.3</ele>
        <time>2016-07-07T09:37:58Z</time>
      </trkpt>
      <trkpt lat="43.40508" lon="-6.23007">
        <ele>144.3</ele>
        <time>2016-07-07T09:38:06Z</time>
      </trkpt>
      <trkpt lat="43.40502" lon="-6.23018">
        <ele>144.2</ele>
        <time>2016-07-07T09:38:14Z</time>
      </trkpt>
      <trkpt lat="43.40497" lon="-6.23029">
        <ele>144.5</ele>
        <time>2016-07-07T09:38:22Z</time>
      </trkpt>
      <trkpt lat="43.40492" lon="-6.2304">
        <ele>144.9</ele>
        <time>2016-07-07T09:38:30Z</time>
      </trkpt>
      <trkpt lat="43.40488" lon="-6.23052">
        <ele>145.2</ele>
        <time>2016-07-07T09:38:39Z</time>
      </trkpt>
      <trkpt lat="43.40483" lon="-6.23063">
        <ele>145.3</ele>
        <time>2016-07-07T09:38:47Z</time>
      </trkpt>
      <trkpt lat="43.40477" lon="-6.23074">
        <ele>145.7</ele>
        <time>2016-07-07T09:38:55Z</time>
      </trkpt>
      <trkpt lat="43.40471" lon="-6.23084">
        <ele>146</ele>
        <time>2016-07-07T09:39:03Z</time>
      </trkpt>
      <trkpt lat="43.40463" lon="-6.23092">
        <ele>146.2</ele>
        <time>2016-07-07T09:39:11Z</time>
      </trkpt>
      <trkpt lat="43.40457" lon="-6.23101">
        <ele>146.3</ele>
        <time>2016-07-07T09:39:19Z</time>
      </trkpt>
      <trkpt lat="43.40451" lon="-6.23112">
        <ele>146.7</ele>
        <time>2016-07-07T09:39:28Z</time>
      </trkpt>
      <trkpt lat="43.40445" lon="-6.23122">
        <ele>147.2</ele>
        <time>2016-07-07T09:39:36Z</time>
      </trkpt>
      <trkpt lat="43.40441" lon="-6.23133">
        <ele>148</ele>
        <time>2016-07-07T09:39:45Z</time>
      </trkpt>
      <trkpt lat="43.40436" lon="-6.23145">
        <ele>148.7</ele>
        <time>2016-07-07T09:39:54Z</time>
      </trkpt>
      <trkpt lat="43.4043" lon="-6.23156">
        <ele>149.2</ele>
        <time>2016-07-07T09:40:03Z</time>
      </trkpt>
      <trkpt lat="43.40425" lon="-6.23168">
        <ele>149.5</ele>
        <time>2016-07-07T09:40:12Z</time>
      </trkpt>
      <trkpt lat="43.4042" lon="-6.23179">
        <ele>150.2</ele>
        <time>2016-07-07T09:40:21Z</time>
      </trkpt>
      <trkpt lat="43.40414" lon="-6.23189">
        <ele>150.9</ele>
        <time>2016-07-07T09:40:30Z</time>
      </trkpt>
      <trkpt lat="43.4041" lon="-6.23201">
        <ele>151.3</ele>
        <time>2016-07-07T09:40:38Z</time>
      </trkpt>
      <trkpt lat="43.40406" lon="-6.23212">
        <ele>151.7</ele>
        <time>2016-07-07T09:40:46Z</time>
      </trkpt>
      <trkpt lat="43.40399" lon="-6.2322">
        <ele>152.4</ele>
        <time>2016-07-07T09:40:55Z</time>
      </trkpt>
      <trkpt lat="43.4039" lon="-6.2322">
        <ele>153</ele>
        <time>2016-07-07T09:41:03Z</time>
      </trkpt>
      <trkpt lat="43.40381" lon="-6.23216">
        <ele>153.2</ele>
        <time>2016-07-07T09:41:12Z</time>
      </trkpt>
      <trkpt lat="43.40371" lon="-6.23215">
        <ele>153.3</ele>
        <time>2016-07-07T09:41:20Z</time>
      </trkpt>
      <trkpt lat="43.40362" lon="-6.23218">
        <ele>153.1</ele>
        <time>2016-07-07T09:41:29Z</time>
      </trkpt>
      <trkpt lat="43.40353" lon="-6.23221">
        <ele>153</ele>
        <time>2016-07-07T09:41:39Z</time>
      </trkpt>
      <trkpt lat="43.40344" lon="-6.23227">
        <ele>152.7</ele>
        <time>2016-07-07T09:41:47Z</time>
      </trkpt>
      <trkpt lat="43.40337" lon="-6.23236">
        <ele>152.9</ele>
        <time>2016-07-07T09:41:57Z</time>
      </trkpt>
      <trkpt lat="43.40328" lon="-6.23238">
        <ele>153.1</ele>
        <time>2016-07-07T09:42:07Z</time>
      </trkpt>
      <trkpt lat="43.40318" lon="-6.23239">
        <ele>153.2</ele>
        <time>2016-07-07T09:42:15Z</time>
      </trkpt>
      <trkpt lat="43.40308" lon="-6.23239">
        <ele>153.2</ele>
        <time>2016-07-07T09:42:23Z</time>
      </trkpt>
      <trkpt lat="43.40299" lon="-6.23241">
        <ele>153</ele>
        <time>2016-07-07T09:42:32Z</time>
      </trkpt>
      <trkpt lat="43.4029" lon="-6.23241">
        <ele>153</ele>
        <time>2016-07-07T09:42:42Z</time>
      </trkpt>
      <trkpt lat="43.4028" lon="-6.23245">
        <ele>153</ele>
        <time>2016-07-07T09:42:51Z</time>
      </trkpt>
      <trkpt lat="43.40271" lon="-6.23244">
        <ele>152.8</ele>
        <time>2016-07-07T09:43:00Z</time>
      </trkpt>
      <trkpt lat="43.40261" lon="-6.23246">
        <ele>152.9</ele>
        <time>2016-07-07T09:43:09Z</time>
      </trkpt>
      <trkpt lat="43.40252" lon="-6.23252">
        <ele>153.4</ele>
        <time>2016-07-07T09:43:17Z</time>
      </trkpt>
      <trkpt lat="43.40244" lon="-6.23258">
        <ele>154.2</ele>
        <time>2016-07-07T09:43:30Z</time>
      </trkpt>
      <trkpt lat="43.40236" lon="-6.23263">
        <ele>154.4</ele>
        <time>2016-07-07T09:43:38Z</time>
      </trkpt>
      <trkpt lat="43.40226" lon="-6.23267">
        <ele>154.6</ele>
        <time>2016-07-07T09:43:45Z</time>
      </trkpt>
      <trkpt lat="43.40218" lon="-6.23269">
        <ele>154.7</ele>
        <time>2016-07-07T09:43:53Z</time>
      </trkpt>
      <trkpt lat="43.40208" lon="-6.23273">
        <ele>154.8</ele>
        <time>2016-07-07T09:44:02Z</time>
      </trkpt>
      <trkpt lat="43.40198" lon="-6.23276">
        <ele>155.1</ele>
        <time>2016-07-07T09:44:11Z</time>
      </trkpt>
      <trkpt lat="43.40188" lon="-6.23281">
        <ele>155.5</ele>
        <time>2016-07-07T09:44:19Z</time>
      </trkpt>
      <trkpt lat="43.40179" lon="-6.23284">
        <ele>155.8</ele>
        <time>2016-07-07T09:44:27Z</time>
      </trkpt>
      <trkpt lat="43.40171" lon="-6.23288">
        <ele>155.9</ele>
        <time>2016-07-07T09:44:35Z</time>
      </trkpt>
      <trkpt lat="43.40162" lon="-6.23291">
        <ele>156</ele>
        <time>2016-07-07T09:44:43Z</time>
      </trkpt>
      <trkpt lat="43.40153" lon="-6.23295">
        <ele>156</ele>
        <time>2016-07-07T09:44:51Z</time>
      </trkpt>
      <trkpt lat="43.40144" lon="-6.23302">
        <ele>155.9</ele>
        <time>2016-07-07T09:45:05Z</time>
      </trkpt>
      <trkpt lat="43.40137" lon="-6.2331">
        <ele>155.9</ele>
        <time>2016-07-07T09:45:14Z</time>
      </trkpt>
      <trkpt lat="43.40129" lon="-6.23318">
        <ele>156.2</ele>
        <time>2016-07-07T09:45:22Z</time>
      </trkpt>
      <trkpt lat="43.40121" lon="-6.23324">
        <ele>156.4</ele>
        <time>2016-07-07T09:45:30Z</time>
      </trkpt>
      <trkpt lat="43.40113" lon="-6.23331">
        <ele>156.5</ele>
        <time>2016-07-07T09:45:38Z</time>
      </trkpt>
      <trkpt lat="43.40105" lon="-6.23338">
        <ele>156.6</ele>
        <time>2016-07-07T09:45:47Z</time>
      </trkpt>
      <trkpt lat="43.40098" lon="-6.23347">
        <ele>156.7</ele>
        <time>2016-07-07T09:45:56Z</time>
      </trkpt>
      <trkpt lat="43.4009" lon="-6.23355">
        <ele>157.1</ele>
        <time>2016-07-07T09:46:05Z</time>
      </trkpt>
      <trkpt lat="43.40083" lon="-6.23362">
        <ele>157.3</ele>
        <time>2016-07-07T09:46:14Z</time>
      </trkpt>
      <trkpt lat="43.40074" lon="-6.23368">
        <ele>157.5</ele>
        <time>2016-07-07T09:46:22Z</time>
      </trkpt>
      <trkpt lat="43.40065" lon="-6.23373">
        <ele>157.7</ele>
        <time>2016-07-07T09:46:32Z</time>
      </trkpt>
      <trkpt lat="43.40057" lon="-6.23379">
        <ele>157.7</ele>
        <time>2016-07-07T09:46:41Z</time>
      </trkpt>
      <trkpt lat="43.40049" lon="-6.23384">
        <ele>158.3</ele>
        <time>2016-07-07T09:46:50Z</time>
      </trkpt>
      <trkpt lat="43.40043" lon="-6.23395">
        <ele>157.6</ele>
        <time>2016-07-07T09:46:59Z</time>
      </trkpt>
      <trkpt lat="43.40037" lon="-6.23405">
        <ele>157.6</ele>
        <time>2016-07-07T09:47:06Z</time>
      </trkpt>
      <trkpt lat="43.40032" lon="-6.23416">
        <ele>158.1</ele>
        <time>2016-07-07T09:47:15Z</time>
      </trkpt>
      <trkpt lat="43.4003" lon="-6.23429">
        <ele>158.3</ele>
        <time>2016-07-07T09:47:23Z</time>
      </trkpt>
      <trkpt lat="43.40032" lon="-6.23442">
        <ele>158.5</ele>
        <time>2016-07-07T09:47:33Z</time>
      </trkpt>
      <trkpt lat="43.40032" lon="-6.23455">
        <ele>158.6</ele>
        <time>2016-07-07T09:47:40Z</time>
      </trkpt>
      <trkpt lat="43.40036" lon="-6.23466">
        <ele>158.8</ele>
        <time>2016-07-07T09:47:48Z</time>
      </trkpt>
      <trkpt lat="43.40041" lon="-6.23477">
        <ele>159</ele>
        <time>2016-07-07T09:47:57Z</time>
      </trkpt>
      <trkpt lat="43.4004" lon="-6.2349">
        <ele>159.5</ele>
        <time>2016-07-07T09:48:56Z</time>
      </trkpt>
      <trkpt lat="43.4003" lon="-6.23491">
        <ele>160.9</ele>
        <time>2016-07-07T09:50:03Z</time>
      </trkpt>
      <trkpt lat="43.40026" lon="-6.23504">
        <ele>160.2</ele>
        <time>2016-07-07T09:50:11Z</time>
      </trkpt>
      <trkpt lat="43.40026" lon="-6.23516">
        <ele>160.2</ele>
        <time>2016-07-07T09:50:47Z</time>
      </trkpt>
      <trkpt lat="43.40023" lon="-6.23528">
        <ele>160</ele>
        <time>2016-07-07T09:51:11Z</time>
      </trkpt>
      <trkpt lat="43.40018" lon="-6.23538">
        <ele>160.2</ele>
        <time>2016-07-07T09:51:21Z</time>
      </trkpt>
      <trkpt lat="43.40014" lon="-6.2355">
        <ele>160.7</ele>
        <time>2016-07-07T09:51:32Z</time>
      </trkpt>
      <trkpt lat="43.40015" lon="-6.23563">
        <ele>161.6</ele>
        <time>2016-07-07T09:51:43Z</time>
      </trkpt>
      <trkpt lat="43.4002" lon="-6.23574">
        <ele>163.2</ele>
        <time>2016-07-07T09:51:54Z</time>
      </trkpt>
      <trkpt lat="43.40021" lon="-6.23587">
        <ele>165.5</ele>
        <time>2016-07-07T09:52:21Z</time>
      </trkpt>
      <trkpt lat="43.4002" lon="-6.23599">
        <ele>166.2</ele>
        <time>2016-07-07T09:52:33Z</time>
      </trkpt>
      <trkpt lat="43.40022" lon="-6.23611">
        <ele>166.8</ele>
        <time>2016-07-07T09:52:42Z</time>
      </trkpt>
      <trkpt lat="43.40024" lon="-6.23624">
        <ele>167.6</ele>
        <time>2016-07-07T09:52:57Z</time>
      </trkpt>
      <trkpt lat="43.40027" lon="-6.23637">
        <ele>168</ele>
        <time>2016-07-07T09:53:10Z</time>
      </trkpt>
      <trkpt lat="43.40024" lon="-6.23649">
        <ele>168.4</ele>
        <time>2016-07-07T09:53:19Z</time>
      </trkpt>
      <trkpt lat="43.40022" lon="-6.23662">
        <ele>168.8</ele>
        <time>2016-07-07T09:53:28Z</time>
      </trkpt>
      <trkpt lat="43.40022" lon="-6.23675">
        <ele>169.2</ele>
        <time>2016-07-07T09:53:37Z</time>
      </trkpt>
      <trkpt lat="43.40026" lon="-6.23686">
        <ele>169.9</ele>
        <time>2016-07-07T09:53:45Z</time>
      </trkpt>
      <trkpt lat="43.4003" lon="-6.23698">
        <ele>170</ele>
        <time>2016-07-07T09:53:54Z</time>
      </trkpt>
      <trkpt lat="43.40031" lon="-6.23712">
        <ele>170</ele>
        <time>2016-07-07T09:54:03Z</time>
      </trkpt>
      <trkpt lat="43.40034" lon="-6.23724">
        <ele>170.2</ele>
        <time>2016-07-07T09:54:11Z</time>
      </trkpt>
      <trkpt lat="43.40035" lon="-6.23738">
        <ele>170.8</ele>
        <time>2016-07-07T09:54:20Z</time>
      </trkpt>
      <trkpt lat="43.40036" lon="-6.23752">
        <ele>171.5</ele>
        <time>2016-07-07T09:54:29Z</time>
      </trkpt>
      <trkpt lat="43.40036" lon="-6.23765">
        <ele>171.9</ele>
        <time>2016-07-07T09:54:37Z</time>
      </trkpt>
      <trkpt lat="43.40037" lon="-6.23778">
        <ele>172.1</ele>
        <time>2016-07-07T09:54:46Z</time>
      </trkpt>
      <trkpt lat="43.40037" lon="-6.23791">
        <ele>172.7</ele>
        <time>2016-07-07T09:54:54Z</time>
      </trkpt>
      <trkpt lat="43.40038" lon="-6.23803">
        <ele>173</ele>
        <time>2016-07-07T09:55:02Z</time>
      </trkpt>
      <trkpt lat="43.4004" lon="-6.23817">
        <ele>173.3</ele>
        <time>2016-07-07T09:55:10Z</time>
      </trkpt>
      <trkpt lat="43.4004" lon="-6.2383">
        <ele>173.5</ele>
        <time>2016-07-07T09:55:18Z</time>
      </trkpt>
      <trkpt lat="43.40037" lon="-6.23842">
        <ele>173.8</ele>
        <time>2016-07-07T09:55:26Z</time>
      </trkpt>
      <trkpt lat="43.40033" lon="-6.23854">
        <ele>174.3</ele>
        <time>2016-07-07T09:55:34Z</time>
      </trkpt>
      <trkpt lat="43.4003" lon="-6.23867">
        <ele>174.8</ele>
        <time>2016-07-07T09:55:43Z</time>
      </trkpt>
      <trkpt lat="43.40027" lon="-6.23879">
        <ele>175.2</ele>
        <time>2016-07-07T09:55:51Z</time>
      </trkpt>
      <trkpt lat="43.40024" lon="-6.23892">
        <ele>175.6</ele>
        <time>2016-07-07T09:56:00Z</time>
      </trkpt>
      <trkpt lat="43.40021" lon="-6.23904">
        <ele>175.9</ele>
        <time>2016-07-07T09:56:09Z</time>
      </trkpt>
      <trkpt lat="43.40014" lon="-6.23914">
        <ele>176.5</ele>
        <time>2016-07-07T09:56:17Z</time>
      </trkpt>
      <trkpt lat="43.40007" lon="-6.23924">
        <ele>177.3</ele>
        <time>2016-07-07T09:56:26Z</time>
      </trkpt>
      <trkpt lat="43.40001" lon="-6.23933">
        <ele>178</ele>
        <time>2016-07-07T09:56:34Z</time>
      </trkpt>
      <trkpt lat="43.39996" lon="-6.23944">
        <ele>178.7</ele>
        <time>2016-07-07T09:56:43Z</time>
      </trkpt>
      <trkpt lat="43.39992" lon="-6.23956">
        <ele>179.7</ele>
        <time>2016-07-07T09:56:54Z</time>
      </trkpt>
      <trkpt lat="43.39989" lon="-6.23968">
        <ele>180.8</ele>
        <time>2016-07-07T09:57:03Z</time>
      </trkpt>
      <trkpt lat="43.39987" lon="-6.23981">
        <ele>181.9</ele>
        <time>2016-07-07T09:57:12Z</time>
      </trkpt>
      <trkpt lat="43.39986" lon="-6.23994">
        <ele>182.8</ele>
        <time>2016-07-07T09:57:21Z</time>
      </trkpt>
      <trkpt lat="43.39987" lon="-6.24007">
        <ele>183.6</ele>
        <time>2016-07-07T09:57:30Z</time>
      </trkpt>
      <trkpt lat="43.39992" lon="-6.24017">
        <ele>185.2</ele>
        <time>2016-07-07T09:59:40Z</time>
      </trkpt>
      <trkpt lat="43.39994" lon="-6.24031">
        <ele>185.4</ele>
        <time>2016-07-07T09:59:55Z</time>
      </trkpt>
      <trkpt lat="43.40017" lon="-6.24045">
        <ele>185</ele>
        <time>2016-07-07T10:00:09Z</time>
      </trkpt>
      <trkpt lat="43.40021" lon="-6.24056">
        <ele>185.2</ele>
        <time>2016-07-07T10:00:19Z</time>
      </trkpt>
      <trkpt lat="43.40025" lon="-6.24068">
        <ele>185.2</ele>
        <time>2016-07-07T10:00:29Z</time>
      </trkpt>
      <trkpt lat="43.40029" lon="-6.24079">
        <ele>185.5</ele>
        <time>2016-07-07T10:00:37Z</time>
      </trkpt>
      <trkpt lat="43.40034" lon="-6.2409">
        <ele>185.8</ele>
        <time>2016-07-07T10:00:46Z</time>
      </trkpt>
      <trkpt lat="43.40035" lon="-6.24103">
        <ele>186</ele>
        <time>2016-07-07T10:00:55Z</time>
      </trkpt>
      <trkpt lat="43.40036" lon="-6.24116">
        <ele>186.3</ele>
        <time>2016-07-07T10:01:04Z</time>
      </trkpt>
      <trkpt lat="43.40034" lon="-6.24129">
        <ele>186.7</ele>
        <time>2016-07-07T10:01:14Z</time>
      </trkpt>
      <trkpt lat="43.40031" lon="-6.24142">
        <ele>187.3</ele>
        <time>2016-07-07T10:01:24Z</time>
      </trkpt>
      <trkpt lat="43.40031" lon="-6.24155">
        <ele>188.6</ele>
        <time>2016-07-07T10:01:41Z</time>
      </trkpt>
      <trkpt lat="43.40029" lon="-6.24167">
        <ele>189.1</ele>
        <time>2016-07-07T10:01:50Z</time>
      </trkpt>
      <trkpt lat="43.40028" lon="-6.24181">
        <ele>189.8</ele>
        <time>2016-07-07T10:02:00Z</time>
      </trkpt>
      <trkpt lat="43.40031" lon="-6.24193">
        <ele>190.3</ele>
        <time>2016-07-07T10:02:12Z</time>
      </trkpt>
      <trkpt lat="43.4003" lon="-6.24206">
        <ele>190.4</ele>
        <time>2016-07-07T10:02:21Z</time>
      </trkpt>
      <trkpt lat="43.40034" lon="-6.24218">
        <ele>190.6</ele>
        <time>2016-07-07T10:02:30Z</time>
      </trkpt>
      <trkpt lat="43.4004" lon="-6.2423">
        <ele>190.8</ele>
        <time>2016-07-07T10:02:40Z</time>
      </trkpt>
      <trkpt lat="43.40046" lon="-6.2424">
        <ele>191</ele>
        <time>2016-07-07T10:02:48Z</time>
      </trkpt>
      <trkpt lat="43.40052" lon="-6.24249">
        <ele>191.1</ele>
        <time>2016-07-07T10:02:57Z</time>
      </trkpt>
      <trkpt lat="43.40059" lon="-6.24259">
        <ele>191</ele>
        <time>2016-07-07T10:03:07Z</time>
      </trkpt>
      <trkpt lat="43.40065" lon="-6.24269">
        <ele>190.9</ele>
        <time>2016-07-07T10:03:16Z</time>
      </trkpt>
      <trkpt lat="43.40071" lon="-6.24279">
        <ele>191.4</ele>
        <time>2016-07-07T10:03:25Z</time>
      </trkpt>
      <trkpt lat="43.40075" lon="-6.2429">
        <ele>191.7</ele>
        <time>2016-07-07T10:03:33Z</time>
      </trkpt>
      <trkpt lat="43.40078" lon="-6.24303">
        <ele>192.7</ele>
        <time>2016-07-07T10:03:42Z</time>
      </trkpt>
      <trkpt lat="43.40083" lon="-6.24315">
        <ele>193.3</ele>
        <time>2016-07-07T10:03:50Z</time>
      </trkpt>
      <trkpt lat="43.40089" lon="-6.24325">
        <ele>193.5</ele>
        <time>2016-07-07T10:03:58Z</time>
      </trkpt>
      <trkpt lat="43.40093" lon="-6.24337">
        <ele>193.4</ele>
        <time>2016-07-07T10:04:07Z</time>
      </trkpt>
      <trkpt lat="43.40097" lon="-6.24349">
        <ele>193.4</ele>
        <time>2016-07-07T10:04:15Z</time>
      </trkpt>
      <trkpt lat="43.401" lon="-6.24362">
        <ele>193.2</ele>
        <time>2016-07-07T10:04:25Z</time>
      </trkpt>
      <trkpt lat="43.40103" lon="-6.24374">
        <ele>193.1</ele>
        <time>2016-07-07T10:04:38Z</time>
      </trkpt>
      <trkpt lat="43.40109" lon="-6.24385">
        <ele>192.9</ele>
        <time>2016-07-07T10:04:47Z</time>
      </trkpt>
      <trkpt lat="43.4011" lon="-6.24398">
        <ele>192.8</ele>
        <time>2016-07-07T10:04:58Z</time>
      </trkpt>
      <trkpt lat="43.40112" lon="-6.24411">
        <ele>193</ele>
        <time>2016-07-07T10:05:07Z</time>
      </trkpt>
      <trkpt lat="43.40115" lon="-6.24424">
        <ele>193.2</ele>
        <time>2016-07-07T10:05:17Z</time>
      </trkpt>
      <trkpt lat="43.40116" lon="-6.24437">
        <ele>193.6</ele>
        <time>2016-07-07T10:05:26Z</time>
      </trkpt>
      <trkpt lat="43.40118" lon="-6.2445">
        <ele>193.8</ele>
        <time>2016-07-07T10:05:35Z</time>
      </trkpt>
      <trkpt lat="43.40122" lon="-6.24462">
        <ele>194</ele>
        <time>2016-07-07T10:05:43Z</time>
      </trkpt>
      <trkpt lat="43.40127" lon="-6.24472">
        <ele>194.3</ele>
        <time>2016-07-07T10:05:52Z</time>
      </trkpt>
      <trkpt lat="43.40133" lon="-6.24482">
        <ele>194.4</ele>
        <time>2016-07-07T10:06:00Z</time>
      </trkpt>
      <trkpt lat="43.40139" lon="-6.24493">
        <ele>194.6</ele>
        <time>2016-07-07T10:06:08Z</time>
      </trkpt>
      <trkpt lat="43.40143" lon="-6.24505">
        <ele>194.7</ele>
        <time>2016-07-07T10:06:16Z</time>
      </trkpt>
      <trkpt lat="43.40149" lon="-6.24516">
        <ele>194.8</ele>
        <time>2016-07-07T10:06:24Z</time>
      </trkpt>
      <trkpt lat="43.40154" lon="-6.24527">
        <ele>194.9</ele>
        <time>2016-07-07T10:06:32Z</time>
      </trkpt>
      <trkpt lat="43.40158" lon="-6.24539">
        <ele>195.2</ele>
        <time>2016-07-07T10:06:43Z</time>
      </trkpt>
      <trkpt lat="43.40164" lon="-6.24548">
        <ele>196</ele>
        <time>2016-07-07T10:06:55Z</time>
      </trkpt>
      <trkpt lat="43.40171" lon="-6.24557">
        <ele>196.2</ele>
        <time>2016-07-07T10:07:09Z</time>
      </trkpt>
      <trkpt lat="43.40177" lon="-6.24568">
        <ele>196.4</ele>
        <time>2016-07-07T10:07:20Z</time>
      </trkpt>
      <trkpt lat="43.40183" lon="-6.24578">
        <ele>196.6</ele>
        <time>2016-07-07T10:07:29Z</time>
      </trkpt>
      <trkpt lat="43.4019" lon="-6.24586">
        <ele>196.8</ele>
        <time>2016-07-07T10:07:38Z</time>
      </trkpt>
      <trkpt lat="43.40197" lon="-6.24595">
        <ele>197.1</ele>
        <time>2016-07-07T10:07:46Z</time>
      </trkpt>
      <trkpt lat="43.40201" lon="-6.24606">
        <ele>197.3</ele>
        <time>2016-07-07T10:07:53Z</time>
      </trkpt>
      <trkpt lat="43.40204" lon="-6.24619">
        <ele>197.7</ele>
        <time>2016-07-07T10:08:03Z</time>
      </trkpt>
      <trkpt lat="43.40203" lon="-6.24633">
        <ele>198.2</ele>
        <time>2016-07-07T10:08:12Z</time>
      </trkpt>
      <trkpt lat="43.40202" lon="-6.24646">
        <ele>198.8</ele>
        <time>2016-07-07T10:08:21Z</time>
      </trkpt>
      <trkpt lat="43.40203" lon="-6.24659">
        <ele>199.9</ele>
        <time>2016-07-07T10:08:31Z</time>
      </trkpt>
      <trkpt lat="43.40205" lon="-6.24673">
        <ele>200.5</ele>
        <time>2016-07-07T10:08:40Z</time>
      </trkpt>
      <trkpt lat="43.40207" lon="-6.24686">
        <ele>201.5</ele>
        <time>2016-07-07T10:08:50Z</time>
      </trkpt>
      <trkpt lat="43.40209" lon="-6.247">
        <ele>202.2</ele>
        <time>2016-07-07T10:08:59Z</time>
      </trkpt>
      <trkpt lat="43.4021" lon="-6.24713">
        <ele>202.7</ele>
        <time>2016-07-07T10:09:08Z</time>
      </trkpt>
      <trkpt lat="43.40211" lon="-6.24726">
        <ele>203.8</ele>
        <time>2016-07-07T10:09:17Z</time>
      </trkpt>
      <trkpt lat="43.40215" lon="-6.24737">
        <ele>205.3</ele>
        <time>2016-07-07T10:09:27Z</time>
      </trkpt>
      <trkpt lat="43.4022" lon="-6.24748">
        <ele>206.7</ele>
        <time>2016-07-07T10:09:39Z</time>
      </trkpt>
      <trkpt lat="43.40226" lon="-6.24758">
        <ele>208.2</ele>
        <time>2016-07-07T10:09:51Z</time>
      </trkpt>
      <trkpt lat="43.40232" lon="-6.24767">
        <ele>209.1</ele>
        <time>2016-07-07T10:10:00Z</time>
      </trkpt>
      <trkpt lat="43.40239" lon="-6.24776">
        <ele>209.8</ele>
        <time>2016-07-07T10:10:08Z</time>
      </trkpt>
      <trkpt lat="43.40246" lon="-6.24785">
        <ele>211.2</ele>
        <time>2016-07-07T10:10:17Z</time>
      </trkpt>
      <trkpt lat="43.40253" lon="-6.24793">
        <ele>211.9</ele>
        <time>2016-07-07T10:10:24Z</time>
      </trkpt>
      <trkpt lat="43.40258" lon="-6.24804">
        <ele>212.5</ele>
        <time>2016-07-07T10:10:34Z</time>
      </trkpt>
      <trkpt lat="43.40263" lon="-6.24816">
        <ele>213.2</ele>
        <time>2016-07-07T10:10:43Z</time>
      </trkpt>
      <trkpt lat="43.40255" lon="-6.24823">
        <ele>214.8</ele>
        <time>2016-07-07T10:11:18Z</time>
      </trkpt>
      <trkpt lat="43.4026" lon="-6.24836">
        <ele>215.2</ele>
        <time>2016-07-07T10:11:35Z</time>
      </trkpt>
      <trkpt lat="43.40258" lon="-6.24849">
        <ele>215.6</ele>
        <time>2016-07-07T10:11:45Z</time>
      </trkpt>
      <trkpt lat="43.40256" lon="-6.24861">
        <ele>216.9</ele>
        <time>2016-07-07T10:11:55Z</time>
      </trkpt>
      <trkpt lat="43.40253" lon="-6.24874">
        <ele>218.3</ele>
        <time>2016-07-07T10:12:06Z</time>
      </trkpt>
      <trkpt lat="43.40251" lon="-6.24887">
        <ele>219.1</ele>
        <time>2016-07-07T10:12:14Z</time>
      </trkpt>
      <trkpt lat="43.40253" lon="-6.24899">
        <ele>219.6</ele>
        <time>2016-07-07T10:12:24Z</time>
      </trkpt>
      <trkpt lat="43.40254" lon="-6.24912">
        <ele>220.3</ele>
        <time>2016-07-07T10:12:33Z</time>
      </trkpt>
      <trkpt lat="43.40257" lon="-6.24925">
        <ele>221.2</ele>
        <time>2016-07-07T10:12:43Z</time>
      </trkpt>
      <trkpt lat="43.40259" lon="-6.24938">
        <ele>222</ele>
        <time>2016-07-07T10:12:52Z</time>
      </trkpt>
      <trkpt lat="43.40263" lon="-6.2495">
        <ele>223</ele>
        <time>2016-07-07T10:13:03Z</time>
      </trkpt>
      <trkpt lat="43.40269" lon="-6.24959">
        <ele>224.4</ele>
        <time>2016-07-07T10:13:16Z</time>
      </trkpt>
      <trkpt lat="43.40279" lon="-6.24962">
        <ele>226.3</ele>
        <time>2016-07-07T10:13:31Z</time>
      </trkpt>
      <trkpt lat="43.40288" lon="-6.24964">
        <ele>228</ele>
        <time>2016-07-07T10:13:44Z</time>
      </trkpt>
      <trkpt lat="43.40297" lon="-6.24961">
        <ele>228.9</ele>
        <time>2016-07-07T10:13:55Z</time>
      </trkpt>
      <trkpt lat="43.40307" lon="-6.2496">
        <ele>229.4</ele>
        <time>2016-07-07T10:14:03Z</time>
      </trkpt>
      <trkpt lat="43.40316" lon="-6.2496">
        <ele>230</ele>
        <time>2016-07-07T10:14:12Z</time>
      </trkpt>
      <trkpt lat="43.40326" lon="-6.24962">
        <ele>230.8</ele>
        <time>2016-07-07T10:14:23Z</time>
      </trkpt>
      <trkpt lat="43.40334" lon="-6.24965">
        <ele>231.9</ele>
        <time>2016-07-07T10:14:42Z</time>
      </trkpt>
      <trkpt lat="43.40343" lon="-6.24971">
        <ele>232.1</ele>
        <time>2016-07-07T10:14:54Z</time>
      </trkpt>
      <trkpt lat="43.40351" lon="-6.24979">
        <ele>232.4</ele>
        <time>2016-07-07T10:15:05Z</time>
      </trkpt>
      <trkpt lat="43.40358" lon="-6.24986">
        <ele>232.3</ele>
        <time>2016-07-07T10:15:13Z</time>
      </trkpt>
      <trkpt lat="43.40365" lon="-6.24994">
        <ele>232.6</ele>
        <time>2016-07-07T10:15:21Z</time>
      </trkpt>
      <trkpt lat="43.40372" lon="-6.25002">
        <ele>232.7</ele>
        <time>2016-07-07T10:15:28Z</time>
      </trkpt>
      <trkpt lat="43.40378" lon="-6.25012">
        <ele>232.8</ele>
        <time>2016-07-07T10:15:36Z</time>
      </trkpt>
      <trkpt lat="43.40385" lon="-6.25023">
        <ele>233</ele>
        <time>2016-07-07T10:15:45Z</time>
      </trkpt>
      <trkpt lat="43.40389" lon="-6.25035">
        <ele>233.7</ele>
        <time>2016-07-07T10:15:59Z</time>
      </trkpt>
      <trkpt lat="43.40394" lon="-6.25046">
        <ele>234.1</ele>
        <time>2016-07-07T10:16:08Z</time>
      </trkpt>
      <trkpt lat="43.40395" lon="-6.25059">
        <ele>234.4</ele>
        <time>2016-07-07T10:16:20Z</time>
      </trkpt>
      <trkpt lat="43.40397" lon="-6.25072">
        <ele>234.8</ele>
        <time>2016-07-07T10:16:30Z</time>
      </trkpt>
      <trkpt lat="43.40403" lon="-6.25082">
        <ele>235</ele>
        <time>2016-07-07T10:16:38Z</time>
      </trkpt>
      <trkpt lat="43.40408" lon="-6.25093">
        <ele>235.2</ele>
        <time>2016-07-07T10:16:45Z</time>
      </trkpt>
      <trkpt lat="43.40414" lon="-6.25104">
        <ele>235.5</ele>
        <time>2016-07-07T10:16:52Z</time>
      </trkpt>
      <trkpt lat="43.40419" lon="-6.25115">
        <ele>235.7</ele>
        <time>2016-07-07T10:17:00Z</time>
      </trkpt>
      <trkpt lat="43.40424" lon="-6.25126">
        <ele>235.9</ele>
        <time>2016-07-07T10:17:09Z</time>
      </trkpt>
      <trkpt lat="43.40429" lon="-6.25136">
        <ele>236.2</ele>
        <time>2016-07-07T10:17:21Z</time>
      </trkpt>
      <trkpt lat="43.40435" lon="-6.25146">
        <ele>236.4</ele>
        <time>2016-07-07T10:17:31Z</time>
      </trkpt>
      <trkpt lat="43.40442" lon="-6.25154">
        <ele>235.6</ele>
        <time>2016-07-07T10:17:44Z</time>
      </trkpt>
      <trkpt lat="43.4045" lon="-6.2516">
        <ele>233.2</ele>
        <time>2016-07-07T10:18:00Z</time>
      </trkpt>
      <trkpt lat="43.40458" lon="-6.25167">
        <ele>231.7</ele>
        <time>2016-07-07T10:18:11Z</time>
      </trkpt>
      <trkpt lat="43.40465" lon="-6.25175">
        <ele>230.7</ele>
        <time>2016-07-07T10:18:19Z</time>
      </trkpt>
      <trkpt lat="43.40472" lon="-6.25185">
        <ele>229.7</ele>
        <time>2016-07-07T10:18:26Z</time>
      </trkpt>
      <trkpt lat="43.40479" lon="-6.25194">
        <ele>228.8</ele>
        <time>2016-07-07T10:18:34Z</time>
      </trkpt>
      <trkpt lat="43.40482" lon="-6.25206">
        <ele>228.3</ele>
        <time>2016-07-07T10:18:43Z</time>
      </trkpt>
      <trkpt lat="43.40488" lon="-6.25216">
        <ele>227.6</ele>
        <time>2016-07-07T10:18:51Z</time>
      </trkpt>
      <trkpt lat="43.40495" lon="-6.25224">
        <ele>227.1</ele>
        <time>2016-07-07T10:18:58Z</time>
      </trkpt>
      <trkpt lat="43.40504" lon="-6.25232">
        <ele>226.8</ele>
        <time>2016-07-07T10:19:07Z</time>
      </trkpt>
      <trkpt lat="43.40512" lon="-6.25238">
        <ele>226.7</ele>
        <time>2016-07-07T10:19:15Z</time>
      </trkpt>
      <trkpt lat="43.4052" lon="-6.25246">
        <ele>226.6</ele>
        <time>2016-07-07T10:19:22Z</time>
      </trkpt>
      <trkpt lat="43.40527" lon="-6.25255">
        <ele>226.6</ele>
        <time>2016-07-07T10:19:30Z</time>
      </trkpt>
      <trkpt lat="43.40534" lon="-6.25263">
        <ele>226.6</ele>
        <time>2016-07-07T10:19:38Z</time>
      </trkpt>
      <trkpt lat="43.40541" lon="-6.25274">
        <ele>226.8</ele>
        <time>2016-07-07T10:19:47Z</time>
      </trkpt>
      <trkpt lat="43.40544" lon="-6.25286">
        <ele>227.1</ele>
        <time>2016-07-07T10:19:56Z</time>
      </trkpt>
      <trkpt lat="43.40544" lon="-6.25299">
        <ele>227.6</ele>
        <time>2016-07-07T10:20:06Z</time>
      </trkpt>
      <trkpt lat="43.40547" lon="-6.25312">
        <ele>228</ele>
        <time>2016-07-07T10:20:14Z</time>
      </trkpt>
      <trkpt lat="43.40553" lon="-6.25323">
        <ele>228.3</ele>
        <time>2016-07-07T10:20:23Z</time>
      </trkpt>
      <trkpt lat="43.4056" lon="-6.25332">
        <ele>228.4</ele>
        <time>2016-07-07T10:20:31Z</time>
      </trkpt>
      <trkpt lat="43.40565" lon="-6.25343">
        <ele>229</ele>
        <time>2016-07-07T10:20:40Z</time>
      </trkpt>
      <trkpt lat="43.40568" lon="-6.25356">
        <ele>229.3</ele>
        <time>2016-07-07T10:20:49Z</time>
      </trkpt>
      <trkpt lat="43.40572" lon="-6.25369">
        <ele>229.8</ele>
        <time>2016-07-07T10:20:58Z</time>
      </trkpt>
      <trkpt lat="43.40576" lon="-6.25381">
        <ele>230.2</ele>
        <time>2016-07-07T10:21:06Z</time>
      </trkpt>
      <trkpt lat="43.40578" lon="-6.25393">
        <ele>230.9</ele>
        <time>2016-07-07T10:21:15Z</time>
      </trkpt>
      <trkpt lat="43.4058" lon="-6.25405">
        <ele>231.2</ele>
        <time>2016-07-07T10:21:25Z</time>
      </trkpt>
      <trkpt lat="43.40586" lon="-6.25416">
        <ele>231.3</ele>
        <time>2016-07-07T10:21:37Z</time>
      </trkpt>
      <trkpt lat="43.4059" lon="-6.25428">
        <ele>231.4</ele>
        <time>2016-07-07T10:21:46Z</time>
      </trkpt>
      <trkpt lat="43.40593" lon="-6.25441">
        <ele>231.4</ele>
        <time>2016-07-07T10:21:56Z</time>
      </trkpt>
      <trkpt lat="43.40597" lon="-6.25453">
        <ele>231.6</ele>
        <time>2016-07-07T10:22:08Z</time>
      </trkpt>
      <trkpt lat="43.406" lon="-6.25465">
        <ele>231.7</ele>
        <time>2016-07-07T10:22:17Z</time>
      </trkpt>
      <trkpt lat="43.40603" lon="-6.25478">
        <ele>232</ele>
        <time>2016-07-07T10:22:27Z</time>
      </trkpt>
      <trkpt lat="43.40606" lon="-6.25489">
        <ele>232.4</ele>
        <time>2016-07-07T10:22:34Z</time>
      </trkpt>
      <trkpt lat="43.4061" lon="-6.25501">
        <ele>232.8</ele>
        <time>2016-07-07T10:22:42Z</time>
      </trkpt>
      <trkpt lat="43.40614" lon="-6.25514">
        <ele>232.9</ele>
        <time>2016-07-07T10:22:51Z</time>
      </trkpt>
      <trkpt lat="43.40616" lon="-6.25526">
        <ele>233.3</ele>
        <time>2016-07-07T10:23:01Z</time>
      </trkpt>
      <trkpt lat="43.40621" lon="-6.25536">
        <ele>233.6</ele>
        <time>2016-07-07T10:23:15Z</time>
      </trkpt>
      <trkpt lat="43.40629" lon="-6.25543">
        <ele>233.9</ele>
        <time>2016-07-07T10:23:30Z</time>
      </trkpt>
      <trkpt lat="43.40634" lon="-6.25553">
        <ele>234</ele>
        <time>2016-07-07T10:23:38Z</time>
      </trkpt>
      <trkpt lat="43.40641" lon="-6.25564">
        <ele>233.9</ele>
        <time>2016-07-07T10:23:47Z</time>
      </trkpt>
      <trkpt lat="43.40647" lon="-6.25576">
        <ele>234</ele>
        <time>2016-07-07T10:23:57Z</time>
      </trkpt>
      <trkpt lat="43.40653" lon="-6.25584">
        <ele>234.3</ele>
        <time>2016-07-07T10:24:07Z</time>
      </trkpt>
      <trkpt lat="43.40659" lon="-6.25595">
        <ele>234.4</ele>
        <time>2016-07-07T10:24:16Z</time>
      </trkpt>
      <trkpt lat="43.40665" lon="-6.25605">
        <ele>234.4</ele>
        <time>2016-07-07T10:24:25Z</time>
      </trkpt>
      <trkpt lat="43.4067" lon="-6.25617">
        <ele>234.1</ele>
        <time>2016-07-07T10:24:34Z</time>
      </trkpt>
      <trkpt lat="43.40673" lon="-6.2563">
        <ele>233.9</ele>
        <time>2016-07-07T10:24:42Z</time>
      </trkpt>
      <trkpt lat="43.40676" lon="-6.25642">
        <ele>233.7</ele>
        <time>2016-07-07T10:24:49Z</time>
      </trkpt>
      <trkpt lat="43.40678" lon="-6.25655">
        <ele>233.8</ele>
        <time>2016-07-07T10:24:56Z</time>
      </trkpt>
      <trkpt lat="43.40677" lon="-6.25668">
        <ele>233.9</ele>
        <time>2016-07-07T10:25:05Z</time>
      </trkpt>
      <trkpt lat="43.40684" lon="-6.25676">
        <ele>233.9</ele>
        <time>2016-07-07T10:25:15Z</time>
      </trkpt>
      <trkpt lat="43.40692" lon="-6.25685">
        <ele>233.8</ele>
        <time>2016-07-07T10:25:25Z</time>
      </trkpt>
      <trkpt lat="43.40699" lon="-6.25694">
        <ele>234.3</ele>
        <time>2016-07-07T10:25:34Z</time>
      </trkpt>
      <trkpt lat="43.40707" lon="-6.25703">
        <ele>234.2</ele>
        <time>2016-07-07T10:25:43Z</time>
      </trkpt>
      <trkpt lat="43.40714" lon="-6.25712">
        <ele>234.3</ele>
        <time>2016-07-07T10:25:52Z</time>
      </trkpt>
      <trkpt lat="43.40721" lon="-6.25721">
        <ele>234.5</ele>
        <time>2016-07-07T10:26:00Z</time>
      </trkpt>
      <trkpt lat="43.40726" lon="-6.25732">
        <ele>234.6</ele>
        <time>2016-07-07T10:26:08Z</time>
      </trkpt>
      <trkpt lat="43.40731" lon="-6.25743">
        <ele>234.8</ele>
        <time>2016-07-07T10:26:17Z</time>
      </trkpt>
      <trkpt lat="43.40737" lon="-6.25755">
        <ele>234.9</ele>
        <time>2016-07-07T10:26:25Z</time>
      </trkpt>
      <trkpt lat="43.40741" lon="-6.25767">
        <ele>234.9</ele>
        <time>2016-07-07T10:26:35Z</time>
      </trkpt>
      <trkpt lat="43.40747" lon="-6.25777">
        <ele>235</ele>
        <time>2016-07-07T10:26:44Z</time>
      </trkpt>
      <trkpt lat="43.40751" lon="-6.25789">
        <ele>235.2</ele>
        <time>2016-07-07T10:26:52Z</time>
      </trkpt>
      <trkpt lat="43.40754" lon="-6.25801">
        <ele>235.5</ele>
        <time>2016-07-07T10:27:01Z</time>
      </trkpt>
      <trkpt lat="43.40757" lon="-6.25813">
        <ele>235.8</ele>
        <time>2016-07-07T10:27:10Z</time>
      </trkpt>
      <trkpt lat="43.40761" lon="-6.25826">
        <ele>236.1</ele>
        <time>2016-07-07T10:27:20Z</time>
      </trkpt>
      <trkpt lat="43.40766" lon="-6.25838">
        <ele>236.3</ele>
        <time>2016-07-07T10:27:29Z</time>
      </trkpt>
      <trkpt lat="43.40769" lon="-6.2585">
        <ele>236.6</ele>
        <time>2016-07-07T10:27:38Z</time>
      </trkpt>
      <trkpt lat="43.40771" lon="-6.25862">
        <ele>237.1</ele>
        <time>2016-07-07T10:27:47Z</time>
      </trkpt>
      <trkpt lat="43.40775" lon="-6.25875">
        <ele>237.8</ele>
        <time>2016-07-07T10:27:57Z</time>
      </trkpt>
      <trkpt lat="43.40784" lon="-6.25882">
        <ele>238.2</ele>
        <time>2016-07-07T10:28:06Z</time>
      </trkpt>
      <trkpt lat="43.4079" lon="-6.25892">
        <ele>239</ele>
        <time>2016-07-07T10:28:15Z</time>
      </trkpt>
      <trkpt lat="43.40796" lon="-6.25902">
        <ele>239.2</ele>
        <time>2016-07-07T10:28:23Z</time>
      </trkpt>
      <trkpt lat="43.40804" lon="-6.2591">
        <ele>239.3</ele>
        <time>2016-07-07T10:28:31Z</time>
      </trkpt>
      <trkpt lat="43.40812" lon="-6.25918">
        <ele>239.4</ele>
        <time>2016-07-07T10:28:39Z</time>
      </trkpt>
      <trkpt lat="43.4082" lon="-6.25926">
        <ele>239.5</ele>
        <time>2016-07-07T10:28:49Z</time>
      </trkpt>
      <trkpt lat="43.40827" lon="-6.25935">
        <ele>239.7</ele>
        <time>2016-07-07T10:28:57Z</time>
      </trkpt>
      <trkpt lat="43.40832" lon="-6.25947">
        <ele>240.2</ele>
        <time>2016-07-07T10:29:07Z</time>
      </trkpt>
      <trkpt lat="43.40834" lon="-6.25959">
        <ele>240.5</ele>
        <time>2016-07-07T10:29:16Z</time>
      </trkpt>
      <trkpt lat="43.4083" lon="-6.25971">
        <ele>240.8</ele>
        <time>2016-07-07T10:29:27Z</time>
      </trkpt>
      <trkpt lat="43.40829" lon="-6.25983">
        <ele>241</ele>
        <time>2016-07-07T10:29:36Z</time>
      </trkpt>
      <trkpt lat="43.40829" lon="-6.25996">
        <ele>241.3</ele>
        <time>2016-07-07T10:29:45Z</time>
      </trkpt>
      <trkpt lat="43.40832" lon="-6.26009">
        <ele>241.8</ele>
        <time>2016-07-07T10:29:54Z</time>
      </trkpt>
      <trkpt lat="43.40836" lon="-6.2602">
        <ele>242.1</ele>
        <time>2016-07-07T10:30:03Z</time>
      </trkpt>
      <trkpt lat="43.40838" lon="-6.26033">
        <ele>242.5</ele>
        <time>2016-07-07T10:30:13Z</time>
      </trkpt>
      <trkpt lat="43.40842" lon="-6.26044">
        <ele>243.2</ele>
        <time>2016-07-07T10:30:39Z</time>
      </trkpt>
      <trkpt lat="43.40849" lon="-6.26055">
        <ele>243.3</ele>
        <time>2016-07-07T10:30:55Z</time>
      </trkpt>
      <trkpt lat="43.40857" lon="-6.26062">
        <ele>243.3</ele>
        <time>2016-07-07T10:31:02Z</time>
      </trkpt>
      <trkpt lat="43.40866" lon="-6.26066">
        <ele>243.4</ele>
        <time>2016-07-07T10:31:14Z</time>
      </trkpt>
      <trkpt lat="43.40874" lon="-6.26072">
        <ele>243.6</ele>
        <time>2016-07-07T10:31:24Z</time>
      </trkpt>
      <trkpt lat="43.40882" lon="-6.26079">
        <ele>244.5</ele>
        <time>2016-07-07T10:31:38Z</time>
      </trkpt>
      <trkpt lat="43.40891" lon="-6.26085">
        <ele>244.8</ele>
        <time>2016-07-07T10:31:46Z</time>
      </trkpt>
      <trkpt lat="43.40898" lon="-6.26093">
        <ele>244.8</ele>
        <time>2016-07-07T10:31:55Z</time>
      </trkpt>
      <trkpt lat="43.40895" lon="-6.26105">
        <ele>245.2</ele>
        <time>2016-07-07T10:32:09Z</time>
      </trkpt>
      <trkpt lat="43.40886" lon="-6.26108">
        <ele>245.7</ele>
        <time>2016-07-07T10:32:23Z</time>
      </trkpt>
      <trkpt lat="43.40896" lon="-6.2611">
        <ele>245.6</ele>
        <time>2016-07-07T10:33:13Z</time>
      </trkpt>
      <trkpt lat="43.40902" lon="-6.26119">
        <ele>245.6</ele>
        <time>2016-07-07T10:33:29Z</time>
      </trkpt>
      <trkpt lat="43.40905" lon="-6.26131">
        <ele>245.6</ele>
        <time>2016-07-07T10:34:06Z</time>
      </trkpt>
      <trkpt lat="43.40899" lon="-6.26121">
        <ele>245.2</ele>
        <time>2016-07-07T10:34:45Z</time>
      </trkpt>
      <trkpt lat="43.40898" lon="-6.26108">
        <ele>245.3</ele>
        <time>2016-07-07T10:35:10Z</time>
      </trkpt>
      <trkpt lat="43.40889" lon="-6.26104">
        <ele>245.4</ele>
        <time>2016-07-07T10:35:18Z</time>
      </trkpt>
      <trkpt lat="43.4088" lon="-6.26105">
        <ele>245.6</ele>
        <time>2016-07-07T10:35:25Z</time>
      </trkpt>
      <trkpt lat="43.40874" lon="-6.26114">
        <ele>245.8</ele>
        <time>2016-07-07T10:35:37Z</time>
      </trkpt>
      <trkpt lat="43.40877" lon="-6.26129">
        <ele>246</ele>
        <time>2016-07-07T10:35:50Z</time>
      </trkpt>
      <trkpt lat="43.40873" lon="-6.26114">
        <ele>246</ele>
        <time>2016-07-07T10:36:32Z</time>
      </trkpt>
      <trkpt lat="43.40878" lon="-6.26138">
        <ele>246</ele>
        <time>2016-07-07T10:38:09Z</time>
      </trkpt>
      <trkpt lat="43.40881" lon="-6.26126">
        <ele>246.8</ele>
        <time>2016-07-07T10:38:30Z</time>
      </trkpt>
      <trkpt lat="43.40887" lon="-6.26116">
        <ele>246.5</ele>
        <time>2016-07-07T10:38:37Z</time>
      </trkpt>
      <trkpt lat="43.40891" lon="-6.26105">
        <ele>245.5</ele>
        <time>2016-07-07T10:38:46Z</time>
      </trkpt>
      <trkpt lat="43.40892" lon="-6.26092">
        <ele>244.1</ele>
        <time>2016-07-07T10:39:03Z</time>
      </trkpt>
      <trkpt lat="43.40898" lon="-6.26102">
        <ele>243.8</ele>
        <time>2016-07-07T10:39:22Z</time>
      </trkpt>
      <trkpt lat="43.40901" lon="-6.26114">
        <ele>244.1</ele>
        <time>2016-07-07T10:39:33Z</time>
      </trkpt>
      <trkpt lat="43.40908" lon="-6.26122">
        <ele>244.5</ele>
        <time>2016-07-07T10:39:45Z</time>
      </trkpt>
      <trkpt lat="43.40899" lon="-6.26118">
        <ele>245.4</ele>
        <time>2016-07-07T10:41:27Z</time>
      </trkpt>
      <trkpt lat="43.40892" lon="-6.2611">
        <ele>245.3</ele>
        <time>2016-07-07T10:41:40Z</time>
      </trkpt>
      <trkpt lat="43.409" lon="-6.26113">
        <ele>245.2</ele>
        <time>2016-07-07T10:42:23Z</time>
      </trkpt>
      <trkpt lat="43.40909" lon="-6.26117">
        <ele>245.4</ele>
        <time>2016-07-07T10:43:06Z</time>
      </trkpt>
      <trkpt lat="43.40901" lon="-6.26122">
        <ele>245.6</ele>
        <time>2016-07-07T10:46:05Z</time>
      </trkpt>
      <trkpt lat="43.40892" lon="-6.2612">
        <ele>245.5</ele>
        <time>2016-07-07T10:46:20Z</time>
      </trkpt>
      <trkpt lat="43.40883" lon="-6.26123">
        <ele>245.6</ele>
        <time>2016-07-07T10:47:08Z</time>
      </trkpt>
      <trkpt lat="43.40892" lon="-6.26122">
        <ele>245.1</ele>
        <time>2016-07-07T10:48:19Z</time>
      </trkpt>
      <trkpt lat="43.40901" lon="-6.26123">
        <ele>245.8</ele>
        <time>2016-07-07T10:49:54Z</time>
      </trkpt>
      <trkpt lat="43.4091" lon="-6.26127">
        <ele>245.2</ele>
        <time>2016-07-07T10:50:36Z</time>
      </trkpt>
      <trkpt lat="43.40902" lon="-6.2612">
        <ele>245.4</ele>
        <time>2016-07-07T10:50:54Z</time>
      </trkpt>
      <trkpt lat="43.40903" lon="-6.26133">
        <ele>245.5</ele>
        <time>2016-07-07T10:51:33Z</time>
      </trkpt>
      <trkpt lat="43.40901" lon="-6.26121">
        <ele>245.5</ele>
        <time>2016-07-07T10:52:01Z</time>
      </trkpt>
      <trkpt lat="43.40894" lon="-6.26111">
        <ele>245.7</ele>
        <time>2016-07-07T10:52:15Z</time>
      </trkpt>
      <trkpt lat="43.40902" lon="-6.26118">
        <ele>245.7</ele>
        <time>2016-07-07T10:52:26Z</time>
      </trkpt>
      <trkpt lat="43.4091" lon="-6.26124">
        <ele>245.7</ele>
        <time>2016-07-07T10:52:37Z</time>
      </trkpt>
      <trkpt lat="43.40901" lon="-6.26122">
        <ele>245.5</ele>
        <time>2016-07-07T10:52:54Z</time>
      </trkpt>
      <trkpt lat="43.40893" lon="-6.26116">
        <ele>245.5</ele>
        <time>2016-07-07T10:52:58Z</time>
      </trkpt>
      <trkpt lat="43.40884" lon="-6.26107">
        <ele>245.3</ele>
        <time>2016-07-07T10:53:04Z</time>
      </trkpt>
      <trkpt lat="43.40875" lon="-6.26101">
        <ele>245.6</ele>
        <time>2016-07-07T10:53:29Z</time>
      </trkpt>
      <trkpt lat="43.40884" lon="-6.26106">
        <ele>245.1</ele>
        <time>2016-07-07T10:53:44Z</time>
      </trkpt>
      <trkpt lat="43.40893" lon="-6.26112">
        <ele>245.6</ele>
        <time>2016-07-07T10:54:07Z</time>
      </trkpt>
      <trkpt lat="43.40902" lon="-6.26117">
        <ele>246.4</ele>
        <time>2016-07-07T10:54:55Z</time>
      </trkpt>
      <trkpt lat="43.40893" lon="-6.26112">
        <ele>246.2</ele>
        <time>2016-07-07T10:55:30Z</time>
      </trkpt>
      <trkpt lat="43.409" lon="-6.26121">
        <ele>246.2</ele>
        <time>2016-07-07T10:55:39Z</time>
      </trkpt>
      <trkpt lat="43.40891" lon="-6.26124">
        <ele>246</ele>
        <time>2016-07-07T10:57:03Z</time>
      </trkpt>
      <trkpt lat="43.40898" lon="-6.26117">
        <ele>246.5</ele>
        <time>2016-07-07T10:57:53Z</time>
      </trkpt>
      <trkpt lat="43.40891" lon="-6.26108">
        <ele>246</ele>
        <time>2016-07-07T10:58:06Z</time>
      </trkpt>
      <trkpt lat="43.40899" lon="-6.26115">
        <ele>245.6</ele>
        <time>2016-07-07T10:58:14Z</time>
      </trkpt>
      <trkpt lat="43.40908" lon="-6.2612">
        <ele>246.2</ele>
        <time>2016-07-07T10:59:52Z</time>
      </trkpt>
      <trkpt lat="43.40919" lon="-6.26132">
        <ele>245</ele>
        <time>2016-07-07T11:00:28Z</time>
      </trkpt>
      <trkpt lat="43.40933" lon="-6.26148">
        <ele>245</ele>
        <time>2016-07-07T11:00:52Z</time>
      </trkpt>
      <trkpt lat="43.40938" lon="-6.26158">
        <ele>246.1</ele>
        <time>2016-07-07T11:01:03Z</time>
      </trkpt>
      <trkpt lat="43.40932" lon="-6.26149">
        <ele>245.9</ele>
        <time>2016-07-07T11:01:22Z</time>
      </trkpt>
      <trkpt lat="43.40923" lon="-6.26142">
        <ele>245.9</ele>
        <time>2016-07-07T11:01:27Z</time>
      </trkpt>
      <trkpt lat="43.40917" lon="-6.26127">
        <ele>245.6</ele>
        <time>2016-07-07T11:02:32Z</time>
      </trkpt>
      <trkpt lat="43.40922" lon="-6.2614">
        <ele>245</ele>
        <time>2016-07-07T11:03:08Z</time>
      </trkpt>
      <trkpt lat="43.40914" lon="-6.26133">
        <ele>244.7</ele>
        <time>2016-07-07T11:03:29Z</time>
      </trkpt>
      <trkpt lat="43.40905" lon="-6.26128">
        <ele>245.1</ele>
        <time>2016-07-07T11:03:42Z</time>
      </trkpt>
      <trkpt lat="43.40896" lon="-6.26131">
        <ele>245</ele>
        <time>2016-07-07T11:04:24Z</time>
      </trkpt>
      <trkpt lat="43.40905" lon="-6.26129">
        <ele>245.6</ele>
        <time>2016-07-07T11:05:19Z</time>
      </trkpt>
      <trkpt lat="43.40914" lon="-6.26131">
        <ele>246.1</ele>
        <time>2016-07-07T11:05:47Z</time>
      </trkpt>
      <trkpt lat="43.40923" lon="-6.26136">
        <ele>246.2</ele>
        <time>2016-07-07T11:05:50Z</time>
      </trkpt>
      <trkpt lat="43.40932" lon="-6.26144">
        <ele>246.3</ele>
        <time>2016-07-07T11:05:54Z</time>
      </trkpt>
      <trkpt lat="43.4092" lon="-6.26131">
        <ele>246</ele>
        <time>2016-07-07T11:06:16Z</time>
      </trkpt>
      <trkpt lat="43.40911" lon="-6.26126">
        <ele>245.8</ele>
        <time>2016-07-07T11:06:54Z</time>
      </trkpt>
      <trkpt lat="43.40902" lon="-6.26125">
        <ele>246</ele>
        <time>2016-07-07T11:08:20Z</time>
      </trkpt>
      <trkpt lat="43.40909" lon="-6.26132">
        <ele>246.1</ele>
        <time>2016-07-07T11:09:48Z</time>
      </trkpt>
      <trkpt lat="43.409" lon="-6.26131">
        <ele>246.2</ele>
        <time>2016-07-07T11:11:47Z</time>
      </trkpt>
      <trkpt lat="43.40908" lon="-6.26137">
        <ele>246.3</ele>
        <time>2016-07-07T11:12:45Z</time>
      </trkpt>
      <trkpt lat="43.40916" lon="-6.26144">
        <ele>246.4</ele>
        <time>2016-07-07T11:12:58Z</time>
      </trkpt>
      <trkpt lat="43.40924" lon="-6.2615">
        <ele>247</ele>
        <time>2016-07-07T11:13:10Z</time>
      </trkpt>
      <trkpt lat="43.40915" lon="-6.26144">
        <ele>247.8</ele>
        <time>2016-07-07T11:14:11Z</time>
      </trkpt>
      <trkpt lat="43.40924" lon="-6.26149">
        <ele>247.6</ele>
        <time>2016-07-07T11:16:29Z</time>
      </trkpt>
      <trkpt lat="43.40914" lon="-6.26148">
        <ele>247.8</ele>
        <time>2016-07-07T11:17:50Z</time>
      </trkpt>
      <trkpt lat="43.40915" lon="-6.26135">
        <ele>248.1</ele>
        <time>2016-07-07T11:18:15Z</time>
      </trkpt>
      <trkpt lat="43.40909" lon="-6.26146">
        <ele>247.8</ele>
        <time>2016-07-07T11:19:14Z</time>
      </trkpt>
      <trkpt lat="43.40901" lon="-6.26142">
        <ele>247.5</ele>
        <time>2016-07-07T11:20:33Z</time>
      </trkpt>
      <trkpt lat="43.409" lon="-6.26155">
        <ele>247.8</ele>
        <time>2016-07-07T11:20:58Z</time>
      </trkpt>
      <trkpt lat="43.40902" lon="-6.26167">
        <ele>247.6</ele>
        <time>2016-07-07T11:23:04Z</time>
      </trkpt>
      <trkpt lat="43.4091" lon="-6.26161">
        <ele>248.1</ele>
        <time>2016-07-07T11:23:35Z</time>
      </trkpt>
      <trkpt lat="43.40898" lon="-6.26163">
        <ele>247</ele>
        <time>2016-07-07T11:24:53Z</time>
      </trkpt>
      <trkpt lat="43.40908" lon="-6.26151">
        <ele>247</ele>
        <time>2016-07-07T11:25:36Z</time>
      </trkpt>
      <trkpt lat="43.40927" lon="-6.26149">
        <ele>247</ele>
        <time>2016-07-07T11:25:41Z</time>
      </trkpt>
      <trkpt lat="43.40978" lon="-6.26143">
        <ele>247</ele>
        <time>2016-07-07T11:25:49Z</time>
      </trkpt>
      <trkpt lat="43.40966" lon="-6.26145">
        <ele>247.8</ele>
        <time>2016-07-07T11:25:55Z</time>
      </trkpt>
      <trkpt lat="43.40956" lon="-6.26146">
        <ele>247.8</ele>
        <time>2016-07-07T11:25:57Z</time>
      </trkpt>
      <trkpt lat="43.40943" lon="-6.26148">
        <ele>247.8</ele>
        <time>2016-07-07T11:26:00Z</time>
      </trkpt>
      <trkpt lat="43.40932" lon="-6.2615">
        <ele>247.8</ele>
        <time>2016-07-07T11:26:03Z</time>
      </trkpt>
      <trkpt lat="43.40922" lon="-6.26151">
        <ele>247.7</ele>
        <time>2016-07-07T11:26:07Z</time>
      </trkpt>
      <trkpt lat="43.40913" lon="-6.26153">
        <ele>248.1</ele>
        <time>2016-07-07T11:26:15Z</time>
      </trkpt>
      <trkpt lat="43.40922" lon="-6.26149">
        <ele>248.1</ele>
        <time>2016-07-07T11:26:50Z</time>
      </trkpt>
      <trkpt lat="43.40913" lon="-6.26155">
        <ele>248.1</ele>
        <time>2016-07-07T11:26:59Z</time>
      </trkpt>
      <trkpt lat="43.40904" lon="-6.26152">
        <ele>248.1</ele>
        <time>2016-07-07T11:27:48Z</time>
      </trkpt>
      <trkpt lat="43.4091" lon="-6.26143">
        <ele>248</ele>
        <time>2016-07-07T11:28:28Z</time>
      </trkpt>
      <trkpt lat="43.40902" lon="-6.26148">
        <ele>247.6</ele>
        <time>2016-07-07T11:29:14Z</time>
      </trkpt>
      <trkpt lat="43.40908" lon="-6.26139">
        <ele>247.8</ele>
        <time>2016-07-07T11:30:21Z</time>
      </trkpt>
      <trkpt lat="43.40916" lon="-6.26147">
        <ele>247.7</ele>
        <time>2016-07-07T11:30:45Z</time>
      </trkpt>
      <trkpt lat="43.40922" lon="-6.26157">
        <ele>248.2</ele>
        <time>2016-07-07T11:30:53Z</time>
      </trkpt>
      <trkpt lat="43.40928" lon="-6.26167">
        <ele>248.6</ele>
        <time>2016-07-07T11:31:03Z</time>
      </trkpt>
      <trkpt lat="43.40934" lon="-6.26178">
        <ele>249.1</ele>
        <time>2016-07-07T11:31:13Z</time>
      </trkpt>
      <trkpt lat="43.4094" lon="-6.26187">
        <ele>250.3</ele>
        <time>2016-07-07T11:31:46Z</time>
      </trkpt>
      <trkpt lat="43.40943" lon="-6.26199">
        <ele>250.2</ele>
        <time>2016-07-07T11:31:59Z</time>
      </trkpt>
      <trkpt lat="43.40948" lon="-6.2621">
        <ele>250.4</ele>
        <time>2016-07-07T11:32:13Z</time>
      </trkpt>
      <trkpt lat="43.4095" lon="-6.26222">
        <ele>251.3</ele>
        <time>2016-07-07T11:32:29Z</time>
      </trkpt>
      <trkpt lat="43.40954" lon="-6.26233">
        <ele>252</ele>
        <time>2016-07-07T11:32:43Z</time>
      </trkpt>
      <trkpt lat="43.40959" lon="-6.26244">
        <ele>253.1</ele>
        <time>2016-07-07T11:33:08Z</time>
      </trkpt>
      <trkpt lat="43.40967" lon="-6.26253">
        <ele>254</ele>
        <time>2016-07-07T11:33:55Z</time>
      </trkpt>
      <trkpt lat="43.40973" lon="-6.26262">
        <ele>254.3</ele>
        <time>2016-07-07T11:34:02Z</time>
      </trkpt>
      <trkpt lat="43.40979" lon="-6.26271">
        <ele>254.9</ele>
        <time>2016-07-07T11:34:11Z</time>
      </trkpt>
      <trkpt lat="43.40988" lon="-6.2628">
        <ele>255.2</ele>
        <time>2016-07-07T11:34:18Z</time>
      </trkpt>
      <trkpt lat="43.40995" lon="-6.26289">
        <ele>256</ele>
        <time>2016-07-07T11:34:25Z</time>
      </trkpt>
      <trkpt lat="43.41003" lon="-6.26297">
        <ele>256.6</ele>
        <time>2016-07-07T11:34:32Z</time>
      </trkpt>
      <trkpt lat="43.4101" lon="-6.26305">
        <ele>256.9</ele>
        <time>2016-07-07T11:34:39Z</time>
      </trkpt>
      <trkpt lat="43.41018" lon="-6.2631">
        <ele>256.9</ele>
        <time>2016-07-07T11:34:48Z</time>
      </trkpt>
      <trkpt lat="43.41025" lon="-6.26321">
        <ele>257</ele>
        <time>2016-07-07T11:34:59Z</time>
      </trkpt>
      <trkpt lat="43.41031" lon="-6.2633">
        <ele>256.9</ele>
        <time>2016-07-07T11:35:07Z</time>
      </trkpt>
      <trkpt lat="43.41034" lon="-6.26343">
        <ele>256.7</ele>
        <time>2016-07-07T11:35:15Z</time>
      </trkpt>
      <trkpt lat="43.41036" lon="-6.26356">
        <ele>256.3</ele>
        <time>2016-07-07T11:35:24Z</time>
      </trkpt>
      <trkpt lat="43.41043" lon="-6.26364">
        <ele>255.9</ele>
        <time>2016-07-07T11:35:31Z</time>
      </trkpt>
      <trkpt lat="43.41047" lon="-6.26376">
        <ele>255.6</ele>
        <time>2016-07-07T11:35:39Z</time>
      </trkpt>
      <trkpt lat="43.41048" lon="-6.26389">
        <ele>255.2</ele>
        <time>2016-07-07T11:35:48Z</time>
      </trkpt>
      <trkpt lat="43.41052" lon="-6.26401">
        <ele>255</ele>
        <time>2016-07-07T11:35:58Z</time>
      </trkpt>
      <trkpt lat="43.41054" lon="-6.26413">
        <ele>255</ele>
        <time>2016-07-07T11:36:07Z</time>
      </trkpt>
      <trkpt lat="43.41055" lon="-6.26426">
        <ele>255.2</ele>
        <time>2016-07-07T11:36:20Z</time>
      </trkpt>
      <trkpt lat="43.41054" lon="-6.26439">
        <ele>255.4</ele>
        <time>2016-07-07T11:36:31Z</time>
      </trkpt>
      <trkpt lat="43.41058" lon="-6.2645">
        <ele>255.6</ele>
        <time>2016-07-07T11:36:56Z</time>
      </trkpt>
      <trkpt lat="43.4106" lon="-6.26463">
        <ele>255.9</ele>
        <time>2016-07-07T11:37:07Z</time>
      </trkpt>
      <trkpt lat="43.41062" lon="-6.26475">
        <ele>256.3</ele>
        <time>2016-07-07T11:37:17Z</time>
      </trkpt>
      <trkpt lat="43.41067" lon="-6.26488">
        <ele>256.7</ele>
        <time>2016-07-07T11:37:27Z</time>
      </trkpt>
      <trkpt lat="43.4107" lon="-6.265">
        <ele>257.1</ele>
        <time>2016-07-07T11:37:36Z</time>
      </trkpt>
      <trkpt lat="43.41073" lon="-6.26512">
        <ele>257.5</ele>
        <time>2016-07-07T11:37:44Z</time>
      </trkpt>
      <trkpt lat="43.41076" lon="-6.26524">
        <ele>257.8</ele>
        <time>2016-07-07T11:37:52Z</time>
      </trkpt>
      <trkpt lat="43.41077" lon="-6.26538">
        <ele>258.2</ele>
        <time>2016-07-07T11:38:01Z</time>
      </trkpt>
      <trkpt lat="43.4108" lon="-6.2655">
        <ele>258.8</ele>
        <time>2016-07-07T11:38:09Z</time>
      </trkpt>
      <trkpt lat="43.41081" lon="-6.26562">
        <ele>259.4</ele>
        <time>2016-07-07T11:38:18Z</time>
      </trkpt>
      <trkpt lat="43.41083" lon="-6.26576">
        <ele>260.1</ele>
        <time>2016-07-07T11:38:27Z</time>
      </trkpt>
      <trkpt lat="43.41087" lon="-6.26587">
        <ele>261</ele>
        <time>2016-07-07T11:38:36Z</time>
      </trkpt>
      <trkpt lat="43.41092" lon="-6.26598">
        <ele>261.6</ele>
        <time>2016-07-07T11:38:44Z</time>
      </trkpt>
      <trkpt lat="43.41098" lon="-6.26608">
        <ele>262.3</ele>
        <time>2016-07-07T11:38:54Z</time>
      </trkpt>
      <trkpt lat="43.41103" lon="-6.26619">
        <ele>262.7</ele>
        <time>2016-07-07T11:39:04Z</time>
      </trkpt>
      <trkpt lat="43.4111" lon="-6.26629">
        <ele>263.3</ele>
        <time>2016-07-07T11:39:14Z</time>
      </trkpt>
      <trkpt lat="43.41116" lon="-6.26639">
        <ele>263.9</ele>
        <time>2016-07-07T11:39:23Z</time>
      </trkpt>
      <trkpt lat="43.41122" lon="-6.26649">
        <ele>264.3</ele>
        <time>2016-07-07T11:39:31Z</time>
      </trkpt>
      <trkpt lat="43.41127" lon="-6.26659">
        <ele>264.5</ele>
        <time>2016-07-07T11:39:39Z</time>
      </trkpt>
      <trkpt lat="43.41132" lon="-6.26671">
        <ele>265.3</ele>
        <time>2016-07-07T11:39:47Z</time>
      </trkpt>
      <trkpt lat="43.41138" lon="-6.26681">
        <ele>265.8</ele>
        <time>2016-07-07T11:39:55Z</time>
      </trkpt>
      <trkpt lat="43.41144" lon="-6.2669">
        <ele>266</ele>
        <time>2016-07-07T11:40:03Z</time>
      </trkpt>
      <trkpt lat="43.41151" lon="-6.26701">
        <ele>266.5</ele>
        <time>2016-07-07T11:40:12Z</time>
      </trkpt>
      <trkpt lat="43.41156" lon="-6.26711">
        <ele>266.8</ele>
        <time>2016-07-07T11:40:20Z</time>
      </trkpt>
      <trkpt lat="43.41159" lon="-6.26724">
        <ele>267.9</ele>
        <time>2016-07-07T11:40:39Z</time>
      </trkpt>
      <trkpt lat="43.41165" lon="-6.26733">
        <ele>268.3</ele>
        <time>2016-07-07T11:40:50Z</time>
      </trkpt>
      <trkpt lat="43.4117" lon="-6.26745">
        <ele>268.6</ele>
        <time>2016-07-07T11:41:05Z</time>
      </trkpt>
      <trkpt lat="43.41171" lon="-6.26757">
        <ele>269.2</ele>
        <time>2016-07-07T11:41:20Z</time>
      </trkpt>
      <trkpt lat="43.41174" lon="-6.26769">
        <ele>269.6</ele>
        <time>2016-07-07T11:41:32Z</time>
      </trkpt>
      <trkpt lat="43.4118" lon="-6.2678">
        <ele>270</ele>
        <time>2016-07-07T11:41:40Z</time>
      </trkpt>
      <trkpt lat="43.41188" lon="-6.26787">
        <ele>270.7</ele>
        <time>2016-07-07T11:41:47Z</time>
      </trkpt>
      <trkpt lat="43.41196" lon="-6.26792">
        <ele>271.7</ele>
        <time>2016-07-07T11:41:58Z</time>
      </trkpt>
      <trkpt lat="43.41206" lon="-6.26796">
        <ele>272.6</ele>
        <time>2016-07-07T11:42:07Z</time>
      </trkpt>
      <trkpt lat="43.41216" lon="-6.26801">
        <ele>273.8</ele>
        <time>2016-07-07T11:42:21Z</time>
      </trkpt>
      <trkpt lat="43.41222" lon="-6.26811">
        <ele>274.7</ele>
        <time>2016-07-07T11:42:36Z</time>
      </trkpt>
      <trkpt lat="43.4123" lon="-6.26821">
        <ele>275.2</ele>
        <time>2016-07-07T11:42:44Z</time>
      </trkpt>
      <trkpt lat="43.41238" lon="-6.26828">
        <ele>275.6</ele>
        <time>2016-07-07T11:42:51Z</time>
      </trkpt>
      <trkpt lat="43.41248" lon="-6.26834">
        <ele>275.8</ele>
        <time>2016-07-07T11:42:57Z</time>
      </trkpt>
      <trkpt lat="43.41256" lon="-6.26841">
        <ele>276.1</ele>
        <time>2016-07-07T11:43:03Z</time>
      </trkpt>
      <trkpt lat="43.41265" lon="-6.2685">
        <ele>276.4</ele>
        <time>2016-07-07T11:43:09Z</time>
      </trkpt>
      <trkpt lat="43.41274" lon="-6.26856">
        <ele>276.6</ele>
        <time>2016-07-07T11:43:15Z</time>
      </trkpt>
      <trkpt lat="43.41282" lon="-6.26864">
        <ele>277.4</ele>
        <time>2016-07-07T11:43:23Z</time>
      </trkpt>
      <trkpt lat="43.41286" lon="-6.26875">
        <ele>278.3</ele>
        <time>2016-07-07T11:43:30Z</time>
      </trkpt>
      <trkpt lat="43.41295" lon="-6.26881">
        <ele>278.9</ele>
        <time>2016-07-07T11:43:35Z</time>
      </trkpt>
      <trkpt lat="43.41302" lon="-6.26889">
        <ele>279.5</ele>
        <time>2016-07-07T11:43:42Z</time>
      </trkpt>
      <trkpt lat="43.4131" lon="-6.26898">
        <ele>279.6</ele>
        <time>2016-07-07T11:43:48Z</time>
      </trkpt>
      <trkpt lat="43.41316" lon="-6.26909">
        <ele>280</ele>
        <time>2016-07-07T11:43:55Z</time>
      </trkpt>
      <trkpt lat="43.41323" lon="-6.26919">
        <ele>280.4</ele>
        <time>2016-07-07T11:44:03Z</time>
      </trkpt>
      <trkpt lat="43.4133" lon="-6.26927">
        <ele>280.7</ele>
        <time>2016-07-07T11:44:10Z</time>
      </trkpt>
      <trkpt lat="43.41338" lon="-6.26935">
        <ele>281.6</ele>
        <time>2016-07-07T11:44:22Z</time>
      </trkpt>
      <trkpt lat="43.41341" lon="-6.26947">
        <ele>282.3</ele>
        <time>2016-07-07T11:44:31Z</time>
      </trkpt>
      <trkpt lat="43.41347" lon="-6.26958">
        <ele>282.9</ele>
        <time>2016-07-07T11:44:39Z</time>
      </trkpt>
      <trkpt lat="43.41355" lon="-6.26967">
        <ele>283.3</ele>
        <time>2016-07-07T11:44:45Z</time>
      </trkpt>
      <trkpt lat="43.41363" lon="-6.26974">
        <ele>283.4</ele>
        <time>2016-07-07T11:44:51Z</time>
      </trkpt>
      <trkpt lat="43.4137" lon="-6.26984">
        <ele>283.8</ele>
        <time>2016-07-07T11:44:58Z</time>
      </trkpt>
      <trkpt lat="43.41374" lon="-6.26997">
        <ele>284.1</ele>
        <time>2016-07-07T11:45:06Z</time>
      </trkpt>
      <trkpt lat="43.41377" lon="-6.27008">
        <ele>284.3</ele>
        <time>2016-07-07T11:45:16Z</time>
      </trkpt>
      <trkpt lat="43.41376" lon="-6.27021">
        <ele>284.6</ele>
        <time>2016-07-07T11:45:28Z</time>
      </trkpt>
      <trkpt lat="43.41379" lon="-6.27032">
        <ele>285.7</ele>
        <time>2016-07-07T11:45:40Z</time>
      </trkpt>
      <trkpt lat="43.41376" lon="-6.27045">
        <ele>286.2</ele>
        <time>2016-07-07T11:45:49Z</time>
      </trkpt>
      <trkpt lat="43.4138" lon="-6.27058">
        <ele>286.5</ele>
        <time>2016-07-07T11:45:59Z</time>
      </trkpt>
      <trkpt lat="43.41386" lon="-6.27067">
        <ele>286.7</ele>
        <time>2016-07-07T11:46:07Z</time>
      </trkpt>
      <trkpt lat="43.41392" lon="-6.27078">
        <ele>286.9</ele>
        <time>2016-07-07T11:46:15Z</time>
      </trkpt>
      <trkpt lat="43.41397" lon="-6.27089">
        <ele>287.3</ele>
        <time>2016-07-07T11:46:23Z</time>
      </trkpt>
      <trkpt lat="43.41401" lon="-6.27101">
        <ele>287.7</ele>
        <time>2016-07-07T11:46:34Z</time>
      </trkpt>
      <trkpt lat="43.41408" lon="-6.27108">
        <ele>288.1</ele>
        <time>2016-07-07T11:46:43Z</time>
      </trkpt>
      <trkpt lat="43.41414" lon="-6.27118">
        <ele>288.5</ele>
        <time>2016-07-07T11:46:50Z</time>
      </trkpt>
      <trkpt lat="43.41422" lon="-6.27124">
        <ele>288.9</ele>
        <time>2016-07-07T11:47:07Z</time>
      </trkpt>
      <trkpt lat="43.41431" lon="-6.27119">
        <ele>288.9</ele>
        <time>2016-07-07T11:47:24Z</time>
      </trkpt>
      <trkpt lat="43.4144" lon="-6.27125">
        <ele>288.9</ele>
        <time>2016-07-07T11:47:32Z</time>
      </trkpt>
      <trkpt lat="43.41444" lon="-6.27136">
        <ele>289.1</ele>
        <time>2016-07-07T11:47:44Z</time>
      </trkpt>
      <trkpt lat="43.41443" lon="-6.2715">
        <ele>290</ele>
        <time>2016-07-07T11:47:57Z</time>
      </trkpt>
      <trkpt lat="43.41448" lon="-6.27162">
        <ele>290.6</ele>
        <time>2016-07-07T11:48:12Z</time>
      </trkpt>
      <trkpt lat="43.41455" lon="-6.2717">
        <ele>291.5</ele>
        <time>2016-07-07T11:48:21Z</time>
      </trkpt>
      <trkpt lat="43.41462" lon="-6.27178">
        <ele>293</ele>
        <time>2016-07-07T11:48:35Z</time>
      </trkpt>
      <trkpt lat="43.4147" lon="-6.27186">
        <ele>294</ele>
        <time>2016-07-07T11:48:53Z</time>
      </trkpt>
      <trkpt lat="43.41483" lon="-6.27189">
        <ele>296</ele>
        <time>2016-07-07T11:49:23Z</time>
      </trkpt>
      <trkpt lat="43.41493" lon="-6.27193">
        <ele>297</ele>
        <time>2016-07-07T11:49:30Z</time>
      </trkpt>
      <trkpt lat="43.41502" lon="-6.272">
        <ele>297.3</ele>
        <time>2016-07-07T11:49:35Z</time>
      </trkpt>
      <trkpt lat="43.4151" lon="-6.27206">
        <ele>297.8</ele>
        <time>2016-07-07T11:49:40Z</time>
      </trkpt>
      <trkpt lat="43.41518" lon="-6.27213">
        <ele>298.3</ele>
        <time>2016-07-07T11:49:44Z</time>
      </trkpt>
      <trkpt lat="43.41527" lon="-6.27221">
        <ele>298.8</ele>
        <time>2016-07-07T11:49:48Z</time>
      </trkpt>
      <trkpt lat="43.41538" lon="-6.27227">
        <ele>299.2</ele>
        <time>2016-07-07T11:49:52Z</time>
      </trkpt>
      <trkpt lat="43.41548" lon="-6.27233">
        <ele>299.6</ele>
        <time>2016-07-07T11:49:57Z</time>
      </trkpt>
      <trkpt lat="43.41557" lon="-6.27239">
        <ele>300.2</ele>
        <time>2016-07-07T11:50:02Z</time>
      </trkpt>
      <trkpt lat="43.41567" lon="-6.27244">
        <ele>300.6</ele>
        <time>2016-07-07T11:50:07Z</time>
      </trkpt>
      <trkpt lat="43.41576" lon="-6.27247">
        <ele>301.4</ele>
        <time>2016-07-07T11:50:15Z</time>
      </trkpt>
      <trkpt lat="43.41586" lon="-6.27249">
        <ele>302.6</ele>
        <time>2016-07-07T11:50:25Z</time>
      </trkpt>
      <trkpt lat="43.41595" lon="-6.27252">
        <ele>303.8</ele>
        <time>2016-07-07T11:50:33Z</time>
      </trkpt>
      <trkpt lat="43.41595" lon="-6.27239">
        <ele>305.7</ele>
        <time>2016-07-07T11:51:05Z</time>
      </trkpt>
      <trkpt lat="43.41603" lon="-6.27233">
        <ele>305.9</ele>
        <time>2016-07-07T11:51:28Z</time>
      </trkpt>
      <trkpt lat="43.41608" lon="-6.27245">
        <ele>305.9</ele>
        <time>2016-07-07T11:51:52Z</time>
      </trkpt>
      <trkpt lat="43.41615" lon="-6.27251">
        <ele>305.9</ele>
        <time>2016-07-07T11:52:00Z</time>
      </trkpt>
      <trkpt lat="43.41622" lon="-6.27261">
        <ele>306.1</ele>
        <time>2016-07-07T11:52:10Z</time>
      </trkpt>
      <trkpt lat="43.41631" lon="-6.27265">
        <ele>306.5</ele>
        <time>2016-07-07T11:52:19Z</time>
      </trkpt>
      <trkpt lat="43.4164" lon="-6.2727">
        <ele>307.8</ele>
        <time>2016-07-07T11:52:28Z</time>
      </trkpt>
      <trkpt lat="43.41648" lon="-6.27277">
        <ele>308.4</ele>
        <time>2016-07-07T11:52:35Z</time>
      </trkpt>
      <trkpt lat="43.41656" lon="-6.27284">
        <ele>308.8</ele>
        <time>2016-07-07T11:52:41Z</time>
      </trkpt>
      <trkpt lat="43.41663" lon="-6.27292">
        <ele>309.8</ele>
        <time>2016-07-07T11:52:49Z</time>
      </trkpt>
      <trkpt lat="43.41669" lon="-6.27302">
        <ele>310.4</ele>
        <time>2016-07-07T11:52:57Z</time>
      </trkpt>
      <trkpt lat="43.41677" lon="-6.27311">
        <ele>310.8</ele>
        <time>2016-07-07T11:53:04Z</time>
      </trkpt>
      <trkpt lat="43.41681" lon="-6.27323">
        <ele>311.3</ele>
        <time>2016-07-07T11:53:12Z</time>
      </trkpt>
      <trkpt lat="43.41684" lon="-6.27334">
        <ele>311.7</ele>
        <time>2016-07-07T11:53:21Z</time>
      </trkpt>
      <trkpt lat="43.41684" lon="-6.27347">
        <ele>313.3</ele>
        <time>2016-07-07T11:53:35Z</time>
      </trkpt>
      <trkpt lat="43.41685" lon="-6.2736">
        <ele>314.7</ele>
        <time>2016-07-07T11:53:44Z</time>
      </trkpt>
      <trkpt lat="43.41688" lon="-6.27372">
        <ele>315.2</ele>
        <time>2016-07-07T11:53:51Z</time>
      </trkpt>
      <trkpt lat="43.41691" lon="-6.27385">
        <ele>316</ele>
        <time>2016-07-07T11:53:59Z</time>
      </trkpt>
      <trkpt lat="43.41692" lon="-6.27399">
        <ele>316</ele>
        <time>2016-07-07T11:54:07Z</time>
      </trkpt>
      <trkpt lat="43.41694" lon="-6.27412">
        <ele>317</ele>
        <time>2016-07-07T11:54:15Z</time>
      </trkpt>
      <trkpt lat="43.41695" lon="-6.27426">
        <ele>318.6</ele>
        <time>2016-07-07T11:54:24Z</time>
      </trkpt>
      <trkpt lat="43.41697" lon="-6.27438">
        <ele>319.2</ele>
        <time>2016-07-07T11:54:32Z</time>
      </trkpt>
      <trkpt lat="43.41699" lon="-6.2745">
        <ele>320.1</ele>
        <time>2016-07-07T11:54:44Z</time>
      </trkpt>
      <trkpt lat="43.41704" lon="-6.27462">
        <ele>321.2</ele>
        <time>2016-07-07T11:54:54Z</time>
      </trkpt>
      <trkpt lat="43.41708" lon="-6.27473">
        <ele>322.1</ele>
        <time>2016-07-07T11:55:02Z</time>
      </trkpt>
      <trkpt lat="43.41711" lon="-6.27485">
        <ele>322.9</ele>
        <time>2016-07-07T11:55:13Z</time>
      </trkpt>
      <trkpt lat="43.41711" lon="-6.27499">
        <ele>323.7</ele>
        <time>2016-07-07T11:55:22Z</time>
      </trkpt>
      <trkpt lat="43.41717" lon="-6.27508">
        <ele>324.4</ele>
        <time>2016-07-07T11:55:31Z</time>
      </trkpt>
      <trkpt lat="43.41722" lon="-6.27519">
        <ele>325</ele>
        <time>2016-07-07T11:55:42Z</time>
      </trkpt>
      <trkpt lat="43.41727" lon="-6.27531">
        <ele>325.7</ele>
        <time>2016-07-07T11:55:53Z</time>
      </trkpt>
      <trkpt lat="43.4173" lon="-6.27542">
        <ele>327</ele>
        <time>2016-07-07T11:56:01Z</time>
      </trkpt>
      <trkpt lat="43.41736" lon="-6.27552">
        <ele>327.5</ele>
        <time>2016-07-07T11:56:07Z</time>
      </trkpt>
      <trkpt lat="43.4174" lon="-6.27565">
        <ele>328.4</ele>
        <time>2016-07-07T11:56:15Z</time>
      </trkpt>
      <trkpt lat="43.41745" lon="-6.27577">
        <ele>329</ele>
        <time>2016-07-07T11:56:22Z</time>
      </trkpt>
      <trkpt lat="43.41752" lon="-6.27588">
        <ele>330.1</ele>
        <time>2016-07-07T11:56:29Z</time>
      </trkpt>
      <trkpt lat="43.41754" lon="-6.27601">
        <ele>330.6</ele>
        <time>2016-07-07T11:56:37Z</time>
      </trkpt>
      <trkpt lat="43.41756" lon="-6.27613">
        <ele>331.7</ele>
        <time>2016-07-07T11:56:48Z</time>
      </trkpt>
      <trkpt lat="43.41748" lon="-6.27621">
        <ele>332</ele>
        <time>2016-07-07T11:57:09Z</time>
      </trkpt>
      <trkpt lat="43.41752" lon="-6.27632">
        <ele>333.4</ele>
        <time>2016-07-07T11:57:52Z</time>
      </trkpt>
      <trkpt lat="43.41746" lon="-6.27642">
        <ele>334.2</ele>
        <time>2016-07-07T11:58:13Z</time>
      </trkpt>
      <trkpt lat="43.41739" lon="-6.27651">
        <ele>334.7</ele>
        <time>2016-07-07T11:58:29Z</time>
      </trkpt>
      <trkpt lat="43.41735" lon="-6.27664">
        <ele>336.3</ele>
        <time>2016-07-07T11:58:42Z</time>
      </trkpt>
      <trkpt lat="43.41728" lon="-6.27672">
        <ele>336.8</ele>
        <time>2016-07-07T11:58:49Z</time>
      </trkpt>
      <trkpt lat="43.41719" lon="-6.27677">
        <ele>337.1</ele>
        <time>2016-07-07T11:58:54Z</time>
      </trkpt>
      <trkpt lat="43.41707" lon="-6.27685">
        <ele>337</ele>
        <time>2016-07-07T11:59:01Z</time>
      </trkpt>
      <trkpt lat="43.417" lon="-6.27695">
        <ele>338</ele>
        <time>2016-07-07T11:59:09Z</time>
      </trkpt>
      <trkpt lat="43.41691" lon="-6.27709">
        <ele>339</ele>
        <time>2016-07-07T11:59:21Z</time>
      </trkpt>
      <trkpt lat="43.41679" lon="-6.27725">
        <ele>339</ele>
        <time>2016-07-07T11:59:32Z</time>
      </trkpt>
      <trkpt lat="43.41673" lon="-6.2774">
        <ele>341</ele>
        <time>2016-07-07T11:59:44Z</time>
      </trkpt>
      <trkpt lat="43.41672" lon="-6.27756">
        <ele>342</ele>
        <time>2016-07-07T11:59:56Z</time>
      </trkpt>
      <trkpt lat="43.41671" lon="-6.27769">
        <ele>344</ele>
        <time>2016-07-07T12:00:06Z</time>
      </trkpt>
      <trkpt lat="43.41669" lon="-6.27785">
        <ele>344</ele>
        <time>2016-07-07T12:00:16Z</time>
      </trkpt>
      <trkpt lat="43.4167" lon="-6.27798">
        <ele>345.1</ele>
        <time>2016-07-07T12:00:25Z</time>
      </trkpt>
      <trkpt lat="43.41668" lon="-6.2781">
        <ele>345.9</ele>
        <time>2016-07-07T12:00:35Z</time>
      </trkpt>
      <trkpt lat="43.41666" lon="-6.27823">
        <ele>346.8</ele>
        <time>2016-07-07T12:00:48Z</time>
      </trkpt>
      <trkpt lat="43.41665" lon="-6.27836">
        <ele>347.2</ele>
        <time>2016-07-07T12:00:56Z</time>
      </trkpt>
      <trkpt lat="43.41665" lon="-6.27849">
        <ele>347.5</ele>
        <time>2016-07-07T12:01:03Z</time>
      </trkpt>
      <trkpt lat="43.41664" lon="-6.27861">
        <ele>348.1</ele>
        <time>2016-07-07T12:01:12Z</time>
      </trkpt>
      <trkpt lat="43.41664" lon="-6.27875">
        <ele>349</ele>
        <time>2016-07-07T12:01:21Z</time>
      </trkpt>
      <trkpt lat="43.41662" lon="-6.27888">
        <ele>349.9</ele>
        <time>2016-07-07T12:01:30Z</time>
      </trkpt>
      <trkpt lat="43.41661" lon="-6.27901">
        <ele>351</ele>
        <time>2016-07-07T12:01:42Z</time>
      </trkpt>
      <trkpt lat="43.41662" lon="-6.27914">
        <ele>351.7</ele>
        <time>2016-07-07T12:01:53Z</time>
      </trkpt>
      <trkpt lat="43.41665" lon="-6.27926">
        <ele>352.3</ele>
        <time>2016-07-07T12:02:06Z</time>
      </trkpt>
      <trkpt lat="43.41665" lon="-6.27939">
        <ele>353</ele>
        <time>2016-07-07T12:02:20Z</time>
      </trkpt>
      <trkpt lat="43.41661" lon="-6.2795">
        <ele>353.5</ele>
        <time>2016-07-07T12:02:28Z</time>
      </trkpt>
      <trkpt lat="43.41662" lon="-6.27963">
        <ele>354</ele>
        <time>2016-07-07T12:02:39Z</time>
      </trkpt>
      <trkpt lat="43.41666" lon="-6.27976">
        <ele>354.6</ele>
        <time>2016-07-07T12:02:47Z</time>
      </trkpt>
      <trkpt lat="43.4167" lon="-6.27987">
        <ele>355.6</ele>
        <time>2016-07-07T12:02:57Z</time>
      </trkpt>
      <trkpt lat="43.41669" lon="-6.28001">
        <ele>356.3</ele>
        <time>2016-07-07T12:03:09Z</time>
      </trkpt>
      <trkpt lat="43.41671" lon="-6.28013">
        <ele>356.9</ele>
        <time>2016-07-07T12:03:21Z</time>
      </trkpt>
      <trkpt lat="43.4167" lon="-6.28026">
        <ele>358</ele>
        <time>2016-07-07T12:03:32Z</time>
      </trkpt>
      <trkpt lat="43.41672" lon="-6.2804">
        <ele>358.9</ele>
        <time>2016-07-07T12:03:43Z</time>
      </trkpt>
      <trkpt lat="43.41674" lon="-6.28052">
        <ele>359.8</ele>
        <time>2016-07-07T12:03:52Z</time>
      </trkpt>
      <trkpt lat="43.41675" lon="-6.28066">
        <ele>360.7</ele>
        <time>2016-07-07T12:04:01Z</time>
      </trkpt>
      <trkpt lat="43.41676" lon="-6.28079">
        <ele>362</ele>
        <time>2016-07-07T12:04:10Z</time>
      </trkpt>
      <trkpt lat="43.41679" lon="-6.28091">
        <ele>362.8</ele>
        <time>2016-07-07T12:04:19Z</time>
      </trkpt>
      <trkpt lat="43.41682" lon="-6.28103">
        <ele>363.2</ele>
        <time>2016-07-07T12:04:29Z</time>
      </trkpt>
      <trkpt lat="43.41685" lon="-6.28116">
        <ele>363.8</ele>
        <time>2016-07-07T12:04:37Z</time>
      </trkpt>
      <trkpt lat="43.41687" lon="-6.28128">
        <ele>365</ele>
        <time>2016-07-07T12:04:51Z</time>
      </trkpt>
      <trkpt lat="43.41687" lon="-6.28142">
        <ele>365.8</ele>
        <time>2016-07-07T12:05:10Z</time>
      </trkpt>
      <trkpt lat="43.41691" lon="-6.28154">
        <ele>366.2</ele>
        <time>2016-07-07T12:05:19Z</time>
      </trkpt>
      <trkpt lat="43.41697" lon="-6.28163">
        <ele>366.6</ele>
        <time>2016-07-07T12:05:27Z</time>
      </trkpt>
      <trkpt lat="43.41697" lon="-6.28175">
        <ele>367.5</ele>
        <time>2016-07-07T12:05:38Z</time>
      </trkpt>
      <trkpt lat="43.41699" lon="-6.28188">
        <ele>368.2</ele>
        <time>2016-07-07T12:05:48Z</time>
      </trkpt>
      <trkpt lat="43.41701" lon="-6.28201">
        <ele>368.8</ele>
        <time>2016-07-07T12:05:56Z</time>
      </trkpt>
      <trkpt lat="43.41702" lon="-6.28213">
        <ele>369.7</ele>
        <time>2016-07-07T12:06:06Z</time>
      </trkpt>
      <trkpt lat="43.41702" lon="-6.28227">
        <ele>370.5</ele>
        <time>2016-07-07T12:06:16Z</time>
      </trkpt>
      <trkpt lat="43.417" lon="-6.28239">
        <ele>370.9</ele>
        <time>2016-07-07T12:06:24Z</time>
      </trkpt>
      <trkpt lat="43.41703" lon="-6.28252">
        <ele>372</ele>
        <time>2016-07-07T12:06:34Z</time>
      </trkpt>
      <trkpt lat="43.41705" lon="-6.28266">
        <ele>373.5</ele>
        <time>2016-07-07T12:06:46Z</time>
      </trkpt>
      <trkpt lat="43.41707" lon="-6.28279">
        <ele>374.3</ele>
        <time>2016-07-07T12:06:55Z</time>
      </trkpt>
      <trkpt lat="43.41703" lon="-6.28291">
        <ele>374.9</ele>
        <time>2016-07-07T12:07:03Z</time>
      </trkpt>
      <trkpt lat="43.41697" lon="-6.28301">
        <ele>375.4</ele>
        <time>2016-07-07T12:07:10Z</time>
      </trkpt>
      <trkpt lat="43.41691" lon="-6.28311">
        <ele>376.1</ele>
        <time>2016-07-07T12:07:18Z</time>
      </trkpt>
      <trkpt lat="43.41687" lon="-6.28322">
        <ele>377.3</ele>
        <time>2016-07-07T12:07:29Z</time>
      </trkpt>
      <trkpt lat="43.41679" lon="-6.2833">
        <ele>379</ele>
        <time>2016-07-07T12:07:53Z</time>
      </trkpt>
      <trkpt lat="43.41681" lon="-6.28344">
        <ele>379.1</ele>
        <time>2016-07-07T12:08:03Z</time>
      </trkpt>
      <trkpt lat="43.41681" lon="-6.28358">
        <ele>379.4</ele>
        <time>2016-07-07T12:08:12Z</time>
      </trkpt>
      <trkpt lat="43.41683" lon="-6.28371">
        <ele>380.2</ele>
        <time>2016-07-07T12:08:22Z</time>
      </trkpt>
      <trkpt lat="43.41685" lon="-6.28383">
        <ele>380.9</ele>
        <time>2016-07-07T12:08:30Z</time>
      </trkpt>
      <trkpt lat="43.41687" lon="-6.28395">
        <ele>381.6</ele>
        <time>2016-07-07T12:08:38Z</time>
      </trkpt>
      <trkpt lat="43.41685" lon="-6.28407">
        <ele>382.5</ele>
        <time>2016-07-07T12:08:47Z</time>
      </trkpt>
      <trkpt lat="43.41688" lon="-6.28419">
        <ele>383.2</ele>
        <time>2016-07-07T12:08:55Z</time>
      </trkpt>
      <trkpt lat="43.41686" lon="-6.28433">
        <ele>383.8</ele>
        <time>2016-07-07T12:09:04Z</time>
      </trkpt>
      <trkpt lat="43.41684" lon="-6.28445">
        <ele>384.3</ele>
        <time>2016-07-07T12:09:12Z</time>
      </trkpt>
      <trkpt lat="43.41682" lon="-6.28459">
        <ele>385</ele>
        <time>2016-07-07T12:09:22Z</time>
      </trkpt>
      <trkpt lat="43.41678" lon="-6.2847">
        <ele>386</ele>
        <time>2016-07-07T12:09:33Z</time>
      </trkpt>
      <trkpt lat="43.41677" lon="-6.28483">
        <ele>386.9</ele>
        <time>2016-07-07T12:09:42Z</time>
      </trkpt>
      <trkpt lat="43.41674" lon="-6.28495">
        <ele>387.3</ele>
        <time>2016-07-07T12:09:50Z</time>
      </trkpt>
      <trkpt lat="43.41675" lon="-6.28509">
        <ele>388.1</ele>
        <time>2016-07-07T12:10:00Z</time>
      </trkpt>
      <trkpt lat="43.41676" lon="-6.28522">
        <ele>389.1</ele>
        <time>2016-07-07T12:10:09Z</time>
      </trkpt>
      <trkpt lat="43.41676" lon="-6.28535">
        <ele>390</ele>
        <time>2016-07-07T12:10:16Z</time>
      </trkpt>
      <trkpt lat="43.41677" lon="-6.28548">
        <ele>390.9</ele>
        <time>2016-07-07T12:10:25Z</time>
      </trkpt>
      <trkpt lat="43.41676" lon="-6.28562">
        <ele>391.7</ele>
        <time>2016-07-07T12:10:34Z</time>
      </trkpt>
      <trkpt lat="43.41676" lon="-6.28575">
        <ele>392.3</ele>
        <time>2016-07-07T12:10:44Z</time>
      </trkpt>
      <trkpt lat="43.41678" lon="-6.28589">
        <ele>393.2</ele>
        <time>2016-07-07T12:10:53Z</time>
      </trkpt>
      <trkpt lat="43.41679" lon="-6.28601">
        <ele>393.7</ele>
        <time>2016-07-07T12:11:00Z</time>
      </trkpt>
      <trkpt lat="43.41682" lon="-6.28613">
        <ele>394.7</ele>
        <time>2016-07-07T12:11:08Z</time>
      </trkpt>
      <trkpt lat="43.41683" lon="-6.28627">
        <ele>395.8</ele>
        <time>2016-07-07T12:11:17Z</time>
      </trkpt>
      <trkpt lat="43.41682" lon="-6.2864">
        <ele>396.7</ele>
        <time>2016-07-07T12:11:31Z</time>
      </trkpt>
      <trkpt lat="43.41681" lon="-6.28653">
        <ele>398.3</ele>
        <time>2016-07-07T12:12:01Z</time>
      </trkpt>
      <trkpt lat="43.41682" lon="-6.28666">
        <ele>398.6</ele>
        <time>2016-07-07T12:12:42Z</time>
      </trkpt>
      <trkpt lat="43.41682" lon="-6.28679">
        <ele>398.7</ele>
        <time>2016-07-07T12:12:51Z</time>
      </trkpt>
      <trkpt lat="43.41682" lon="-6.28692">
        <ele>399.1</ele>
        <time>2016-07-07T12:13:00Z</time>
      </trkpt>
      <trkpt lat="43.41683" lon="-6.28705">
        <ele>400</ele>
        <time>2016-07-07T12:13:10Z</time>
      </trkpt>
      <trkpt lat="43.41683" lon="-6.28718">
        <ele>400.8</ele>
        <time>2016-07-07T12:13:21Z</time>
      </trkpt>
      <trkpt lat="43.41685" lon="-6.28731">
        <ele>401.4</ele>
        <time>2016-07-07T12:13:30Z</time>
      </trkpt>
      <trkpt lat="43.41687" lon="-6.28744">
        <ele>402.2</ele>
        <time>2016-07-07T12:13:38Z</time>
      </trkpt>
      <trkpt lat="43.41692" lon="-6.28755">
        <ele>403.3</ele>
        <time>2016-07-07T12:13:45Z</time>
      </trkpt>
      <trkpt lat="43.41696" lon="-6.28767">
        <ele>404.1</ele>
        <time>2016-07-07T12:13:53Z</time>
      </trkpt>
      <trkpt lat="43.41699" lon="-6.28779">
        <ele>405.1</ele>
        <time>2016-07-07T12:14:02Z</time>
      </trkpt>
      <trkpt lat="43.417" lon="-6.28792">
        <ele>406.3</ele>
        <time>2016-07-07T12:14:13Z</time>
      </trkpt>
      <trkpt lat="43.41701" lon="-6.28804">
        <ele>407.1</ele>
        <time>2016-07-07T12:14:24Z</time>
      </trkpt>
      <trkpt lat="43.41704" lon="-6.28817">
        <ele>407.9</ele>
        <time>2016-07-07T12:14:33Z</time>
      </trkpt>
      <trkpt lat="43.41707" lon="-6.2883">
        <ele>408.7</ele>
        <time>2016-07-07T12:14:44Z</time>
      </trkpt>
      <trkpt lat="43.4171" lon="-6.28842">
        <ele>410.1</ele>
        <time>2016-07-07T12:14:59Z</time>
      </trkpt>
      <trkpt lat="43.41711" lon="-6.28855">
        <ele>410.6</ele>
        <time>2016-07-07T12:15:15Z</time>
      </trkpt>
      <trkpt lat="43.41714" lon="-6.28867">
        <ele>411.2</ele>
        <time>2016-07-07T12:15:28Z</time>
      </trkpt>
      <trkpt lat="43.41712" lon="-6.28879">
        <ele>412</ele>
        <time>2016-07-07T12:15:40Z</time>
      </trkpt>
      <trkpt lat="43.41712" lon="-6.28893">
        <ele>413</ele>
        <time>2016-07-07T12:15:54Z</time>
      </trkpt>
      <trkpt lat="43.41712" lon="-6.28906">
        <ele>413.5</ele>
        <time>2016-07-07T12:16:03Z</time>
      </trkpt>
      <trkpt lat="43.41715" lon="-6.28919">
        <ele>414</ele>
        <time>2016-07-07T12:16:12Z</time>
      </trkpt>
      <trkpt lat="43.41716" lon="-6.28933">
        <ele>414.4</ele>
        <time>2016-07-07T12:16:22Z</time>
      </trkpt>
      <trkpt lat="43.41716" lon="-6.28945">
        <ele>415.5</ele>
        <time>2016-07-07T12:16:35Z</time>
      </trkpt>
      <trkpt lat="43.41717" lon="-6.28958">
        <ele>416.2</ele>
        <time>2016-07-07T12:16:43Z</time>
      </trkpt>
      <trkpt lat="43.41715" lon="-6.28971">
        <ele>417.3</ele>
        <time>2016-07-07T12:16:53Z</time>
      </trkpt>
      <trkpt lat="43.41713" lon="-6.28983">
        <ele>418.8</ele>
        <time>2016-07-07T12:17:04Z</time>
      </trkpt>
      <trkpt lat="43.41709" lon="-6.28994">
        <ele>420.6</ele>
        <time>2016-07-07T12:17:31Z</time>
      </trkpt>
      <trkpt lat="43.41709" lon="-6.29007">
        <ele>420.9</ele>
        <time>2016-07-07T12:17:47Z</time>
      </trkpt>
      <trkpt lat="43.41707" lon="-6.29019">
        <ele>421.9</ele>
        <time>2016-07-07T12:17:58Z</time>
      </trkpt>
      <trkpt lat="43.41705" lon="-6.29032">
        <ele>422.6</ele>
        <time>2016-07-07T12:18:09Z</time>
      </trkpt>
      <trkpt lat="43.41705" lon="-6.29044">
        <ele>423.6</ele>
        <time>2016-07-07T12:18:24Z</time>
      </trkpt>
      <trkpt lat="43.41701" lon="-6.29056">
        <ele>424</ele>
        <time>2016-07-07T12:18:34Z</time>
      </trkpt>
      <trkpt lat="43.41698" lon="-6.29068">
        <ele>424.3</ele>
        <time>2016-07-07T12:18:43Z</time>
      </trkpt>
      <trkpt lat="43.41696" lon="-6.2908">
        <ele>425.4</ele>
        <time>2016-07-07T12:18:54Z</time>
      </trkpt>
      <trkpt lat="43.41695" lon="-6.29093">
        <ele>426.2</ele>
        <time>2016-07-07T12:19:07Z</time>
      </trkpt>
      <trkpt lat="43.41692" lon="-6.29105">
        <ele>427</ele>
        <time>2016-07-07T12:19:17Z</time>
      </trkpt>
      <trkpt lat="43.41687" lon="-6.29116">
        <ele>427.9</ele>
        <time>2016-07-07T12:19:31Z</time>
      </trkpt>
      <trkpt lat="43.41687" lon="-6.29129">
        <ele>429.8</ele>
        <time>2016-07-07T12:19:52Z</time>
      </trkpt>
      <trkpt lat="43.41681" lon="-6.29139">
        <ele>430.5</ele>
        <time>2016-07-07T12:20:02Z</time>
      </trkpt>
      <trkpt lat="43.41674" lon="-6.29149">
        <ele>431.3</ele>
        <time>2016-07-07T12:20:13Z</time>
      </trkpt>
      <trkpt lat="43.41669" lon="-6.29161">
        <ele>432.3</ele>
        <time>2016-07-07T12:20:23Z</time>
      </trkpt>
      <trkpt lat="43.41666" lon="-6.29173">
        <ele>433</ele>
        <time>2016-07-07T12:20:31Z</time>
      </trkpt>
      <trkpt lat="43.41658" lon="-6.29181">
        <ele>435.1</ele>
        <time>2016-07-07T12:20:42Z</time>
      </trkpt>
      <trkpt lat="43.41663" lon="-6.29169">
        <ele>439.6</ele>
        <time>2016-07-07T12:21:22Z</time>
      </trkpt>
      <trkpt lat="43.41667" lon="-6.29158">
        <ele>441.9</ele>
        <time>2016-07-07T12:21:37Z</time>
      </trkpt>
      <trkpt lat="43.41662" lon="-6.29147">
        <ele>445.7</ele>
        <time>2016-07-07T12:22:22Z</time>
      </trkpt>
      <trkpt lat="43.41668" lon="-6.29136">
        <ele>446.3</ele>
        <time>2016-07-07T12:22:36Z</time>
      </trkpt>
      <trkpt lat="43.41663" lon="-6.29125">
        <ele>448.9</ele>
        <time>2016-07-07T12:22:59Z</time>
      </trkpt>
      <trkpt lat="43.4166" lon="-6.29114">
        <ele>451.4</ele>
        <time>2016-07-07T12:23:15Z</time>
      </trkpt>
      <trkpt lat="43.41655" lon="-6.29103">
        <ele>453.6</ele>
        <time>2016-07-07T12:23:29Z</time>
      </trkpt>
      <trkpt lat="43.4165" lon="-6.29093">
        <ele>454.8</ele>
        <time>2016-07-07T12:23:40Z</time>
      </trkpt>
      <trkpt lat="43.41646" lon="-6.29078">
        <ele>455</ele>
        <time>2016-07-07T12:23:49Z</time>
      </trkpt>
      <trkpt lat="43.41639" lon="-6.29087">
        <ele>455.7</ele>
        <time>2016-07-07T12:24:15Z</time>
      </trkpt>
      <trkpt lat="43.41636" lon="-6.29099">
        <ele>456.4</ele>
        <time>2016-07-07T12:24:29Z</time>
      </trkpt>
      <trkpt lat="43.41636" lon="-6.29113">
        <ele>460.2</ele>
        <time>2016-07-07T12:24:52Z</time>
      </trkpt>
      <trkpt lat="43.41632" lon="-6.29124">
        <ele>462.6</ele>
        <time>2016-07-07T12:25:04Z</time>
      </trkpt>
      <trkpt lat="43.41625" lon="-6.29133">
        <ele>465.2</ele>
        <time>2016-07-07T12:25:17Z</time>
      </trkpt>
      <trkpt lat="43.41618" lon="-6.29143">
        <ele>466.5</ele>
        <time>2016-07-07T12:25:26Z</time>
      </trkpt>
      <trkpt lat="43.41612" lon="-6.29152">
        <ele>468.2</ele>
        <time>2016-07-07T12:25:55Z</time>
      </trkpt>
      <trkpt lat="43.41604" lon="-6.29159">
        <ele>469.6</ele>
        <time>2016-07-07T12:26:12Z</time>
      </trkpt>
      <trkpt lat="43.41595" lon="-6.2916">
        <ele>471.5</ele>
        <time>2016-07-07T12:26:26Z</time>
      </trkpt>
      <trkpt lat="43.41586" lon="-6.29163">
        <ele>472.8</ele>
        <time>2016-07-07T12:26:37Z</time>
      </trkpt>
      <trkpt lat="43.41578" lon="-6.29171">
        <ele>473.5</ele>
        <time>2016-07-07T12:26:47Z</time>
      </trkpt>
      <trkpt lat="43.4157" lon="-6.29179">
        <ele>474.3</ele>
        <time>2016-07-07T12:26:57Z</time>
      </trkpt>
      <trkpt lat="43.41561" lon="-6.29176">
        <ele>475.9</ele>
        <time>2016-07-07T12:27:15Z</time>
      </trkpt>
      <trkpt lat="43.41553" lon="-6.29185">
        <ele>476</ele>
        <time>2016-07-07T12:27:27Z</time>
      </trkpt>
      <trkpt lat="43.41551" lon="-6.29197">
        <ele>476.3</ele>
        <time>2016-07-07T12:27:35Z</time>
      </trkpt>
      <trkpt lat="43.41549" lon="-6.29211">
        <ele>476.5</ele>
        <time>2016-07-07T12:27:43Z</time>
      </trkpt>
      <trkpt lat="43.41547" lon="-6.29224">
        <ele>476.7</ele>
        <time>2016-07-07T12:27:50Z</time>
      </trkpt>
      <trkpt lat="43.41545" lon="-6.29237">
        <ele>477.3</ele>
        <time>2016-07-07T12:27:58Z</time>
      </trkpt>
      <trkpt lat="43.41544" lon="-6.29251">
        <ele>477.6</ele>
        <time>2016-07-07T12:28:06Z</time>
      </trkpt>
      <trkpt lat="43.41542" lon="-6.29264">
        <ele>478.1</ele>
        <time>2016-07-07T12:28:14Z</time>
      </trkpt>
      <trkpt lat="43.41539" lon="-6.29278">
        <ele>478.6</ele>
        <time>2016-07-07T12:28:23Z</time>
      </trkpt>
      <trkpt lat="43.41537" lon="-6.29291">
        <ele>478.9</ele>
        <time>2016-07-07T12:28:31Z</time>
      </trkpt>
      <trkpt lat="43.41534" lon="-6.29304">
        <ele>479.1</ele>
        <time>2016-07-07T12:28:39Z</time>
      </trkpt>
      <trkpt lat="43.41532" lon="-6.29317">
        <ele>479.3</ele>
        <time>2016-07-07T12:28:46Z</time>
      </trkpt>
      <trkpt lat="43.41529" lon="-6.2933">
        <ele>479.6</ele>
        <time>2016-07-07T12:28:54Z</time>
      </trkpt>
      <trkpt lat="43.41527" lon="-6.29343">
        <ele>479.9</ele>
        <time>2016-07-07T12:29:02Z</time>
      </trkpt>
      <trkpt lat="43.41526" lon="-6.29355">
        <ele>480.3</ele>
        <time>2016-07-07T12:29:10Z</time>
      </trkpt>
      <trkpt lat="43.41524" lon="-6.29368">
        <ele>480.8</ele>
        <time>2016-07-07T12:29:19Z</time>
      </trkpt>
      <trkpt lat="43.41522" lon="-6.29382">
        <ele>481.1</ele>
        <time>2016-07-07T12:29:27Z</time>
      </trkpt>
      <trkpt lat="43.41518" lon="-6.29394">
        <ele>481.4</ele>
        <time>2016-07-07T12:29:35Z</time>
      </trkpt>
      <trkpt lat="43.41514" lon="-6.29406">
        <ele>481.6</ele>
        <time>2016-07-07T12:29:43Z</time>
      </trkpt>
      <trkpt lat="43.41511" lon="-6.29419">
        <ele>481.8</ele>
        <time>2016-07-07T12:29:51Z</time>
      </trkpt>
      <trkpt lat="43.41508" lon="-6.2943">
        <ele>482.5</ele>
        <time>2016-07-07T12:29:59Z</time>
      </trkpt>
      <trkpt lat="43.41504" lon="-6.29442">
        <ele>482.9</ele>
        <time>2016-07-07T12:30:08Z</time>
      </trkpt>
      <trkpt lat="43.415" lon="-6.29455">
        <ele>483.2</ele>
        <time>2016-07-07T12:30:16Z</time>
      </trkpt>
      <trkpt lat="43.41497" lon="-6.29467">
        <ele>483.5</ele>
        <time>2016-07-07T12:30:24Z</time>
      </trkpt>
      <trkpt lat="43.41492" lon="-6.29478">
        <ele>483.8</ele>
        <time>2016-07-07T12:30:32Z</time>
      </trkpt>
      <trkpt lat="43.41488" lon="-6.2949">
        <ele>484.1</ele>
        <time>2016-07-07T12:30:40Z</time>
      </trkpt>
      <trkpt lat="43.41484" lon="-6.29501">
        <ele>484.3</ele>
        <time>2016-07-07T12:30:48Z</time>
      </trkpt>
      <trkpt lat="43.4148" lon="-6.29513">
        <ele>484.5</ele>
        <time>2016-07-07T12:30:58Z</time>
      </trkpt>
      <trkpt lat="43.41478" lon="-6.29525">
        <ele>484.7</ele>
        <time>2016-07-07T12:31:10Z</time>
      </trkpt>
      <trkpt lat="43.41474" lon="-6.29538">
        <ele>484.7</ele>
        <time>2016-07-07T12:31:19Z</time>
      </trkpt>
      <trkpt lat="43.4147" lon="-6.2955">
        <ele>484.7</ele>
        <time>2016-07-07T12:31:28Z</time>
      </trkpt>
      <trkpt lat="43.41464" lon="-6.2956">
        <ele>484.7</ele>
        <time>2016-07-07T12:31:36Z</time>
      </trkpt>
      <trkpt lat="43.41459" lon="-6.2957">
        <ele>484.7</ele>
        <time>2016-07-07T12:31:44Z</time>
      </trkpt>
      <trkpt lat="43.41454" lon="-6.29581">
        <ele>484.7</ele>
        <time>2016-07-07T12:31:52Z</time>
      </trkpt>
      <trkpt lat="43.41449" lon="-6.29593">
        <ele>484.8</ele>
        <time>2016-07-07T12:32:02Z</time>
      </trkpt>
      <trkpt lat="43.41444" lon="-6.29604">
        <ele>484.9</ele>
        <time>2016-07-07T12:32:10Z</time>
      </trkpt>
      <trkpt lat="43.41441" lon="-6.29616">
        <ele>484.9</ele>
        <time>2016-07-07T12:32:20Z</time>
      </trkpt>
      <trkpt lat="43.41436" lon="-6.29628">
        <ele>485.4</ele>
        <time>2016-07-07T12:32:29Z</time>
      </trkpt>
      <trkpt lat="43.4143" lon="-6.29637">
        <ele>485.1</ele>
        <time>2016-07-07T12:32:37Z</time>
      </trkpt>
      <trkpt lat="43.41423" lon="-6.29646">
        <ele>485.1</ele>
        <time>2016-07-07T12:32:46Z</time>
      </trkpt>
      <trkpt lat="43.41417" lon="-6.29657">
        <ele>485.2</ele>
        <time>2016-07-07T12:32:55Z</time>
      </trkpt>
      <trkpt lat="43.4141" lon="-6.29666">
        <ele>485.3</ele>
        <time>2016-07-07T12:33:04Z</time>
      </trkpt>
      <trkpt lat="43.41403" lon="-6.29676">
        <ele>485.5</ele>
        <time>2016-07-07T12:33:14Z</time>
      </trkpt>
      <trkpt lat="43.41394" lon="-6.29683">
        <ele>485.6</ele>
        <time>2016-07-07T12:33:22Z</time>
      </trkpt>
      <trkpt lat="43.41386" lon="-6.29689">
        <ele>485.8</ele>
        <time>2016-07-07T12:33:30Z</time>
      </trkpt>
      <trkpt lat="43.41378" lon="-6.29696">
        <ele>485.8</ele>
        <time>2016-07-07T12:33:37Z</time>
      </trkpt>
      <trkpt lat="43.41371" lon="-6.29704">
        <ele>486.1</ele>
        <time>2016-07-07T12:33:45Z</time>
      </trkpt>
      <trkpt lat="43.41363" lon="-6.29713">
        <ele>485.9</ele>
        <time>2016-07-07T12:33:53Z</time>
      </trkpt>
      <trkpt lat="43.41355" lon="-6.29719">
        <ele>485.8</ele>
        <time>2016-07-07T12:34:00Z</time>
      </trkpt>
      <trkpt lat="43.41348" lon="-6.29728">
        <ele>486</ele>
        <time>2016-07-07T12:34:19Z</time>
      </trkpt>
      <trkpt lat="43.41341" lon="-6.29736">
        <ele>486.1</ele>
        <time>2016-07-07T12:34:26Z</time>
      </trkpt>
      <trkpt lat="43.41335" lon="-6.29746">
        <ele>486.3</ele>
        <time>2016-07-07T12:34:34Z</time>
      </trkpt>
      <trkpt lat="43.4133" lon="-6.29758">
        <ele>486.5</ele>
        <time>2016-07-07T12:34:43Z</time>
      </trkpt>
      <trkpt lat="43.4133" lon="-6.2977">
        <ele>486.6</ele>
        <time>2016-07-07T12:34:52Z</time>
      </trkpt>
      <trkpt lat="43.41334" lon="-6.29782">
        <ele>486.7</ele>
        <time>2016-07-07T12:35:01Z</time>
      </trkpt>
      <trkpt lat="43.41342" lon="-6.29788">
        <ele>487</ele>
        <time>2016-07-07T12:35:15Z</time>
      </trkpt>
      <trkpt lat="43.4135" lon="-6.29795">
        <ele>487.3</ele>
        <time>2016-07-07T12:35:29Z</time>
      </trkpt>
      <trkpt lat="43.41358" lon="-6.29799">
        <ele>488.1</ele>
        <time>2016-07-07T12:35:42Z</time>
      </trkpt>
      <trkpt lat="43.41367" lon="-6.29796">
        <ele>488.3</ele>
        <time>2016-07-07T12:35:49Z</time>
      </trkpt>
      <trkpt lat="43.41376" lon="-6.29792">
        <ele>488.5</ele>
        <time>2016-07-07T12:35:58Z</time>
      </trkpt>
      <trkpt lat="43.41385" lon="-6.29795">
        <ele>488.7</ele>
        <time>2016-07-07T12:36:08Z</time>
      </trkpt>
      <trkpt lat="43.41396" lon="-6.29795">
        <ele>488.7</ele>
        <time>2016-07-07T12:36:15Z</time>
      </trkpt>
      <trkpt lat="43.41406" lon="-6.29795">
        <ele>488.8</ele>
        <time>2016-07-07T12:36:22Z</time>
      </trkpt>
      <trkpt lat="43.41416" lon="-6.29795">
        <ele>489.1</ele>
        <time>2016-07-07T12:36:28Z</time>
      </trkpt>
      <trkpt lat="43.41426" lon="-6.29795">
        <ele>489.6</ele>
        <time>2016-07-07T12:36:35Z</time>
      </trkpt>
      <trkpt lat="43.41436" lon="-6.29794">
        <ele>490.3</ele>
        <time>2016-07-07T12:36:43Z</time>
      </trkpt>
      <trkpt lat="43.41446" lon="-6.29795">
        <ele>491.1</ele>
        <time>2016-07-07T12:37:06Z</time>
      </trkpt>
      <trkpt lat="43.41454" lon="-6.29803">
        <ele>491.3</ele>
        <time>2016-07-07T12:37:17Z</time>
      </trkpt>
      <trkpt lat="43.41458" lon="-6.29814">
        <ele>491.7</ele>
        <time>2016-07-07T12:37:27Z</time>
      </trkpt>
      <trkpt lat="43.41462" lon="-6.29827">
        <ele>492</ele>
        <time>2016-07-07T12:37:37Z</time>
      </trkpt>
      <trkpt lat="43.41465" lon="-6.29839">
        <ele>492.8</ele>
        <time>2016-07-07T12:37:47Z</time>
      </trkpt>
      <trkpt lat="43.41462" lon="-6.29852">
        <ele>493.4</ele>
        <time>2016-07-07T12:37:59Z</time>
      </trkpt>
      <trkpt lat="43.41465" lon="-6.29865">
        <ele>493.8</ele>
        <time>2016-07-07T12:38:08Z</time>
      </trkpt>
      <trkpt lat="43.41469" lon="-6.29876">
        <ele>494.2</ele>
        <time>2016-07-07T12:38:18Z</time>
      </trkpt>
      <trkpt lat="43.41471" lon="-6.29888">
        <ele>494.9</ele>
        <time>2016-07-07T12:38:30Z</time>
      </trkpt>
      <trkpt lat="43.41475" lon="-6.29901">
        <ele>495.3</ele>
        <time>2016-07-07T12:38:39Z</time>
      </trkpt>
      <trkpt lat="43.41476" lon="-6.29914">
        <ele>495.8</ele>
        <time>2016-07-07T12:38:47Z</time>
      </trkpt>
      <trkpt lat="43.41478" lon="-6.29927">
        <ele>496.9</ele>
        <time>2016-07-07T12:38:55Z</time>
      </trkpt>
      <trkpt lat="43.4148" lon="-6.2994">
        <ele>497.5</ele>
        <time>2016-07-07T12:39:04Z</time>
      </trkpt>
      <trkpt lat="43.41482" lon="-6.29952">
        <ele>498.9</ele>
        <time>2016-07-07T12:39:18Z</time>
      </trkpt>
      <trkpt lat="43.4148" lon="-6.29965">
        <ele>500</ele>
        <time>2016-07-07T12:40:05Z</time>
      </trkpt>
      <trkpt lat="43.41479" lon="-6.29978">
        <ele>500.9</ele>
        <time>2016-07-07T12:40:16Z</time>
      </trkpt>
      <trkpt lat="43.41481" lon="-6.29991">
        <ele>501.8</ele>
        <time>2016-07-07T12:40:24Z</time>
      </trkpt>
      <trkpt lat="43.41484" lon="-6.30004">
        <ele>503</ele>
        <time>2016-07-07T12:40:33Z</time>
      </trkpt>
      <trkpt lat="43.41487" lon="-6.30016">
        <ele>504.2</ele>
        <time>2016-07-07T12:40:41Z</time>
      </trkpt>
      <trkpt lat="43.41492" lon="-6.30026">
        <ele>505.6</ele>
        <time>2016-07-07T12:40:51Z</time>
      </trkpt>
      <trkpt lat="43.41499" lon="-6.30035">
        <ele>507.1</ele>
        <time>2016-07-07T12:41:01Z</time>
      </trkpt>
      <trkpt lat="43.41503" lon="-6.30047">
        <ele>507.9</ele>
        <time>2016-07-07T12:41:10Z</time>
      </trkpt>
      <trkpt lat="43.41509" lon="-6.30057">
        <ele>508.4</ele>
        <time>2016-07-07T12:41:20Z</time>
      </trkpt>
      <trkpt lat="43.41518" lon="-6.30062">
        <ele>508.9</ele>
        <time>2016-07-07T12:41:31Z</time>
      </trkpt>
      <trkpt lat="43.41527" lon="-6.30065">
        <ele>509.4</ele>
        <time>2016-07-07T12:41:42Z</time>
      </trkpt>
      <trkpt lat="43.41536" lon="-6.30068">
        <ele>510.5</ele>
        <time>2016-07-07T12:41:53Z</time>
      </trkpt>
      <trkpt lat="43.41545" lon="-6.30069">
        <ele>511</ele>
        <time>2016-07-07T12:42:02Z</time>
      </trkpt>
      <trkpt lat="43.41555" lon="-6.30071">
        <ele>511.4</ele>
        <time>2016-07-07T12:42:14Z</time>
      </trkpt>
      <trkpt lat="43.41563" lon="-6.30074">
        <ele>511.2</ele>
        <time>2016-07-07T12:42:28Z</time>
      </trkpt>
      <trkpt lat="43.41571" lon="-6.3008">
        <ele>510.4</ele>
        <time>2016-07-07T12:42:53Z</time>
      </trkpt>
      <trkpt lat="43.41576" lon="-6.30092">
        <ele>510.3</ele>
        <time>2016-07-07T12:43:05Z</time>
      </trkpt>
      <trkpt lat="43.41578" lon="-6.30105">
        <ele>510.2</ele>
        <time>2016-07-07T12:43:15Z</time>
      </trkpt>
      <trkpt lat="43.41578" lon="-6.30118">
        <ele>509.9</ele>
        <time>2016-07-07T12:43:24Z</time>
      </trkpt>
      <trkpt lat="43.41577" lon="-6.30131">
        <ele>509.8</ele>
        <time>2016-07-07T12:43:33Z</time>
      </trkpt>
      <trkpt lat="43.41577" lon="-6.30145">
        <ele>509.8</ele>
        <time>2016-07-07T12:43:46Z</time>
      </trkpt>
      <trkpt lat="43.41577" lon="-6.30159">
        <ele>509.8</ele>
        <time>2016-07-07T12:43:58Z</time>
      </trkpt>
      <trkpt lat="43.41578" lon="-6.30172">
        <ele>509.9</ele>
        <time>2016-07-07T12:44:07Z</time>
      </trkpt>
      <trkpt lat="43.41578" lon="-6.30185">
        <ele>510.2</ele>
        <time>2016-07-07T12:44:17Z</time>
      </trkpt>
      <trkpt lat="43.41577" lon="-6.30198">
        <ele>512.1</ele>
        <time>2016-07-07T12:44:32Z</time>
      </trkpt>
      <trkpt lat="43.41575" lon="-6.30211">
        <ele>515.2</ele>
        <time>2016-07-07T12:44:49Z</time>
      </trkpt>
      <trkpt lat="43.41575" lon="-6.30223">
        <ele>518.4</ele>
        <time>2016-07-07T12:45:08Z</time>
      </trkpt>
      <trkpt lat="43.4157" lon="-6.30234">
        <ele>519.7</ele>
        <time>2016-07-07T12:45:18Z</time>
      </trkpt>
      <trkpt lat="43.41566" lon="-6.30246">
        <ele>521</ele>
        <time>2016-07-07T12:45:36Z</time>
      </trkpt>
      <trkpt lat="43.41568" lon="-6.30259">
        <ele>522.7</ele>
        <time>2016-07-07T12:46:02Z</time>
      </trkpt>
      <trkpt lat="43.4156" lon="-6.30251">
        <ele>523</ele>
        <time>2016-07-07T12:47:11Z</time>
      </trkpt>
      <trkpt lat="43.41553" lon="-6.30242">
        <ele>523.6</ele>
        <time>2016-07-07T12:47:22Z</time>
      </trkpt>
      <trkpt lat="43.41551" lon="-6.30229">
        <ele>525.1</ele>
        <time>2016-07-07T12:47:32Z</time>
      </trkpt>
      <trkpt lat="43.41543" lon="-6.30234">
        <ele>527</ele>
        <time>2016-07-07T12:47:47Z</time>
      </trkpt>
      <trkpt lat="43.41541" lon="-6.30247">
        <ele>528.6</ele>
        <time>2016-07-07T12:48:00Z</time>
      </trkpt>
      <trkpt lat="43.41537" lon="-6.30258">
        <ele>529.6</ele>
        <time>2016-07-07T12:48:08Z</time>
      </trkpt>
      <trkpt lat="43.41534" lon="-6.30271">
        <ele>531</ele>
        <time>2016-07-07T12:48:26Z</time>
      </trkpt>
      <trkpt lat="43.4153" lon="-6.30284">
        <ele>531.4</ele>
        <time>2016-07-07T12:48:35Z</time>
      </trkpt>
      <trkpt lat="43.41528" lon="-6.30296">
        <ele>531.7</ele>
        <time>2016-07-07T12:48:43Z</time>
      </trkpt>
      <trkpt lat="43.41527" lon="-6.30309">
        <ele>532.6</ele>
        <time>2016-07-07T12:48:51Z</time>
      </trkpt>
      <trkpt lat="43.41528" lon="-6.30322">
        <ele>533.5</ele>
        <time>2016-07-07T12:49:00Z</time>
      </trkpt>
      <trkpt lat="43.4153" lon="-6.30334">
        <ele>533.8</ele>
        <time>2016-07-07T12:49:08Z</time>
      </trkpt>
      <trkpt lat="43.41534" lon="-6.30347">
        <ele>534.1</ele>
        <time>2016-07-07T12:49:16Z</time>
      </trkpt>
      <trkpt lat="43.41536" lon="-6.3036">
        <ele>534.3</ele>
        <time>2016-07-07T12:49:24Z</time>
      </trkpt>
      <trkpt lat="43.41535" lon="-6.30373">
        <ele>534.4</ele>
        <time>2016-07-07T12:49:32Z</time>
      </trkpt>
      <trkpt lat="43.41531" lon="-6.30385">
        <ele>534.8</ele>
        <time>2016-07-07T12:49:44Z</time>
      </trkpt>
      <trkpt lat="43.41526" lon="-6.30397">
        <ele>535.1</ele>
        <time>2016-07-07T12:49:53Z</time>
      </trkpt>
      <trkpt lat="43.41519" lon="-6.30407">
        <ele>535.2</ele>
        <time>2016-07-07T12:50:01Z</time>
      </trkpt>
      <trkpt lat="43.41514" lon="-6.30418">
        <ele>536</ele>
        <time>2016-07-07T12:50:11Z</time>
      </trkpt>
      <trkpt lat="43.41511" lon="-6.3043">
        <ele>536.8</ele>
        <time>2016-07-07T12:50:20Z</time>
      </trkpt>
      <trkpt lat="43.41508" lon="-6.30443">
        <ele>537.7</ele>
        <time>2016-07-07T12:50:30Z</time>
      </trkpt>
      <trkpt lat="43.41504" lon="-6.30455">
        <ele>539.1</ele>
        <time>2016-07-07T12:50:41Z</time>
      </trkpt>
      <trkpt lat="43.41502" lon="-6.30467">
        <ele>540.8</ele>
        <time>2016-07-07T12:50:51Z</time>
      </trkpt>
      <trkpt lat="43.41498" lon="-6.30479">
        <ele>542.1</ele>
        <time>2016-07-07T12:51:02Z</time>
      </trkpt>
      <trkpt lat="43.41495" lon="-6.30491">
        <ele>543.8</ele>
        <time>2016-07-07T12:51:12Z</time>
      </trkpt>
      <trkpt lat="43.41491" lon="-6.30504">
        <ele>545.9</ele>
        <time>2016-07-07T12:51:23Z</time>
      </trkpt>
      <trkpt lat="43.41486" lon="-6.30514">
        <ele>549.5</ele>
        <time>2016-07-07T12:51:54Z</time>
      </trkpt>
      <trkpt lat="43.41485" lon="-6.30527">
        <ele>550.1</ele>
        <time>2016-07-07T12:52:05Z</time>
      </trkpt>
      <trkpt lat="43.41483" lon="-6.3054">
        <ele>551.3</ele>
        <time>2016-07-07T12:52:17Z</time>
      </trkpt>
      <trkpt lat="43.41479" lon="-6.30552">
        <ele>553.1</ele>
        <time>2016-07-07T12:52:28Z</time>
      </trkpt>
      <trkpt lat="43.41476" lon="-6.30564">
        <ele>554.3</ele>
        <time>2016-07-07T12:52:38Z</time>
      </trkpt>
      <trkpt lat="43.41472" lon="-6.30576">
        <ele>555.7</ele>
        <time>2016-07-07T12:52:48Z</time>
      </trkpt>
      <trkpt lat="43.41469" lon="-6.30587">
        <ele>556.8</ele>
        <time>2016-07-07T12:52:57Z</time>
      </trkpt>
      <trkpt lat="43.41465" lon="-6.30599">
        <ele>558.1</ele>
        <time>2016-07-07T12:53:07Z</time>
      </trkpt>
      <trkpt lat="43.41459" lon="-6.30611">
        <ele>559.2</ele>
        <time>2016-07-07T12:53:17Z</time>
      </trkpt>
      <trkpt lat="43.41453" lon="-6.30621">
        <ele>560.2</ele>
        <time>2016-07-07T12:53:27Z</time>
      </trkpt>
      <trkpt lat="43.41446" lon="-6.30629">
        <ele>561.6</ele>
        <time>2016-07-07T12:53:36Z</time>
      </trkpt>
      <trkpt lat="43.41441" lon="-6.30639">
        <ele>563.1</ele>
        <time>2016-07-07T12:53:55Z</time>
      </trkpt>
      <trkpt lat="43.41433" lon="-6.30644">
        <ele>563.9</ele>
        <time>2016-07-07T12:54:19Z</time>
      </trkpt>
      <trkpt lat="43.41424" lon="-6.30645">
        <ele>564.2</ele>
        <time>2016-07-07T12:54:28Z</time>
      </trkpt>
      <trkpt lat="43.41414" lon="-6.30645">
        <ele>564.7</ele>
        <time>2016-07-07T12:54:37Z</time>
      </trkpt>
      <trkpt lat="43.41405" lon="-6.30645">
        <ele>565.2</ele>
        <time>2016-07-07T12:54:47Z</time>
      </trkpt>
      <trkpt lat="43.41396" lon="-6.30649">
        <ele>565.7</ele>
        <time>2016-07-07T12:54:56Z</time>
      </trkpt>
      <trkpt lat="43.41386" lon="-6.30653">
        <ele>566.4</ele>
        <time>2016-07-07T12:55:05Z</time>
      </trkpt>
      <trkpt lat="43.41378" lon="-6.30658">
        <ele>567.6</ele>
        <time>2016-07-07T12:55:19Z</time>
      </trkpt>
      <trkpt lat="43.41369" lon="-6.30664">
        <ele>567.9</ele>
        <time>2016-07-07T12:55:28Z</time>
      </trkpt>
      <trkpt lat="43.41362" lon="-6.30672">
        <ele>568.5</ele>
        <time>2016-07-07T12:55:37Z</time>
      </trkpt>
      <trkpt lat="43.41354" lon="-6.30681">
        <ele>569.6</ele>
        <time>2016-07-07T12:55:47Z</time>
      </trkpt>
      <trkpt lat="43.41347" lon="-6.30688">
        <ele>570.8</ele>
        <time>2016-07-07T12:55:56Z</time>
      </trkpt>
      <trkpt lat="43.4134" lon="-6.30696">
        <ele>572.1</ele>
        <time>2016-07-07T12:56:07Z</time>
      </trkpt>
      <trkpt lat="43.41332" lon="-6.30703">
        <ele>573.4</ele>
        <time>2016-07-07T12:56:17Z</time>
      </trkpt>
      <trkpt lat="43.41323" lon="-6.30708">
        <ele>575</ele>
        <time>2016-07-07T12:56:27Z</time>
      </trkpt>
      <trkpt lat="43.41315" lon="-6.30715">
        <ele>579.3</ele>
        <time>2016-07-07T12:57:24Z</time>
      </trkpt>
      <trkpt lat="43.41307" lon="-6.30722">
        <ele>579.6</ele>
        <time>2016-07-07T12:57:33Z</time>
      </trkpt>
      <trkpt lat="43.41298" lon="-6.30727">
        <ele>580.3</ele>
        <time>2016-07-07T12:57:42Z</time>
      </trkpt>
      <trkpt lat="43.4129" lon="-6.30733">
        <ele>581.1</ele>
        <time>2016-07-07T12:57:50Z</time>
      </trkpt>
      <trkpt lat="43.41281" lon="-6.30739">
        <ele>582.3</ele>
        <time>2016-07-07T12:57:59Z</time>
      </trkpt>
      <trkpt lat="43.41273" lon="-6.30744">
        <ele>583.9</ele>
        <time>2016-07-07T12:58:09Z</time>
      </trkpt>
      <trkpt lat="43.41266" lon="-6.30754">
        <ele>586.8</ele>
        <time>2016-07-07T12:59:06Z</time>
      </trkpt>
      <trkpt lat="43.41257" lon="-6.30757">
        <ele>587.1</ele>
        <time>2016-07-07T12:59:15Z</time>
      </trkpt>
      <trkpt lat="43.41248" lon="-6.30759">
        <ele>588.1</ele>
        <time>2016-07-07T12:59:25Z</time>
      </trkpt>
      <trkpt lat="43.41238" lon="-6.30762">
        <ele>589.1</ele>
        <time>2016-07-07T12:59:35Z</time>
      </trkpt>
      <trkpt lat="43.41229" lon="-6.30765">
        <ele>590.3</ele>
        <time>2016-07-07T12:59:44Z</time>
      </trkpt>
      <trkpt lat="43.41219" lon="-6.30768">
        <ele>591.7</ele>
        <time>2016-07-07T12:59:54Z</time>
      </trkpt>
      <trkpt lat="43.41211" lon="-6.30772">
        <ele>593.5</ele>
        <time>2016-07-07T13:00:03Z</time>
      </trkpt>
      <trkpt lat="43.41202" lon="-6.30776">
        <ele>595.3</ele>
        <time>2016-07-07T13:00:13Z</time>
      </trkpt>
      <trkpt lat="43.41192" lon="-6.30779">
        <ele>596.8</ele>
        <time>2016-07-07T13:00:23Z</time>
      </trkpt>
      <trkpt lat="43.41183" lon="-6.30781">
        <ele>598.2</ele>
        <time>2016-07-07T13:00:33Z</time>
      </trkpt>
      <trkpt lat="43.41174" lon="-6.30783">
        <ele>599.8</ele>
        <time>2016-07-07T13:00:52Z</time>
      </trkpt>
      <trkpt lat="43.41164" lon="-6.30783">
        <ele>600.6</ele>
        <time>2016-07-07T13:01:02Z</time>
      </trkpt>
      <trkpt lat="43.41155" lon="-6.30781">
        <ele>603.4</ele>
        <time>2016-07-07T13:01:47Z</time>
      </trkpt>
      <trkpt lat="43.41145" lon="-6.30779">
        <ele>604.3</ele>
        <time>2016-07-07T13:01:56Z</time>
      </trkpt>
      <trkpt lat="43.41136" lon="-6.30775">
        <ele>604.3</ele>
        <time>2016-07-07T13:02:05Z</time>
      </trkpt>
      <trkpt lat="43.41127" lon="-6.30773">
        <ele>604</ele>
        <time>2016-07-07T13:02:13Z</time>
      </trkpt>
      <trkpt lat="43.41117" lon="-6.30773">
        <ele>604</ele>
        <time>2016-07-07T13:02:22Z</time>
      </trkpt>
      <trkpt lat="43.41107" lon="-6.30774">
        <ele>604.6</ele>
        <time>2016-07-07T13:02:30Z</time>
      </trkpt>
      <trkpt lat="43.411" lon="-6.30783">
        <ele>605.5</ele>
        <time>2016-07-07T13:02:39Z</time>
      </trkpt>
      <trkpt lat="43.41099" lon="-6.30796">
        <ele>606.4</ele>
        <time>2016-07-07T13:02:48Z</time>
      </trkpt>
      <trkpt lat="43.41098" lon="-6.30808">
        <ele>607.3</ele>
        <time>2016-07-07T13:02:57Z</time>
      </trkpt>
      <trkpt lat="43.41096" lon="-6.30821">
        <ele>608</ele>
        <time>2016-07-07T13:03:05Z</time>
      </trkpt>
      <trkpt lat="43.41093" lon="-6.30834">
        <ele>608.8</ele>
        <time>2016-07-07T13:03:14Z</time>
      </trkpt>
      <trkpt lat="43.41093" lon="-6.30847">
        <ele>609.5</ele>
        <time>2016-07-07T13:03:23Z</time>
      </trkpt>
      <trkpt lat="43.4109" lon="-6.3086">
        <ele>610.3</ele>
        <time>2016-07-07T13:03:31Z</time>
      </trkpt>
      <trkpt lat="43.41088" lon="-6.30873">
        <ele>611.2</ele>
        <time>2016-07-07T13:03:40Z</time>
      </trkpt>
      <trkpt lat="43.41084" lon="-6.30885">
        <ele>612</ele>
        <time>2016-07-07T13:03:47Z</time>
      </trkpt>
      <trkpt lat="43.41082" lon="-6.30898">
        <ele>612.8</ele>
        <time>2016-07-07T13:03:55Z</time>
      </trkpt>
      <trkpt lat="43.4108" lon="-6.3091">
        <ele>614.5</ele>
        <time>2016-07-07T13:04:31Z</time>
      </trkpt>
      <trkpt lat="43.41075" lon="-6.30921">
        <ele>614.8</ele>
        <time>2016-07-07T13:05:05Z</time>
      </trkpt>
      <trkpt lat="43.41074" lon="-6.30934">
        <ele>615</ele>
        <time>2016-07-07T13:05:14Z</time>
      </trkpt>
      <trkpt lat="43.41074" lon="-6.30947">
        <ele>615.2</ele>
        <time>2016-07-07T13:05:23Z</time>
      </trkpt>
      <trkpt lat="43.41073" lon="-6.3096">
        <ele>616.2</ele>
        <time>2016-07-07T13:05:32Z</time>
      </trkpt>
      <trkpt lat="43.41072" lon="-6.30973">
        <ele>616.9</ele>
        <time>2016-07-07T13:05:40Z</time>
      </trkpt>
      <trkpt lat="43.4107" lon="-6.30986">
        <ele>617.7</ele>
        <time>2016-07-07T13:05:49Z</time>
      </trkpt>
      <trkpt lat="43.41067" lon="-6.30998">
        <ele>618.4</ele>
        <time>2016-07-07T13:05:57Z</time>
      </trkpt>
      <trkpt lat="43.41063" lon="-6.3101">
        <ele>618.9</ele>
        <time>2016-07-07T13:06:05Z</time>
      </trkpt>
      <trkpt lat="43.41059" lon="-6.31021">
        <ele>619.9</ele>
        <time>2016-07-07T13:06:14Z</time>
      </trkpt>
      <trkpt lat="43.41054" lon="-6.31033">
        <ele>620.6</ele>
        <time>2016-07-07T13:06:23Z</time>
      </trkpt>
      <trkpt lat="43.41049" lon="-6.31043">
        <ele>621.4</ele>
        <time>2016-07-07T13:06:31Z</time>
      </trkpt>
      <trkpt lat="43.41044" lon="-6.31054">
        <ele>622.2</ele>
        <time>2016-07-07T13:06:39Z</time>
      </trkpt>
      <trkpt lat="43.41037" lon="-6.31064">
        <ele>623.4</ele>
        <time>2016-07-07T13:06:48Z</time>
      </trkpt>
      <trkpt lat="43.4103" lon="-6.31073">
        <ele>625</ele>
        <time>2016-07-07T13:07:09Z</time>
      </trkpt>
      <trkpt lat="43.41023" lon="-6.31081">
        <ele>625.5</ele>
        <time>2016-07-07T13:07:18Z</time>
      </trkpt>
      <trkpt lat="43.41016" lon="-6.3109">
        <ele>625.9</ele>
        <time>2016-07-07T13:07:27Z</time>
      </trkpt>
      <trkpt lat="43.41009" lon="-6.31098">
        <ele>626.2</ele>
        <time>2016-07-07T13:07:36Z</time>
      </trkpt>
      <trkpt lat="43.41002" lon="-6.31107">
        <ele>626.5</ele>
        <time>2016-07-07T13:07:45Z</time>
      </trkpt>
      <trkpt lat="43.40996" lon="-6.31117">
        <ele>627.1</ele>
        <time>2016-07-07T13:07:54Z</time>
      </trkpt>
      <trkpt lat="43.40991" lon="-6.31127">
        <ele>627.9</ele>
        <time>2016-07-07T13:08:03Z</time>
      </trkpt>
      <trkpt lat="43.40985" lon="-6.31137">
        <ele>628.8</ele>
        <time>2016-07-07T13:08:13Z</time>
      </trkpt>
      <trkpt lat="43.4098" lon="-6.31148">
        <ele>629.5</ele>
        <time>2016-07-07T13:08:25Z</time>
      </trkpt>
      <trkpt lat="43.40976" lon="-6.31159">
        <ele>630.6</ele>
        <time>2016-07-07T13:08:34Z</time>
      </trkpt>
      <trkpt lat="43.40971" lon="-6.3117">
        <ele>631.7</ele>
        <time>2016-07-07T13:08:42Z</time>
      </trkpt>
      <trkpt lat="43.40965" lon="-6.31182">
        <ele>632.5</ele>
        <time>2016-07-07T13:08:50Z</time>
      </trkpt>
      <trkpt lat="43.4096" lon="-6.31193">
        <ele>633.2</ele>
        <time>2016-07-07T13:08:59Z</time>
      </trkpt>
      <trkpt lat="43.40955" lon="-6.31204">
        <ele>634</ele>
        <time>2016-07-07T13:09:08Z</time>
      </trkpt>
      <trkpt lat="43.40948" lon="-6.31214">
        <ele>634.4</ele>
        <time>2016-07-07T13:09:16Z</time>
      </trkpt>
      <trkpt lat="43.40941" lon="-6.31222">
        <ele>635.2</ele>
        <time>2016-07-07T13:09:25Z</time>
      </trkpt>
      <trkpt lat="43.40934" lon="-6.31232">
        <ele>636.1</ele>
        <time>2016-07-07T13:09:34Z</time>
      </trkpt>
      <trkpt lat="43.40926" lon="-6.31237">
        <ele>636.7</ele>
        <time>2016-07-07T13:09:43Z</time>
      </trkpt>
      <trkpt lat="43.40917" lon="-6.31244">
        <ele>637</ele>
        <time>2016-07-07T13:09:51Z</time>
      </trkpt>
      <trkpt lat="43.40908" lon="-6.31249">
        <ele>637.4</ele>
        <time>2016-07-07T13:09:59Z</time>
      </trkpt>
      <trkpt lat="43.409" lon="-6.31254">
        <ele>638</ele>
        <time>2016-07-07T13:10:07Z</time>
      </trkpt>
      <trkpt lat="43.40891" lon="-6.31259">
        <ele>638.8</ele>
        <time>2016-07-07T13:10:16Z</time>
      </trkpt>
      <trkpt lat="43.40882" lon="-6.31264">
        <ele>639.3</ele>
        <time>2016-07-07T13:10:26Z</time>
      </trkpt>
      <trkpt lat="43.40873" lon="-6.31265">
        <ele>640.1</ele>
        <time>2016-07-07T13:10:36Z</time>
      </trkpt>
      <trkpt lat="43.40865" lon="-6.31261">
        <ele>642.3</ele>
        <time>2016-07-07T13:11:47Z</time>
      </trkpt>
      <trkpt lat="43.40857" lon="-6.31254">
        <ele>641.6</ele>
        <time>2016-07-07T13:13:20Z</time>
      </trkpt>
      <trkpt lat="43.40853" lon="-6.31242">
        <ele>643.4</ele>
        <time>2016-07-07T13:13:39Z</time>
      </trkpt>
      <trkpt lat="43.40844" lon="-6.31244">
        <ele>647</ele>
        <time>2016-07-07T13:14:06Z</time>
      </trkpt>
      <trkpt lat="43.40836" lon="-6.31251">
        <ele>647.5</ele>
        <time>2016-07-07T13:14:14Z</time>
      </trkpt>
      <trkpt lat="43.40829" lon="-6.31259">
        <ele>648.4</ele>
        <time>2016-07-07T13:14:23Z</time>
      </trkpt>
      <trkpt lat="43.40821" lon="-6.31265">
        <ele>649.8</ele>
        <time>2016-07-07T13:14:35Z</time>
      </trkpt>
      <trkpt lat="43.40813" lon="-6.31274">
        <ele>650.8</ele>
        <time>2016-07-07T13:14:44Z</time>
      </trkpt>
      <trkpt lat="43.4081" lon="-6.31286">
        <ele>651.4</ele>
        <time>2016-07-07T13:14:52Z</time>
      </trkpt>
      <trkpt lat="43.40806" lon="-6.31299">
        <ele>651.7</ele>
        <time>2016-07-07T13:15:00Z</time>
      </trkpt>
      <trkpt lat="43.40803" lon="-6.31312">
        <ele>652.3</ele>
        <time>2016-07-07T13:15:09Z</time>
      </trkpt>
      <trkpt lat="43.408" lon="-6.31324">
        <ele>652.8</ele>
        <time>2016-07-07T13:15:17Z</time>
      </trkpt>
      <trkpt lat="43.408" lon="-6.31337">
        <ele>653.2</ele>
        <time>2016-07-07T13:15:28Z</time>
      </trkpt>
      <trkpt lat="43.40798" lon="-6.31349">
        <ele>653.1</ele>
        <time>2016-07-07T13:15:36Z</time>
      </trkpt>
      <trkpt lat="43.40794" lon="-6.31361">
        <ele>653</ele>
        <time>2016-07-07T13:15:43Z</time>
      </trkpt>
      <trkpt lat="43.40789" lon="-6.3137">
        <ele>652.9</ele>
        <time>2016-07-07T13:15:52Z</time>
      </trkpt>
      <trkpt lat="43.4078" lon="-6.31375">
        <ele>652.8</ele>
        <time>2016-07-07T13:16:02Z</time>
      </trkpt>
      <trkpt lat="43.40771" lon="-6.31382">
        <ele>652.8</ele>
        <time>2016-07-07T13:16:11Z</time>
      </trkpt>
      <trkpt lat="43.40762" lon="-6.31386">
        <ele>652.8</ele>
        <time>2016-07-07T13:16:20Z</time>
      </trkpt>
      <trkpt lat="43.40753" lon="-6.31391">
        <ele>652.9</ele>
        <time>2016-07-07T13:16:28Z</time>
      </trkpt>
      <trkpt lat="43.40744" lon="-6.31395">
        <ele>652.9</ele>
        <time>2016-07-07T13:16:36Z</time>
      </trkpt>
      <trkpt lat="43.40736" lon="-6.31399">
        <ele>653.2</ele>
        <time>2016-07-07T13:16:44Z</time>
      </trkpt>
      <trkpt lat="43.40728" lon="-6.31405">
        <ele>653.5</ele>
        <time>2016-07-07T13:16:52Z</time>
      </trkpt>
      <trkpt lat="43.4072" lon="-6.31411">
        <ele>653.6</ele>
        <time>2016-07-07T13:17:00Z</time>
      </trkpt>
      <trkpt lat="43.40711" lon="-6.31418">
        <ele>653.3</ele>
        <time>2016-07-07T13:17:08Z</time>
      </trkpt>
      <trkpt lat="43.40702" lon="-6.31424">
        <ele>653.1</ele>
        <time>2016-07-07T13:17:16Z</time>
      </trkpt>
      <trkpt lat="43.40693" lon="-6.3143">
        <ele>653</ele>
        <time>2016-07-07T13:17:25Z</time>
      </trkpt>
      <trkpt lat="43.40684" lon="-6.31433">
        <ele>652.7</ele>
        <time>2016-07-07T13:17:33Z</time>
      </trkpt>
      <trkpt lat="43.40675" lon="-6.31438">
        <ele>652.4</ele>
        <time>2016-07-07T13:17:41Z</time>
      </trkpt>
      <trkpt lat="43.40666" lon="-6.31443">
        <ele>652.3</ele>
        <time>2016-07-07T13:17:48Z</time>
      </trkpt>
      <trkpt lat="43.40657" lon="-6.31449">
        <ele>652.2</ele>
        <time>2016-07-07T13:17:57Z</time>
      </trkpt>
      <trkpt lat="43.40649" lon="-6.31455">
        <ele>652.2</ele>
        <time>2016-07-07T13:18:05Z</time>
      </trkpt>
      <trkpt lat="43.4064" lon="-6.31463">
        <ele>651.8</ele>
        <time>2016-07-07T13:18:13Z</time>
      </trkpt>
      <trkpt lat="43.40632" lon="-6.3147">
        <ele>651.3</ele>
        <time>2016-07-07T13:18:21Z</time>
      </trkpt>
      <trkpt lat="43.40623" lon="-6.31477">
        <ele>650.7</ele>
        <time>2016-07-07T13:18:29Z</time>
      </trkpt>
      <trkpt lat="43.40615" lon="-6.31482">
        <ele>650.4</ele>
        <time>2016-07-07T13:18:36Z</time>
      </trkpt>
      <trkpt lat="43.40605" lon="-6.31489">
        <ele>650.2</ele>
        <time>2016-07-07T13:18:44Z</time>
      </trkpt>
      <trkpt lat="43.40597" lon="-6.31497">
        <ele>650</ele>
        <time>2016-07-07T13:18:51Z</time>
      </trkpt>
      <trkpt lat="43.40589" lon="-6.31504">
        <ele>649.9</ele>
        <time>2016-07-07T13:19:02Z</time>
      </trkpt>
      <trkpt lat="43.40582" lon="-6.31514">
        <ele>649.6</ele>
        <time>2016-07-07T13:19:11Z</time>
      </trkpt>
      <trkpt lat="43.40575" lon="-6.31523">
        <ele>649.4</ele>
        <time>2016-07-07T13:19:23Z</time>
      </trkpt>
      <trkpt lat="43.40569" lon="-6.31531">
        <ele>649</ele>
        <time>2016-07-07T13:19:31Z</time>
      </trkpt>
      <trkpt lat="43.40562" lon="-6.31539">
        <ele>648.7</ele>
        <time>2016-07-07T13:19:39Z</time>
      </trkpt>
      <trkpt lat="43.40556" lon="-6.31548">
        <ele>648.3</ele>
        <time>2016-07-07T13:19:47Z</time>
      </trkpt>
      <trkpt lat="43.40549" lon="-6.31557">
        <ele>648</ele>
        <time>2016-07-07T13:19:55Z</time>
      </trkpt>
      <trkpt lat="43.40542" lon="-6.31565">
        <ele>647.7</ele>
        <time>2016-07-07T13:20:04Z</time>
      </trkpt>
      <trkpt lat="43.40535" lon="-6.31574">
        <ele>647.3</ele>
        <time>2016-07-07T13:20:12Z</time>
      </trkpt>
      <trkpt lat="43.40529" lon="-6.31583">
        <ele>646.8</ele>
        <time>2016-07-07T13:20:20Z</time>
      </trkpt>
      <trkpt lat="43.40522" lon="-6.31592">
        <ele>646.2</ele>
        <time>2016-07-07T13:20:28Z</time>
      </trkpt>
      <trkpt lat="43.40514" lon="-6.31601">
        <ele>645.8</ele>
        <time>2016-07-07T13:20:36Z</time>
      </trkpt>
      <trkpt lat="43.40507" lon="-6.31611">
        <ele>645.6</ele>
        <time>2016-07-07T13:20:44Z</time>
      </trkpt>
      <trkpt lat="43.40499" lon="-6.31619">
        <ele>645</ele>
        <time>2016-07-07T13:20:52Z</time>
      </trkpt>
      <trkpt lat="43.40492" lon="-6.31627">
        <ele>644.8</ele>
        <time>2016-07-07T13:21:00Z</time>
      </trkpt>
      <trkpt lat="43.40484" lon="-6.31635">
        <ele>644.7</ele>
        <time>2016-07-07T13:21:08Z</time>
      </trkpt>
      <trkpt lat="43.40477" lon="-6.31642">
        <ele>644.2</ele>
        <time>2016-07-07T13:21:16Z</time>
      </trkpt>
      <trkpt lat="43.40468" lon="-6.31649">
        <ele>643.9</ele>
        <time>2016-07-07T13:21:24Z</time>
      </trkpt>
      <trkpt lat="43.40461" lon="-6.31656">
        <ele>643.8</ele>
        <time>2016-07-07T13:21:32Z</time>
      </trkpt>
      <trkpt lat="43.40452" lon="-6.31663">
        <ele>643.7</ele>
        <time>2016-07-07T13:21:40Z</time>
      </trkpt>
      <trkpt lat="43.40444" lon="-6.31671">
        <ele>643.4</ele>
        <time>2016-07-07T13:21:48Z</time>
      </trkpt>
      <trkpt lat="43.40435" lon="-6.31678">
        <ele>643</ele>
        <time>2016-07-07T13:21:57Z</time>
      </trkpt>
      <trkpt lat="43.40427" lon="-6.31683">
        <ele>642.8</ele>
        <time>2016-07-07T13:22:06Z</time>
      </trkpt>
      <trkpt lat="43.40418" lon="-6.3169">
        <ele>642.8</ele>
        <time>2016-07-07T13:22:15Z</time>
      </trkpt>
      <trkpt lat="43.4041" lon="-6.31698">
        <ele>642.6</ele>
        <time>2016-07-07T13:22:23Z</time>
      </trkpt>
      <trkpt lat="43.40402" lon="-6.31706">
        <ele>642.3</ele>
        <time>2016-07-07T13:22:31Z</time>
      </trkpt>
      <trkpt lat="43.40394" lon="-6.31714">
        <ele>642</ele>
        <time>2016-07-07T13:22:39Z</time>
      </trkpt>
      <trkpt lat="43.40387" lon="-6.31722">
        <ele>641.8</ele>
        <time>2016-07-07T13:22:47Z</time>
      </trkpt>
      <trkpt lat="43.40381" lon="-6.31731">
        <ele>641.5</ele>
        <time>2016-07-07T13:22:55Z</time>
      </trkpt>
      <trkpt lat="43.40374" lon="-6.31741">
        <ele>641.2</ele>
        <time>2016-07-07T13:23:04Z</time>
      </trkpt>
      <trkpt lat="43.40368" lon="-6.31751">
        <ele>641</ele>
        <time>2016-07-07T13:23:12Z</time>
      </trkpt>
      <trkpt lat="43.40361" lon="-6.3176">
        <ele>640.7</ele>
        <time>2016-07-07T13:23:19Z</time>
      </trkpt>
      <trkpt lat="43.40354" lon="-6.31768">
        <ele>640.4</ele>
        <time>2016-07-07T13:23:26Z</time>
      </trkpt>
      <trkpt lat="43.40346" lon="-6.31777">
        <ele>639.7</ele>
        <time>2016-07-07T13:23:34Z</time>
      </trkpt>
      <trkpt lat="43.40339" lon="-6.31785">
        <ele>639.2</ele>
        <time>2016-07-07T13:23:42Z</time>
      </trkpt>
      <trkpt lat="43.40332" lon="-6.31795">
        <ele>639</ele>
        <time>2016-07-07T13:23:49Z</time>
      </trkpt>
      <trkpt lat="43.40326" lon="-6.31803">
        <ele>638.9</ele>
        <time>2016-07-07T13:23:57Z</time>
      </trkpt>
      <trkpt lat="43.40319" lon="-6.31812">
        <ele>638.8</ele>
        <time>2016-07-07T13:24:06Z</time>
      </trkpt>
      <trkpt lat="43.40312" lon="-6.3182">
        <ele>638.7</ele>
        <time>2016-07-07T13:24:15Z</time>
      </trkpt>
      <trkpt lat="43.40304" lon="-6.31829">
        <ele>638.6</ele>
        <time>2016-07-07T13:24:24Z</time>
      </trkpt>
      <trkpt lat="43.40296" lon="-6.31837">
        <ele>638.7</ele>
        <time>2016-07-07T13:24:33Z</time>
      </trkpt>
      <trkpt lat="43.40288" lon="-6.31845">
        <ele>638.5</ele>
        <time>2016-07-07T13:24:41Z</time>
      </trkpt>
      <trkpt lat="43.40281" lon="-6.31854">
        <ele>638.3</ele>
        <time>2016-07-07T13:24:49Z</time>
      </trkpt>
      <trkpt lat="43.40274" lon="-6.31862">
        <ele>637.9</ele>
        <time>2016-07-07T13:24:56Z</time>
      </trkpt>
      <trkpt lat="43.40266" lon="-6.3187">
        <ele>637.1</ele>
        <time>2016-07-07T13:25:05Z</time>
      </trkpt>
      <trkpt lat="43.40258" lon="-6.31878">
        <ele>636.6</ele>
        <time>2016-07-07T13:25:13Z</time>
      </trkpt>
      <trkpt lat="43.40251" lon="-6.31886">
        <ele>636.3</ele>
        <time>2016-07-07T13:25:21Z</time>
      </trkpt>
      <trkpt lat="43.40242" lon="-6.31893">
        <ele>636.1</ele>
        <time>2016-07-07T13:25:30Z</time>
      </trkpt>
      <trkpt lat="43.40233" lon="-6.31896">
        <ele>635.8</ele>
        <time>2016-07-07T13:25:39Z</time>
      </trkpt>
      <trkpt lat="43.40223" lon="-6.31897">
        <ele>635.4</ele>
        <time>2016-07-07T13:25:48Z</time>
      </trkpt>
      <trkpt lat="43.40213" lon="-6.31897">
        <ele>635.1</ele>
        <time>2016-07-07T13:25:57Z</time>
      </trkpt>
      <trkpt lat="43.40203" lon="-6.31898">
        <ele>634.8</ele>
        <time>2016-07-07T13:26:05Z</time>
      </trkpt>
      <trkpt lat="43.40193" lon="-6.31898">
        <ele>634.3</ele>
        <time>2016-07-07T13:26:12Z</time>
      </trkpt>
      <trkpt lat="43.40184" lon="-6.31897">
        <ele>633.8</ele>
        <time>2016-07-07T13:26:19Z</time>
      </trkpt>
      <trkpt lat="43.40174" lon="-6.31898">
        <ele>633.4</ele>
        <time>2016-07-07T13:26:27Z</time>
      </trkpt>
      <trkpt lat="43.40165" lon="-6.31901">
        <ele>632.8</ele>
        <time>2016-07-07T13:26:34Z</time>
      </trkpt>
      <trkpt lat="43.40157" lon="-6.31905">
        <ele>632.3</ele>
        <time>2016-07-07T13:26:41Z</time>
      </trkpt>
      <trkpt lat="43.40147" lon="-6.31911">
        <ele>632.1</ele>
        <time>2016-07-07T13:26:48Z</time>
      </trkpt>
      <trkpt lat="43.40141" lon="-6.31922">
        <ele>631.5</ele>
        <time>2016-07-07T13:26:56Z</time>
      </trkpt>
      <trkpt lat="43.4014" lon="-6.31935">
        <ele>630.9</ele>
        <time>2016-07-07T13:27:05Z</time>
      </trkpt>
      <trkpt lat="43.40143" lon="-6.31947">
        <ele>629.6</ele>
        <time>2016-07-07T13:27:12Z</time>
      </trkpt>
      <trkpt lat="43.40143" lon="-6.31961">
        <ele>628.8</ele>
        <time>2016-07-07T13:27:20Z</time>
      </trkpt>
      <trkpt lat="43.4014" lon="-6.31973">
        <ele>628.4</ele>
        <time>2016-07-07T13:27:26Z</time>
      </trkpt>
      <trkpt lat="43.40137" lon="-6.31987">
        <ele>628.2</ele>
        <time>2016-07-07T13:27:33Z</time>
      </trkpt>
      <trkpt lat="43.40132" lon="-6.31997">
        <ele>628</ele>
        <time>2016-07-07T13:27:40Z</time>
      </trkpt>
      <trkpt lat="43.40125" lon="-6.32007">
        <ele>627.3</ele>
        <time>2016-07-07T13:27:48Z</time>
      </trkpt>
      <trkpt lat="43.40116" lon="-6.32011">
        <ele>626.9</ele>
        <time>2016-07-07T13:27:57Z</time>
      </trkpt>
      <trkpt lat="43.40107" lon="-6.32015">
        <ele>626.8</ele>
        <time>2016-07-07T13:28:07Z</time>
      </trkpt>
      <trkpt lat="43.40097" lon="-6.32022">
        <ele>626.7</ele>
        <time>2016-07-07T13:28:16Z</time>
      </trkpt>
      <trkpt lat="43.40089" lon="-6.32027">
        <ele>626.4</ele>
        <time>2016-07-07T13:28:24Z</time>
      </trkpt>
      <trkpt lat="43.4008" lon="-6.32031">
        <ele>626.3</ele>
        <time>2016-07-07T13:28:32Z</time>
      </trkpt>
      <trkpt lat="43.40071" lon="-6.32036">
        <ele>626.2</ele>
        <time>2016-07-07T13:28:40Z</time>
      </trkpt>
      <trkpt lat="43.40063" lon="-6.32042">
        <ele>626</ele>
        <time>2016-07-07T13:28:53Z</time>
      </trkpt>
      <trkpt lat="43.40054" lon="-6.32048">
        <ele>625.9</ele>
        <time>2016-07-07T13:29:03Z</time>
      </trkpt>
      <trkpt lat="43.40046" lon="-6.32053">
        <ele>625.8</ele>
        <time>2016-07-07T13:29:11Z</time>
      </trkpt>
      <trkpt lat="43.40037" lon="-6.3206">
        <ele>625.2</ele>
        <time>2016-07-07T13:29:20Z</time>
      </trkpt>
      <trkpt lat="43.40029" lon="-6.32066">
        <ele>625.1</ele>
        <time>2016-07-07T13:29:28Z</time>
      </trkpt>
      <trkpt lat="43.40022" lon="-6.32075">
        <ele>624.6</ele>
        <time>2016-07-07T13:29:36Z</time>
      </trkpt>
      <trkpt lat="43.40015" lon="-6.32085">
        <ele>624.7</ele>
        <time>2016-07-07T13:29:44Z</time>
      </trkpt>
      <trkpt lat="43.40008" lon="-6.32093">
        <ele>624.4</ele>
        <time>2016-07-07T13:29:52Z</time>
      </trkpt>
      <trkpt lat="43.4" lon="-6.32101">
        <ele>623.9</ele>
        <time>2016-07-07T13:30:00Z</time>
      </trkpt>
      <trkpt lat="43.39992" lon="-6.32107">
        <ele>623.5</ele>
        <time>2016-07-07T13:30:08Z</time>
      </trkpt>
      <trkpt lat="43.39984" lon="-6.32113">
        <ele>623.2</ele>
        <time>2016-07-07T13:30:16Z</time>
      </trkpt>
      <trkpt lat="43.39975" lon="-6.32117">
        <ele>623</ele>
        <time>2016-07-07T13:30:26Z</time>
      </trkpt>
      <trkpt lat="43.39965" lon="-6.32119">
        <ele>622.9</ele>
        <time>2016-07-07T13:30:36Z</time>
      </trkpt>
      <trkpt lat="43.39956" lon="-6.32121">
        <ele>622.8</ele>
        <time>2016-07-07T13:30:44Z</time>
      </trkpt>
      <trkpt lat="43.39947" lon="-6.32127">
        <ele>622.8</ele>
        <time>2016-07-07T13:30:52Z</time>
      </trkpt>
      <trkpt lat="43.39939" lon="-6.32134">
        <ele>622.8</ele>
        <time>2016-07-07T13:31:00Z</time>
      </trkpt>
      <trkpt lat="43.39933" lon="-6.32145">
        <ele>622.5</ele>
        <time>2016-07-07T13:31:09Z</time>
      </trkpt>
      <trkpt lat="43.3993" lon="-6.32158">
        <ele>622.7</ele>
        <time>2016-07-07T13:31:19Z</time>
      </trkpt>
      <trkpt lat="43.39931" lon="-6.32171">
        <ele>623.1</ele>
        <time>2016-07-07T13:31:28Z</time>
      </trkpt>
      <trkpt lat="43.39937" lon="-6.32181">
        <ele>623.5</ele>
        <time>2016-07-07T13:31:36Z</time>
      </trkpt>
      <trkpt lat="43.39945" lon="-6.3219">
        <ele>624.2</ele>
        <time>2016-07-07T13:31:45Z</time>
      </trkpt>
      <trkpt lat="43.39951" lon="-6.32199">
        <ele>624.7</ele>
        <time>2016-07-07T13:31:55Z</time>
      </trkpt>
      <trkpt lat="43.39958" lon="-6.32208">
        <ele>625.4</ele>
        <time>2016-07-07T13:32:06Z</time>
      </trkpt>
      <trkpt lat="43.39966" lon="-6.32216">
        <ele>626</ele>
        <time>2016-07-07T13:32:14Z</time>
      </trkpt>
      <trkpt lat="43.39974" lon="-6.32223">
        <ele>627.3</ele>
        <time>2016-07-07T13:32:24Z</time>
      </trkpt>
      <trkpt lat="43.39981" lon="-6.32232">
        <ele>628</ele>
        <time>2016-07-07T13:32:35Z</time>
      </trkpt>
      <trkpt lat="43.39987" lon="-6.32241">
        <ele>629.1</ele>
        <time>2016-07-07T13:32:53Z</time>
      </trkpt>
      <trkpt lat="43.39994" lon="-6.3225">
        <ele>629.4</ele>
        <time>2016-07-07T13:33:02Z</time>
      </trkpt>
      <trkpt lat="43.39999" lon="-6.32261">
        <ele>629.8</ele>
        <time>2016-07-07T13:33:12Z</time>
      </trkpt>
      <trkpt lat="43.40005" lon="-6.32271">
        <ele>630.1</ele>
        <time>2016-07-07T13:33:21Z</time>
      </trkpt>
      <trkpt lat="43.4001" lon="-6.32282">
        <ele>630.6</ele>
        <time>2016-07-07T13:33:35Z</time>
      </trkpt>
      <trkpt lat="43.40014" lon="-6.32291">
        <ele>631.3</ele>
        <time>2016-07-07T13:34:10Z</time>
      </trkpt>
    </trkseg>
  </trk>
</gpx>